<?xml version='1.0' encoding='UTF-8'?><gpx version="1.1" creator="JPX - https://github.com/jenetics/jpx" xmlns="http://www.topografix.com/GPX/1/1"><trk><trkseg><trkpt lat="45.3378411" lon="8.8765282"><ele>86.0</ele><time>2026-04-12T13:59:51.942Z</time></trkpt><trkpt lat="45.3377817" lon="8.8764857"><ele>86.0</ele><time>2026-04-12T13:59:52.942Z</time></trkpt><trkpt lat="45.3377144" lon="8.8764347"><ele>86.0</ele><time>2026-04-12T13:59:53.943Z</time></trkpt><trkpt lat="45.3376455" lon="8.8763821"><ele>86.0</ele><time>2026-04-12T13:59:54.942Z</time></trkpt><trkpt lat="45.3375687" lon="8.8763219"><ele>86.0</ele><time>2026-04-12T13:59:55.942Z</time></trkpt><trkpt lat="45.3374936" lon="8.8762656"><ele>86.0</ele><time>2026-04-12T13:59:56.942Z</time></trkpt><trkpt lat="45.3374238" lon="8.8762244"><ele>86.0</ele><time>2026-04-12T13:59:57.942Z</time></trkpt><trkpt lat="45.3373647" lon="8.8761915"><ele>86.0</ele><time>2026-04-12T13:59:58.943Z</time></trkpt><trkpt lat="45.3373216" lon="8.8761244"><ele>86.0</ele><time>2026-04-12T14:00:00.919Z</time></trkpt><trkpt lat="45.3373341" lon="8.876014"><ele>86.0</ele><time>2026-04-12T14:00:02.922Z</time></trkpt><trkpt lat="45.3373847" lon="8.8758834"><ele>86.0</ele><time>2026-04-12T14:00:04.943Z</time></trkpt><trkpt lat="45.3374523" lon="8.8757394"><ele>86.0</ele><time>2026-04-12T14:00:06.943Z</time></trkpt><trkpt lat="45.3374797" lon="8.8756575"><ele>85.83333333333334</ele><time>2026-04-12T14:00:08.943Z</time></trkpt><trkpt lat="45.337444" lon="8.8755699"><ele>85.66666666666667</ele><time>2026-04-12T14:00:10.943Z</time></trkpt><trkpt lat="45.3373952" lon="8.875511"><ele>85.5</ele><time>2026-04-12T14:00:11.942Z</time></trkpt><trkpt lat="45.3373238" lon="8.8754534"><ele>85.33333333333333</ele><time>2026-04-12T14:00:12.942Z</time></trkpt><trkpt lat="45.3372372" lon="8.8753801"><ele>85.16666666666666</ele><time>2026-04-12T14:00:13.942Z</time></trkpt><trkpt lat="45.3371429" lon="8.8753111"><ele>85.0</ele><time>2026-04-12T14:00:14.942Z</time></trkpt><trkpt lat="45.3370259" lon="8.8752146"><ele>85.25</ele><time>2026-04-12T14:00:15.942Z</time></trkpt><trkpt lat="45.3369166" lon="8.8751224"><ele>85.5</ele><time>2026-04-12T14:00:16.942Z</time></trkpt><trkpt lat="45.3368083" lon="8.8750362"><ele>85.75</ele><time>2026-04-12T14:00:17.943Z</time></trkpt><trkpt lat="45.3367108" lon="8.8749587"><ele>86.0</ele><time>2026-04-12T14:00:18.922Z</time></trkpt><trkpt lat="45.3366203" lon="8.8748884"><ele>86.0</ele><time>2026-04-12T14:00:19.925Z</time></trkpt><trkpt lat="45.336548" lon="8.8748164"><ele>86.0</ele><time>2026-04-12T14:00:20.924Z</time></trkpt><trkpt lat="45.33648" lon="8.8747414"><ele>86.0</ele><time>2026-04-12T14:00:21.929Z</time></trkpt><trkpt lat="45.3363445" lon="8.8746812"><ele>86.0</ele><time>2026-04-12T14:00:22.942Z</time></trkpt><trkpt lat="45.3362715" lon="8.8746269"><ele>86.0</ele><time>2026-04-12T14:00:23.942Z</time></trkpt><trkpt lat="45.3362052" lon="8.8745664"><ele>86.19999999999999</ele><time>2026-04-12T14:00:24.942Z</time></trkpt><trkpt lat="45.336151" lon="8.8745067"><ele>86.39999999999999</ele><time>2026-04-12T14:00:25.942Z</time></trkpt><trkpt lat="45.3361027" lon="8.8743323"><ele>86.6</ele><time>2026-04-12T14:00:27.942Z</time></trkpt><trkpt lat="45.3361036" lon="8.874201"><ele>86.8</ele><time>2026-04-12T14:00:28.944Z</time></trkpt><trkpt lat="45.3361175" lon="8.8740466"><ele>87.0</ele><time>2026-04-12T14:00:29.943Z</time></trkpt><trkpt lat="45.3361294" lon="8.8738698"><ele>86.75</ele><time>2026-04-12T14:00:30.926Z</time></trkpt><trkpt lat="45.3361478" lon="8.8736896"><ele>86.5</ele><time>2026-04-12T14:00:31.923Z</time></trkpt><trkpt lat="45.3361666" lon="8.8735046"><ele>86.25</ele><time>2026-04-12T14:00:32.922Z</time></trkpt><trkpt lat="45.3361818" lon="8.8733264"><ele>86.0</ele><time>2026-04-12T14:00:33.923Z</time></trkpt><trkpt lat="45.3362018" lon="8.8731614"><ele>86.0</ele><time>2026-04-12T14:00:34.942Z</time></trkpt><trkpt lat="45.336216" lon="8.8730152"><ele>86.0</ele><time>2026-04-12T14:00:35.942Z</time></trkpt><trkpt lat="45.3362419" lon="8.8728889"><ele>86.0</ele><time>2026-04-12T14:00:36.943Z</time></trkpt><trkpt lat="45.3362828" lon="8.8727895"><ele>86.0</ele><time>2026-04-12T14:00:37.942Z</time></trkpt><trkpt lat="45.3363438" lon="8.8727071"><ele>86.0</ele><time>2026-04-12T14:00:38.942Z</time></trkpt><trkpt lat="45.3364207" lon="8.8726372"><ele>86.0</ele><time>2026-04-12T14:00:39.942Z</time></trkpt><trkpt lat="45.3364991" lon="8.8725671"><ele>86.0</ele><time>2026-04-12T14:00:40.943Z</time></trkpt><trkpt lat="45.3365844" lon="8.8724947"><ele>86.0</ele><time>2026-04-12T14:00:41.942Z</time></trkpt><trkpt lat="45.3366675" lon="8.8724235"><ele>86.0</ele><time>2026-04-12T14:00:42.942Z</time></trkpt><trkpt lat="45.3367537" lon="8.8723504"><ele>86.0</ele><time>2026-04-12T14:00:43.942Z</time></trkpt><trkpt lat="45.3368389" lon="8.8722668"><ele>86.0</ele><time>2026-04-12T14:00:44.943Z</time></trkpt><trkpt lat="45.3369452" lon="8.8721853"><ele>86.0</ele><time>2026-04-12T14:00:45.942Z</time></trkpt><trkpt lat="45.3370577" lon="8.8721066"><ele>86.0</ele><time>2026-04-12T14:00:46.942Z</time></trkpt><trkpt lat="45.3371684" lon="8.8720421"><ele>86.0</ele><time>2026-04-12T14:00:47.942Z</time></trkpt><trkpt lat="45.3372778" lon="8.871994"><ele>86.0</ele><time>2026-04-12T14:00:48.942Z</time></trkpt><trkpt lat="45.3373698" lon="8.8719514"><ele>86.0</ele><time>2026-04-12T14:00:49.942Z</time></trkpt><trkpt lat="45.337449" lon="8.8719107"><ele>86.0</ele><time>2026-04-12T14:00:50.942Z</time></trkpt><trkpt lat="45.3375202" lon="8.8718781"><ele>86.0</ele><time>2026-04-12T14:00:51.942Z</time></trkpt><trkpt lat="45.337591" lon="8.871866"><ele>86.0</ele><time>2026-04-12T14:00:52.942Z</time></trkpt><trkpt lat="45.3376875" lon="8.8717813"><ele>86.0</ele><time>2026-04-12T14:00:54.942Z</time></trkpt><trkpt lat="45.3377303" lon="8.8716363"><ele>86.0</ele><time>2026-04-12T14:00:56.942Z</time></trkpt><trkpt lat="45.3377369" lon="8.8715449"><ele>86.0</ele><time>2026-04-12T14:00:57.942Z</time></trkpt><trkpt lat="45.3377453" lon="8.8714531"><ele>86.0</ele><time>2026-04-12T14:00:58.942Z</time></trkpt><trkpt lat="45.337746" lon="8.8713603"><ele>86.0</ele><time>2026-04-12T14:00:59.942Z</time></trkpt><trkpt lat="45.3377611" lon="8.8711949"><ele>86.0</ele><time>2026-04-12T14:01:01.942Z</time></trkpt><trkpt lat="45.3378021" lon="8.8710183"><ele>86.0</ele><time>2026-04-12T14:01:03.942Z</time></trkpt><trkpt lat="45.3378389" lon="8.8709386"><ele>86.33333333333334</ele><time>2026-04-12T14:01:04.942Z</time></trkpt><trkpt lat="45.3378961" lon="8.8708599"><ele>86.66666666666667</ele><time>2026-04-12T14:01:05.942Z</time></trkpt><trkpt lat="45.3379691" lon="8.8707915"><ele>87.0</ele><time>2026-04-12T14:01:06.942Z</time></trkpt><trkpt lat="45.3380509" lon="8.8707291"><ele>87.33333333333333</ele><time>2026-04-12T14:01:07.942Z</time></trkpt><trkpt lat="45.3381321" lon="8.8706692"><ele>87.66666666666666</ele><time>2026-04-12T14:01:08.942Z</time></trkpt><trkpt lat="45.3382057" lon="8.8706062"><ele>88.0</ele><time>2026-04-12T14:01:09.942Z</time></trkpt><trkpt lat="45.3382648" lon="8.8705579"><ele>88.0</ele><time>2026-04-12T14:01:10.943Z</time></trkpt><trkpt lat="45.3383461" lon="8.8705037"><ele>88.0</ele><time>2026-04-12T14:01:12.943Z</time></trkpt><trkpt lat="45.3384035" lon="8.8704655"><ele>88.0</ele><time>2026-04-12T14:01:15.942Z</time></trkpt><trkpt lat="45.3383868" lon="8.8703349"><ele>88.0</ele><time>2026-04-12T14:01:20.942Z</time></trkpt><trkpt lat="45.3383397" lon="8.870241"><ele>88.0</ele><time>2026-04-12T14:01:23.942Z</time></trkpt><trkpt lat="45.3382361" lon="8.8702264"><ele>88.0</ele><time>2026-04-12T14:01:26.942Z</time></trkpt><trkpt lat="45.3381326" lon="8.8701863"><ele>90.0</ele><time>2026-04-12T14:01:28.943Z</time></trkpt><trkpt lat="45.3380301" lon="8.8701512"><ele>92.0</ele><time>2026-04-12T14:01:30.942Z</time></trkpt><trkpt lat="45.3379188" lon="8.8701753"><ele>94.0</ele><time>2026-04-12T14:01:32.942Z</time></trkpt><trkpt lat="45.337803" lon="8.8702067"><ele>96.0</ele><time>2026-04-12T14:01:34.942Z</time></trkpt><trkpt lat="45.3376849" lon="8.8702322"><ele>96.0</ele><time>2026-04-12T14:01:36.943Z</time></trkpt><trkpt lat="45.3376217" lon="8.8702417"><ele>96.0</ele><time>2026-04-12T14:01:37.942Z</time></trkpt><trkpt lat="45.3375158" lon="8.8702551"><ele>96.0</ele><time>2026-04-12T14:01:39.942Z</time></trkpt><trkpt lat="45.3374488" lon="8.8702085"><ele>96.0</ele><time>2026-04-12T14:01:41.942Z</time></trkpt><trkpt lat="45.3374145" lon="8.8700804"><ele>96.0</ele><time>2026-04-12T14:01:43.943Z</time></trkpt><trkpt lat="45.3373946" lon="8.8699366"><ele>96.0</ele><time>2026-04-12T14:01:45.942Z</time></trkpt><trkpt lat="45.3373782" lon="8.8698236"><ele>97.4</ele><time>2026-04-12T14:01:46.943Z</time></trkpt><trkpt lat="45.3373595" lon="8.8696925"><ele>98.8</ele><time>2026-04-12T14:01:47.942Z</time></trkpt><trkpt lat="45.3373343" lon="8.8695612"><ele>100.2</ele><time>2026-04-12T14:01:48.942Z</time></trkpt><trkpt lat="45.337316" lon="8.869418"><ele>101.60000000000001</ele><time>2026-04-12T14:01:49.942Z</time></trkpt><trkpt lat="45.337291" lon="8.8692685"><ele>103.0</ele><time>2026-04-12T14:01:50.942Z</time></trkpt><trkpt lat="45.3372674" lon="8.8691056"><ele>103.2</ele><time>2026-04-12T14:01:51.942Z</time></trkpt><trkpt lat="45.3372484" lon="8.8689472"><ele>103.4</ele><time>2026-04-12T14:01:52.942Z</time></trkpt><trkpt lat="45.3372297" lon="8.8688045"><ele>103.60000000000001</ele><time>2026-04-12T14:01:53.942Z</time></trkpt><trkpt lat="45.337208" lon="8.8686724"><ele>103.80000000000001</ele><time>2026-04-12T14:01:54.942Z</time></trkpt><trkpt lat="45.337191" lon="8.8685719"><ele>104.0</ele><time>2026-04-12T14:01:55.942Z</time></trkpt><trkpt lat="45.3371436" lon="8.8684616"><ele>104.2</ele><time>2026-04-12T14:01:57.942Z</time></trkpt><trkpt lat="45.3370856" lon="8.8684146"><ele>104.4</ele><time>2026-04-12T14:01:59.942Z</time></trkpt><trkpt lat="45.3369485" lon="8.8684002"><ele>104.6</ele><time>2026-04-12T14:02:01.942Z</time></trkpt><trkpt lat="45.3368441" lon="8.8683872"><ele>104.8</ele><time>2026-04-12T14:02:02.942Z</time></trkpt><trkpt lat="45.336728" lon="8.8683764"><ele>105.0</ele><time>2026-04-12T14:02:03.942Z</time></trkpt><trkpt lat="45.3366108" lon="8.8683685"><ele>105.0</ele><time>2026-04-12T14:02:04.943Z</time></trkpt><trkpt lat="45.336501" lon="8.8683501"><ele>105.0</ele><time>2026-04-12T14:02:05.941Z</time></trkpt><trkpt lat="45.3364057" lon="8.8683101"><ele>105.0</ele><time>2026-04-12T14:02:06.941Z</time></trkpt><trkpt lat="45.336318" lon="8.8682502"><ele>105.0</ele><time>2026-04-12T14:02:07.942Z</time></trkpt><trkpt lat="45.3362623" lon="8.8681349"><ele>105.0</ele><time>2026-04-12T14:02:08.942Z</time></trkpt><trkpt lat="45.3362197" lon="8.8679811"><ele>105.0</ele><time>2026-04-12T14:02:09.942Z</time></trkpt><trkpt lat="45.3361836" lon="8.8677981"><ele>105.0</ele><time>2026-04-12T14:02:10.943Z</time></trkpt><trkpt lat="45.336146" lon="8.8675921"><ele>105.0</ele><time>2026-04-12T14:02:11.941Z</time></trkpt><trkpt lat="45.3360977" lon="8.8673737"><ele>105.0</ele><time>2026-04-12T14:02:12.942Z</time></trkpt><trkpt lat="45.3360416" lon="8.8671393"><ele>104.66666666666666</ele><time>2026-04-12T14:02:13.942Z</time></trkpt><trkpt lat="45.3359876" lon="8.8669003"><ele>104.33333333333333</ele><time>2026-04-12T14:02:14.942Z</time></trkpt><trkpt lat="45.3359353" lon="8.8666617"><ele>104.0</ele><time>2026-04-12T14:02:15.942Z</time></trkpt><trkpt lat="45.3358868" lon="8.8664487"><ele>104.0</ele><time>2026-04-12T14:02:16.941Z</time></trkpt><trkpt lat="45.3358443" lon="8.8662446"><ele>104.0</ele><time>2026-04-12T14:02:17.941Z</time></trkpt><trkpt lat="45.3358042" lon="8.8660565"><ele>104.0</ele><time>2026-04-12T14:02:18.941Z</time></trkpt><trkpt lat="45.3357651" lon="8.8658824"><ele>104.0</ele><time>2026-04-12T14:02:19.942Z</time></trkpt><trkpt lat="45.335728" lon="8.8657209"><ele>103.80000000000001</ele><time>2026-04-12T14:02:20.942Z</time></trkpt><trkpt lat="45.335695" lon="8.8655621"><ele>103.60000000000001</ele><time>2026-04-12T14:02:21.942Z</time></trkpt><trkpt lat="45.3356603" lon="8.8654069"><ele>103.4</ele><time>2026-04-12T14:02:22.941Z</time></trkpt><trkpt lat="45.3356264" lon="8.8652577"><ele>103.2</ele><time>2026-04-12T14:02:23.942Z</time></trkpt><trkpt lat="45.3355939" lon="8.8651198"><ele>103.0</ele><time>2026-04-12T14:02:24.942Z</time></trkpt><trkpt lat="45.3355622" lon="8.8649874"><ele>103.00000000000001</ele><time>2026-04-12T14:02:25.942Z</time></trkpt><trkpt lat="45.3355453" lon="8.8648597"><ele>103.0</ele><time>2026-04-12T14:02:26.942Z</time></trkpt><trkpt lat="45.3355484" lon="8.8647462"><ele>103.0</ele><time>2026-04-12T14:02:27.942Z</time></trkpt><trkpt lat="45.3355788" lon="8.864654"><ele>103.0</ele><time>2026-04-12T14:02:28.942Z</time></trkpt><trkpt lat="45.3356933" lon="8.8645699"><ele>103.00000000000001</ele><time>2026-04-12T14:02:30.943Z</time></trkpt><trkpt lat="45.3357592" lon="8.8645292"><ele>103.0</ele><time>2026-04-12T14:02:31.942Z</time></trkpt><trkpt lat="45.3358225" lon="8.8643997"><ele>103.16666666666667</ele><time>2026-04-12T14:02:33.943Z</time></trkpt><trkpt lat="45.3358247" lon="8.8642736"><ele>103.33333333333334</ele><time>2026-04-12T14:02:35.943Z</time></trkpt><trkpt lat="45.3358279" lon="8.8641351"><ele>103.5</ele><time>2026-04-12T14:02:37.941Z</time></trkpt><trkpt lat="45.3358121" lon="8.8640428"><ele>103.66666666666666</ele><time>2026-04-12T14:02:38.942Z</time></trkpt><trkpt lat="45.3357812" lon="8.8639647"><ele>103.83333333333333</ele><time>2026-04-12T14:02:39.942Z</time></trkpt><trkpt lat="45.3357309" lon="8.8639006"><ele>104.0</ele><time>2026-04-12T14:02:40.942Z</time></trkpt><trkpt lat="45.3356581" lon="8.8638478"><ele>104.0</ele><time>2026-04-12T14:02:41.942Z</time></trkpt><trkpt lat="45.3355647" lon="8.863796"><ele>104.0</ele><time>2026-04-12T14:02:42.942Z</time></trkpt><trkpt lat="45.3354668" lon="8.8637609"><ele>104.0</ele><time>2026-04-12T14:02:43.942Z</time></trkpt><trkpt lat="45.3353798" lon="8.8637196"><ele>104.0</ele><time>2026-04-12T14:02:44.942Z</time></trkpt><trkpt lat="45.3353162" lon="8.8636465"><ele>104.0</ele><time>2026-04-12T14:02:45.942Z</time></trkpt><trkpt lat="45.3352715" lon="8.8635249"><ele>104.25</ele><time>2026-04-12T14:02:46.942Z</time></trkpt><trkpt lat="45.335234" lon="8.8633673"><ele>104.5</ele><time>2026-04-12T14:02:47.943Z</time></trkpt><trkpt lat="45.3351925" lon="8.8631724"><ele>104.75</ele><time>2026-04-12T14:02:48.942Z</time></trkpt><trkpt lat="45.3351512" lon="8.8629516"><ele>105.0</ele><time>2026-04-12T14:02:49.942Z</time></trkpt><trkpt lat="45.3351074" lon="8.8627383"><ele>104.75</ele><time>2026-04-12T14:02:50.942Z</time></trkpt><trkpt lat="45.3350667" lon="8.8625377"><ele>104.5</ele><time>2026-04-12T14:02:51.942Z</time></trkpt><trkpt lat="45.3350298" lon="8.8623411"><ele>104.25</ele><time>2026-04-12T14:02:52.942Z</time></trkpt><trkpt lat="45.3349952" lon="8.8621572"><ele>104.0</ele><time>2026-04-12T14:02:53.941Z</time></trkpt><trkpt lat="45.3349632" lon="8.8619551"><ele>103.75</ele><time>2026-04-12T14:02:54.941Z</time></trkpt><trkpt lat="45.3349295" lon="8.8617559"><ele>103.5</ele><time>2026-04-12T14:02:55.941Z</time></trkpt><trkpt lat="45.3349022" lon="8.8615441"><ele>103.25</ele><time>2026-04-12T14:02:56.942Z</time></trkpt><trkpt lat="45.3348777" lon="8.8613301"><ele>103.0</ele><time>2026-04-12T14:02:57.942Z</time></trkpt><trkpt lat="45.3348507" lon="8.8611427"><ele>103.0</ele><time>2026-04-12T14:02:58.941Z</time></trkpt><trkpt lat="45.3348309" lon="8.8609586"><ele>103.0</ele><time>2026-04-12T14:02:59.941Z</time></trkpt><trkpt lat="45.3348137" lon="8.8607854"><ele>103.0</ele><time>2026-04-12T14:03:00.942Z</time></trkpt><trkpt lat="45.3348006" lon="8.8606396"><ele>103.0</ele><time>2026-04-12T14:03:01.942Z</time></trkpt><trkpt lat="45.3347958" lon="8.8605168"><ele>103.0</ele><time>2026-04-12T14:03:02.943Z</time></trkpt><trkpt lat="45.3347939" lon="8.8604201"><ele>103.4</ele><time>2026-04-12T14:03:03.942Z</time></trkpt><trkpt lat="45.3348271" lon="8.8602734"><ele>103.80000000000001</ele><time>2026-04-12T14:03:05.943Z</time></trkpt><trkpt lat="45.3349035" lon="8.8602038"><ele>104.2</ele><time>2026-04-12T14:03:07.941Z</time></trkpt><trkpt lat="45.3349767" lon="8.8601824"><ele>104.6</ele><time>2026-04-12T14:03:09.942Z</time></trkpt><trkpt lat="45.3350926" lon="8.8601595"><ele>105.0</ele><time>2026-04-12T14:03:30.943Z</time></trkpt><trkpt lat="45.3352226" lon="8.8601231"><ele>105.16666666666667</ele><time>2026-04-12T14:03:32.942Z</time></trkpt><trkpt lat="45.335306" lon="8.8601002"><ele>105.33333333333334</ele><time>2026-04-12T14:03:33.942Z</time></trkpt><trkpt lat="45.3353873" lon="8.8600859"><ele>105.5</ele><time>2026-04-12T14:03:34.941Z</time></trkpt><trkpt lat="45.3354699" lon="8.8600671"><ele>105.66666666666667</ele><time>2026-04-12T14:03:35.942Z</time></trkpt><trkpt lat="45.3355576" lon="8.8600606"><ele>105.83333333333334</ele><time>2026-04-12T14:03:36.941Z</time></trkpt><trkpt lat="45.3356518" lon="8.8600662"><ele>106.0</ele><time>2026-04-12T14:03:37.942Z</time></trkpt><trkpt lat="45.3357573" lon="8.8600807"><ele>106.0</ele><time>2026-04-12T14:03:38.924Z</time></trkpt><trkpt lat="45.3358604" lon="8.8600924"><ele>106.0</ele><time>2026-04-12T14:03:39.93Z</time></trkpt><trkpt lat="45.3359586" lon="8.8601025"><ele>106.0</ele><time>2026-04-12T14:03:40.925Z</time></trkpt><trkpt lat="45.3360516" lon="8.8601157"><ele>106.0</ele><time>2026-04-12T14:03:41.926Z</time></trkpt><trkpt lat="45.336143" lon="8.8601289"><ele>106.0</ele><time>2026-04-12T14:03:42.928Z</time></trkpt><trkpt lat="45.3362328" lon="8.8601444"><ele>105.83333333333334</ele><time>2026-04-12T14:03:43.923Z</time></trkpt><trkpt lat="45.3363137" lon="8.8601596"><ele>105.66666666666667</ele><time>2026-04-12T14:03:44.923Z</time></trkpt><trkpt lat="45.3363833" lon="8.8601707"><ele>105.5</ele><time>2026-04-12T14:03:45.923Z</time></trkpt><trkpt lat="45.3364477" lon="8.860183"><ele>105.33333333333334</ele><time>2026-04-12T14:03:46.923Z</time></trkpt><trkpt lat="45.3365283" lon="8.8602084"><ele>105.16666666666667</ele><time>2026-04-12T14:03:48.924Z</time></trkpt><trkpt lat="45.3366104" lon="8.860217"><ele>105.0</ele><time>2026-04-12T14:04:00.924Z</time></trkpt><trkpt lat="45.3367071" lon="8.860226"><ele>105.5</ele><time>2026-04-12T14:04:02.923Z</time></trkpt><trkpt lat="45.3367781" lon="8.86024"><ele>106.0</ele><time>2026-04-12T14:04:03.923Z</time></trkpt><trkpt lat="45.3368502" lon="8.8602492"><ele>106.5</ele><time>2026-04-12T14:04:04.923Z</time></trkpt><trkpt lat="45.336917" lon="8.8602582"><ele>107.0</ele><time>2026-04-12T14:04:05.923Z</time></trkpt><trkpt lat="45.3370434" lon="8.8602616"><ele>107.5</ele><time>2026-04-12T14:04:07.923Z</time></trkpt><trkpt lat="45.3371171" lon="8.8602505"><ele>108.0</ele><time>2026-04-12T14:04:08.923Z</time></trkpt><trkpt lat="45.3371951" lon="8.8602349"><ele>108.16666666666667</ele><time>2026-04-12T14:04:09.923Z</time></trkpt><trkpt lat="45.3372787" lon="8.8602062"><ele>108.33333333333334</ele><time>2026-04-12T14:04:10.923Z</time></trkpt><trkpt lat="45.3373688" lon="8.8601652"><ele>108.5</ele><time>2026-04-12T14:04:11.923Z</time></trkpt><trkpt lat="45.337456" lon="8.8601199"><ele>108.66666666666667</ele><time>2026-04-12T14:04:12.923Z</time></trkpt><trkpt lat="45.337536" lon="8.8600815"><ele>108.83333333333334</ele><time>2026-04-12T14:04:13.923Z</time></trkpt><trkpt lat="45.3376034" lon="8.8600498"><ele>109.0</ele><time>2026-04-12T14:04:14.924Z</time></trkpt><trkpt lat="45.3376679" lon="8.8600162"><ele>109.00000000000001</ele><time>2026-04-12T14:04:15.924Z</time></trkpt><trkpt lat="45.3377403" lon="8.8599813"><ele>109.0</ele><time>2026-04-12T14:04:16.923Z</time></trkpt><trkpt lat="45.3378132" lon="8.859948"><ele>109.0</ele><time>2026-04-12T14:04:17.923Z</time></trkpt><trkpt lat="45.3378933" lon="8.859918"><ele>109.0</ele><time>2026-04-12T14:04:18.923Z</time></trkpt><trkpt lat="45.3379815" lon="8.8598878"><ele>109.00000000000001</ele><time>2026-04-12T14:04:19.923Z</time></trkpt><trkpt lat="45.3380745" lon="8.8598379"><ele>109.0</ele><time>2026-04-12T14:04:20.923Z</time></trkpt><trkpt lat="45.3381711" lon="8.8597914"><ele>109.0</ele><time>2026-04-12T14:04:21.923Z</time></trkpt><trkpt lat="45.338271" lon="8.8597402"><ele>109.0</ele><time>2026-04-12T14:04:22.923Z</time></trkpt><trkpt lat="45.3383741" lon="8.8596889"><ele>109.0</ele><time>2026-04-12T14:04:23.923Z</time></trkpt><trkpt lat="45.3384867" lon="8.8596382"><ele>109.0</ele><time>2026-04-12T14:04:24.923Z</time></trkpt><trkpt lat="45.3385963" lon="8.8595904"><ele>109.0</ele><time>2026-04-12T14:04:25.923Z</time></trkpt><trkpt lat="45.3387083" lon="8.8595456"><ele>109.0</ele><time>2026-04-12T14:04:26.923Z</time></trkpt><trkpt lat="45.3388132" lon="8.8595035"><ele>109.0</ele><time>2026-04-12T14:04:27.923Z</time></trkpt><trkpt lat="45.338907" lon="8.8594722"><ele>109.0</ele><time>2026-04-12T14:04:28.923Z</time></trkpt><trkpt lat="45.3390016" lon="8.8594399"><ele>109.0</ele><time>2026-04-12T14:04:29.924Z</time></trkpt><trkpt lat="45.3390898" lon="8.8594161"><ele>109.0</ele><time>2026-04-12T14:04:30.923Z</time></trkpt><trkpt lat="45.339178" lon="8.8593928"><ele>108.4</ele><time>2026-04-12T14:04:31.923Z</time></trkpt><trkpt lat="45.3392636" lon="8.8593744"><ele>107.80000000000001</ele><time>2026-04-12T14:04:32.923Z</time></trkpt><trkpt lat="45.3393497" lon="8.8593564"><ele>107.19999999999999</ele><time>2026-04-12T14:04:33.923Z</time></trkpt><trkpt lat="45.3394431" lon="8.8593415"><ele>106.6</ele><time>2026-04-12T14:04:34.923Z</time></trkpt><trkpt lat="45.339538" lon="8.8593363"><ele>106.0</ele><time>2026-04-12T14:04:35.923Z</time></trkpt><trkpt lat="45.3396372" lon="8.8593345"><ele>106.19999999999999</ele><time>2026-04-12T14:04:36.923Z</time></trkpt><trkpt lat="45.3397387" lon="8.8593353"><ele>106.39999999999999</ele><time>2026-04-12T14:04:37.923Z</time></trkpt><trkpt lat="45.339844" lon="8.859334"><ele>106.6</ele><time>2026-04-12T14:04:38.923Z</time></trkpt><trkpt lat="45.3399564" lon="8.8593328"><ele>106.8</ele><time>2026-04-12T14:04:39.923Z</time></trkpt><trkpt lat="45.3400747" lon="8.8593238"><ele>107.0</ele><time>2026-04-12T14:04:40.923Z</time></trkpt><trkpt lat="45.3401993" lon="8.8593059"><ele>107.0</ele><time>2026-04-12T14:04:41.923Z</time></trkpt><trkpt lat="45.3403284" lon="8.8592865"><ele>107.0</ele><time>2026-04-12T14:04:42.923Z</time></trkpt><trkpt lat="45.3404484" lon="8.8592679"><ele>107.0</ele><time>2026-04-12T14:04:43.923Z</time></trkpt><trkpt lat="45.3405583" lon="8.8592546"><ele>107.0</ele><time>2026-04-12T14:04:44.923Z</time></trkpt><trkpt lat="45.3406661" lon="8.8592423"><ele>107.25</ele><time>2026-04-12T14:04:45.923Z</time></trkpt><trkpt lat="45.3407773" lon="8.8592277"><ele>107.5</ele><time>2026-04-12T14:04:46.923Z</time></trkpt><trkpt lat="45.3408957" lon="8.859206"><ele>107.75</ele><time>2026-04-12T14:04:47.923Z</time></trkpt><trkpt lat="45.3410185" lon="8.8591881"><ele>108.0</ele><time>2026-04-12T14:04:48.923Z</time></trkpt><trkpt lat="45.3411461" lon="8.8591749"><ele>108.0</ele><time>2026-04-12T14:04:49.923Z</time></trkpt><trkpt lat="45.3412712" lon="8.8591668"><ele>108.0</ele><time>2026-04-12T14:04:50.923Z</time></trkpt><trkpt lat="45.3413855" lon="8.8591576"><ele>108.0</ele><time>2026-04-12T14:04:51.923Z</time></trkpt><trkpt lat="45.3414927" lon="8.8591468"><ele>108.0</ele><time>2026-04-12T14:04:52.923Z</time></trkpt><trkpt lat="45.341598" lon="8.8591334"><ele>108.0</ele><time>2026-04-12T14:04:53.923Z</time></trkpt><trkpt lat="45.3417081" lon="8.8591117"><ele>108.0</ele><time>2026-04-12T14:04:54.923Z</time></trkpt><trkpt lat="45.34183" lon="8.8590819"><ele>108.0</ele><time>2026-04-12T14:04:55.923Z</time></trkpt><trkpt lat="45.3419524" lon="8.8590503"><ele>108.0</ele><time>2026-04-12T14:04:56.923Z</time></trkpt><trkpt lat="45.3420691" lon="8.8590168"><ele>108.0</ele><time>2026-04-12T14:04:57.923Z</time></trkpt><trkpt lat="45.342181" lon="8.8589894"><ele>108.0</ele><time>2026-04-12T14:04:58.923Z</time></trkpt><trkpt lat="45.3422933" lon="8.8589673"><ele>108.0</ele><time>2026-04-12T14:04:59.924Z</time></trkpt><trkpt lat="45.342409" lon="8.8589539"><ele>108.0</ele><time>2026-04-12T14:05:00.923Z</time></trkpt><trkpt lat="45.3425335" lon="8.8589418"><ele>108.0</ele><time>2026-04-12T14:05:01.923Z</time></trkpt><trkpt lat="45.3426604" lon="8.8589325"><ele>108.0</ele><time>2026-04-12T14:05:02.923Z</time></trkpt><trkpt lat="45.3427919" lon="8.8589222"><ele>108.0</ele><time>2026-04-12T14:05:03.923Z</time></trkpt><trkpt lat="45.3429242" lon="8.8589098"><ele>108.0</ele><time>2026-04-12T14:05:04.923Z</time></trkpt><trkpt lat="45.3430611" lon="8.8588983"><ele>107.75</ele><time>2026-04-12T14:05:05.923Z</time></trkpt><trkpt lat="45.343202" lon="8.8588851"><ele>107.5</ele><time>2026-04-12T14:05:06.923Z</time></trkpt><trkpt lat="45.3433397" lon="8.8588679"><ele>107.25</ele><time>2026-04-12T14:05:07.923Z</time></trkpt><trkpt lat="45.3434735" lon="8.8588487"><ele>107.0</ele><time>2026-04-12T14:05:08.923Z</time></trkpt><trkpt lat="45.3436014" lon="8.8588268"><ele>107.0</ele><time>2026-04-12T14:05:09.923Z</time></trkpt><trkpt lat="45.3437216" lon="8.8588004"><ele>107.0</ele><time>2026-04-12T14:05:10.923Z</time></trkpt><trkpt lat="45.3438409" lon="8.8587722"><ele>107.0</ele><time>2026-04-12T14:05:11.923Z</time></trkpt><trkpt lat="45.3439631" lon="8.8587422"><ele>107.0</ele><time>2026-04-12T14:05:12.923Z</time></trkpt><trkpt lat="45.3440854" lon="8.8587061"><ele>107.19999999999999</ele><time>2026-04-12T14:05:13.923Z</time></trkpt><trkpt lat="45.3442016" lon="8.8586744"><ele>107.39999999999999</ele><time>2026-04-12T14:05:14.923Z</time></trkpt><trkpt lat="45.3442974" lon="8.8586494"><ele>107.60000000000001</ele><time>2026-04-12T14:05:15.923Z</time></trkpt><trkpt lat="45.3443676" lon="8.8586319"><ele>107.80000000000001</ele><time>2026-04-12T14:05:16.923Z</time></trkpt><trkpt lat="45.3444351" lon="8.8586119"><ele>108.0</ele><time>2026-04-12T14:05:18.923Z</time></trkpt><trkpt lat="45.3445362" lon="8.8586023"><ele>108.0</ele><time>2026-04-12T14:07:10.941Z</time></trkpt><trkpt lat="45.3446211" lon="8.8585788"><ele>108.0</ele><time>2026-04-12T14:07:22.941Z</time></trkpt><trkpt lat="45.3446866" lon="8.8585556"><ele>108.0</ele><time>2026-04-12T14:07:24.941Z</time></trkpt><trkpt lat="45.3447478" lon="8.8585258"><ele>108.0</ele><time>2026-04-12T14:07:26.941Z</time></trkpt><trkpt lat="45.34482" lon="8.858514"><ele>108.0</ele><time>2026-04-12T14:07:28.941Z</time></trkpt><trkpt lat="45.3448892" lon="8.8585021"><ele>108.0</ele><time>2026-04-12T14:07:30.941Z</time></trkpt><trkpt lat="45.3449603" lon="8.8584849"><ele>108.0</ele><time>2026-04-12T14:07:32.941Z</time></trkpt><trkpt lat="45.3450476" lon="8.8584453"><ele>107.66666666666667</ele><time>2026-04-12T14:07:35.941Z</time></trkpt><trkpt lat="45.3451094" lon="8.8583946"><ele>107.33333333333334</ele><time>2026-04-12T14:07:37.941Z</time></trkpt><trkpt lat="45.3451946" lon="8.8583336"><ele>107.0</ele><time>2026-04-12T14:07:39.941Z</time></trkpt><trkpt lat="45.3452832" lon="8.8582782"><ele>106.66666666666667</ele><time>2026-04-12T14:07:41.941Z</time></trkpt><trkpt lat="45.3453632" lon="8.8582385"><ele>106.33333333333334</ele><time>2026-04-12T14:07:43.941Z</time></trkpt><trkpt lat="45.3454368" lon="8.8582003"><ele>106.0</ele><time>2026-04-12T14:07:45.942Z</time></trkpt><trkpt lat="45.3455065" lon="8.858161"><ele>105.19999999999999</ele><time>2026-04-12T14:07:47.941Z</time></trkpt><trkpt lat="45.3455868" lon="8.8581184"><ele>104.39999999999999</ele><time>2026-04-12T14:07:50.941Z</time></trkpt><trkpt lat="45.3456897" lon="8.8580562"><ele>103.6</ele><time>2026-04-12T14:15:24.94Z</time></trkpt><trkpt lat="45.3457707" lon="8.8580084"><ele>102.8</ele><time>2026-04-12T14:15:26.94Z</time></trkpt><trkpt lat="45.3458501" lon="8.8579459"><ele>102.0</ele><time>2026-04-12T14:15:28.941Z</time></trkpt><trkpt lat="45.345918" lon="8.8578774"><ele>102.0</ele><time>2026-04-12T14:15:30.941Z</time></trkpt><trkpt lat="45.345971" lon="8.8577841"><ele>102.0</ele><time>2026-04-12T14:15:32.941Z</time></trkpt><trkpt lat="45.3460302" lon="8.8576733"><ele>102.0</ele><time>2026-04-12T14:15:34.94Z</time></trkpt><trkpt lat="45.346086" lon="8.8575377"><ele>102.0</ele><time>2026-04-12T14:15:36.94Z</time></trkpt><trkpt lat="45.3461171" lon="8.8574429"><ele>102.0</ele><time>2026-04-12T14:15:38.94Z</time></trkpt><trkpt lat="45.3461441" lon="8.8573255"><ele>102.66666666666667</ele><time>2026-04-12T14:15:41.94Z</time></trkpt><trkpt lat="45.3461622" lon="8.8572244"><ele>103.33333333333334</ele><time>2026-04-12T14:15:43.94Z</time></trkpt><trkpt lat="45.3461864" lon="8.8571119"><ele>104.0</ele><time>2026-04-12T14:15:45.941Z</time></trkpt><trkpt lat="45.3462073" lon="8.8570191"><ele>104.66666666666667</ele><time>2026-04-12T14:15:47.94Z</time></trkpt><trkpt lat="45.3462291" lon="8.8569139"><ele>105.33333333333334</ele><time>2026-04-12T14:15:49.94Z</time></trkpt><trkpt lat="45.3462504" lon="8.8567937"><ele>106.0</ele><time>2026-04-12T14:15:51.94Z</time></trkpt><trkpt lat="45.3462691" lon="8.8566571"><ele>106.0</ele><time>2026-04-12T14:15:53.941Z</time></trkpt><trkpt lat="45.34627" lon="8.8565085"><ele>106.0</ele><time>2026-04-12T14:15:55.94Z</time></trkpt><trkpt lat="45.346274" lon="8.8563595"><ele>106.0</ele><time>2026-04-12T14:15:57.94Z</time></trkpt><trkpt lat="45.3462716" lon="8.856248"><ele>106.0</ele><time>2026-04-12T14:15:59.94Z</time></trkpt><trkpt lat="45.3462482" lon="8.8561349"><ele>106.0</ele><time>2026-04-12T14:16:01.94Z</time></trkpt><trkpt lat="45.3462116" lon="8.8560249"><ele>106.19999999999999</ele><time>2026-04-12T14:16:03.94Z</time></trkpt><trkpt lat="45.3461691" lon="8.8558905"><ele>106.39999999999999</ele><time>2026-04-12T14:16:05.94Z</time></trkpt><trkpt lat="45.3461337" lon="8.8557459"><ele>106.6</ele><time>2026-04-12T14:16:07.94Z</time></trkpt><trkpt lat="45.3461018" lon="8.8555916"><ele>106.8</ele><time>2026-04-12T14:16:09.94Z</time></trkpt><trkpt lat="45.3460777" lon="8.8555079"><ele>107.0</ele><time>2026-04-12T14:16:10.94Z</time></trkpt><trkpt lat="45.3460529" lon="8.8554206"><ele>107.0</ele><time>2026-04-12T14:16:11.94Z</time></trkpt><trkpt lat="45.3460359" lon="8.8553315"><ele>106.99999999999999</ele><time>2026-04-12T14:16:12.94Z</time></trkpt><trkpt lat="45.3459959" lon="8.8551424"><ele>106.99999999999999</ele><time>2026-04-12T14:16:14.941Z</time></trkpt><trkpt lat="45.3459627" lon="8.8549645"><ele>107.0</ele><time>2026-04-12T14:16:16.94Z</time></trkpt><trkpt lat="45.3459377" lon="8.8548043"><ele>107.0</ele><time>2026-04-12T14:16:18.94Z</time></trkpt><trkpt lat="45.3459198" lon="8.8547164"><ele>106.99999999999999</ele><time>2026-04-12T14:16:19.94Z</time></trkpt><trkpt lat="45.345896" lon="8.8545484"><ele>107.0</ele><time>2026-04-12T14:16:21.94Z</time></trkpt><trkpt lat="45.3458797" lon="8.8543809"><ele>107.0</ele><time>2026-04-12T14:16:23.942Z</time></trkpt><trkpt lat="45.345883" lon="8.854286"><ele>107.0</ele><time>2026-04-12T14:16:24.94Z</time></trkpt><trkpt lat="45.3458818" lon="8.8541857"><ele>106.99999999999999</ele><time>2026-04-12T14:16:25.941Z</time></trkpt><trkpt lat="45.3458781" lon="8.8540923"><ele>107.0</ele><time>2026-04-12T14:16:26.941Z</time></trkpt><trkpt lat="45.3458813" lon="8.8539985"><ele>106.85714285714286</ele><time>2026-04-12T14:16:27.941Z</time></trkpt><trkpt lat="45.3458876" lon="8.85389"><ele>106.71428571428572</ele><time>2026-04-12T14:16:28.94Z</time></trkpt><trkpt lat="45.3458885" lon="8.8537871"><ele>106.57142857142858</ele><time>2026-04-12T14:16:29.94Z</time></trkpt><trkpt lat="45.3458911" lon="8.8536792"><ele>106.42857142857143</ele><time>2026-04-12T14:16:30.941Z</time></trkpt><trkpt lat="45.3458945" lon="8.8535725"><ele>106.28571428571428</ele><time>2026-04-12T14:16:31.94Z</time></trkpt><trkpt lat="45.345894" lon="8.8534718"><ele>106.14285714285715</ele><time>2026-04-12T14:16:32.94Z</time></trkpt><trkpt lat="45.3458933" lon="8.8533746"><ele>106.0</ele><time>2026-04-12T14:16:33.94Z</time></trkpt><trkpt lat="45.3458913" lon="8.8532785"><ele>105.85714285714286</ele><time>2026-04-12T14:16:34.94Z</time></trkpt><trkpt lat="45.3458875" lon="8.8531851"><ele>105.71428571428571</ele><time>2026-04-12T14:16:35.941Z</time></trkpt><trkpt lat="45.3458812" lon="8.8530858"><ele>105.57142857142857</ele><time>2026-04-12T14:16:36.94Z</time></trkpt><trkpt lat="45.3458758" lon="8.852986"><ele>105.42857142857143</ele><time>2026-04-12T14:16:37.94Z</time></trkpt><trkpt lat="45.3458717" lon="8.8528796"><ele>105.28571428571428</ele><time>2026-04-12T14:16:38.94Z</time></trkpt><trkpt lat="45.3458695" lon="8.8527725"><ele>105.14285714285714</ele><time>2026-04-12T14:16:39.94Z</time></trkpt><trkpt lat="45.3458663" lon="8.8526538"><ele>105.0</ele><time>2026-04-12T14:16:40.94Z</time></trkpt><trkpt lat="45.3458592" lon="8.8525512"><ele>104.8</ele><time>2026-04-12T14:16:41.94Z</time></trkpt><trkpt lat="45.3458209" lon="8.8523862"><ele>104.6</ele><time>2026-04-12T14:16:43.94Z</time></trkpt><trkpt lat="45.3457878" lon="8.8523032"><ele>104.4</ele><time>2026-04-12T14:16:44.94Z</time></trkpt><trkpt lat="45.3457481" lon="8.8522302"><ele>104.2</ele><time>2026-04-12T14:16:45.94Z</time></trkpt><trkpt lat="45.3456633" lon="8.8521216"><ele>104.0</ele><time>2026-04-12T14:16:47.941Z</time></trkpt><trkpt lat="45.3455675" lon="8.8520323"><ele>104.49999999999999</ele><time>2026-04-12T14:16:49.94Z</time></trkpt><trkpt lat="45.3454762" lon="8.8519343"><ele>105.0</ele><time>2026-04-12T14:16:51.94Z</time></trkpt><trkpt lat="45.3453831" lon="8.8518415"><ele>105.5</ele><time>2026-04-12T14:16:53.941Z</time></trkpt><trkpt lat="45.3453327" lon="8.8517841"><ele>106.0</ele><time>2026-04-12T14:16:54.942Z</time></trkpt><trkpt lat="45.345283" lon="8.8517251"><ele>106.49999999999999</ele><time>2026-04-12T14:16:55.94Z</time></trkpt><trkpt lat="45.3452311" lon="8.8516648"><ele>107.0</ele><time>2026-04-12T14:16:56.94Z</time></trkpt><trkpt lat="45.3451797" lon="8.8516064"><ele>107.19999999999999</ele><time>2026-04-12T14:16:57.94Z</time></trkpt><trkpt lat="45.345086" lon="8.8514899"><ele>107.39999999999999</ele><time>2026-04-12T14:16:59.941Z</time></trkpt><trkpt lat="45.3450224" lon="8.8513507"><ele>107.60000000000001</ele><time>2026-04-12T14:17:01.94Z</time></trkpt><trkpt lat="45.3449826" lon="8.851233"><ele>107.80000000000001</ele><time>2026-04-12T14:17:03.94Z</time></trkpt><trkpt lat="45.3450158" lon="8.8511364"><ele>108.0</ele><time>2026-04-12T14:17:06.94Z</time></trkpt><trkpt lat="45.3451034" lon="8.8510758"><ele>108.0</ele><time>2026-04-12T14:17:08.94Z</time></trkpt><trkpt lat="45.3451644" lon="8.8510427"><ele>108.0</ele><time>2026-04-12T14:17:09.94Z</time></trkpt><trkpt lat="45.3452272" lon="8.8510112"><ele>108.0</ele><time>2026-04-12T14:17:10.94Z</time></trkpt><trkpt lat="45.3452964" lon="8.8509712"><ele>108.0</ele><time>2026-04-12T14:17:11.941Z</time></trkpt><trkpt lat="45.3453703" lon="8.850928"><ele>108.0</ele><time>2026-04-12T14:17:12.94Z</time></trkpt><trkpt lat="45.345456" lon="8.8508753"><ele>108.0</ele><time>2026-04-12T14:17:13.94Z</time></trkpt><trkpt lat="45.3455504" lon="8.85082"><ele>108.2</ele><time>2026-04-12T14:17:14.939Z</time></trkpt><trkpt lat="45.3456447" lon="8.8507627"><ele>108.4</ele><time>2026-04-12T14:17:15.941Z</time></trkpt><trkpt lat="45.3457435" lon="8.8507042"><ele>108.60000000000001</ele><time>2026-04-12T14:17:16.94Z</time></trkpt><trkpt lat="45.3458483" lon="8.8506418"><ele>108.80000000000001</ele><time>2026-04-12T14:17:17.94Z</time></trkpt><trkpt lat="45.345954" lon="8.8505778"><ele>109.0</ele><time>2026-04-12T14:17:18.94Z</time></trkpt><trkpt lat="45.3460564" lon="8.8505164"><ele>109.0</ele><time>2026-04-12T14:17:19.94Z</time></trkpt><trkpt lat="45.3461594" lon="8.8504543"><ele>109.0</ele><time>2026-04-12T14:17:20.939Z</time></trkpt><trkpt lat="45.3462605" lon="8.8503958"><ele>109.0</ele><time>2026-04-12T14:17:21.939Z</time></trkpt><trkpt lat="45.346357" lon="8.8503393"><ele>109.0</ele><time>2026-04-12T14:17:22.939Z</time></trkpt><trkpt lat="45.3464507" lon="8.8502892"><ele>109.0</ele><time>2026-04-12T14:17:23.939Z</time></trkpt><trkpt lat="45.3465339" lon="8.8502386"><ele>109.00000000000001</ele><time>2026-04-12T14:17:24.94Z</time></trkpt><trkpt lat="45.3466115" lon="8.8501901"><ele>109.0</ele><time>2026-04-12T14:17:25.939Z</time></trkpt><trkpt lat="45.3466847" lon="8.8501458"><ele>109.0</ele><time>2026-04-12T14:17:26.94Z</time></trkpt><trkpt lat="45.346756" lon="8.8501039"><ele>109.0</ele><time>2026-04-12T14:17:27.94Z</time></trkpt><trkpt lat="45.3468225" lon="8.8500627"><ele>109.00000000000001</ele><time>2026-04-12T14:17:28.941Z</time></trkpt><trkpt lat="45.3468826" lon="8.8500281"><ele>109.0</ele><time>2026-04-12T14:17:29.941Z</time></trkpt><trkpt lat="45.3469851" lon="8.8499731"><ele>109.0</ele><time>2026-04-12T14:17:31.94Z</time></trkpt><trkpt lat="45.3470741" lon="8.8499202"><ele>109.0</ele><time>2026-04-12T14:17:33.939Z</time></trkpt><trkpt lat="45.3473231" lon="8.8497737"><ele>109.0</ele><time>2026-04-12T14:21:45.939Z</time></trkpt><trkpt lat="45.3474203" lon="8.849683"><ele>108.66666666666667</ele><time>2026-04-12T14:21:48.939Z</time></trkpt><trkpt lat="45.3474869" lon="8.8496441"><ele>108.33333333333334</ele><time>2026-04-12T14:21:49.94Z</time></trkpt><trkpt lat="45.3475569" lon="8.8496115"><ele>108.0</ele><time>2026-04-12T14:21:50.94Z</time></trkpt><trkpt lat="45.347631" lon="8.8495724"><ele>107.66666666666666</ele><time>2026-04-12T14:21:51.939Z</time></trkpt><trkpt lat="45.3477201" lon="8.8495221"><ele>107.33333333333333</ele><time>2026-04-12T14:21:52.94Z</time></trkpt><trkpt lat="45.3478224" lon="8.8494683"><ele>107.0</ele><time>2026-04-12T14:21:53.939Z</time></trkpt><trkpt lat="45.3479378" lon="8.8494095"><ele>107.25</ele><time>2026-04-12T14:21:54.939Z</time></trkpt><trkpt lat="45.3480645" lon="8.8493457"><ele>107.5</ele><time>2026-04-12T14:21:55.939Z</time></trkpt><trkpt lat="45.3481972" lon="8.8492697"><ele>107.75</ele><time>2026-04-12T14:21:56.939Z</time></trkpt><trkpt lat="45.348332" lon="8.8491875"><ele>108.0</ele><time>2026-04-12T14:21:57.939Z</time></trkpt><trkpt lat="45.3484619" lon="8.8491101"><ele>108.5</ele><time>2026-04-12T14:21:58.939Z</time></trkpt><trkpt lat="45.3485839" lon="8.8490387"><ele>109.0</ele><time>2026-04-12T14:21:59.94Z</time></trkpt><trkpt lat="45.348699" lon="8.8489752"><ele>109.5</ele><time>2026-04-12T14:22:00.939Z</time></trkpt><trkpt lat="45.3488079" lon="8.8489152"><ele>110.0</ele><time>2026-04-12T14:22:01.939Z</time></trkpt><trkpt lat="45.3489139" lon="8.8488506"><ele>110.0</ele><time>2026-04-12T14:22:02.939Z</time></trkpt><trkpt lat="45.3490239" lon="8.8487891"><ele>110.0</ele><time>2026-04-12T14:22:03.939Z</time></trkpt><trkpt lat="45.34914" lon="8.8487258"><ele>110.0</ele><time>2026-04-12T14:22:04.94Z</time></trkpt><trkpt lat="45.349253" lon="8.848661"><ele>110.0</ele><time>2026-04-12T14:22:05.939Z</time></trkpt><trkpt lat="45.3493617" lon="8.8485967"><ele>110.0</ele><time>2026-04-12T14:22:06.94Z</time></trkpt><trkpt lat="45.3494599" lon="8.8485389"><ele>110.0</ele><time>2026-04-12T14:22:07.939Z</time></trkpt><trkpt lat="45.34955" lon="8.8484862"><ele>110.0</ele><time>2026-04-12T14:22:08.939Z</time></trkpt><trkpt lat="45.3496395" lon="8.8484362"><ele>110.0</ele><time>2026-04-12T14:22:09.939Z</time></trkpt><trkpt lat="45.3497296" lon="8.8483853"><ele>110.0</ele><time>2026-04-12T14:22:10.94Z</time></trkpt><trkpt lat="45.3498138" lon="8.8483377"><ele>109.83333333333333</ele><time>2026-04-12T14:22:11.94Z</time></trkpt><trkpt lat="45.3498887" lon="8.8482966"><ele>109.66666666666666</ele><time>2026-04-12T14:22:12.939Z</time></trkpt><trkpt lat="45.3499551" lon="8.8482572"><ele>109.5</ele><time>2026-04-12T14:22:13.939Z</time></trkpt><trkpt lat="45.3500144" lon="8.8482191"><ele>109.33333333333334</ele><time>2026-04-12T14:22:14.939Z</time></trkpt><trkpt lat="45.3501007" lon="8.8481071"><ele>109.16666666666667</ele><time>2026-04-12T14:22:16.939Z</time></trkpt><trkpt lat="45.3501409" lon="8.8480287"><ele>109.0</ele><time>2026-04-12T14:22:17.94Z</time></trkpt><trkpt lat="45.3501735" lon="8.8479399"><ele>109.00000000000001</ele><time>2026-04-12T14:22:18.939Z</time></trkpt><trkpt lat="45.3502062" lon="8.847834"><ele>109.0</ele><time>2026-04-12T14:22:19.939Z</time></trkpt><trkpt lat="45.3502428" lon="8.8477249"><ele>109.0</ele><time>2026-04-12T14:22:20.939Z</time></trkpt><trkpt lat="45.3502769" lon="8.8476165"><ele>109.0</ele><time>2026-04-12T14:22:21.939Z</time></trkpt><trkpt lat="45.3503096" lon="8.8475085"><ele>109.00000000000001</ele><time>2026-04-12T14:22:22.939Z</time></trkpt><trkpt lat="45.3503349" lon="8.8474132"><ele>109.0</ele><time>2026-04-12T14:22:23.94Z</time></trkpt><trkpt lat="45.3503504" lon="8.8473151"><ele>108.83333333333334</ele><time>2026-04-12T14:22:24.939Z</time></trkpt><trkpt lat="45.3503449" lon="8.8472122"><ele>108.66666666666667</ele><time>2026-04-12T14:22:25.94Z</time></trkpt><trkpt lat="45.3503236" lon="8.8471082"><ele>108.5</ele><time>2026-04-12T14:22:26.939Z</time></trkpt><trkpt lat="45.3502941" lon="8.8470049"><ele>108.33333333333334</ele><time>2026-04-12T14:22:27.94Z</time></trkpt><trkpt lat="45.3502615" lon="8.8468922"><ele>108.16666666666667</ele><time>2026-04-12T14:22:28.939Z</time></trkpt><trkpt lat="45.3502253" lon="8.8467805"><ele>108.0</ele><time>2026-04-12T14:22:29.939Z</time></trkpt><trkpt lat="45.3501861" lon="8.8466393"><ele>108.0</ele><time>2026-04-12T14:22:30.94Z</time></trkpt><trkpt lat="45.3501361" lon="8.8464826"><ele>108.0</ele><time>2026-04-12T14:22:31.939Z</time></trkpt><trkpt lat="45.3500853" lon="8.8463154"><ele>108.0</ele><time>2026-04-12T14:22:32.939Z</time></trkpt><trkpt lat="45.3500346" lon="8.8461346"><ele>108.0</ele><time>2026-04-12T14:22:33.939Z</time></trkpt><trkpt lat="45.3499773" lon="8.8459355"><ele>108.0</ele><time>2026-04-12T14:22:34.939Z</time></trkpt><trkpt lat="45.349922" lon="8.8457314"><ele>108.0</ele><time>2026-04-12T14:22:35.939Z</time></trkpt><trkpt lat="45.3498691" lon="8.8455414"><ele>108.0</ele><time>2026-04-12T14:22:36.94Z</time></trkpt><trkpt lat="45.3498153" lon="8.8453643"><ele>108.0</ele><time>2026-04-12T14:22:37.939Z</time></trkpt><trkpt lat="45.3497675" lon="8.8452034"><ele>107.83333333333333</ele><time>2026-04-12T14:22:38.94Z</time></trkpt><trkpt lat="45.3497228" lon="8.8450688"><ele>107.66666666666666</ele><time>2026-04-12T14:22:39.939Z</time></trkpt><trkpt lat="45.349684" lon="8.8449695"><ele>107.5</ele><time>2026-04-12T14:22:40.94Z</time></trkpt><trkpt lat="45.3496487" lon="8.8448918"><ele>107.33333333333333</ele><time>2026-04-12T14:22:41.939Z</time></trkpt><trkpt lat="45.3496296" lon="8.8447667"><ele>107.16666666666666</ele><time>2026-04-12T14:22:43.939Z</time></trkpt><trkpt lat="45.3496805" lon="8.8446726"><ele>107.0</ele><time>2026-04-12T14:22:45.939Z</time></trkpt><trkpt lat="45.3497368" lon="8.8446208"><ele>107.0</ele><time>2026-04-12T14:22:46.94Z</time></trkpt><trkpt lat="45.3498113" lon="8.8445621"><ele>106.99999999999999</ele><time>2026-04-12T14:22:47.939Z</time></trkpt><trkpt lat="45.3499007" lon="8.8444824"><ele>106.99999999999999</ele><time>2026-04-12T14:22:48.94Z</time></trkpt><trkpt lat="45.3500076" lon="8.8443959"><ele>107.0</ele><time>2026-04-12T14:22:49.94Z</time></trkpt><trkpt lat="45.3501225" lon="8.8443049"><ele>107.0</ele><time>2026-04-12T14:22:50.939Z</time></trkpt><trkpt lat="45.3502442" lon="8.8442062"><ele>107.33333333333333</ele><time>2026-04-12T14:22:51.939Z</time></trkpt><trkpt lat="45.3503725" lon="8.8441046"><ele>107.66666666666666</ele><time>2026-04-12T14:22:52.939Z</time></trkpt><trkpt lat="45.3505064" lon="8.8439926"><ele>108.0</ele><time>2026-04-12T14:22:53.94Z</time></trkpt><trkpt lat="45.3506464" lon="8.8438708"><ele>108.0</ele><time>2026-04-12T14:22:54.939Z</time></trkpt><trkpt lat="45.3507896" lon="8.8437469"><ele>108.0</ele><time>2026-04-12T14:22:55.939Z</time></trkpt><trkpt lat="45.3509366" lon="8.8436187"><ele>108.0</ele><time>2026-04-12T14:22:56.939Z</time></trkpt><trkpt lat="45.3510868" lon="8.8434851"><ele>108.0</ele><time>2026-04-12T14:22:57.939Z</time></trkpt><trkpt lat="45.3512459" lon="8.8433507"><ele>108.0</ele><time>2026-04-12T14:22:58.94Z</time></trkpt><trkpt lat="45.3514077" lon="8.8432236"><ele>108.0</ele><time>2026-04-12T14:22:59.94Z</time></trkpt><trkpt lat="45.3515642" lon="8.8430923"><ele>108.0</ele><time>2026-04-12T14:23:00.939Z</time></trkpt><trkpt lat="45.3517114" lon="8.8429671"><ele>108.0</ele><time>2026-04-12T14:23:01.939Z</time></trkpt><trkpt lat="45.3518574" lon="8.8428454"><ele>108.0</ele><time>2026-04-12T14:23:02.941Z</time></trkpt><trkpt lat="45.3519929" lon="8.8427339"><ele>108.0</ele><time>2026-04-12T14:23:03.939Z</time></trkpt><trkpt lat="45.3521026" lon="8.8426465"><ele>108.00000000000001</ele><time>2026-04-12T14:23:04.939Z</time></trkpt><trkpt lat="45.3521983" lon="8.8425709"><ele>108.00000000000001</ele><time>2026-04-12T14:23:05.94Z</time></trkpt><trkpt lat="45.3522855" lon="8.8425045"><ele>108.0</ele><time>2026-04-12T14:23:06.941Z</time></trkpt><trkpt lat="45.3523616" lon="8.8424365"><ele>108.0</ele><time>2026-04-12T14:23:07.94Z</time></trkpt><trkpt lat="45.3524429" lon="8.8423686"><ele>108.2</ele><time>2026-04-12T14:23:08.939Z</time></trkpt><trkpt lat="45.3525249" lon="8.8423008"><ele>108.4</ele><time>2026-04-12T14:23:09.939Z</time></trkpt><trkpt lat="45.3526096" lon="8.842235"><ele>108.60000000000001</ele><time>2026-04-12T14:23:10.939Z</time></trkpt><trkpt lat="45.3527013" lon="8.8421616"><ele>108.80000000000001</ele><time>2026-04-12T14:23:11.939Z</time></trkpt><trkpt lat="45.3527962" lon="8.8420803"><ele>109.0</ele><time>2026-04-12T14:23:12.94Z</time></trkpt><trkpt lat="45.3528877" lon="8.8420043"><ele>109.0</ele><time>2026-04-12T14:23:13.939Z</time></trkpt><trkpt lat="45.3529818" lon="8.841929"><ele>109.0</ele><time>2026-04-12T14:23:14.939Z</time></trkpt><trkpt lat="45.3530745" lon="8.8418483"><ele>109.0</ele><time>2026-04-12T14:23:15.939Z</time></trkpt><trkpt lat="45.3531658" lon="8.8417703"><ele>109.0</ele><time>2026-04-12T14:23:16.94Z</time></trkpt><trkpt lat="45.3532537" lon="8.8416944"><ele>109.0</ele><time>2026-04-12T14:23:17.94Z</time></trkpt><trkpt lat="45.3533427" lon="8.8416169"><ele>108.80000000000001</ele><time>2026-04-12T14:23:18.939Z</time></trkpt><trkpt lat="45.353436" lon="8.8415374"><ele>108.60000000000001</ele><time>2026-04-12T14:23:19.94Z</time></trkpt><trkpt lat="45.3535325" lon="8.8414594"><ele>108.4</ele><time>2026-04-12T14:23:20.939Z</time></trkpt><trkpt lat="45.3536218" lon="8.8413862"><ele>108.2</ele><time>2026-04-12T14:23:21.939Z</time></trkpt><trkpt lat="45.3536987" lon="8.8413233"><ele>108.0</ele><time>2026-04-12T14:23:22.939Z</time></trkpt><trkpt lat="45.353771" lon="8.8412667"><ele>108.0</ele><time>2026-04-12T14:23:23.939Z</time></trkpt><trkpt lat="45.3538362" lon="8.841215"><ele>108.0</ele><time>2026-04-12T14:23:24.939Z</time></trkpt><trkpt lat="45.353893" lon="8.8411708"><ele>108.0</ele><time>2026-04-12T14:23:25.939Z</time></trkpt><trkpt lat="45.3539505" lon="8.8411286"><ele>108.0</ele><time>2026-04-12T14:23:26.939Z</time></trkpt><trkpt lat="45.3540105" lon="8.8410815"><ele>108.0</ele><time>2026-04-12T14:23:27.94Z</time></trkpt><trkpt lat="45.3540711" lon="8.8410443"><ele>108.0</ele><time>2026-04-12T14:23:28.939Z</time></trkpt><trkpt lat="45.354136" lon="8.8410093"><ele>108.0</ele><time>2026-04-12T14:23:29.939Z</time></trkpt><trkpt lat="45.3542027" lon="8.8409758"><ele>108.16666666666667</ele><time>2026-04-12T14:23:30.939Z</time></trkpt><trkpt lat="45.3542717" lon="8.8409386"><ele>108.33333333333334</ele><time>2026-04-12T14:23:31.939Z</time></trkpt><trkpt lat="45.3543413" lon="8.8409024"><ele>108.5</ele><time>2026-04-12T14:23:32.939Z</time></trkpt><trkpt lat="45.3544129" lon="8.8408622"><ele>108.66666666666667</ele><time>2026-04-12T14:23:33.939Z</time></trkpt><trkpt lat="45.3544842" lon="8.8408206"><ele>108.83333333333334</ele><time>2026-04-12T14:23:34.939Z</time></trkpt><trkpt lat="45.3545568" lon="8.8407745"><ele>109.0</ele><time>2026-04-12T14:23:35.939Z</time></trkpt><trkpt lat="45.3546264" lon="8.8407318"><ele>109.00000000000001</ele><time>2026-04-12T14:23:36.939Z</time></trkpt><trkpt lat="45.3546947" lon="8.8406915"><ele>109.0</ele><time>2026-04-12T14:23:37.94Z</time></trkpt><trkpt lat="45.3547591" lon="8.840659"><ele>109.0</ele><time>2026-04-12T14:23:38.939Z</time></trkpt><trkpt lat="45.3548173" lon="8.8406238"><ele>109.0</ele><time>2026-04-12T14:23:39.939Z</time></trkpt><trkpt lat="45.3549329" lon="8.840536"><ele>109.00000000000001</ele><time>2026-04-12T14:23:41.939Z</time></trkpt><trkpt lat="45.3549973" lon="8.8404868"><ele>109.0</ele><time>2026-04-12T14:23:42.939Z</time></trkpt><trkpt lat="45.3550632" lon="8.84043"><ele>109.0</ele><time>2026-04-12T14:23:43.94Z</time></trkpt><trkpt lat="45.355128" lon="8.8403663"><ele>109.0</ele><time>2026-04-12T14:23:44.939Z</time></trkpt><trkpt lat="45.3551919" lon="8.84031"><ele>109.0</ele><time>2026-04-12T14:23:45.939Z</time></trkpt><trkpt lat="45.3552511" lon="8.8402594"><ele>109.0</ele><time>2026-04-12T14:23:46.939Z</time></trkpt><trkpt lat="45.3553048" lon="8.8402096"><ele>109.0</ele><time>2026-04-12T14:23:47.939Z</time></trkpt><trkpt lat="45.3553631" lon="8.8401534"><ele>109.0</ele><time>2026-04-12T14:23:48.939Z</time></trkpt><trkpt lat="45.3554258" lon="8.8400997"><ele>109.0</ele><time>2026-04-12T14:23:49.939Z</time></trkpt><trkpt lat="45.3554877" lon="8.8400459"><ele>108.57142857142857</ele><time>2026-04-12T14:23:50.94Z</time></trkpt><trkpt lat="45.3555471" lon="8.8400037"><ele>108.14285714285714</ele><time>2026-04-12T14:23:51.939Z</time></trkpt><trkpt lat="45.3556056" lon="8.8399628"><ele>107.71428571428572</ele><time>2026-04-12T14:23:52.94Z</time></trkpt><trkpt lat="45.3556686" lon="8.8399219"><ele>107.28571428571428</ele><time>2026-04-12T14:23:53.939Z</time></trkpt><trkpt lat="45.3557367" lon="8.8398809"><ele>106.85714285714285</ele><time>2026-04-12T14:23:54.939Z</time></trkpt><trkpt lat="45.3558027" lon="8.8398411"><ele>106.42857142857143</ele><time>2026-04-12T14:23:55.939Z</time></trkpt><trkpt lat="45.3558685" lon="8.8398055"><ele>106.0</ele><time>2026-04-12T14:23:56.939Z</time></trkpt><trkpt lat="45.3559353" lon="8.8397719"><ele>106.00000000000001</ele><time>2026-04-12T14:23:57.939Z</time></trkpt><trkpt lat="45.3560073" lon="8.839734"><ele>106.0</ele><time>2026-04-12T14:23:58.94Z</time></trkpt><trkpt lat="45.3560728" lon="8.8396989"><ele>106.0</ele><time>2026-04-12T14:23:59.939Z</time></trkpt><trkpt lat="45.3561322" lon="8.8396677"><ele>106.0</ele><time>2026-04-12T14:24:00.939Z</time></trkpt><trkpt lat="45.3561937" lon="8.8396283"><ele>106.00000000000001</ele><time>2026-04-12T14:24:01.939Z</time></trkpt><trkpt lat="45.3562977" lon="8.8395659"><ele>106.0</ele><time>2026-04-12T14:24:03.94Z</time></trkpt><trkpt lat="45.3564113" lon="8.8394913"><ele>106.19999999999999</ele><time>2026-04-12T14:24:05.939Z</time></trkpt><trkpt lat="45.3564692" lon="8.8394494"><ele>106.39999999999999</ele><time>2026-04-12T14:24:06.939Z</time></trkpt><trkpt lat="45.356565" lon="8.8393627"><ele>106.6</ele><time>2026-04-12T14:24:08.939Z</time></trkpt><trkpt lat="45.3566201" lon="8.8392573"><ele>106.8</ele><time>2026-04-12T14:24:10.94Z</time></trkpt><trkpt lat="45.3566513" lon="8.8391116"><ele>107.0</ele><time>2026-04-12T14:24:12.939Z</time></trkpt><trkpt lat="45.3566488" lon="8.8389543"><ele>107.00000000000001</ele><time>2026-04-12T14:24:14.939Z</time></trkpt><trkpt lat="45.35664" lon="8.8388579"><ele>107.0</ele><time>2026-04-12T14:24:15.939Z</time></trkpt><trkpt lat="45.3566192" lon="8.8387625"><ele>107.0</ele><time>2026-04-12T14:24:16.939Z</time></trkpt><trkpt lat="45.3566017" lon="8.8386576"><ele>107.0</ele><time>2026-04-12T14:24:17.939Z</time></trkpt><trkpt lat="45.3565822" lon="8.8385568"><ele>107.0</ele><time>2026-04-12T14:24:18.939Z</time></trkpt><trkpt lat="45.356557" lon="8.8384581"><ele>107.00000000000001</ele><time>2026-04-12T14:24:19.939Z</time></trkpt><trkpt lat="45.3565317" lon="8.8383521"><ele>107.0</ele><time>2026-04-12T14:24:20.94Z</time></trkpt><trkpt lat="45.3565094" lon="8.838253"><ele>107.39999999999999</ele><time>2026-04-12T14:24:21.939Z</time></trkpt><trkpt lat="45.3564904" lon="8.8381553"><ele>107.79999999999998</ele><time>2026-04-12T14:24:22.939Z</time></trkpt><trkpt lat="45.3564792" lon="8.8380627"><ele>108.2</ele><time>2026-04-12T14:24:23.939Z</time></trkpt><trkpt lat="45.3565034" lon="8.8379083"><ele>108.6</ele><time>2026-04-12T14:24:25.939Z</time></trkpt><trkpt lat="45.3565878" lon="8.8377959"><ele>109.0</ele><time>2026-04-12T14:24:27.939Z</time></trkpt><trkpt lat="45.3566892" lon="8.8377334"><ele>109.00000000000001</ele><time>2026-04-12T14:24:29.94Z</time></trkpt><trkpt lat="45.3568023" lon="8.8376658"><ele>109.0</ele><time>2026-04-12T14:24:31.939Z</time></trkpt><trkpt lat="45.3568713" lon="8.8376294"><ele>109.0</ele><time>2026-04-12T14:24:32.939Z</time></trkpt><trkpt lat="45.3569392" lon="8.8375931"><ele>109.0</ele><time>2026-04-12T14:24:33.939Z</time></trkpt><trkpt lat="45.3570078" lon="8.8375574"><ele>109.00000000000001</ele><time>2026-04-12T14:24:34.939Z</time></trkpt><trkpt lat="45.3570795" lon="8.8375196"><ele>109.0</ele><time>2026-04-12T14:24:35.939Z</time></trkpt><trkpt lat="45.3571514" lon="8.8374798"><ele>109.16666666666667</ele><time>2026-04-12T14:24:36.94Z</time></trkpt><trkpt lat="45.3572218" lon="8.8374433"><ele>109.33333333333334</ele><time>2026-04-12T14:24:37.939Z</time></trkpt><trkpt lat="45.3572942" lon="8.8374073"><ele>109.5</ele><time>2026-04-12T14:24:38.94Z</time></trkpt><trkpt lat="45.3573741" lon="8.8373647"><ele>109.66666666666666</ele><time>2026-04-12T14:24:39.939Z</time></trkpt><trkpt lat="45.3574545" lon="8.8373257"><ele>109.83333333333333</ele><time>2026-04-12T14:24:40.939Z</time></trkpt><trkpt lat="45.3575349" lon="8.8372837"><ele>110.0</ele><time>2026-04-12T14:24:41.939Z</time></trkpt><trkpt lat="45.3576176" lon="8.8372421"><ele>109.99999999999999</ele><time>2026-04-12T14:24:42.939Z</time></trkpt><trkpt lat="45.3576993" lon="8.8372004"><ele>110.0</ele><time>2026-04-12T14:24:43.939Z</time></trkpt><trkpt lat="45.3577806" lon="8.8371535"><ele>110.0</ele><time>2026-04-12T14:24:44.939Z</time></trkpt><trkpt lat="45.3578648" lon="8.8371092"><ele>110.0</ele><time>2026-04-12T14:24:45.939Z</time></trkpt><trkpt lat="45.357949" lon="8.8370657"><ele>109.99999999999999</ele><time>2026-04-12T14:24:46.94Z</time></trkpt><trkpt lat="45.3580297" lon="8.8370213"><ele>110.0</ele><time>2026-04-12T14:24:47.939Z</time></trkpt><trkpt lat="45.3581136" lon="8.8369779"><ele>109.8</ele><time>2026-04-12T14:24:48.939Z</time></trkpt><trkpt lat="45.3581973" lon="8.8369344"><ele>109.6</ele><time>2026-04-12T14:24:49.939Z</time></trkpt><trkpt lat="45.3582831" lon="8.836888"><ele>109.4</ele><time>2026-04-12T14:24:50.939Z</time></trkpt><trkpt lat="45.3583682" lon="8.8368432"><ele>109.2</ele><time>2026-04-12T14:24:51.939Z</time></trkpt><trkpt lat="45.3584505" lon="8.836795"><ele>109.0</ele><time>2026-04-12T14:24:52.939Z</time></trkpt><trkpt lat="45.3585357" lon="8.8367492"><ele>109.00000000000001</ele><time>2026-04-12T14:24:53.939Z</time></trkpt><trkpt lat="45.3586238" lon="8.8367011"><ele>109.0</ele><time>2026-04-12T14:24:54.939Z</time></trkpt><trkpt lat="45.3587068" lon="8.8366541"><ele>109.0</ele><time>2026-04-12T14:24:55.939Z</time></trkpt><trkpt lat="45.3587895" lon="8.8366114"><ele>109.0</ele><time>2026-04-12T14:24:56.939Z</time></trkpt><trkpt lat="45.3588714" lon="8.8365644"><ele>109.00000000000001</ele><time>2026-04-12T14:24:57.939Z</time></trkpt><trkpt lat="45.3589545" lon="8.8365183"><ele>109.0</ele><time>2026-04-12T14:24:58.939Z</time></trkpt><trkpt lat="45.3590342" lon="8.8364725"><ele>109.00000000000001</ele><time>2026-04-12T14:24:59.939Z</time></trkpt><trkpt lat="45.3591175" lon="8.8364259"><ele>109.0</ele><time>2026-04-12T14:25:00.939Z</time></trkpt><trkpt lat="45.3591997" lon="8.8363784"><ele>109.0</ele><time>2026-04-12T14:25:01.939Z</time></trkpt><trkpt lat="45.3592826" lon="8.8363373"><ele>109.0</ele><time>2026-04-12T14:25:02.939Z</time></trkpt><trkpt lat="45.3593669" lon="8.8362937"><ele>109.00000000000001</ele><time>2026-04-12T14:25:03.939Z</time></trkpt><trkpt lat="45.3594497" lon="8.8362494"><ele>109.0</ele><time>2026-04-12T14:25:04.94Z</time></trkpt><trkpt lat="45.3595361" lon="8.836205"><ele>109.0</ele><time>2026-04-12T14:25:05.939Z</time></trkpt><trkpt lat="45.3596323" lon="8.8361555"><ele>109.0</ele><time>2026-04-12T14:25:06.939Z</time></trkpt><trkpt lat="45.3597226" lon="8.8361028"><ele>109.0</ele><time>2026-04-12T14:25:07.939Z</time></trkpt><trkpt lat="45.3598112" lon="8.8360493"><ele>109.0</ele><time>2026-04-12T14:25:08.939Z</time></trkpt><trkpt lat="45.3598877" lon="8.8360067"><ele>109.0</ele><time>2026-04-12T14:25:09.939Z</time></trkpt><trkpt lat="45.3599617" lon="8.8359638"><ele>109.2</ele><time>2026-04-12T14:25:10.939Z</time></trkpt><trkpt lat="45.3600293" lon="8.8359253"><ele>109.4</ele><time>2026-04-12T14:25:11.94Z</time></trkpt><trkpt lat="45.3600944" lon="8.8358904"><ele>109.6</ele><time>2026-04-12T14:25:12.94Z</time></trkpt><trkpt lat="45.3602063" lon="8.8358654"><ele>109.8</ele><time>2026-04-12T14:25:14.939Z</time></trkpt><trkpt lat="45.3603161" lon="8.8359076"><ele>110.0</ele><time>2026-04-12T14:25:16.939Z</time></trkpt><trkpt lat="45.3604212" lon="8.8359711"><ele>110.0</ele><time>2026-04-12T14:25:18.939Z</time></trkpt><trkpt lat="45.3605274" lon="8.8359779"><ele>110.0</ele><time>2026-04-12T14:25:20.939Z</time></trkpt><trkpt lat="45.3606326" lon="8.8359147"><ele>110.0</ele><time>2026-04-12T14:25:22.94Z</time></trkpt><trkpt lat="45.3607402" lon="8.8358313"><ele>110.0</ele><time>2026-04-12T14:25:24.939Z</time></trkpt><trkpt lat="45.3608014" lon="8.8357809"><ele>110.0</ele><time>2026-04-12T14:25:25.939Z</time></trkpt><trkpt lat="45.3608667" lon="8.8357319"><ele>109.99999999999999</ele><time>2026-04-12T14:25:26.939Z</time></trkpt><trkpt lat="45.3609346" lon="8.8356858"><ele>110.0</ele><time>2026-04-12T14:25:27.939Z</time></trkpt><trkpt lat="45.3610032" lon="8.8356395"><ele>110.0</ele><time>2026-04-12T14:25:28.941Z</time></trkpt><trkpt lat="45.361072" lon="8.8355875"><ele>110.0</ele><time>2026-04-12T14:25:29.94Z</time></trkpt><trkpt lat="45.3611407" lon="8.8355311"><ele>109.99999999999999</ele><time>2026-04-12T14:25:30.939Z</time></trkpt><trkpt lat="45.3612114" lon="8.8354768"><ele>110.0</ele><time>2026-04-12T14:25:31.939Z</time></trkpt><trkpt lat="45.3612804" lon="8.8354188"><ele>109.99999999999999</ele><time>2026-04-12T14:25:32.939Z</time></trkpt><trkpt lat="45.3613517" lon="8.8353643"><ele>110.0</ele><time>2026-04-12T14:25:33.939Z</time></trkpt><trkpt lat="45.3614245" lon="8.8353054"><ele>110.0</ele><time>2026-04-12T14:25:34.939Z</time></trkpt><trkpt lat="45.3614965" lon="8.8352583"><ele>110.0</ele><time>2026-04-12T14:25:35.939Z</time></trkpt><trkpt lat="45.3615553" lon="8.8352197"><ele>110.0</ele><time>2026-04-12T14:25:36.939Z</time></trkpt><trkpt lat="45.3616145" lon="8.8351711"><ele>109.99999999999999</ele><time>2026-04-12T14:25:37.939Z</time></trkpt><trkpt lat="45.3616774" lon="8.835121"><ele>110.0</ele><time>2026-04-12T14:25:38.939Z</time></trkpt><trkpt lat="45.3617378" lon="8.8350653"><ele>110.14285714285714</ele><time>2026-04-12T14:25:39.939Z</time></trkpt><trkpt lat="45.3618012" lon="8.8350206"><ele>110.28571428571428</ele><time>2026-04-12T14:25:40.939Z</time></trkpt><trkpt lat="45.3618684" lon="8.8349688"><ele>110.42857142857142</ele><time>2026-04-12T14:25:41.939Z</time></trkpt><trkpt lat="45.3619347" lon="8.8349168"><ele>110.57142857142857</ele><time>2026-04-12T14:25:42.939Z</time></trkpt><trkpt lat="45.3620022" lon="8.8348713"><ele>110.71428571428572</ele><time>2026-04-12T14:25:43.938Z</time></trkpt><trkpt lat="45.3620655" lon="8.8348265"><ele>110.85714285714285</ele><time>2026-04-12T14:25:44.938Z</time></trkpt><trkpt lat="45.362124" lon="8.8347834"><ele>111.0</ele><time>2026-04-12T14:25:45.939Z</time></trkpt><trkpt lat="45.3621888" lon="8.8347412"><ele>110.83333333333333</ele><time>2026-04-12T14:25:46.939Z</time></trkpt><trkpt lat="45.3622561" lon="8.8346957"><ele>110.66666666666666</ele><time>2026-04-12T14:25:47.939Z</time></trkpt><trkpt lat="45.362324" lon="8.8346495"><ele>110.5</ele><time>2026-04-12T14:25:48.939Z</time></trkpt><trkpt lat="45.3623923" lon="8.834603"><ele>110.33333333333333</ele><time>2026-04-12T14:25:49.938Z</time></trkpt><trkpt lat="45.3624585" lon="8.8345555"><ele>110.16666666666666</ele><time>2026-04-12T14:25:50.939Z</time></trkpt><trkpt lat="45.362527" lon="8.8345081"><ele>110.0</ele><time>2026-04-12T14:25:51.939Z</time></trkpt><trkpt lat="45.3626063" lon="8.8344593"><ele>109.99999999999999</ele><time>2026-04-12T14:25:52.939Z</time></trkpt><trkpt lat="45.3626853" lon="8.8344097"><ele>110.0</ele><time>2026-04-12T14:25:53.938Z</time></trkpt><trkpt lat="45.3627687" lon="8.8343599"><ele>110.0</ele><time>2026-04-12T14:25:54.941Z</time></trkpt><trkpt lat="45.3628521" lon="8.83431"><ele>110.0</ele><time>2026-04-12T14:25:55.939Z</time></trkpt><trkpt lat="45.3629293" lon="8.8342579"><ele>109.99999999999999</ele><time>2026-04-12T14:25:56.939Z</time></trkpt><trkpt lat="45.3630054" lon="8.8342115"><ele>110.0</ele><time>2026-04-12T14:25:57.939Z</time></trkpt><trkpt lat="45.363081" lon="8.8341635"><ele>109.99999999999999</ele><time>2026-04-12T14:25:58.94Z</time></trkpt><trkpt lat="45.3631588" lon="8.8341165"><ele>110.0</ele><time>2026-04-12T14:25:59.939Z</time></trkpt><trkpt lat="45.3632357" lon="8.8340756"><ele>110.0</ele><time>2026-04-12T14:26:00.939Z</time></trkpt><trkpt lat="45.3633173" lon="8.8340324"><ele>110.0</ele><time>2026-04-12T14:26:01.939Z</time></trkpt><trkpt lat="45.3633975" lon="8.8339859"><ele>109.99999999999999</ele><time>2026-04-12T14:26:02.94Z</time></trkpt><trkpt lat="45.363478" lon="8.8339381"><ele>110.0</ele><time>2026-04-12T14:26:03.939Z</time></trkpt><trkpt lat="45.363556" lon="8.8338883"><ele>109.99999999999999</ele><time>2026-04-12T14:26:04.939Z</time></trkpt><trkpt lat="45.3636316" lon="8.8338425"><ele>110.0</ele><time>2026-04-12T14:26:05.938Z</time></trkpt><trkpt lat="45.3637055" lon="8.8337955"><ele>110.0</ele><time>2026-04-12T14:26:06.939Z</time></trkpt><trkpt lat="45.3637814" lon="8.8337406"><ele>110.0</ele><time>2026-04-12T14:26:07.939Z</time></trkpt><trkpt lat="45.3638556" lon="8.8336769"><ele>109.99999999999999</ele><time>2026-04-12T14:26:08.939Z</time></trkpt><trkpt lat="45.3639296" lon="8.83361"><ele>110.0</ele><time>2026-04-12T14:26:09.94Z</time></trkpt><trkpt lat="45.3640057" lon="8.8335517"><ele>109.99999999999999</ele><time>2026-04-12T14:26:10.94Z</time></trkpt><trkpt lat="45.3640916" lon="8.8334944"><ele>110.0</ele><time>2026-04-12T14:26:11.939Z</time></trkpt><trkpt lat="45.3641748" lon="8.8334464"><ele>110.0</ele><time>2026-04-12T14:26:12.94Z</time></trkpt><trkpt lat="45.3642579" lon="8.8334021"><ele>110.0</ele><time>2026-04-12T14:26:13.94Z</time></trkpt><trkpt lat="45.3643376" lon="8.833356"><ele>109.99999999999999</ele><time>2026-04-12T14:26:14.939Z</time></trkpt><trkpt lat="45.3644181" lon="8.8333112"><ele>110.0</ele><time>2026-04-12T14:26:15.939Z</time></trkpt><trkpt lat="45.3644997" lon="8.8332641"><ele>110.0</ele><time>2026-04-12T14:26:16.938Z</time></trkpt><trkpt lat="45.3645824" lon="8.8332136"><ele>110.0</ele><time>2026-04-12T14:26:17.938Z</time></trkpt><trkpt lat="45.3646682" lon="8.8331667"><ele>110.0</ele><time>2026-04-12T14:26:18.939Z</time></trkpt><trkpt lat="45.3647541" lon="8.8331177"><ele>110.0</ele><time>2026-04-12T14:26:19.939Z</time></trkpt><trkpt lat="45.3648371" lon="8.8330675"><ele>110.0</ele><time>2026-04-12T14:26:20.939Z</time></trkpt><trkpt lat="45.3649176" lon="8.8330214"><ele>110.16666666666666</ele><time>2026-04-12T14:26:21.939Z</time></trkpt><trkpt lat="45.3649991" lon="8.832976"><ele>110.33333333333333</ele><time>2026-04-12T14:26:22.939Z</time></trkpt><trkpt lat="45.3650746" lon="8.8329307"><ele>110.5</ele><time>2026-04-12T14:26:23.939Z</time></trkpt><trkpt lat="45.3651438" lon="8.8328886"><ele>110.66666666666666</ele><time>2026-04-12T14:26:24.939Z</time></trkpt><trkpt lat="45.3652085" lon="8.8328477"><ele>110.83333333333333</ele><time>2026-04-12T14:26:25.939Z</time></trkpt><trkpt lat="45.3652688" lon="8.8328068"><ele>111.0</ele><time>2026-04-12T14:26:26.94Z</time></trkpt><trkpt lat="45.365333" lon="8.8327645"><ele>111.0</ele><time>2026-04-12T14:26:27.939Z</time></trkpt><trkpt lat="45.3654038" lon="8.8327254"><ele>111.0</ele><time>2026-04-12T14:26:28.939Z</time></trkpt><trkpt lat="45.3654817" lon="8.8326828"><ele>111.0</ele><time>2026-04-12T14:26:29.939Z</time></trkpt><trkpt lat="45.3655642" lon="8.8326391"><ele>111.0</ele><time>2026-04-12T14:26:30.939Z</time></trkpt><trkpt lat="45.3656526" lon="8.8325915"><ele>111.0</ele><time>2026-04-12T14:26:31.939Z</time></trkpt><trkpt lat="45.3657491" lon="8.8325349"><ele>111.0</ele><time>2026-04-12T14:26:32.939Z</time></trkpt><trkpt lat="45.3658586" lon="8.8324699"><ele>111.0</ele><time>2026-04-12T14:26:33.939Z</time></trkpt><trkpt lat="45.3659751" lon="8.8324017"><ele>111.0</ele><time>2026-04-12T14:26:34.939Z</time></trkpt><trkpt lat="45.3661026" lon="8.8323276"><ele>111.0</ele><time>2026-04-12T14:26:35.939Z</time></trkpt><trkpt lat="45.3662391" lon="8.832246"><ele>111.0</ele><time>2026-04-12T14:26:36.939Z</time></trkpt><trkpt lat="45.3663878" lon="8.8321622"><ele>111.0</ele><time>2026-04-12T14:26:37.939Z</time></trkpt><trkpt lat="45.3665436" lon="8.8320722"><ele>111.0</ele><time>2026-04-12T14:26:38.94Z</time></trkpt><trkpt lat="45.366702" lon="8.8319802"><ele>111.0</ele><time>2026-04-12T14:26:39.94Z</time></trkpt><trkpt lat="45.366871" lon="8.8318786"><ele>111.0</ele><time>2026-04-12T14:26:40.94Z</time></trkpt><trkpt lat="45.3670449" lon="8.8317774"><ele>111.0</ele><time>2026-04-12T14:26:41.939Z</time></trkpt><trkpt lat="45.3672255" lon="8.8316708"><ele>111.0</ele><time>2026-04-12T14:26:42.939Z</time></trkpt><trkpt lat="45.367409" lon="8.8315607"><ele>110.66666666666666</ele><time>2026-04-12T14:26:43.939Z</time></trkpt><trkpt lat="45.3675844" lon="8.8314574"><ele>110.33333333333333</ele><time>2026-04-12T14:26:44.94Z</time></trkpt><trkpt lat="45.3677418" lon="8.8313642"><ele>110.0</ele><time>2026-04-12T14:26:45.939Z</time></trkpt><trkpt lat="45.3678833" lon="8.831282"><ele>110.0</ele><time>2026-04-12T14:26:46.939Z</time></trkpt><trkpt lat="45.3680044" lon="8.8312108"><ele>110.0</ele><time>2026-04-12T14:26:47.938Z</time></trkpt><trkpt lat="45.3681116" lon="8.8311436"><ele>110.0</ele><time>2026-04-12T14:26:48.939Z</time></trkpt><trkpt lat="45.3682087" lon="8.8310863"><ele>110.0</ele><time>2026-04-12T14:26:49.939Z</time></trkpt><trkpt lat="45.3682997" lon="8.8310283"><ele>110.0</ele><time>2026-04-12T14:26:50.939Z</time></trkpt><trkpt lat="45.3683944" lon="8.8309701"><ele>110.0</ele><time>2026-04-12T14:26:51.939Z</time></trkpt><trkpt lat="45.3684967" lon="8.8309148"><ele>110.0</ele><time>2026-04-12T14:26:52.939Z</time></trkpt><trkpt lat="45.3686065" lon="8.8308527"><ele>110.0</ele><time>2026-04-12T14:26:53.939Z</time></trkpt><trkpt lat="45.3687211" lon="8.830789"><ele>110.0</ele><time>2026-04-12T14:26:54.939Z</time></trkpt><trkpt lat="45.3688395" lon="8.8307255"><ele>110.0</ele><time>2026-04-12T14:26:55.939Z</time></trkpt><trkpt lat="45.3689557" lon="8.8306619"><ele>110.0</ele><time>2026-04-12T14:26:56.939Z</time></trkpt><trkpt lat="45.3690734" lon="8.8305989"><ele>110.0</ele><time>2026-04-12T14:26:57.938Z</time></trkpt><trkpt lat="45.3691933" lon="8.8305357"><ele>110.5</ele><time>2026-04-12T14:26:58.94Z</time></trkpt><trkpt lat="45.3693038" lon="8.8304763"><ele>111.0</ele><time>2026-04-12T14:26:59.94Z</time></trkpt><trkpt lat="45.3694134" lon="8.8304163"><ele>111.5</ele><time>2026-04-12T14:27:00.939Z</time></trkpt><trkpt lat="45.3695309" lon="8.8303567"><ele>112.0</ele><time>2026-04-12T14:27:01.939Z</time></trkpt><trkpt lat="45.3696486" lon="8.8302972"><ele>112.0</ele><time>2026-04-12T14:27:02.941Z</time></trkpt><trkpt lat="45.3697686" lon="8.8302318"><ele>112.0</ele><time>2026-04-12T14:27:03.939Z</time></trkpt><trkpt lat="45.3698777" lon="8.8301743"><ele>112.0</ele><time>2026-04-12T14:27:04.939Z</time></trkpt><trkpt lat="45.3699815" lon="8.8301148"><ele>112.0</ele><time>2026-04-12T14:27:05.94Z</time></trkpt><trkpt lat="45.3700839" lon="8.8300621"><ele>111.75</ele><time>2026-04-12T14:27:06.938Z</time></trkpt><trkpt lat="45.3701931" lon="8.8300029"><ele>111.5</ele><time>2026-04-12T14:27:07.939Z</time></trkpt><trkpt lat="45.3703031" lon="8.8299475"><ele>111.25</ele><time>2026-04-12T14:27:08.939Z</time></trkpt><trkpt lat="45.3704101" lon="8.8298905"><ele>111.0</ele><time>2026-04-12T14:27:09.939Z</time></trkpt><trkpt lat="45.3705217" lon="8.8298335"><ele>111.0</ele><time>2026-04-12T14:27:10.939Z</time></trkpt><trkpt lat="45.3706331" lon="8.829777"><ele>111.0</ele><time>2026-04-12T14:27:11.939Z</time></trkpt><trkpt lat="45.3707518" lon="8.8297153"><ele>111.0</ele><time>2026-04-12T14:27:12.94Z</time></trkpt><trkpt lat="45.3708688" lon="8.8296552"><ele>111.0</ele><time>2026-04-12T14:27:13.94Z</time></trkpt><trkpt lat="45.370986" lon="8.829597"><ele>111.0</ele><time>2026-04-12T14:27:14.94Z</time></trkpt><trkpt lat="45.3710891" lon="8.8295416"><ele>111.0</ele><time>2026-04-12T14:27:15.939Z</time></trkpt><trkpt lat="45.3711872" lon="8.8294873"><ele>111.0</ele><time>2026-04-12T14:27:16.938Z</time></trkpt><trkpt lat="45.3712876" lon="8.8294339"><ele>111.0</ele><time>2026-04-12T14:27:17.939Z</time></trkpt><trkpt lat="45.3713841" lon="8.8293851"><ele>111.0</ele><time>2026-04-12T14:27:18.939Z</time></trkpt><trkpt lat="45.3714772" lon="8.8293427"><ele>111.0</ele><time>2026-04-12T14:27:19.939Z</time></trkpt><trkpt lat="45.3715473" lon="8.8293038"><ele>111.0</ele><time>2026-04-12T14:27:20.939Z</time></trkpt><trkpt lat="45.3716212" lon="8.8292643"><ele>111.0</ele><time>2026-04-12T14:27:21.939Z</time></trkpt><trkpt lat="45.3717067" lon="8.8292219"><ele>111.0</ele><time>2026-04-12T14:27:22.939Z</time></trkpt><trkpt lat="45.3717953" lon="8.8291726"><ele>111.0</ele><time>2026-04-12T14:27:23.94Z</time></trkpt><trkpt lat="45.3718866" lon="8.8291276"><ele>111.0</ele><time>2026-04-12T14:27:24.938Z</time></trkpt><trkpt lat="45.3719735" lon="8.8290746"><ele>111.0</ele><time>2026-04-12T14:27:25.939Z</time></trkpt><trkpt lat="45.3720606" lon="8.829027"><ele>111.0</ele><time>2026-04-12T14:27:26.938Z</time></trkpt><trkpt lat="45.3721459" lon="8.8289836"><ele>111.0</ele><time>2026-04-12T14:27:27.939Z</time></trkpt><trkpt lat="45.3722205" lon="8.8289451"><ele>111.0</ele><time>2026-04-12T14:27:28.939Z</time></trkpt><trkpt lat="45.3723286" lon="8.8288893"><ele>111.0</ele><time>2026-04-12T14:27:30.939Z</time></trkpt><trkpt lat="45.3724184" lon="8.8288466"><ele>111.0</ele><time>2026-04-12T14:27:32.939Z</time></trkpt><trkpt lat="45.3725096" lon="8.8287945"><ele>111.0</ele><time>2026-04-12T14:27:34.939Z</time></trkpt><trkpt lat="45.3725948" lon="8.8287234"><ele>111.0</ele><time>2026-04-12T14:27:36.939Z</time></trkpt><trkpt lat="45.3726477" lon="8.8286311"><ele>111.0</ele><time>2026-04-12T14:27:38.939Z</time></trkpt><trkpt lat="45.3726523" lon="8.8285353"><ele>111.0</ele><time>2026-04-12T14:27:54.938Z</time></trkpt><trkpt lat="45.3727038" lon="8.8284477"><ele>111.0</ele><time>2026-04-12T14:29:38.941Z</time></trkpt><trkpt lat="45.3727668" lon="8.8283704"><ele>111.0</ele><time>2026-04-12T14:29:40.939Z</time></trkpt><trkpt lat="45.3728364" lon="8.8282789"><ele>111.0</ele><time>2026-04-12T14:29:42.939Z</time></trkpt><trkpt lat="45.3729234" lon="8.8281941"><ele>111.0</ele><time>2026-04-12T14:29:44.94Z</time></trkpt><trkpt lat="45.3730148" lon="8.8280993"><ele>111.0</ele><time>2026-04-12T14:29:46.939Z</time></trkpt><trkpt lat="45.3731144" lon="8.8280016"><ele>111.0</ele><time>2026-04-12T14:29:48.939Z</time></trkpt><trkpt lat="45.3731672" lon="8.8279488"><ele>111.0</ele><time>2026-04-12T14:29:49.939Z</time></trkpt><trkpt lat="45.3732207" lon="8.8278914"><ele>111.0</ele><time>2026-04-12T14:29:50.939Z</time></trkpt><trkpt lat="45.3732729" lon="8.8278335"><ele>111.0</ele><time>2026-04-12T14:29:51.939Z</time></trkpt><trkpt lat="45.3733343" lon="8.8277695"><ele>111.0</ele><time>2026-04-12T14:29:52.939Z</time></trkpt><trkpt lat="45.3733988" lon="8.8277053"><ele>111.0</ele><time>2026-04-12T14:29:53.939Z</time></trkpt><trkpt lat="45.3734663" lon="8.8276398"><ele>111.0</ele><time>2026-04-12T14:29:54.939Z</time></trkpt><trkpt lat="45.3735353" lon="8.8275742"><ele>111.0</ele><time>2026-04-12T14:29:55.939Z</time></trkpt><trkpt lat="45.3736029" lon="8.8275059"><ele>111.0</ele><time>2026-04-12T14:29:56.939Z</time></trkpt><trkpt lat="45.3736715" lon="8.8274417"><ele>111.0</ele><time>2026-04-12T14:29:57.939Z</time></trkpt><trkpt lat="45.3737391" lon="8.8273768"><ele>111.0</ele><time>2026-04-12T14:29:58.939Z</time></trkpt><trkpt lat="45.3738051" lon="8.8273118"><ele>111.0</ele><time>2026-04-12T14:29:59.939Z</time></trkpt><trkpt lat="45.3738667" lon="8.8272469"><ele>111.0</ele><time>2026-04-12T14:30:00.939Z</time></trkpt><trkpt lat="45.3739274" lon="8.8271876"><ele>111.19999999999999</ele><time>2026-04-12T14:30:01.939Z</time></trkpt><trkpt lat="45.3740207" lon="8.8270981"><ele>111.39999999999999</ele><time>2026-04-12T14:30:03.939Z</time></trkpt><trkpt lat="45.3740744" lon="8.8270506"><ele>111.6</ele><time>2026-04-12T14:30:06.938Z</time></trkpt><trkpt lat="45.374148" lon="8.8269759"><ele>111.8</ele><time>2026-04-12T14:32:50.938Z</time></trkpt><trkpt lat="45.3742352" lon="8.8268871"><ele>112.0</ele><time>2026-04-12T14:32:52.938Z</time></trkpt><trkpt lat="45.37432" lon="8.8268079"><ele>112.19999999999999</ele><time>2026-04-12T14:32:54.939Z</time></trkpt><trkpt lat="45.3744096" lon="8.8267127"><ele>112.39999999999999</ele><time>2026-04-12T14:32:56.938Z</time></trkpt><trkpt lat="45.3745004" lon="8.8266184"><ele>112.60000000000001</ele><time>2026-04-12T14:32:58.919Z</time></trkpt><trkpt lat="45.3745768" lon="8.8265344"><ele>112.80000000000001</ele><time>2026-04-12T14:33:00.918Z</time></trkpt><trkpt lat="45.3746366" lon="8.8264767"><ele>113.0</ele><time>2026-04-12T14:33:02.925Z</time></trkpt><trkpt lat="45.3747065" lon="8.8264646"><ele>113.0</ele><time>2026-04-12T14:33:04.925Z</time></trkpt><trkpt lat="45.3748102" lon="8.8265403"><ele>113.00000000000001</ele><time>2026-04-12T14:33:06.925Z</time></trkpt><trkpt lat="45.3748858" lon="8.8266051"><ele>113.00000000000001</ele><time>2026-04-12T14:33:07.925Z</time></trkpt><trkpt lat="45.3749788" lon="8.8266816"><ele>113.0</ele><time>2026-04-12T14:33:08.925Z</time></trkpt><trkpt lat="45.3750834" lon="8.8267673"><ele>113.0</ele><time>2026-04-12T14:33:09.925Z</time></trkpt><trkpt lat="45.3751996" lon="8.8268667"><ele>113.66666666666666</ele><time>2026-04-12T14:33:10.925Z</time></trkpt><trkpt lat="45.37533" lon="8.8269781"><ele>114.33333333333334</ele><time>2026-04-12T14:33:11.925Z</time></trkpt><trkpt lat="45.3754749" lon="8.8271042"><ele>115.0</ele><time>2026-04-12T14:33:12.925Z</time></trkpt><trkpt lat="45.3756361" lon="8.8272504"><ele>114.0</ele><time>2026-04-12T14:33:13.925Z</time></trkpt><trkpt lat="45.3757915" lon="8.8274081"><ele>113.0</ele><time>2026-04-12T14:33:14.925Z</time></trkpt><trkpt lat="45.3759336" lon="8.8275666"><ele>112.0</ele><time>2026-04-12T14:33:15.925Z</time></trkpt><trkpt lat="45.3760627" lon="8.8277188"><ele>112.0</ele><time>2026-04-12T14:33:16.925Z</time></trkpt><trkpt lat="45.3761813" lon="8.8278633"><ele>112.0</ele><time>2026-04-12T14:33:17.925Z</time></trkpt><trkpt lat="45.3762905" lon="8.8279979"><ele>112.0</ele><time>2026-04-12T14:33:18.925Z</time></trkpt><trkpt lat="45.3763921" lon="8.8281231"><ele>112.0</ele><time>2026-04-12T14:33:19.925Z</time></trkpt><trkpt lat="45.3764835" lon="8.8282393"><ele>111.83333333333334</ele><time>2026-04-12T14:33:20.925Z</time></trkpt><trkpt lat="45.3765612" lon="8.8283411"><ele>111.66666666666667</ele><time>2026-04-12T14:33:21.925Z</time></trkpt><trkpt lat="45.3766216" lon="8.8284247"><ele>111.5</ele><time>2026-04-12T14:33:22.925Z</time></trkpt><trkpt lat="45.3766659" lon="8.8284928"><ele>111.33333333333334</ele><time>2026-04-12T14:33:23.925Z</time></trkpt><trkpt lat="45.3767219" lon="8.8285721"><ele>111.16666666666667</ele><time>2026-04-12T14:33:25.925Z</time></trkpt><trkpt lat="45.3767997" lon="8.828596"><ele>111.0</ele><time>2026-04-12T14:33:28.925Z</time></trkpt><trkpt lat="45.3768771" lon="8.8286659"><ele>110.0</ele><time>2026-04-12T14:33:30.925Z</time></trkpt><trkpt lat="45.3769559" lon="8.82874"><ele>109.0</ele><time>2026-04-12T14:33:32.925Z</time></trkpt><trkpt lat="45.3770137" lon="8.8287848"><ele>108.0</ele><time>2026-04-12T14:33:34.925Z</time></trkpt><trkpt lat="45.3767535" lon="8.828636"><ele>107.0</ele><time>2026-04-12T14:34:36.925Z</time></trkpt><trkpt lat="45.3768212" lon="8.8287429"><ele>107.0</ele><time>2026-04-12T14:34:48.925Z</time></trkpt><trkpt lat="45.3768824" lon="8.8288231"><ele>106.99999999999999</ele><time>2026-04-12T14:34:49.925Z</time></trkpt><trkpt lat="45.376958" lon="8.8289"><ele>106.99999999999999</ele><time>2026-04-12T14:34:50.925Z</time></trkpt><trkpt lat="45.3770378" lon="8.8289674"><ele>107.0</ele><time>2026-04-12T14:34:51.925Z</time></trkpt><trkpt lat="45.3771226" lon="8.829009"><ele>107.0</ele><time>2026-04-12T14:34:52.925Z</time></trkpt><trkpt lat="45.3772201" lon="8.8290272"><ele>107.16666666666666</ele><time>2026-04-12T14:34:53.925Z</time></trkpt><trkpt lat="45.3773198" lon="8.8290172"><ele>107.33333333333333</ele><time>2026-04-12T14:34:54.925Z</time></trkpt><trkpt lat="45.3774153" lon="8.8290053"><ele>107.5</ele><time>2026-04-12T14:34:55.925Z</time></trkpt><trkpt lat="45.3775018" lon="8.8290135"><ele>107.66666666666666</ele><time>2026-04-12T14:34:56.925Z</time></trkpt><trkpt lat="45.3775733" lon="8.8290586"><ele>107.83333333333333</ele><time>2026-04-12T14:34:57.925Z</time></trkpt><trkpt lat="45.3776292" lon="8.8291356"><ele>108.0</ele><time>2026-04-12T14:34:58.925Z</time></trkpt><trkpt lat="45.3776726" lon="8.8292461"><ele>106.5</ele><time>2026-04-12T14:34:59.925Z</time></trkpt><trkpt lat="45.3777158" lon="8.8293783"><ele>105.0</ele><time>2026-04-12T14:35:00.926Z</time></trkpt><trkpt lat="45.3777677" lon="8.8295361"><ele>103.5</ele><time>2026-04-12T14:35:01.925Z</time></trkpt><trkpt lat="45.377819" lon="8.8297018"><ele>102.0</ele><time>2026-04-12T14:35:02.925Z</time></trkpt><trkpt lat="45.3778652" lon="8.8298703"><ele>102.0</ele><time>2026-04-12T14:35:03.925Z</time></trkpt><trkpt lat="45.3779038" lon="8.8300488"><ele>102.0</ele><time>2026-04-12T14:35:04.925Z</time></trkpt><trkpt lat="45.3779411" lon="8.8302394"><ele>102.0</ele><time>2026-04-12T14:35:05.925Z</time></trkpt><trkpt lat="45.3779792" lon="8.8304378"><ele>102.0</ele><time>2026-04-12T14:35:06.925Z</time></trkpt><trkpt lat="45.378016" lon="8.8306414"><ele>101.19999999999999</ele><time>2026-04-12T14:35:07.925Z</time></trkpt><trkpt lat="45.3780489" lon="8.8308333"><ele>100.4</ele><time>2026-04-12T14:35:08.925Z</time></trkpt><trkpt lat="45.3780787" lon="8.8310037"><ele>99.6</ele><time>2026-04-12T14:35:09.925Z</time></trkpt><trkpt lat="45.3781067" lon="8.8311463"><ele>98.80000000000001</ele><time>2026-04-12T14:35:10.925Z</time></trkpt><trkpt lat="45.3781365" lon="8.831254"><ele>98.0</ele><time>2026-04-12T14:35:11.925Z</time></trkpt><trkpt lat="45.3781716" lon="8.8313313"><ele>97.80000000000001</ele><time>2026-04-12T14:35:12.925Z</time></trkpt><trkpt lat="45.3782135" lon="8.8314126"><ele>97.6</ele><time>2026-04-12T14:35:14.925Z</time></trkpt><trkpt lat="45.3781999" lon="8.8315432"><ele>97.4</ele><time>2026-04-12T14:35:17.925Z</time></trkpt><trkpt lat="45.3782122" lon="8.8317177"><ele>97.19999999999999</ele><time>2026-04-12T14:35:19.925Z</time></trkpt><trkpt lat="45.3782319" lon="8.8318264"><ele>97.0</ele><time>2026-04-12T14:35:20.925Z</time></trkpt><trkpt lat="45.3782555" lon="8.8319546"><ele>96.75</ele><time>2026-04-12T14:35:21.925Z</time></trkpt><trkpt lat="45.3782818" lon="8.8320923"><ele>96.5</ele><time>2026-04-12T14:35:22.926Z</time></trkpt><trkpt lat="45.3783061" lon="8.8322473"><ele>96.25</ele><time>2026-04-12T14:35:23.925Z</time></trkpt><trkpt lat="45.3783325" lon="8.8324159"><ele>96.0</ele><time>2026-04-12T14:35:24.925Z</time></trkpt><trkpt lat="45.378364" lon="8.8325956"><ele>95.75</ele><time>2026-04-12T14:35:25.925Z</time></trkpt><trkpt lat="45.3783986" lon="8.8327806"><ele>95.5</ele><time>2026-04-12T14:35:26.925Z</time></trkpt><trkpt lat="45.3784335" lon="8.8329736"><ele>95.25</ele><time>2026-04-12T14:35:27.925Z</time></trkpt><trkpt lat="45.3784677" lon="8.8331753"><ele>95.0</ele><time>2026-04-12T14:35:28.925Z</time></trkpt><trkpt lat="45.3785069" lon="8.8333982"><ele>95.0</ele><time>2026-04-12T14:35:29.925Z</time></trkpt><trkpt lat="45.3785521" lon="8.8336548"><ele>95.0</ele><time>2026-04-12T14:35:30.925Z</time></trkpt><trkpt lat="45.3785951" lon="8.833905"><ele>95.0</ele><time>2026-04-12T14:35:31.925Z</time></trkpt><trkpt lat="45.3786352" lon="8.8341428"><ele>95.5</ele><time>2026-04-12T14:35:32.925Z</time></trkpt><trkpt lat="45.3786724" lon="8.8343623"><ele>96.0</ele><time>2026-04-12T14:35:33.926Z</time></trkpt><trkpt lat="45.3787028" lon="8.8345562"><ele>96.5</ele><time>2026-04-12T14:35:34.925Z</time></trkpt><trkpt lat="45.3787284" lon="8.83473"><ele>97.0</ele><time>2026-04-12T14:35:35.925Z</time></trkpt><trkpt lat="45.3787503" lon="8.8348731"><ele>97.00000000000001</ele><time>2026-04-12T14:35:36.925Z</time></trkpt><trkpt lat="45.3787708" lon="8.8349938"><ele>97.0</ele><time>2026-04-12T14:35:37.925Z</time></trkpt><trkpt lat="45.3787835" lon="8.8350953"><ele>97.0</ele><time>2026-04-12T14:35:38.925Z</time></trkpt><trkpt lat="45.3788051" lon="8.8352035"><ele>97.0</ele><time>2026-04-12T14:35:40.925Z</time></trkpt><trkpt lat="45.3788861" lon="8.8352666"><ele>97.00000000000001</ele><time>2026-04-12T14:36:10.925Z</time></trkpt><trkpt lat="45.3789724" lon="8.8353155"><ele>97.0</ele><time>2026-04-12T14:36:12.925Z</time></trkpt><trkpt lat="45.3790712" lon="8.8353473"><ele>96.75</ele><time>2026-04-12T14:36:14.925Z</time></trkpt><trkpt lat="45.379182" lon="8.8353731"><ele>96.5</ele><time>2026-04-12T14:36:16.925Z</time></trkpt><trkpt lat="45.3792968" lon="8.8353893"><ele>96.25</ele><time>2026-04-12T14:36:18.925Z</time></trkpt><trkpt lat="45.3794137" lon="8.8354006"><ele>96.0</ele><time>2026-04-12T14:36:20.925Z</time></trkpt><trkpt lat="45.3795285" lon="8.8354122"><ele>96.0</ele><time>2026-04-12T14:36:22.925Z</time></trkpt><trkpt lat="45.3796505" lon="8.83542"><ele>96.0</ele><time>2026-04-12T14:36:24.925Z</time></trkpt><trkpt lat="45.3797155" lon="8.8354224"><ele>96.0</ele><time>2026-04-12T14:36:25.925Z</time></trkpt><trkpt lat="45.3798413" lon="8.8354112"><ele>96.0</ele><time>2026-04-12T14:36:27.925Z</time></trkpt><trkpt lat="45.3799106" lon="8.8354088"><ele>96.0</ele><time>2026-04-12T14:36:28.925Z</time></trkpt><trkpt lat="45.3800278" lon="8.8354133"><ele>96.19999999999999</ele><time>2026-04-12T14:36:30.925Z</time></trkpt><trkpt lat="45.3801401" lon="8.8354"><ele>96.39999999999999</ele><time>2026-04-12T14:36:32.925Z</time></trkpt><trkpt lat="45.3802647" lon="8.8354016"><ele>96.6</ele><time>2026-04-12T14:36:34.925Z</time></trkpt><trkpt lat="45.3803377" lon="8.8354034"><ele>96.8</ele><time>2026-04-12T14:36:35.925Z</time></trkpt><trkpt lat="45.3804165" lon="8.8354033"><ele>97.0</ele><time>2026-04-12T14:36:36.925Z</time></trkpt><trkpt lat="45.3804915" lon="8.8354031"><ele>96.8</ele><time>2026-04-12T14:36:37.925Z</time></trkpt><trkpt lat="45.3805637" lon="8.8354016"><ele>96.6</ele><time>2026-04-12T14:36:38.925Z</time></trkpt><trkpt lat="45.3806871" lon="8.8354038"><ele>96.39999999999999</ele><time>2026-04-12T14:36:40.925Z</time></trkpt><trkpt lat="45.3808114" lon="8.8354353"><ele>96.19999999999999</ele><time>2026-04-12T14:36:42.925Z</time></trkpt><trkpt lat="45.3808753" lon="8.8354704"><ele>96.0</ele><time>2026-04-12T14:36:43.925Z</time></trkpt><trkpt lat="45.3809339" lon="8.8355157"><ele>96.0</ele><time>2026-04-12T14:36:44.925Z</time></trkpt><trkpt lat="45.3809899" lon="8.8355622"><ele>96.0</ele><time>2026-04-12T14:36:45.925Z</time></trkpt><trkpt lat="45.3810802" lon="8.835632"><ele>96.0</ele><time>2026-04-12T14:36:47.925Z</time></trkpt><trkpt lat="45.381186" lon="8.835657"><ele>96.0</ele><time>2026-04-12T14:36:49.925Z</time></trkpt><trkpt lat="45.3812494" lon="8.8356573"><ele>96.0</ele><time>2026-04-12T14:36:50.925Z</time></trkpt><trkpt lat="45.3813194" lon="8.8356625"><ele>96.0</ele><time>2026-04-12T14:36:51.925Z</time></trkpt><trkpt lat="45.3813994" lon="8.8356664"><ele>97.0</ele><time>2026-04-12T14:36:52.925Z</time></trkpt><trkpt lat="45.3814776" lon="8.8356686"><ele>98.0</ele><time>2026-04-12T14:36:53.925Z</time></trkpt><trkpt lat="45.3815556" lon="8.8356693"><ele>99.0</ele><time>2026-04-12T14:36:54.925Z</time></trkpt><trkpt lat="45.3816343" lon="8.8356622"><ele>100.0</ele><time>2026-04-12T14:36:55.925Z</time></trkpt><trkpt lat="45.3817125" lon="8.8356544"><ele>101.0</ele><time>2026-04-12T14:36:56.925Z</time></trkpt><trkpt lat="45.3817956" lon="8.8356438"><ele>102.0</ele><time>2026-04-12T14:36:57.925Z</time></trkpt><trkpt lat="45.381874" lon="8.8356251"><ele>102.0</ele><time>2026-04-12T14:36:58.925Z</time></trkpt><trkpt lat="45.3819564" lon="8.835612"><ele>102.0</ele><time>2026-04-12T14:36:59.925Z</time></trkpt><trkpt lat="45.3820342" lon="8.8355955"><ele>102.0</ele><time>2026-04-12T14:37:00.925Z</time></trkpt><trkpt lat="45.3821096" lon="8.8355832"><ele>102.0</ele><time>2026-04-12T14:37:01.925Z</time></trkpt><trkpt lat="45.3821882" lon="8.8355721"><ele>102.0</ele><time>2026-04-12T14:37:02.925Z</time></trkpt><trkpt lat="45.3822616" lon="8.8355583"><ele>102.0</ele><time>2026-04-12T14:37:03.925Z</time></trkpt><trkpt lat="45.3823331" lon="8.8355451"><ele>101.85714285714286</ele><time>2026-04-12T14:37:04.925Z</time></trkpt><trkpt lat="45.3823988" lon="8.8355333"><ele>101.71428571428572</ele><time>2026-04-12T14:37:05.925Z</time></trkpt><trkpt lat="45.3824676" lon="8.8355209"><ele>101.57142857142857</ele><time>2026-04-12T14:37:06.925Z</time></trkpt><trkpt lat="45.3825333" lon="8.8355053"><ele>101.42857142857143</ele><time>2026-04-12T14:37:07.925Z</time></trkpt><trkpt lat="45.3825971" lon="8.8354924"><ele>101.28571428571428</ele><time>2026-04-12T14:37:08.925Z</time></trkpt><trkpt lat="45.3826655" lon="8.8354823"><ele>101.14285714285714</ele><time>2026-04-12T14:37:09.925Z</time></trkpt><trkpt lat="45.3827345" lon="8.8354713"><ele>101.0</ele><time>2026-04-12T14:37:10.926Z</time></trkpt><trkpt lat="45.3828022" lon="8.8354567"><ele>101.0</ele><time>2026-04-12T14:37:11.925Z</time></trkpt><trkpt lat="45.3829201" lon="8.8354358"><ele>101.0</ele><time>2026-04-12T14:37:13.925Z</time></trkpt><trkpt lat="45.3830293" lon="8.8354005"><ele>101.0</ele><time>2026-04-12T14:37:15.925Z</time></trkpt><trkpt lat="45.38314" lon="8.8353277"><ele>101.0</ele><time>2026-04-12T14:37:17.925Z</time></trkpt><trkpt lat="45.3831899" lon="8.8352646"><ele>101.0</ele><time>2026-04-12T14:37:18.925Z</time></trkpt><trkpt lat="45.3832353" lon="8.8351904"><ele>100.83333333333333</ele><time>2026-04-12T14:37:19.926Z</time></trkpt><trkpt lat="45.3832784" lon="8.8351053"><ele>100.66666666666666</ele><time>2026-04-12T14:37:20.925Z</time></trkpt><trkpt lat="45.3833174" lon="8.8350137"><ele>100.5</ele><time>2026-04-12T14:37:21.925Z</time></trkpt><trkpt lat="45.3833572" lon="8.8349196"><ele>100.33333333333334</ele><time>2026-04-12T14:37:22.925Z</time></trkpt><trkpt lat="45.3833959" lon="8.8348284"><ele>100.16666666666667</ele><time>2026-04-12T14:37:23.925Z</time></trkpt><trkpt lat="45.3834353" lon="8.8347335"><ele>100.0</ele><time>2026-04-12T14:37:24.925Z</time></trkpt><trkpt lat="45.3834771" lon="8.8346394"><ele>100.00000000000001</ele><time>2026-04-12T14:37:25.925Z</time></trkpt><trkpt lat="45.383518" lon="8.8345487"><ele>100.0</ele><time>2026-04-12T14:37:26.925Z</time></trkpt><trkpt lat="45.3835559" lon="8.8344604"><ele>100.0</ele><time>2026-04-12T14:37:27.925Z</time></trkpt><trkpt lat="45.3835923" lon="8.8343794"><ele>100.0</ele><time>2026-04-12T14:37:28.925Z</time></trkpt><trkpt lat="45.3836305" lon="8.8343022"><ele>100.0</ele><time>2026-04-12T14:37:29.925Z</time></trkpt><trkpt lat="45.3836702" lon="8.834223"><ele>100.00000000000001</ele><time>2026-04-12T14:37:30.925Z</time></trkpt><trkpt lat="45.3837084" lon="8.8341431"><ele>100.0</ele><time>2026-04-12T14:37:31.925Z</time></trkpt><trkpt lat="45.3837468" lon="8.8340642"><ele>100.00000000000001</ele><time>2026-04-12T14:37:32.925Z</time></trkpt><trkpt lat="45.3837839" lon="8.8339878"><ele>100.0</ele><time>2026-04-12T14:37:33.925Z</time></trkpt><trkpt lat="45.3838216" lon="8.8339074"><ele>100.0</ele><time>2026-04-12T14:37:34.925Z</time></trkpt><trkpt lat="45.3838623" lon="8.8338335"><ele>100.0</ele><time>2026-04-12T14:37:35.925Z</time></trkpt><trkpt lat="45.3839065" lon="8.8337587"><ele>100.0</ele><time>2026-04-12T14:37:36.925Z</time></trkpt><trkpt lat="45.3839497" lon="8.8336818"><ele>100.00000000000001</ele><time>2026-04-12T14:37:37.925Z</time></trkpt><trkpt lat="45.3839983" lon="8.8336061"><ele>100.0</ele><time>2026-04-12T14:37:38.925Z</time></trkpt><trkpt lat="45.3840438" lon="8.8335369"><ele>100.4</ele><time>2026-04-12T14:37:39.925Z</time></trkpt><trkpt lat="45.3841376" lon="8.8334114"><ele>100.8</ele><time>2026-04-12T14:37:41.925Z</time></trkpt><trkpt lat="45.3841899" lon="8.8333416"><ele>101.19999999999999</ele><time>2026-04-12T14:37:42.925Z</time></trkpt><trkpt lat="45.3842386" lon="8.8332841"><ele>101.6</ele><time>2026-04-12T14:37:43.925Z</time></trkpt><trkpt lat="45.3843302" lon="8.8331885"><ele>102.0</ele><time>2026-04-12T14:37:45.925Z</time></trkpt><trkpt lat="45.3844225" lon="8.8331024"><ele>102.0</ele><time>2026-04-12T14:37:47.926Z</time></trkpt><trkpt lat="45.3845241" lon="8.8330075"><ele>102.0</ele><time>2026-04-12T14:37:49.925Z</time></trkpt><trkpt lat="45.3846265" lon="8.8329157"><ele>102.0</ele><time>2026-04-12T14:37:51.925Z</time></trkpt><trkpt lat="45.3847172" lon="8.8328233"><ele>102.0</ele><time>2026-04-12T14:37:53.925Z</time></trkpt><trkpt lat="45.3847967" lon="8.8327136"><ele>101.33333333333333</ele><time>2026-04-12T14:37:55.925Z</time></trkpt><trkpt lat="45.3848667" lon="8.8325735"><ele>100.66666666666666</ele><time>2026-04-12T14:37:57.925Z</time></trkpt><trkpt lat="45.384901" lon="8.8324971"><ele>100.0</ele><time>2026-04-12T14:37:58.925Z</time></trkpt><trkpt lat="45.3849397" lon="8.8324171"><ele>99.33333333333333</ele><time>2026-04-12T14:37:59.925Z</time></trkpt><trkpt lat="45.3849766" lon="8.8323383"><ele>98.66666666666666</ele><time>2026-04-12T14:38:00.925Z</time></trkpt><trkpt lat="45.3850083" lon="8.8322568"><ele>98.0</ele><time>2026-04-12T14:38:01.925Z</time></trkpt><trkpt lat="45.3850385" lon="8.832173"><ele>98.0</ele><time>2026-04-12T14:38:02.925Z</time></trkpt><trkpt lat="45.385074" lon="8.8320915"><ele>98.0</ele><time>2026-04-12T14:38:03.925Z</time></trkpt><trkpt lat="45.3851121" lon="8.8320106"><ele>98.0</ele><time>2026-04-12T14:38:04.925Z</time></trkpt><trkpt lat="45.3851467" lon="8.831927"><ele>98.0</ele><time>2026-04-12T14:38:05.925Z</time></trkpt><trkpt lat="45.3851818" lon="8.8318455"><ele>98.0</ele><time>2026-04-12T14:38:06.925Z</time></trkpt><trkpt lat="45.3852177" lon="8.8317629"><ele>98.0</ele><time>2026-04-12T14:38:07.925Z</time></trkpt><trkpt lat="45.3852531" lon="8.831683"><ele>98.0</ele><time>2026-04-12T14:38:08.925Z</time></trkpt><trkpt lat="45.3852903" lon="8.8316007"><ele>98.0</ele><time>2026-04-12T14:38:09.925Z</time></trkpt><trkpt lat="45.3853275" lon="8.8315217"><ele>98.0</ele><time>2026-04-12T14:38:10.925Z</time></trkpt><trkpt lat="45.3853643" lon="8.8314466"><ele>98.0</ele><time>2026-04-12T14:38:11.925Z</time></trkpt><trkpt lat="45.3854026" lon="8.8313723"><ele>98.0</ele><time>2026-04-12T14:38:12.925Z</time></trkpt><trkpt lat="45.3854423" lon="8.831301"><ele>98.0</ele><time>2026-04-12T14:38:13.925Z</time></trkpt><trkpt lat="45.3854813" lon="8.8312287"><ele>98.0</ele><time>2026-04-12T14:38:14.925Z</time></trkpt><trkpt lat="45.3855645" lon="8.8311158"><ele>98.0</ele><time>2026-04-12T14:38:16.925Z</time></trkpt><trkpt lat="45.3856552" lon="8.8310434"><ele>97.99999999999999</ele><time>2026-04-12T14:38:18.925Z</time></trkpt><trkpt lat="45.3857521" lon="8.8309936"><ele>98.0</ele><time>2026-04-12T14:38:20.926Z</time></trkpt><trkpt lat="45.3858148" lon="8.8309674"><ele>98.0</ele><time>2026-04-12T14:38:21.925Z</time></trkpt><trkpt lat="45.3858751" lon="8.8309391"><ele>98.0</ele><time>2026-04-12T14:38:22.925Z</time></trkpt><trkpt lat="45.3859836" lon="8.8308768"><ele>97.99999999999999</ele><time>2026-04-12T14:38:24.926Z</time></trkpt><trkpt lat="45.3860412" lon="8.8308375"><ele>98.0</ele><time>2026-04-12T14:38:25.925Z</time></trkpt><trkpt lat="45.3860995" lon="8.8307953"><ele>98.16666666666666</ele><time>2026-04-12T14:38:26.925Z</time></trkpt><trkpt lat="45.3861572" lon="8.8307527"><ele>98.33333333333333</ele><time>2026-04-12T14:38:27.925Z</time></trkpt><trkpt lat="45.3862132" lon="8.8307081"><ele>98.5</ele><time>2026-04-12T14:38:28.925Z</time></trkpt><trkpt lat="45.3862696" lon="8.8306623"><ele>98.66666666666666</ele><time>2026-04-12T14:38:29.925Z</time></trkpt><trkpt lat="45.3863262" lon="8.8306171"><ele>98.83333333333333</ele><time>2026-04-12T14:38:30.925Z</time></trkpt><trkpt lat="45.3864141" lon="8.8305476"><ele>99.0</ele><time>2026-04-12T14:38:32.925Z</time></trkpt><trkpt lat="45.3865084" lon="8.830479"><ele>99.0</ele><time>2026-04-12T14:41:32.925Z</time></trkpt><trkpt lat="45.3865935" lon="8.8304193"><ele>99.0</ele><time>2026-04-12T14:41:34.925Z</time></trkpt><trkpt lat="45.3866999" lon="8.8303585"><ele>99.0</ele><time>2026-04-12T14:41:36.925Z</time></trkpt><trkpt lat="45.3868085" lon="8.8303001"><ele>99.0</ele><time>2026-04-12T14:41:38.925Z</time></trkpt><trkpt lat="45.3869166" lon="8.830248"><ele>99.0</ele><time>2026-04-12T14:41:40.925Z</time></trkpt><trkpt lat="45.387028" lon="8.8301998"><ele>99.0</ele><time>2026-04-12T14:41:42.925Z</time></trkpt><trkpt lat="45.3871403" lon="8.8301513"><ele>99.0</ele><time>2026-04-12T14:41:44.925Z</time></trkpt><trkpt lat="45.3872505" lon="8.8300967"><ele>99.0</ele><time>2026-04-12T14:41:46.925Z</time></trkpt><trkpt lat="45.3873421" lon="8.8300144"><ele>99.0</ele><time>2026-04-12T14:41:48.925Z</time></trkpt><trkpt lat="45.3874107" lon="8.8298916"><ele>98.85714285714286</ele><time>2026-04-12T14:41:50.925Z</time></trkpt><trkpt lat="45.3874452" lon="8.8298157"><ele>98.71428571428571</ele><time>2026-04-12T14:41:51.925Z</time></trkpt><trkpt lat="45.3874774" lon="8.8297386"><ele>98.57142857142857</ele><time>2026-04-12T14:41:52.925Z</time></trkpt><trkpt lat="45.3875164" lon="8.8296645"><ele>98.42857142857143</ele><time>2026-04-12T14:41:53.925Z</time></trkpt><trkpt lat="45.3875646" lon="8.8295895"><ele>98.28571428571428</ele><time>2026-04-12T14:41:54.925Z</time></trkpt><trkpt lat="45.3876231" lon="8.8295229"><ele>98.14285714285714</ele><time>2026-04-12T14:41:55.925Z</time></trkpt><trkpt lat="45.387692" lon="8.8294655"><ele>98.0</ele><time>2026-04-12T14:41:56.925Z</time></trkpt><trkpt lat="45.3877675" lon="8.8294119"><ele>97.99999999999999</ele><time>2026-04-12T14:41:57.925Z</time></trkpt><trkpt lat="45.3878448" lon="8.8293658"><ele>98.0</ele><time>2026-04-12T14:41:58.925Z</time></trkpt><trkpt lat="45.3879222" lon="8.8293253"><ele>98.0</ele><time>2026-04-12T14:41:59.925Z</time></trkpt><trkpt lat="45.3880004" lon="8.8292814"><ele>98.0</ele><time>2026-04-12T14:42:00.925Z</time></trkpt><trkpt lat="45.388075" lon="8.8292404"><ele>97.99999999999999</ele><time>2026-04-12T14:42:01.925Z</time></trkpt><trkpt lat="45.3881563" lon="8.8291995"><ele>98.0</ele><time>2026-04-12T14:42:02.925Z</time></trkpt><trkpt lat="45.3882409" lon="8.8291538"><ele>97.99999999999999</ele><time>2026-04-12T14:42:03.925Z</time></trkpt><trkpt lat="45.3883218" lon="8.8291114"><ele>98.0</ele><time>2026-04-12T14:42:04.925Z</time></trkpt><trkpt lat="45.388401" lon="8.8290634"><ele>98.0</ele><time>2026-04-12T14:42:05.925Z</time></trkpt><trkpt lat="45.3884769" lon="8.8290076"><ele>98.0</ele><time>2026-04-12T14:42:06.925Z</time></trkpt><trkpt lat="45.3885521" lon="8.8289451"><ele>97.99999999999999</ele><time>2026-04-12T14:42:07.925Z</time></trkpt><trkpt lat="45.3886181" lon="8.8288883"><ele>98.0</ele><time>2026-04-12T14:42:08.925Z</time></trkpt><trkpt lat="45.3886886" lon="8.8288304"><ele>97.99999999999999</ele><time>2026-04-12T14:42:09.925Z</time></trkpt><trkpt lat="45.3887605" lon="8.8287839"><ele>98.0</ele><time>2026-04-12T14:42:10.925Z</time></trkpt><trkpt lat="45.3888321" lon="8.8287404"><ele>98.0</ele><time>2026-04-12T14:42:11.925Z</time></trkpt><trkpt lat="45.3889068" lon="8.8286996"><ele>98.0</ele><time>2026-04-12T14:42:12.925Z</time></trkpt><trkpt lat="45.3889715" lon="8.8286544"><ele>97.99999999999999</ele><time>2026-04-12T14:42:13.926Z</time></trkpt><trkpt lat="45.3890389" lon="8.8285953"><ele>98.0</ele><time>2026-04-12T14:42:14.925Z</time></trkpt><trkpt lat="45.3891064" lon="8.8285281"><ele>97.99999999999999</ele><time>2026-04-12T14:42:15.925Z</time></trkpt><trkpt lat="45.3891777" lon="8.8284628"><ele>98.0</ele><time>2026-04-12T14:42:16.925Z</time></trkpt><trkpt lat="45.3892522" lon="8.8284055"><ele>98.0</ele><time>2026-04-12T14:42:17.925Z</time></trkpt><trkpt lat="45.389325" lon="8.8283532"><ele>98.0</ele><time>2026-04-12T14:42:18.925Z</time></trkpt><trkpt lat="45.3893934" lon="8.828294"><ele>97.99999999999999</ele><time>2026-04-12T14:42:19.925Z</time></trkpt><trkpt lat="45.3894476" lon="8.828247"><ele>98.0</ele><time>2026-04-12T14:42:20.925Z</time></trkpt><trkpt lat="45.3895311" lon="8.82813"><ele>97.99999999999999</ele><time>2026-04-12T14:42:22.925Z</time></trkpt><trkpt lat="45.3896057" lon="8.827988"><ele>98.0</ele><time>2026-04-12T14:42:24.925Z</time></trkpt><trkpt lat="45.3896422" lon="8.8279107"><ele>98.0</ele><time>2026-04-12T14:42:25.925Z</time></trkpt><trkpt lat="45.3896741" lon="8.8278314"><ele>98.0</ele><time>2026-04-12T14:42:26.925Z</time></trkpt><trkpt lat="45.3897043" lon="8.827747"><ele>97.99999999999999</ele><time>2026-04-12T14:42:27.926Z</time></trkpt><trkpt lat="45.389746" lon="8.8275786"><ele>98.0</ele><time>2026-04-12T14:42:29.925Z</time></trkpt><trkpt lat="45.3897622" lon="8.8274116"><ele>97.80000000000001</ele><time>2026-04-12T14:42:31.925Z</time></trkpt><trkpt lat="45.3897742" lon="8.8272713"><ele>97.6</ele><time>2026-04-12T14:42:33.925Z</time></trkpt><trkpt lat="45.3898367" lon="8.8271747"><ele>97.4</ele><time>2026-04-12T14:42:35.925Z</time></trkpt><trkpt lat="45.3899313" lon="8.8271156"><ele>97.19999999999999</ele><time>2026-04-12T14:42:37.925Z</time></trkpt><trkpt lat="45.3900358" lon="8.8270436"><ele>97.0</ele><time>2026-04-12T14:42:39.925Z</time></trkpt><trkpt lat="45.3901377" lon="8.8269682"><ele>97.00000000000001</ele><time>2026-04-12T14:42:41.925Z</time></trkpt><trkpt lat="45.3902437" lon="8.8268977"><ele>97.0</ele><time>2026-04-12T14:42:43.925Z</time></trkpt><trkpt lat="45.3903032" lon="8.8268601"><ele>97.0</ele><time>2026-04-12T14:42:44.925Z</time></trkpt><trkpt lat="45.3903644" lon="8.8268201"><ele>97.0</ele><time>2026-04-12T14:42:45.925Z</time></trkpt><trkpt lat="45.3904311" lon="8.8267769"><ele>97.00000000000001</ele><time>2026-04-12T14:42:46.925Z</time></trkpt><trkpt lat="45.3905015" lon="8.8267321"><ele>97.0</ele><time>2026-04-12T14:42:47.925Z</time></trkpt><trkpt lat="45.3905744" lon="8.8266837"><ele>97.33333333333334</ele><time>2026-04-12T14:42:48.925Z</time></trkpt><trkpt lat="45.390645" lon="8.8266386"><ele>97.66666666666667</ele><time>2026-04-12T14:42:49.925Z</time></trkpt><trkpt lat="45.3907123" lon="8.8265909"><ele>98.0</ele><time>2026-04-12T14:42:50.925Z</time></trkpt><trkpt lat="45.3907801" lon="8.8265457"><ele>98.33333333333334</ele><time>2026-04-12T14:42:51.925Z</time></trkpt><trkpt lat="45.3908471" lon="8.8265049"><ele>98.66666666666667</ele><time>2026-04-12T14:42:52.925Z</time></trkpt><trkpt lat="45.3909157" lon="8.8264616"><ele>99.0</ele><time>2026-04-12T14:42:53.925Z</time></trkpt><trkpt lat="45.3909876" lon="8.8264157"><ele>99.0</ele><time>2026-04-12T14:42:54.925Z</time></trkpt><trkpt lat="45.3910648" lon="8.8263647"><ele>99.0</ele><time>2026-04-12T14:42:55.925Z</time></trkpt><trkpt lat="45.3911437" lon="8.826312"><ele>99.0</ele><time>2026-04-12T14:42:56.925Z</time></trkpt><trkpt lat="45.3912242" lon="8.8262598"><ele>99.0</ele><time>2026-04-12T14:42:57.925Z</time></trkpt><trkpt lat="45.3913022" lon="8.8262099"><ele>99.0</ele><time>2026-04-12T14:42:58.925Z</time></trkpt><trkpt lat="45.3913812" lon="8.8261582"><ele>99.0</ele><time>2026-04-12T14:42:59.925Z</time></trkpt><trkpt lat="45.3914634" lon="8.8261051"><ele>98.83333333333333</ele><time>2026-04-12T14:43:00.925Z</time></trkpt><trkpt lat="45.3915446" lon="8.8260546"><ele>98.66666666666666</ele><time>2026-04-12T14:43:01.925Z</time></trkpt><trkpt lat="45.391625" lon="8.8260054"><ele>98.5</ele><time>2026-04-12T14:43:02.925Z</time></trkpt><trkpt lat="45.391701" lon="8.8259625"><ele>98.33333333333333</ele><time>2026-04-12T14:43:03.925Z</time></trkpt><trkpt lat="45.3917733" lon="8.8259209"><ele>98.16666666666666</ele><time>2026-04-12T14:43:04.925Z</time></trkpt><trkpt lat="45.3918428" lon="8.8258772"><ele>98.0</ele><time>2026-04-12T14:43:05.925Z</time></trkpt><trkpt lat="45.3919152" lon="8.825832"><ele>97.83333333333333</ele><time>2026-04-12T14:43:06.925Z</time></trkpt><trkpt lat="45.3919879" lon="8.8257863"><ele>97.66666666666666</ele><time>2026-04-12T14:43:07.925Z</time></trkpt><trkpt lat="45.3920619" lon="8.8257413"><ele>97.5</ele><time>2026-04-12T14:43:08.925Z</time></trkpt><trkpt lat="45.392138" lon="8.8256991"><ele>97.33333333333334</ele><time>2026-04-12T14:43:09.925Z</time></trkpt><trkpt lat="45.3922161" lon="8.8256581"><ele>97.16666666666667</ele><time>2026-04-12T14:43:10.925Z</time></trkpt><trkpt lat="45.3922963" lon="8.8256174"><ele>97.0</ele><time>2026-04-12T14:43:11.925Z</time></trkpt><trkpt lat="45.3923694" lon="8.8255832"><ele>97.0</ele><time>2026-04-12T14:43:12.925Z</time></trkpt><trkpt lat="45.3924338" lon="8.8255513"><ele>97.0</ele><time>2026-04-12T14:43:13.925Z</time></trkpt><trkpt lat="45.3924958" lon="8.8255184"><ele>97.0</ele><time>2026-04-12T14:43:14.926Z</time></trkpt><trkpt lat="45.392559" lon="8.8254875"><ele>97.0</ele><time>2026-04-12T14:43:15.925Z</time></trkpt><trkpt lat="45.3926267" lon="8.8254534"><ele>97.0</ele><time>2026-04-12T14:43:16.925Z</time></trkpt><trkpt lat="45.3926989" lon="8.8254185"><ele>97.0</ele><time>2026-04-12T14:43:17.925Z</time></trkpt><trkpt lat="45.3927695" lon="8.8253845"><ele>97.0</ele><time>2026-04-12T14:43:18.925Z</time></trkpt><trkpt lat="45.3928384" lon="8.8253528"><ele>97.0</ele><time>2026-04-12T14:43:19.925Z</time></trkpt><trkpt lat="45.3929068" lon="8.8253186"><ele>97.0</ele><time>2026-04-12T14:43:20.925Z</time></trkpt><trkpt lat="45.3929765" lon="8.8252858"><ele>97.0</ele><time>2026-04-12T14:43:21.925Z</time></trkpt><trkpt lat="45.3930489" lon="8.8252515"><ele>97.0</ele><time>2026-04-12T14:43:22.925Z</time></trkpt><trkpt lat="45.3931181" lon="8.825215"><ele>97.0</ele><time>2026-04-12T14:43:23.925Z</time></trkpt><trkpt lat="45.3931831" lon="8.8251817"><ele>97.0</ele><time>2026-04-12T14:43:24.925Z</time></trkpt><trkpt lat="45.3932441" lon="8.8251509"><ele>97.0</ele><time>2026-04-12T14:43:25.925Z</time></trkpt><trkpt lat="45.3933072" lon="8.8251206"><ele>97.00000000000001</ele><time>2026-04-12T14:43:26.925Z</time></trkpt><trkpt lat="45.393371" lon="8.8250875"><ele>97.0</ele><time>2026-04-12T14:43:27.925Z</time></trkpt><trkpt lat="45.3934403" lon="8.8250532"><ele>97.0</ele><time>2026-04-12T14:43:28.925Z</time></trkpt><trkpt lat="45.3935088" lon="8.8250194"><ele>97.0</ele><time>2026-04-12T14:43:29.925Z</time></trkpt><trkpt lat="45.3935806" lon="8.8249849"><ele>97.00000000000001</ele><time>2026-04-12T14:43:30.925Z</time></trkpt><trkpt lat="45.3936562" lon="8.824947"><ele>97.0</ele><time>2026-04-12T14:43:31.925Z</time></trkpt><trkpt lat="45.3937319" lon="8.8249102"><ele>97.00000000000001</ele><time>2026-04-12T14:43:32.925Z</time></trkpt><trkpt lat="45.3938002" lon="8.8248766"><ele>97.0</ele><time>2026-04-12T14:43:33.925Z</time></trkpt><trkpt lat="45.3938601" lon="8.8248463"><ele>97.0</ele><time>2026-04-12T14:43:34.925Z</time></trkpt><trkpt lat="45.3939605" lon="8.8247982"><ele>97.0</ele><time>2026-04-12T14:43:36.925Z</time></trkpt><trkpt lat="45.3940259" lon="8.8247604"><ele>97.00000000000001</ele><time>2026-04-12T14:43:38.925Z</time></trkpt><trkpt lat="45.3940476" lon="8.824666"><ele>97.0</ele><time>2026-04-12T14:43:41.925Z</time></trkpt><trkpt lat="45.3940167" lon="8.8245443"><ele>96.8</ele><time>2026-04-12T14:43:44.925Z</time></trkpt><trkpt lat="45.3939867" lon="8.8244265"><ele>96.6</ele><time>2026-04-12T14:43:46.925Z</time></trkpt><trkpt lat="45.3939563" lon="8.8242945"><ele>96.39999999999999</ele><time>2026-04-12T14:43:48.925Z</time></trkpt><trkpt lat="45.39392" lon="8.8241403"><ele>96.19999999999999</ele><time>2026-04-12T14:43:50.925Z</time></trkpt><trkpt lat="45.3938994" lon="8.8240526"><ele>96.0</ele><time>2026-04-12T14:43:51.925Z</time></trkpt><trkpt lat="45.393868" lon="8.8238971"><ele>96.5</ele><time>2026-04-12T14:43:53.925Z</time></trkpt><trkpt lat="45.3938795" lon="8.8237742"><ele>97.0</ele><time>2026-04-12T14:43:55.925Z</time></trkpt><trkpt lat="45.3939457" lon="8.8236737"><ele>97.5</ele><time>2026-04-12T14:43:57.925Z</time></trkpt><trkpt lat="45.3940534" lon="8.8236013"><ele>98.0</ele><time>2026-04-12T14:43:59.925Z</time></trkpt><trkpt lat="45.3941122" lon="8.8235647"><ele>98.5</ele><time>2026-04-12T14:44:00.925Z</time></trkpt><trkpt lat="45.3941706" lon="8.8235262"><ele>99.0</ele><time>2026-04-12T14:44:01.925Z</time></trkpt><trkpt lat="45.3942278" lon="8.8234855"><ele>99.0</ele><time>2026-04-12T14:44:02.926Z</time></trkpt><trkpt lat="45.3942833" lon="8.8234406"><ele>99.0</ele><time>2026-04-12T14:44:03.925Z</time></trkpt><trkpt lat="45.394338" lon="8.8233884"><ele>99.0</ele><time>2026-04-12T14:44:04.925Z</time></trkpt><trkpt lat="45.3943963" lon="8.823331"><ele>99.0</ele><time>2026-04-12T14:44:05.925Z</time></trkpt><trkpt lat="45.394457" lon="8.8232714"><ele>99.0</ele><time>2026-04-12T14:44:06.925Z</time></trkpt><trkpt lat="45.3945177" lon="8.8232157"><ele>99.0</ele><time>2026-04-12T14:44:07.925Z</time></trkpt><trkpt lat="45.3945787" lon="8.8231627"><ele>99.0</ele><time>2026-04-12T14:44:08.926Z</time></trkpt><trkpt lat="45.3946392" lon="8.8231087"><ele>99.16666666666667</ele><time>2026-04-12T14:44:09.925Z</time></trkpt><trkpt lat="45.3947026" lon="8.8230534"><ele>99.33333333333334</ele><time>2026-04-12T14:44:10.925Z</time></trkpt><trkpt lat="45.3947688" lon="8.8229953"><ele>99.5</ele><time>2026-04-12T14:44:11.925Z</time></trkpt><trkpt lat="45.3948358" lon="8.8229354"><ele>99.66666666666667</ele><time>2026-04-12T14:44:12.925Z</time></trkpt><trkpt lat="45.3949014" lon="8.8228767"><ele>99.83333333333334</ele><time>2026-04-12T14:44:13.925Z</time></trkpt><trkpt lat="45.3949665" lon="8.8228169"><ele>100.0</ele><time>2026-04-12T14:44:14.925Z</time></trkpt><trkpt lat="45.3950299" lon="8.8227582"><ele>100.00000000000001</ele><time>2026-04-12T14:44:15.925Z</time></trkpt><trkpt lat="45.3950896" lon="8.8226989"><ele>100.0</ele><time>2026-04-12T14:44:16.925Z</time></trkpt><trkpt lat="45.3951501" lon="8.8226436"><ele>100.0</ele><time>2026-04-12T14:44:17.925Z</time></trkpt><trkpt lat="45.3952068" lon="8.8225925"><ele>100.0</ele><time>2026-04-12T14:44:18.925Z</time></trkpt><trkpt lat="45.395307" lon="8.8225075"><ele>100.00000000000001</ele><time>2026-04-12T14:44:20.925Z</time></trkpt><trkpt lat="45.3953814" lon="8.8224192"><ele>100.0</ele><time>2026-04-12T14:44:22.926Z</time></trkpt><trkpt lat="45.3954147" lon="8.8223005"><ele>100.0</ele><time>2026-04-12T14:44:24.925Z</time></trkpt><trkpt lat="45.3954399" lon="8.8221548"><ele>100.0</ele><time>2026-04-12T14:44:26.925Z</time></trkpt><trkpt lat="45.3955166" lon="8.8220417"><ele>100.0</ele><time>2026-04-12T14:44:28.925Z</time></trkpt><trkpt lat="45.3956303" lon="8.8219772"><ele>100.0</ele><time>2026-04-12T14:44:30.925Z</time></trkpt><trkpt lat="45.3956918" lon="8.821946"><ele>100.0</ele><time>2026-04-12T14:44:31.925Z</time></trkpt><trkpt lat="45.3957531" lon="8.8219179"><ele>100.0</ele><time>2026-04-12T14:44:32.925Z</time></trkpt><trkpt lat="45.3958727" lon="8.8218639"><ele>100.0</ele><time>2026-04-12T14:44:34.925Z</time></trkpt><trkpt lat="45.3959777" lon="8.8218079"><ele>100.0</ele><time>2026-04-12T14:44:36.925Z</time></trkpt><trkpt lat="45.3960606" lon="8.8217374"><ele>100.0</ele><time>2026-04-12T14:44:38.925Z</time></trkpt><trkpt lat="45.3961184" lon="8.8216197"><ele>100.0</ele><time>2026-04-12T14:44:40.925Z</time></trkpt><trkpt lat="45.3961555" lon="8.8214824"><ele>100.0</ele><time>2026-04-12T14:44:42.925Z</time></trkpt><trkpt lat="45.3961777" lon="8.8213644"><ele>100.0</ele><time>2026-04-12T14:44:44.925Z</time></trkpt><trkpt lat="45.3961888" lon="8.8212756"><ele>100.0</ele><time>2026-04-12T14:44:46.925Z</time></trkpt><trkpt lat="45.3961892" lon="8.8211193"><ele>100.0</ele><time>2026-04-12T14:45:44.937Z</time></trkpt><trkpt lat="45.3961721" lon="8.8209786"><ele>100.0</ele><time>2026-04-12T14:45:46.937Z</time></trkpt><trkpt lat="45.3961546" lon="8.8208193"><ele>99.4</ele><time>2026-04-12T14:45:48.938Z</time></trkpt><trkpt lat="45.3961488" lon="8.8206499"><ele>98.8</ele><time>2026-04-12T14:45:50.937Z</time></trkpt><trkpt lat="45.3961737" lon="8.8204805"><ele>98.19999999999999</ele><time>2026-04-12T14:45:52.937Z</time></trkpt><trkpt lat="45.3962024" lon="8.8204003"><ele>97.6</ele><time>2026-04-12T14:45:53.937Z</time></trkpt><trkpt lat="45.3962413" lon="8.8203177"><ele>97.0</ele><time>2026-04-12T14:45:54.937Z</time></trkpt><trkpt lat="45.3962889" lon="8.8202279"><ele>97.00000000000001</ele><time>2026-04-12T14:45:55.938Z</time></trkpt><trkpt lat="45.3963381" lon="8.8201362"><ele>97.0</ele><time>2026-04-12T14:45:56.938Z</time></trkpt><trkpt lat="45.3963801" lon="8.8200476"><ele>97.0</ele><time>2026-04-12T14:45:57.937Z</time></trkpt><trkpt lat="45.3964209" lon="8.8199577"><ele>97.0</ele><time>2026-04-12T14:45:58.937Z</time></trkpt><trkpt lat="45.3964585" lon="8.8198686"><ele>97.00000000000001</ele><time>2026-04-12T14:45:59.937Z</time></trkpt><trkpt lat="45.3964958" lon="8.8197742"><ele>97.0</ele><time>2026-04-12T14:46:00.937Z</time></trkpt><trkpt lat="45.3965325" lon="8.8196832"><ele>97.0</ele><time>2026-04-12T14:46:01.937Z</time></trkpt><trkpt lat="45.3965629" lon="8.8195968"><ele>97.0</ele><time>2026-04-12T14:46:02.937Z</time></trkpt><trkpt lat="45.3965921" lon="8.8195142"><ele>97.0</ele><time>2026-04-12T14:46:03.937Z</time></trkpt><trkpt lat="45.3966261" lon="8.8194314"><ele>97.0</ele><time>2026-04-12T14:46:04.937Z</time></trkpt><trkpt lat="45.3966654" lon="8.8193522"><ele>97.0</ele><time>2026-04-12T14:46:05.937Z</time></trkpt><trkpt lat="45.3967028" lon="8.8192718"><ele>97.0</ele><time>2026-04-12T14:46:06.938Z</time></trkpt><trkpt lat="45.3967394" lon="8.8191858"><ele>97.0</ele><time>2026-04-12T14:46:07.937Z</time></trkpt><trkpt lat="45.3967711" lon="8.8190993"><ele>97.14285714285714</ele><time>2026-04-12T14:46:08.937Z</time></trkpt><trkpt lat="45.3968041" lon="8.8190117"><ele>97.28571428571429</ele><time>2026-04-12T14:46:09.937Z</time></trkpt><trkpt lat="45.3968408" lon="8.8189261"><ele>97.42857142857143</ele><time>2026-04-12T14:46:10.937Z</time></trkpt><trkpt lat="45.396875" lon="8.8188435"><ele>97.57142857142857</ele><time>2026-04-12T14:46:11.937Z</time></trkpt><trkpt lat="45.3969073" lon="8.8187618"><ele>97.71428571428572</ele><time>2026-04-12T14:46:12.937Z</time></trkpt><trkpt lat="45.3969409" lon="8.8186819"><ele>97.85714285714286</ele><time>2026-04-12T14:46:13.938Z</time></trkpt><trkpt lat="45.396979" lon="8.8186077"><ele>98.0</ele><time>2026-04-12T14:46:14.937Z</time></trkpt><trkpt lat="45.3970234" lon="8.8185324"><ele>98.28571428571429</ele><time>2026-04-12T14:46:15.937Z</time></trkpt><trkpt lat="45.3970735" lon="8.8184614"><ele>98.57142857142857</ele><time>2026-04-12T14:46:16.937Z</time></trkpt><trkpt lat="45.3971316" lon="8.8184025"><ele>98.85714285714286</ele><time>2026-04-12T14:46:17.937Z</time></trkpt><trkpt lat="45.3971917" lon="8.8183506"><ele>99.14285714285714</ele><time>2026-04-12T14:46:18.937Z</time></trkpt><trkpt lat="45.3972533" lon="8.8183117"><ele>99.42857142857143</ele><time>2026-04-12T14:46:19.937Z</time></trkpt><trkpt lat="45.3973222" lon="8.8182832"><ele>99.71428571428572</ele><time>2026-04-12T14:46:20.937Z</time></trkpt><trkpt lat="45.397394" lon="8.8182626"><ele>100.0</ele><time>2026-04-12T14:46:21.937Z</time></trkpt><trkpt lat="45.3974685" lon="8.818237"><ele>100.00000000000001</ele><time>2026-04-12T14:46:22.937Z</time></trkpt><trkpt lat="45.39754" lon="8.8182055"><ele>100.0</ele><time>2026-04-12T14:46:23.937Z</time></trkpt><trkpt lat="45.3976118" lon="8.8181745"><ele>100.0</ele><time>2026-04-12T14:46:24.937Z</time></trkpt><trkpt lat="45.3976886" lon="8.8181393"><ele>100.0</ele><time>2026-04-12T14:46:25.937Z</time></trkpt><trkpt lat="45.3977688" lon="8.8180998"><ele>100.00000000000001</ele><time>2026-04-12T14:46:26.937Z</time></trkpt><trkpt lat="45.3978493" lon="8.8180608"><ele>100.0</ele><time>2026-04-12T14:46:27.937Z</time></trkpt><trkpt lat="45.3979309" lon="8.8180332"><ele>100.00000000000001</ele><time>2026-04-12T14:46:28.937Z</time></trkpt><trkpt lat="45.3980124" lon="8.8180062"><ele>100.0</ele><time>2026-04-12T14:46:29.937Z</time></trkpt><trkpt lat="45.398094" lon="8.8179769"><ele>100.0</ele><time>2026-04-12T14:46:30.937Z</time></trkpt><trkpt lat="45.3981714" lon="8.8179527"><ele>100.0</ele><time>2026-04-12T14:46:31.936Z</time></trkpt><trkpt lat="45.3982426" lon="8.8179366"><ele>100.00000000000001</ele><time>2026-04-12T14:46:32.936Z</time></trkpt><trkpt lat="45.3983463" lon="8.8179224"><ele>100.0</ele><time>2026-04-12T14:46:34.936Z</time></trkpt><trkpt lat="45.3984138" lon="8.8179209"><ele>100.00000000000001</ele><time>2026-04-12T14:46:37.937Z</time></trkpt><trkpt lat="45.3984824" lon="8.8179168"><ele>100.0</ele><time>2026-04-12T14:47:05.937Z</time></trkpt><trkpt lat="45.3985716" lon="8.8179229"><ele>100.0</ele><time>2026-04-12T14:47:07.937Z</time></trkpt><trkpt lat="45.3986766" lon="8.8179257"><ele>100.0</ele><time>2026-04-12T14:47:09.936Z</time></trkpt><trkpt lat="45.3987452" lon="8.8179165"><ele>100.00000000000001</ele><time>2026-04-12T14:47:10.937Z</time></trkpt><trkpt lat="45.398815" lon="8.8179109"><ele>100.0</ele><time>2026-04-12T14:47:11.937Z</time></trkpt><trkpt lat="45.3988792" lon="8.8179091"><ele>101.0</ele><time>2026-04-12T14:47:12.937Z</time></trkpt><trkpt lat="45.3989928" lon="8.8179206"><ele>102.0</ele><time>2026-04-12T14:47:14.937Z</time></trkpt><trkpt lat="45.3991087" lon="8.8179039"><ele>103.0</ele><time>2026-04-12T14:47:16.936Z</time></trkpt><trkpt lat="45.3992275" lon="8.8178611"><ele>104.0</ele><time>2026-04-12T14:47:18.937Z</time></trkpt><trkpt lat="45.3993369" lon="8.817811"><ele>103.99999999999999</ele><time>2026-04-12T14:47:20.937Z</time></trkpt><trkpt lat="45.3994373" lon="8.8177341"><ele>104.0</ele><time>2026-04-12T14:47:22.937Z</time></trkpt><trkpt lat="45.3995" lon="8.8176885"><ele>104.0</ele><time>2026-04-12T14:47:23.937Z</time></trkpt><trkpt lat="45.3995636" lon="8.8176412"><ele>104.0</ele><time>2026-04-12T14:47:24.937Z</time></trkpt><trkpt lat="45.3996261" lon="8.8175949"><ele>103.99999999999999</ele><time>2026-04-12T14:47:25.936Z</time></trkpt><trkpt lat="45.3996834" lon="8.8175429"><ele>104.0</ele><time>2026-04-12T14:47:26.937Z</time></trkpt><trkpt lat="45.399781" lon="8.8174442"><ele>103.0</ele><time>2026-04-12T14:47:28.937Z</time></trkpt><trkpt lat="45.3998758" lon="8.8173428"><ele>102.0</ele><time>2026-04-12T14:47:30.937Z</time></trkpt><trkpt lat="45.399974" lon="8.8172617"><ele>101.0</ele><time>2026-04-12T14:47:32.937Z</time></trkpt><trkpt lat="45.4000824" lon="8.8171748"><ele>100.0</ele><time>2026-04-12T14:47:34.936Z</time></trkpt><trkpt lat="45.400142" lon="8.8171293"><ele>99.0</ele><time>2026-04-12T14:47:35.936Z</time></trkpt><trkpt lat="45.4002039" lon="8.8170805"><ele>99.0</ele><time>2026-04-12T14:47:36.936Z</time></trkpt><trkpt lat="45.4002678" lon="8.8170314"><ele>99.0</ele><time>2026-04-12T14:47:37.936Z</time></trkpt><trkpt lat="45.400338" lon="8.8169723"><ele>99.0</ele><time>2026-04-12T14:47:38.937Z</time></trkpt><trkpt lat="45.4004079" lon="8.8169155"><ele>99.0</ele><time>2026-04-12T14:47:39.936Z</time></trkpt><trkpt lat="45.4004736" lon="8.8168586"><ele>99.0</ele><time>2026-04-12T14:47:40.936Z</time></trkpt><trkpt lat="45.4005426" lon="8.8167998"><ele>99.0</ele><time>2026-04-12T14:47:41.937Z</time></trkpt><trkpt lat="45.4006091" lon="8.8167462"><ele>99.14285714285715</ele><time>2026-04-12T14:47:42.937Z</time></trkpt><trkpt lat="45.4006785" lon="8.8166919"><ele>99.28571428571428</ele><time>2026-04-12T14:47:43.937Z</time></trkpt><trkpt lat="45.4007456" lon="8.8166405"><ele>99.42857142857143</ele><time>2026-04-12T14:47:44.937Z</time></trkpt><trkpt lat="45.4008112" lon="8.8165874"><ele>99.57142857142858</ele><time>2026-04-12T14:47:45.937Z</time></trkpt><trkpt lat="45.4008753" lon="8.81654"><ele>99.71428571428572</ele><time>2026-04-12T14:47:46.936Z</time></trkpt><trkpt lat="45.4009316" lon="8.8164971"><ele>99.85714285714286</ele><time>2026-04-12T14:47:47.936Z</time></trkpt><trkpt lat="45.4009872" lon="8.8164502"><ele>100.0</ele><time>2026-04-12T14:47:48.937Z</time></trkpt><trkpt lat="45.4010442" lon="8.8163999"><ele>100.0</ele><time>2026-04-12T14:47:49.937Z</time></trkpt><trkpt lat="45.4011429" lon="8.8163222"><ele>100.0</ele><time>2026-04-12T14:47:51.938Z</time></trkpt><trkpt lat="45.4012224" lon="8.816258"><ele>100.0</ele><time>2026-04-12T14:47:53.936Z</time></trkpt><trkpt lat="45.4013431" lon="8.8161339"><ele>100.0</ele><time>2026-04-12T14:50:18.937Z</time></trkpt><trkpt lat="45.4014138" lon="8.8160889"><ele>100.0</ele><time>2026-04-12T14:50:21.936Z</time></trkpt><trkpt lat="45.4014424" lon="8.8159966"><ele>100.25</ele><time>2026-04-12T14:50:27.937Z</time></trkpt><trkpt lat="45.4014025" lon="8.8157682"><ele>100.5</ele><time>2026-04-12T14:53:40.936Z</time></trkpt><trkpt lat="45.4014343" lon="8.8156127"><ele>100.75</ele><time>2026-04-12T14:53:46.936Z</time></trkpt><trkpt lat="45.4014774" lon="8.8154828"><ele>101.0</ele><time>2026-04-12T14:53:48.936Z</time></trkpt><trkpt lat="45.4015168" lon="8.8153652"><ele>101.0</ele><time>2026-04-12T14:53:50.936Z</time></trkpt><trkpt lat="45.4015424" lon="8.8152625"><ele>101.0</ele><time>2026-04-12T14:53:52.936Z</time></trkpt><trkpt lat="45.4015962" lon="8.8151985"><ele>101.0</ele><time>2026-04-12T14:53:54.936Z</time></trkpt><trkpt lat="45.4016861" lon="8.8151735"><ele>101.0</ele><time>2026-04-12T14:53:56.936Z</time></trkpt><trkpt lat="45.4017913" lon="8.8151524"><ele>101.0</ele><time>2026-04-12T14:53:58.936Z</time></trkpt><trkpt lat="45.4019115" lon="8.815132"><ele>101.16666666666666</ele><time>2026-04-12T14:54:00.936Z</time></trkpt><trkpt lat="45.4019777" lon="8.8151158"><ele>101.33333333333333</ele><time>2026-04-12T14:54:01.936Z</time></trkpt><trkpt lat="45.4020455" lon="8.8150991"><ele>101.5</ele><time>2026-04-12T14:54:02.936Z</time></trkpt><trkpt lat="45.4021113" lon="8.8150875"><ele>101.66666666666666</ele><time>2026-04-12T14:54:03.936Z</time></trkpt><trkpt lat="45.4021743" lon="8.8150715"><ele>101.83333333333333</ele><time>2026-04-12T14:54:04.936Z</time></trkpt><trkpt lat="45.4022972" lon="8.8150349"><ele>102.0</ele><time>2026-04-12T14:54:06.936Z</time></trkpt><trkpt lat="45.402415" lon="8.8150118"><ele>101.66666666666667</ele><time>2026-04-12T14:54:08.936Z</time></trkpt><trkpt lat="45.402484" lon="8.8149941"><ele>101.33333333333334</ele><time>2026-04-12T14:54:09.937Z</time></trkpt><trkpt lat="45.4025613" lon="8.8149777"><ele>101.0</ele><time>2026-04-12T14:54:10.936Z</time></trkpt><trkpt lat="45.4026386" lon="8.8149616"><ele>100.66666666666667</ele><time>2026-04-12T14:54:11.936Z</time></trkpt><trkpt lat="45.4027091" lon="8.8149435"><ele>100.33333333333334</ele><time>2026-04-12T14:54:12.936Z</time></trkpt><trkpt lat="45.4027729" lon="8.8149383"><ele>100.0</ele><time>2026-04-12T14:54:13.937Z</time></trkpt><trkpt lat="45.4028851" lon="8.8149276"><ele>100.00000000000001</ele><time>2026-04-12T14:54:15.937Z</time></trkpt><trkpt lat="45.4029573" lon="8.8149306"><ele>100.0</ele><time>2026-04-12T14:54:16.936Z</time></trkpt><trkpt lat="45.4030298" lon="8.8149266"><ele>100.0</ele><time>2026-04-12T14:54:17.936Z</time></trkpt><trkpt lat="45.4030996" lon="8.8149109"><ele>100.0</ele><time>2026-04-12T14:54:18.936Z</time></trkpt><trkpt lat="45.4031685" lon="8.8148956"><ele>100.0</ele><time>2026-04-12T14:54:19.936Z</time></trkpt><trkpt lat="45.40324" lon="8.8148755"><ele>100.00000000000001</ele><time>2026-04-12T14:54:20.937Z</time></trkpt><trkpt lat="45.4033086" lon="8.8148547"><ele>100.0</ele><time>2026-04-12T14:54:21.936Z</time></trkpt><trkpt lat="45.4033725" lon="8.8148294"><ele>100.66666666666667</ele><time>2026-04-12T14:54:22.936Z</time></trkpt><trkpt lat="45.4034386" lon="8.8148023"><ele>101.33333333333334</ele><time>2026-04-12T14:54:23.936Z</time></trkpt><trkpt lat="45.4035012" lon="8.8147737"><ele>102.0</ele><time>2026-04-12T14:54:24.936Z</time></trkpt><trkpt lat="45.4035733" lon="8.8147365"><ele>102.66666666666666</ele><time>2026-04-12T14:54:25.936Z</time></trkpt><trkpt lat="45.4036464" lon="8.814706"><ele>103.33333333333333</ele><time>2026-04-12T14:54:26.936Z</time></trkpt><trkpt lat="45.4037272" lon="8.8146703"><ele>104.0</ele><time>2026-04-12T14:54:27.936Z</time></trkpt><trkpt lat="45.4038038" lon="8.8146372"><ele>103.49999999999999</ele><time>2026-04-12T14:54:28.936Z</time></trkpt><trkpt lat="45.4038764" lon="8.8146054"><ele>103.0</ele><time>2026-04-12T14:54:29.936Z</time></trkpt><trkpt lat="45.4039377" lon="8.8145767"><ele>102.5</ele><time>2026-04-12T14:54:30.936Z</time></trkpt><trkpt lat="45.4040722" lon="8.8145155"><ele>102.0</ele><time>2026-04-12T14:54:32.936Z</time></trkpt><trkpt lat="45.404151" lon="8.8144832"><ele>101.49999999999999</ele><time>2026-04-12T14:54:33.936Z</time></trkpt><trkpt lat="45.4042284" lon="8.8144497"><ele>101.0</ele><time>2026-04-12T14:54:34.936Z</time></trkpt><trkpt lat="45.4043195" lon="8.8144186"><ele>100.99999999999999</ele><time>2026-04-12T14:54:35.936Z</time></trkpt><trkpt lat="45.4044055" lon="8.8143855"><ele>101.0</ele><time>2026-04-12T14:54:36.936Z</time></trkpt><trkpt lat="45.4044854" lon="8.8143514"><ele>101.0</ele><time>2026-04-12T14:54:37.937Z</time></trkpt><trkpt lat="45.404566" lon="8.8143206"><ele>101.0</ele><time>2026-04-12T14:54:38.936Z</time></trkpt><trkpt lat="45.4046461" lon="8.814281"><ele>100.99999999999999</ele><time>2026-04-12T14:54:39.936Z</time></trkpt><trkpt lat="45.4047249" lon="8.8142415"><ele>101.0</ele><time>2026-04-12T14:54:40.937Z</time></trkpt><trkpt lat="45.4048085" lon="8.8142035"><ele>100.6</ele><time>2026-04-12T14:54:41.936Z</time></trkpt><trkpt lat="45.4048971" lon="8.8141643"><ele>100.19999999999999</ele><time>2026-04-12T14:54:42.936Z</time></trkpt><trkpt lat="45.4049889" lon="8.8141216"><ele>99.80000000000001</ele><time>2026-04-12T14:54:43.936Z</time></trkpt><trkpt lat="45.405075" lon="8.814084"><ele>99.4</ele><time>2026-04-12T14:54:44.936Z</time></trkpt><trkpt lat="45.4051596" lon="8.8140476"><ele>99.0</ele><time>2026-04-12T14:54:45.936Z</time></trkpt><trkpt lat="45.4052429" lon="8.8140107"><ele>99.0</ele><time>2026-04-12T14:54:46.937Z</time></trkpt><trkpt lat="45.4053268" lon="8.8139657"><ele>99.0</ele><time>2026-04-12T14:54:47.937Z</time></trkpt><trkpt lat="45.4054168" lon="8.8139239"><ele>99.0</ele><time>2026-04-12T14:54:48.936Z</time></trkpt><trkpt lat="45.4055043" lon="8.8138841"><ele>99.0</ele><time>2026-04-12T14:54:49.936Z</time></trkpt><trkpt lat="45.4055889" lon="8.8138449"><ele>99.0</ele><time>2026-04-12T14:54:50.936Z</time></trkpt><trkpt lat="45.4056614" lon="8.8138154"><ele>99.0</ele><time>2026-04-12T14:54:51.937Z</time></trkpt><trkpt lat="45.4057223" lon="8.8137893"><ele>99.4</ele><time>2026-04-12T14:54:52.937Z</time></trkpt><trkpt lat="45.405798" lon="8.8137613"><ele>99.80000000000001</ele><time>2026-04-12T14:54:54.936Z</time></trkpt><trkpt lat="45.4058872" lon="8.8137727"><ele>100.19999999999999</ele><time>2026-04-12T14:55:04.936Z</time></trkpt><trkpt lat="45.4059511" lon="8.8138902"><ele>100.6</ele><time>2026-04-12T14:55:06.936Z</time></trkpt><trkpt lat="45.4060021" lon="8.8140315"><ele>101.0</ele><time>2026-04-12T14:55:08.936Z</time></trkpt><trkpt lat="45.4060394" lon="8.8141988"><ele>100.83333333333333</ele><time>2026-04-12T14:55:10.936Z</time></trkpt><trkpt lat="45.4060912" lon="8.8143626"><ele>100.66666666666666</ele><time>2026-04-12T14:55:12.936Z</time></trkpt><trkpt lat="45.4061214" lon="8.8144576"><ele>100.5</ele><time>2026-04-12T14:55:13.936Z</time></trkpt><trkpt lat="45.4061548" lon="8.8145548"><ele>100.33333333333334</ele><time>2026-04-12T14:55:14.937Z</time></trkpt><trkpt lat="45.4061886" lon="8.8146577"><ele>100.16666666666667</ele><time>2026-04-12T14:55:15.936Z</time></trkpt><trkpt lat="45.4062285" lon="8.8147651"><ele>100.0</ele><time>2026-04-12T14:55:16.936Z</time></trkpt><trkpt lat="45.4062667" lon="8.8148791"><ele>100.0</ele><time>2026-04-12T14:55:17.936Z</time></trkpt><trkpt lat="45.4063048" lon="8.8149993"><ele>100.0</ele><time>2026-04-12T14:55:18.936Z</time></trkpt><trkpt lat="45.406343" lon="8.8151155"><ele>100.0</ele><time>2026-04-12T14:55:19.936Z</time></trkpt><trkpt lat="45.4063843" lon="8.8152396"><ele>100.0</ele><time>2026-04-12T14:55:20.936Z</time></trkpt><trkpt lat="45.4064286" lon="8.8153704"><ele>100.0</ele><time>2026-04-12T14:55:21.936Z</time></trkpt><trkpt lat="45.4064753" lon="8.8155078"><ele>100.4</ele><time>2026-04-12T14:55:22.937Z</time></trkpt><trkpt lat="45.4065243" lon="8.8156457"><ele>100.8</ele><time>2026-04-12T14:55:23.936Z</time></trkpt><trkpt lat="45.4065704" lon="8.8157832"><ele>101.19999999999999</ele><time>2026-04-12T14:55:24.936Z</time></trkpt><trkpt lat="45.4066115" lon="8.8159039"><ele>101.6</ele><time>2026-04-12T14:55:25.935Z</time></trkpt><trkpt lat="45.4066466" lon="8.8160117"><ele>102.0</ele><time>2026-04-12T14:55:26.936Z</time></trkpt><trkpt lat="45.4066844" lon="8.8161193"><ele>102.0</ele><time>2026-04-12T14:55:27.936Z</time></trkpt><trkpt lat="45.4067181" lon="8.8162211"><ele>102.0</ele><time>2026-04-12T14:55:28.936Z</time></trkpt><trkpt lat="45.4067914" lon="8.8163407"><ele>102.0</ele><time>2026-04-12T14:55:30.936Z</time></trkpt><trkpt lat="45.4068612" lon="8.8163484"><ele>102.0</ele><time>2026-04-12T14:55:32.936Z</time></trkpt><trkpt lat="45.4069406" lon="8.8162789"><ele>102.0</ele><time>2026-04-12T14:55:34.936Z</time></trkpt><trkpt lat="45.4070479" lon="8.8161827"><ele>102.0</ele><time>2026-04-12T14:55:36.936Z</time></trkpt><trkpt lat="45.4071116" lon="8.816142"><ele>102.0</ele><time>2026-04-12T14:55:37.935Z</time></trkpt><trkpt lat="45.4071843" lon="8.8161021"><ele>102.0</ele><time>2026-04-12T14:55:38.936Z</time></trkpt><trkpt lat="45.407257" lon="8.816068"><ele>102.0</ele><time>2026-04-12T14:55:39.937Z</time></trkpt><trkpt lat="45.407332" lon="8.8160519"><ele>102.0</ele><time>2026-04-12T14:55:40.936Z</time></trkpt><trkpt lat="45.4074084" lon="8.8160386"><ele>102.0</ele><time>2026-04-12T14:55:41.936Z</time></trkpt><trkpt lat="45.4074876" lon="8.8160285"><ele>102.0</ele><time>2026-04-12T14:55:42.936Z</time></trkpt><trkpt lat="45.4075733" lon="8.8160233"><ele>102.0</ele><time>2026-04-12T14:55:43.936Z</time></trkpt><trkpt lat="45.4076588" lon="8.8160248"><ele>102.0</ele><time>2026-04-12T14:55:44.936Z</time></trkpt><trkpt lat="45.4077428" lon="8.8160349"><ele>102.0</ele><time>2026-04-12T14:55:45.936Z</time></trkpt><trkpt lat="45.4078275" lon="8.8160575"><ele>102.0</ele><time>2026-04-12T14:55:46.935Z</time></trkpt><trkpt lat="45.4079133" lon="8.8160821"><ele>102.0</ele><time>2026-04-12T14:55:47.935Z</time></trkpt><trkpt lat="45.4080039" lon="8.8161241"><ele>101.8</ele><time>2026-04-12T14:55:48.936Z</time></trkpt><trkpt lat="45.4080965" lon="8.8161698"><ele>101.6</ele><time>2026-04-12T14:55:49.935Z</time></trkpt><trkpt lat="45.4081886" lon="8.8162246"><ele>101.39999999999999</ele><time>2026-04-12T14:55:50.936Z</time></trkpt><trkpt lat="45.4082801" lon="8.8162715"><ele>101.19999999999999</ele><time>2026-04-12T14:55:51.935Z</time></trkpt><trkpt lat="45.4083684" lon="8.8163049"><ele>101.0</ele><time>2026-04-12T14:55:52.936Z</time></trkpt><trkpt lat="45.4084501" lon="8.8163399"><ele>100.99999999999999</ele><time>2026-04-12T14:55:53.936Z</time></trkpt><trkpt lat="45.408525" lon="8.8163632"><ele>101.0</ele><time>2026-04-12T14:55:54.937Z</time></trkpt><trkpt lat="45.4085937" lon="8.8163792"><ele>101.0</ele><time>2026-04-12T14:55:55.936Z</time></trkpt><trkpt lat="45.4086586" lon="8.8163763"><ele>101.0</ele><time>2026-04-12T14:55:56.936Z</time></trkpt><trkpt lat="45.4087832" lon="8.8163219"><ele>100.99999999999999</ele><time>2026-04-12T14:55:58.937Z</time></trkpt><trkpt lat="45.4088428" lon="8.8162676"><ele>101.0</ele><time>2026-04-12T14:55:59.936Z</time></trkpt><trkpt lat="45.4089038" lon="8.8161947"><ele>101.0</ele><time>2026-04-12T14:56:00.936Z</time></trkpt><trkpt lat="45.4089727" lon="8.8161117"><ele>101.0</ele><time>2026-04-12T14:56:01.936Z</time></trkpt><trkpt lat="45.409047" lon="8.8160289"><ele>101.0</ele><time>2026-04-12T14:56:02.936Z</time></trkpt><trkpt lat="45.4091278" lon="8.8159453"><ele>101.0</ele><time>2026-04-12T14:56:03.935Z</time></trkpt><trkpt lat="45.4092198" lon="8.8158661"><ele>101.0</ele><time>2026-04-12T14:56:04.935Z</time></trkpt><trkpt lat="45.4093158" lon="8.8157952"><ele>101.25</ele><time>2026-04-12T14:56:05.936Z</time></trkpt><trkpt lat="45.4094152" lon="8.815733"><ele>101.5</ele><time>2026-04-12T14:56:06.935Z</time></trkpt><trkpt lat="45.4095229" lon="8.8156685"><ele>101.75</ele><time>2026-04-12T14:56:07.937Z</time></trkpt><trkpt lat="45.4096346" lon="8.8156101"><ele>102.0</ele><time>2026-04-12T14:56:08.936Z</time></trkpt><trkpt lat="45.4097491" lon="8.8155519"><ele>102.0</ele><time>2026-04-12T14:56:09.936Z</time></trkpt><trkpt lat="45.4098636" lon="8.8155013"><ele>102.0</ele><time>2026-04-12T14:56:10.935Z</time></trkpt><trkpt lat="45.4099745" lon="8.8154566"><ele>102.0</ele><time>2026-04-12T14:56:11.936Z</time></trkpt><trkpt lat="45.4100884" lon="8.8154219"><ele>102.0</ele><time>2026-04-12T14:56:12.937Z</time></trkpt><trkpt lat="45.4102002" lon="8.815388"><ele>102.0</ele><time>2026-04-12T14:56:13.936Z</time></trkpt><trkpt lat="45.4103075" lon="8.8153509"><ele>102.0</ele><time>2026-04-12T14:56:14.936Z</time></trkpt><trkpt lat="45.4104089" lon="8.8153113"><ele>102.0</ele><time>2026-04-12T14:56:15.936Z</time></trkpt><trkpt lat="45.4105072" lon="8.8152627"><ele>102.0</ele><time>2026-04-12T14:56:16.937Z</time></trkpt><trkpt lat="45.4106089" lon="8.8151992"><ele>102.0</ele><time>2026-04-12T14:56:17.936Z</time></trkpt><trkpt lat="45.4107099" lon="8.8151376"><ele>102.33333333333333</ele><time>2026-04-12T14:56:18.936Z</time></trkpt><trkpt lat="45.4108046" lon="8.8150734"><ele>102.66666666666666</ele><time>2026-04-12T14:56:19.935Z</time></trkpt><trkpt lat="45.4108914" lon="8.8150138"><ele>103.0</ele><time>2026-04-12T14:56:20.936Z</time></trkpt><trkpt lat="45.4109665" lon="8.8149542"><ele>103.33333333333333</ele><time>2026-04-12T14:56:21.936Z</time></trkpt><trkpt lat="45.4110356" lon="8.8149051"><ele>103.66666666666666</ele><time>2026-04-12T14:56:22.936Z</time></trkpt><trkpt lat="45.4111054" lon="8.814865"><ele>104.0</ele><time>2026-04-12T14:56:23.936Z</time></trkpt><trkpt lat="45.4111798" lon="8.8148296"><ele>103.99999999999999</ele><time>2026-04-12T14:56:24.935Z</time></trkpt><trkpt lat="45.411258" lon="8.814801"><ele>104.0</ele><time>2026-04-12T14:56:25.936Z</time></trkpt><trkpt lat="45.411344" lon="8.8147748"><ele>104.0</ele><time>2026-04-12T14:56:26.936Z</time></trkpt><trkpt lat="45.4114274" lon="8.8147454"><ele>104.0</ele><time>2026-04-12T14:56:27.936Z</time></trkpt><trkpt lat="45.4115154" lon="8.8147174"><ele>103.99999999999999</ele><time>2026-04-12T14:56:28.935Z</time></trkpt><trkpt lat="45.4116123" lon="8.8146919"><ele>104.0</ele><time>2026-04-12T14:56:29.935Z</time></trkpt><trkpt lat="45.4117074" lon="8.8146676"><ele>104.83333333333333</ele><time>2026-04-12T14:56:30.935Z</time></trkpt><trkpt lat="45.4117955" lon="8.814643"><ele>105.66666666666666</ele><time>2026-04-12T14:56:31.937Z</time></trkpt><trkpt lat="45.4118815" lon="8.8146148"><ele>106.5</ele><time>2026-04-12T14:56:32.936Z</time></trkpt><trkpt lat="45.4119578" lon="8.8145911"><ele>107.33333333333334</ele><time>2026-04-12T14:56:33.937Z</time></trkpt><trkpt lat="45.4120269" lon="8.8145685"><ele>108.16666666666667</ele><time>2026-04-12T14:56:34.936Z</time></trkpt><trkpt lat="45.4120889" lon="8.8145519"><ele>109.0</ele><time>2026-04-12T14:56:35.937Z</time></trkpt><trkpt lat="45.4121899" lon="8.8145254"><ele>108.83333333333334</ele><time>2026-04-12T14:56:37.936Z</time></trkpt><trkpt lat="45.4122913" lon="8.8144807"><ele>108.66666666666667</ele><time>2026-04-12T14:56:39.937Z</time></trkpt><trkpt lat="45.4124044" lon="8.8144201"><ele>108.5</ele><time>2026-04-12T14:56:41.936Z</time></trkpt><trkpt lat="45.4124637" lon="8.8143789"><ele>108.33333333333334</ele><time>2026-04-12T14:56:42.936Z</time></trkpt><trkpt lat="45.4125268" lon="8.8143345"><ele>108.16666666666667</ele><time>2026-04-12T14:56:43.936Z</time></trkpt><trkpt lat="45.4125978" lon="8.8142873"><ele>108.0</ele><time>2026-04-12T14:56:44.936Z</time></trkpt><trkpt lat="45.4126739" lon="8.8142408"><ele>108.0</ele><time>2026-04-12T14:56:45.936Z</time></trkpt><trkpt lat="45.4127469" lon="8.8141955"><ele>108.0</ele><time>2026-04-12T14:56:46.936Z</time></trkpt><trkpt lat="45.4128186" lon="8.8141475"><ele>108.0</ele><time>2026-04-12T14:56:47.936Z</time></trkpt><trkpt lat="45.4128944" lon="8.81411"><ele>108.0</ele><time>2026-04-12T14:56:48.936Z</time></trkpt><trkpt lat="45.4129729" lon="8.8140733"><ele>108.0</ele><time>2026-04-12T14:56:49.935Z</time></trkpt><trkpt lat="45.4130433" lon="8.8140289"><ele>108.0</ele><time>2026-04-12T14:56:50.936Z</time></trkpt><trkpt lat="45.4131124" lon="8.8139875"><ele>108.14285714285714</ele><time>2026-04-12T14:56:51.936Z</time></trkpt><trkpt lat="45.4131785" lon="8.8139433"><ele>108.28571428571428</ele><time>2026-04-12T14:56:52.936Z</time></trkpt><trkpt lat="45.4132445" lon="8.813905"><ele>108.42857142857143</ele><time>2026-04-12T14:56:53.935Z</time></trkpt><trkpt lat="45.4133137" lon="8.8138679"><ele>108.57142857142857</ele><time>2026-04-12T14:56:54.936Z</time></trkpt><trkpt lat="45.4133795" lon="8.8138247"><ele>108.71428571428572</ele><time>2026-04-12T14:56:55.936Z</time></trkpt><trkpt lat="45.4134449" lon="8.8137748"><ele>108.85714285714286</ele><time>2026-04-12T14:56:56.936Z</time></trkpt><trkpt lat="45.413511" lon="8.8137267"><ele>109.0</ele><time>2026-04-12T14:56:57.936Z</time></trkpt><trkpt lat="45.4135718" lon="8.8136751"><ele>109.0</ele><time>2026-04-12T14:56:58.936Z</time></trkpt><trkpt lat="45.4136284" lon="8.8136268"><ele>109.0</ele><time>2026-04-12T14:56:59.936Z</time></trkpt><trkpt lat="45.4136852" lon="8.8135694"><ele>109.0</ele><time>2026-04-12T14:57:00.936Z</time></trkpt><trkpt lat="45.413738" lon="8.8135158"><ele>109.0</ele><time>2026-04-12T14:57:01.936Z</time></trkpt><trkpt lat="45.4138004" lon="8.8134612"><ele>109.0</ele><time>2026-04-12T14:57:02.936Z</time></trkpt><trkpt lat="45.4138571" lon="8.8134092"><ele>109.0</ele><time>2026-04-12T14:57:03.936Z</time></trkpt><trkpt lat="45.4139141" lon="8.8133571"><ele>109.0</ele><time>2026-04-12T14:57:04.937Z</time></trkpt><trkpt lat="45.4139794" lon="8.8133147"><ele>108.66666666666667</ele><time>2026-04-12T14:57:05.936Z</time></trkpt><trkpt lat="45.4140532" lon="8.8132787"><ele>108.33333333333334</ele><time>2026-04-12T14:57:06.936Z</time></trkpt><trkpt lat="45.4141305" lon="8.8132528"><ele>108.0</ele><time>2026-04-12T14:57:07.938Z</time></trkpt><trkpt lat="45.4142143" lon="8.8132316"><ele>107.66666666666666</ele><time>2026-04-12T14:57:08.936Z</time></trkpt><trkpt lat="45.4142973" lon="8.8132102"><ele>107.33333333333333</ele><time>2026-04-12T14:57:09.937Z</time></trkpt><trkpt lat="45.4143809" lon="8.8131875"><ele>107.0</ele><time>2026-04-12T14:57:10.936Z</time></trkpt><trkpt lat="45.4144559" lon="8.8131647"><ele>106.99999999999999</ele><time>2026-04-12T14:57:11.936Z</time></trkpt><trkpt lat="45.4145293" lon="8.8131346"><ele>107.0</ele><time>2026-04-12T14:57:12.935Z</time></trkpt><trkpt lat="45.4146426" lon="8.8131071"><ele>107.0</ele><time>2026-04-12T14:57:14.935Z</time></trkpt><trkpt lat="45.4147254" lon="8.8130931"><ele>107.0</ele><time>2026-04-12T14:57:16.936Z</time></trkpt><trkpt lat="45.4147127" lon="8.8130917"><ele>106.99999999999999</ele><time>2026-04-12T15:02:18.935Z</time></trkpt><trkpt lat="45.414611" lon="8.8131203"><ele>107.0</ele><time>2026-04-12T15:02:20.936Z</time></trkpt><trkpt lat="45.4145033" lon="8.8131532"><ele>107.0</ele><time>2026-04-12T15:02:22.936Z</time></trkpt><trkpt lat="45.4144058" lon="8.8131876"><ele>106.99999999999999</ele><time>2026-04-12T15:02:24.935Z</time></trkpt><trkpt lat="45.4142908" lon="8.8132084"><ele>106.99999999999999</ele><time>2026-04-12T15:02:26.936Z</time></trkpt><trkpt lat="45.4141677" lon="8.8132397"><ele>107.0</ele><time>2026-04-12T15:02:28.935Z</time></trkpt><trkpt lat="45.4141056" lon="8.8132627"><ele>107.0</ele><time>2026-04-12T15:02:29.936Z</time></trkpt><trkpt lat="45.4140379" lon="8.8132858"><ele>106.99999999999999</ele><time>2026-04-12T15:02:30.935Z</time></trkpt><trkpt lat="45.4139724" lon="8.8133213"><ele>107.0</ele><time>2026-04-12T15:02:31.936Z</time></trkpt><trkpt lat="45.4139035" lon="8.8133635"><ele>107.0</ele><time>2026-04-12T15:02:32.935Z</time></trkpt><trkpt lat="45.4138394" lon="8.8134172"><ele>107.0</ele><time>2026-04-12T15:02:33.937Z</time></trkpt><trkpt lat="45.4137732" lon="8.8134824"><ele>106.99999999999999</ele><time>2026-04-12T15:02:34.935Z</time></trkpt><trkpt lat="45.4137083" lon="8.8135483"><ele>107.0</ele><time>2026-04-12T15:02:35.935Z</time></trkpt><trkpt lat="45.4136441" lon="8.8136123"><ele>107.33333333333333</ele><time>2026-04-12T15:02:36.935Z</time></trkpt><trkpt lat="45.413579" lon="8.8136669"><ele>107.66666666666666</ele><time>2026-04-12T15:02:37.935Z</time></trkpt><trkpt lat="45.4135133" lon="8.8137234"><ele>108.0</ele><time>2026-04-12T15:02:38.935Z</time></trkpt><trkpt lat="45.4134401" lon="8.8137743"><ele>108.33333333333334</ele><time>2026-04-12T15:02:39.936Z</time></trkpt><trkpt lat="45.4133675" lon="8.8138287"><ele>108.66666666666667</ele><time>2026-04-12T15:02:40.935Z</time></trkpt><trkpt lat="45.4132865" lon="8.8138798"><ele>109.0</ele><time>2026-04-12T15:02:41.937Z</time></trkpt><trkpt lat="45.413209" lon="8.8139363"><ele>109.00000000000001</ele><time>2026-04-12T15:02:42.935Z</time></trkpt><trkpt lat="45.4131302" lon="8.8139805"><ele>109.0</ele><time>2026-04-12T15:02:43.935Z</time></trkpt><trkpt lat="45.4130494" lon="8.8140252"><ele>109.0</ele><time>2026-04-12T15:02:44.936Z</time></trkpt><trkpt lat="45.412968" lon="8.8140707"><ele>109.0</ele><time>2026-04-12T15:02:45.935Z</time></trkpt><trkpt lat="45.4128892" lon="8.8141109"><ele>109.00000000000001</ele><time>2026-04-12T15:02:46.935Z</time></trkpt><trkpt lat="45.412812" lon="8.8141535"><ele>109.0</ele><time>2026-04-12T15:02:47.935Z</time></trkpt><trkpt lat="45.4127367" lon="8.8141944"><ele>108.83333333333334</ele><time>2026-04-12T15:02:48.935Z</time></trkpt><trkpt lat="45.412667" lon="8.8142394"><ele>108.66666666666667</ele><time>2026-04-12T15:02:49.935Z</time></trkpt><trkpt lat="45.4125945" lon="8.8142879"><ele>108.5</ele><time>2026-04-12T15:02:50.935Z</time></trkpt><trkpt lat="45.4125212" lon="8.8143365"><ele>108.33333333333334</ele><time>2026-04-12T15:02:51.935Z</time></trkpt><trkpt lat="45.4124488" lon="8.8143887"><ele>108.16666666666667</ele><time>2026-04-12T15:02:52.935Z</time></trkpt><trkpt lat="45.4123744" lon="8.8144317"><ele>108.0</ele><time>2026-04-12T15:02:53.935Z</time></trkpt><trkpt lat="45.4123036" lon="8.8144718"><ele>108.14285714285714</ele><time>2026-04-12T15:02:54.937Z</time></trkpt><trkpt lat="45.4122392" lon="8.8145058"><ele>108.28571428571428</ele><time>2026-04-12T15:02:55.936Z</time></trkpt><trkpt lat="45.4121792" lon="8.8145347"><ele>108.42857142857143</ele><time>2026-04-12T15:02:56.935Z</time></trkpt><trkpt lat="45.4121155" lon="8.8145535"><ele>108.57142857142857</ele><time>2026-04-12T15:02:57.935Z</time></trkpt><trkpt lat="45.4120404" lon="8.8145743"><ele>108.71428571428572</ele><time>2026-04-12T15:02:58.935Z</time></trkpt><trkpt lat="45.4119617" lon="8.8145912"><ele>108.85714285714286</ele><time>2026-04-12T15:02:59.936Z</time></trkpt><trkpt lat="45.4118753" lon="8.8146192"><ele>109.0</ele><time>2026-04-12T15:03:00.936Z</time></trkpt><trkpt lat="45.4117912" lon="8.814645"><ele>109.0</ele><time>2026-04-12T15:03:01.937Z</time></trkpt><trkpt lat="45.4117024" lon="8.814668"><ele>109.0</ele><time>2026-04-12T15:03:02.935Z</time></trkpt><trkpt lat="45.4116074" lon="8.8146955"><ele>109.0</ele><time>2026-04-12T15:03:03.935Z</time></trkpt><trkpt lat="45.4115135" lon="8.8147202"><ele>109.0</ele><time>2026-04-12T15:03:04.935Z</time></trkpt><trkpt lat="45.4114166" lon="8.8147436"><ele>109.0</ele><time>2026-04-12T15:03:05.935Z</time></trkpt><trkpt lat="45.4113221" lon="8.8147766"><ele>108.28571428571429</ele><time>2026-04-12T15:03:06.935Z</time></trkpt><trkpt lat="45.411241" lon="8.8148092"><ele>107.57142857142858</ele><time>2026-04-12T15:03:07.935Z</time></trkpt><trkpt lat="45.4111694" lon="8.8148331"><ele>106.85714285714286</ele><time>2026-04-12T15:03:08.935Z</time></trkpt><trkpt lat="45.4111" lon="8.8148602"><ele>106.14285714285714</ele><time>2026-04-12T15:03:09.935Z</time></trkpt><trkpt lat="45.411033" lon="8.8148978"><ele>105.42857142857143</ele><time>2026-04-12T15:03:10.935Z</time></trkpt><trkpt lat="45.4109714" lon="8.8149454"><ele>104.71428571428571</ele><time>2026-04-12T15:03:11.935Z</time></trkpt><trkpt lat="45.4109116" lon="8.8149991"><ele>104.0</ele><time>2026-04-12T15:03:12.935Z</time></trkpt><trkpt lat="45.4108547" lon="8.8150476"><ele>103.99999999999999</ele><time>2026-04-12T15:03:13.935Z</time></trkpt><trkpt lat="45.4108015" lon="8.8150975"><ele>104.0</ele><time>2026-04-12T15:03:14.935Z</time></trkpt><trkpt lat="45.4107014" lon="8.8151615"><ele>104.0</ele><time>2026-04-12T15:03:16.935Z</time></trkpt><trkpt lat="45.4106045" lon="8.8152082"><ele>104.0</ele><time>2026-04-12T15:03:18.935Z</time></trkpt><trkpt lat="45.4105411" lon="8.8152476"><ele>103.99999999999999</ele><time>2026-04-12T15:03:19.935Z</time></trkpt><trkpt lat="45.4104747" lon="8.8152856"><ele>104.0</ele><time>2026-04-12T15:03:20.935Z</time></trkpt><trkpt lat="45.4104032" lon="8.8153144"><ele>103.66666666666666</ele><time>2026-04-12T15:03:21.935Z</time></trkpt><trkpt lat="45.4103287" lon="8.8153506"><ele>103.33333333333333</ele><time>2026-04-12T15:03:22.936Z</time></trkpt><trkpt lat="45.4102493" lon="8.8153776"><ele>103.0</ele><time>2026-04-12T15:03:23.935Z</time></trkpt><trkpt lat="45.4101611" lon="8.8154056"><ele>102.66666666666666</ele><time>2026-04-12T15:03:24.935Z</time></trkpt><trkpt lat="45.4100722" lon="8.8154271"><ele>102.33333333333333</ele><time>2026-04-12T15:03:25.935Z</time></trkpt><trkpt lat="45.4099835" lon="8.8154554"><ele>102.0</ele><time>2026-04-12T15:03:26.935Z</time></trkpt><trkpt lat="45.409894" lon="8.8154865"><ele>102.0</ele><time>2026-04-12T15:03:27.935Z</time></trkpt><trkpt lat="45.4097993" lon="8.8155306"><ele>102.0</ele><time>2026-04-12T15:03:28.935Z</time></trkpt><trkpt lat="45.4096984" lon="8.81558"><ele>102.0</ele><time>2026-04-12T15:03:29.935Z</time></trkpt><trkpt lat="45.4095959" lon="8.8156297"><ele>102.0</ele><time>2026-04-12T15:03:30.935Z</time></trkpt><trkpt lat="45.4095062" lon="8.8156807"><ele>102.0</ele><time>2026-04-12T15:03:31.935Z</time></trkpt><trkpt lat="45.4094186" lon="8.8157297"><ele>102.16666666666667</ele><time>2026-04-12T15:03:32.935Z</time></trkpt><trkpt lat="45.4093486" lon="8.8157734"><ele>102.33333333333334</ele><time>2026-04-12T15:03:33.935Z</time></trkpt><trkpt lat="45.4092837" lon="8.8158201"><ele>102.5</ele><time>2026-04-12T15:03:34.935Z</time></trkpt><trkpt lat="45.4092301" lon="8.8158674"><ele>102.66666666666667</ele><time>2026-04-12T15:03:35.935Z</time></trkpt><trkpt lat="45.4091323" lon="8.8159639"><ele>102.83333333333334</ele><time>2026-04-12T15:03:37.936Z</time></trkpt><trkpt lat="45.409076" lon="8.8160117"><ele>103.0</ele><time>2026-04-12T15:03:38.935Z</time></trkpt><trkpt lat="45.409013" lon="8.8160745"><ele>102.66666666666667</ele><time>2026-04-12T15:03:39.935Z</time></trkpt><trkpt lat="45.4089457" lon="8.8161475"><ele>102.33333333333334</ele><time>2026-04-12T15:03:40.935Z</time></trkpt><trkpt lat="45.408881" lon="8.8162196"><ele>102.0</ele><time>2026-04-12T15:03:41.936Z</time></trkpt><trkpt lat="45.4088193" lon="8.8162837"><ele>101.66666666666666</ele><time>2026-04-12T15:03:42.936Z</time></trkpt><trkpt lat="45.4087539" lon="8.8163426"><ele>101.33333333333333</ele><time>2026-04-12T15:03:43.935Z</time></trkpt><trkpt lat="45.4086883" lon="8.8163764"><ele>101.0</ele><time>2026-04-12T15:03:44.935Z</time></trkpt><trkpt lat="45.4086218" lon="8.8163907"><ele>100.99999999999999</ele><time>2026-04-12T15:03:45.935Z</time></trkpt><trkpt lat="45.4085499" lon="8.8163911"><ele>101.0</ele><time>2026-04-12T15:03:46.935Z</time></trkpt><trkpt lat="45.4084792" lon="8.8163674"><ele>101.0</ele><time>2026-04-12T15:03:47.935Z</time></trkpt><trkpt lat="45.4084041" lon="8.8163366"><ele>101.0</ele><time>2026-04-12T15:03:48.935Z</time></trkpt><trkpt lat="45.4083234" lon="8.8162933"><ele>100.99999999999999</ele><time>2026-04-12T15:03:49.935Z</time></trkpt><trkpt lat="45.4082372" lon="8.8162479"><ele>101.0</ele><time>2026-04-12T15:03:50.935Z</time></trkpt><trkpt lat="45.4081465" lon="8.816201"><ele>101.0</ele><time>2026-04-12T15:03:51.935Z</time></trkpt><trkpt lat="45.408054" lon="8.8161576"><ele>101.0</ele><time>2026-04-12T15:03:52.935Z</time></trkpt><trkpt lat="45.4079614" lon="8.8161152"><ele>101.0</ele><time>2026-04-12T15:03:53.935Z</time></trkpt><trkpt lat="45.4078713" lon="8.816078"><ele>101.0</ele><time>2026-04-12T15:03:54.935Z</time></trkpt><trkpt lat="45.4077848" lon="8.816049"><ele>101.0</ele><time>2026-04-12T15:03:55.935Z</time></trkpt><trkpt lat="45.4077003" lon="8.8160338"><ele>101.14285714285714</ele><time>2026-04-12T15:03:56.935Z</time></trkpt><trkpt lat="45.4076231" lon="8.8160276"><ele>101.28571428571428</ele><time>2026-04-12T15:03:57.936Z</time></trkpt><trkpt lat="45.4075508" lon="8.8160284"><ele>101.42857142857143</ele><time>2026-04-12T15:03:58.936Z</time></trkpt><trkpt lat="45.4074859" lon="8.8160318"><ele>101.57142857142857</ele><time>2026-04-12T15:03:59.935Z</time></trkpt><trkpt lat="45.407421" lon="8.8160401"><ele>101.71428571428572</ele><time>2026-04-12T15:04:00.935Z</time></trkpt><trkpt lat="45.4073541" lon="8.8160549"><ele>101.85714285714286</ele><time>2026-04-12T15:04:01.935Z</time></trkpt><trkpt lat="45.4072849" lon="8.8160791"><ele>102.0</ele><time>2026-04-12T15:04:02.935Z</time></trkpt><trkpt lat="45.4072107" lon="8.8160986"><ele>102.0</ele><time>2026-04-12T15:04:03.936Z</time></trkpt><trkpt lat="45.407142" lon="8.8161337"><ele>102.0</ele><time>2026-04-12T15:04:04.936Z</time></trkpt><trkpt lat="45.4070691" lon="8.8161697"><ele>102.0</ele><time>2026-04-12T15:04:05.935Z</time></trkpt><trkpt lat="45.4070049" lon="8.8162105"><ele>102.0</ele><time>2026-04-12T15:04:06.935Z</time></trkpt><trkpt lat="45.4069076" lon="8.8162965"><ele>102.0</ele><time>2026-04-12T15:04:08.935Z</time></trkpt><trkpt lat="45.4068165" lon="8.8163436"><ele>102.0</ele><time>2026-04-12T15:04:10.935Z</time></trkpt><trkpt lat="45.4067541" lon="8.8162925"><ele>102.0</ele><time>2026-04-12T15:04:12.935Z</time></trkpt><trkpt lat="45.4067028" lon="8.8161686"><ele>102.0</ele><time>2026-04-12T15:04:14.935Z</time></trkpt><trkpt lat="45.4066529" lon="8.8160112"><ele>102.0</ele><time>2026-04-12T15:04:16.935Z</time></trkpt><trkpt lat="45.406623" lon="8.8159198"><ele>102.0</ele><time>2026-04-12T15:04:17.935Z</time></trkpt><trkpt lat="45.4065892" lon="8.8158225"><ele>102.0</ele><time>2026-04-12T15:04:18.935Z</time></trkpt><trkpt lat="45.4065517" lon="8.8157154"><ele>102.19999999999999</ele><time>2026-04-12T15:04:19.935Z</time></trkpt><trkpt lat="45.4065125" lon="8.8156"><ele>102.4</ele><time>2026-04-12T15:04:20.935Z</time></trkpt><trkpt lat="45.4064731" lon="8.8154795"><ele>102.6</ele><time>2026-04-12T15:04:21.935Z</time></trkpt><trkpt lat="45.4064289" lon="8.8153468"><ele>102.80000000000001</ele><time>2026-04-12T15:04:22.935Z</time></trkpt><trkpt lat="45.4063799" lon="8.8152078"><ele>103.0</ele><time>2026-04-12T15:04:23.935Z</time></trkpt><trkpt lat="45.4063311" lon="8.8150633"><ele>102.4</ele><time>2026-04-12T15:04:24.936Z</time></trkpt><trkpt lat="45.4062816" lon="8.8149144"><ele>101.80000000000001</ele><time>2026-04-12T15:04:25.934Z</time></trkpt><trkpt lat="45.4062338" lon="8.814764"><ele>101.2</ele><time>2026-04-12T15:04:26.935Z</time></trkpt><trkpt lat="45.4061889" lon="8.8146269"><ele>100.6</ele><time>2026-04-12T15:04:27.935Z</time></trkpt><trkpt lat="45.406146" lon="8.8145042"><ele>100.0</ele><time>2026-04-12T15:04:28.935Z</time></trkpt><trkpt lat="45.4061085" lon="8.8143893"><ele>100.16666666666667</ele><time>2026-04-12T15:04:29.936Z</time></trkpt><trkpt lat="45.406075" lon="8.8142816"><ele>100.33333333333334</ele><time>2026-04-12T15:04:30.935Z</time></trkpt><trkpt lat="45.4060449" lon="8.8141838"><ele>100.5</ele><time>2026-04-12T15:04:31.935Z</time></trkpt><trkpt lat="45.4060179" lon="8.8140917"><ele>100.66666666666666</ele><time>2026-04-12T15:04:32.936Z</time></trkpt><trkpt lat="45.4059936" lon="8.8140076"><ele>100.83333333333333</ele><time>2026-04-12T15:04:33.935Z</time></trkpt><trkpt lat="45.4059418" lon="8.8138588"><ele>101.0</ele><time>2026-04-12T15:04:35.936Z</time></trkpt><trkpt lat="45.4058726" lon="8.8137664"><ele>100.99999999999999</ele><time>2026-04-12T15:04:37.935Z</time></trkpt><trkpt lat="45.4057813" lon="8.8137581"><ele>101.0</ele><time>2026-04-12T15:04:39.935Z</time></trkpt><trkpt lat="45.4056583" lon="8.8138099"><ele>101.0</ele><time>2026-04-12T15:04:41.935Z</time></trkpt><trkpt lat="45.4055882" lon="8.8138383"><ele>101.0</ele><time>2026-04-12T15:04:42.935Z</time></trkpt><trkpt lat="45.4055181" lon="8.8138705"><ele>100.99999999999999</ele><time>2026-04-12T15:04:43.936Z</time></trkpt><trkpt lat="45.405446" lon="8.8139025"><ele>101.0</ele><time>2026-04-12T15:04:44.935Z</time></trkpt><trkpt lat="45.4053652" lon="8.8139398"><ele>100.66666666666666</ele><time>2026-04-12T15:04:45.936Z</time></trkpt><trkpt lat="45.4052843" lon="8.813983"><ele>100.33333333333333</ele><time>2026-04-12T15:04:46.935Z</time></trkpt><trkpt lat="45.4051987" lon="8.8140231"><ele>100.0</ele><time>2026-04-12T15:04:47.936Z</time></trkpt><trkpt lat="45.4051216" lon="8.8140622"><ele>99.66666666666666</ele><time>2026-04-12T15:04:48.934Z</time></trkpt><trkpt lat="45.4050446" lon="8.8140931"><ele>99.33333333333333</ele><time>2026-04-12T15:04:49.935Z</time></trkpt><trkpt lat="45.4049643" lon="8.8141214"><ele>99.0</ele><time>2026-04-12T15:04:50.935Z</time></trkpt><trkpt lat="45.4048752" lon="8.8141593"><ele>99.0</ele><time>2026-04-12T15:04:51.935Z</time></trkpt><trkpt lat="45.4047891" lon="8.8141989"><ele>99.0</ele><time>2026-04-12T15:04:52.936Z</time></trkpt><trkpt lat="45.4047006" lon="8.8142431"><ele>99.0</ele><time>2026-04-12T15:04:53.935Z</time></trkpt><trkpt lat="45.4046173" lon="8.8142758"><ele>99.0</ele><time>2026-04-12T15:04:54.935Z</time></trkpt><trkpt lat="45.4045384" lon="8.8143066"><ele>99.0</ele><time>2026-04-12T15:04:55.936Z</time></trkpt><trkpt lat="45.404456" lon="8.8143424"><ele>99.0</ele><time>2026-04-12T15:04:56.935Z</time></trkpt><trkpt lat="45.4043718" lon="8.8143763"><ele>99.4</ele><time>2026-04-12T15:04:57.935Z</time></trkpt><trkpt lat="45.4042865" lon="8.814411"><ele>99.80000000000001</ele><time>2026-04-12T15:04:58.935Z</time></trkpt><trkpt lat="45.4042" lon="8.8144443"><ele>100.19999999999999</ele><time>2026-04-12T15:04:59.934Z</time></trkpt><trkpt lat="45.4041113" lon="8.8144807"><ele>100.6</ele><time>2026-04-12T15:05:00.934Z</time></trkpt><trkpt lat="45.4040141" lon="8.814522"><ele>101.0</ele><time>2026-04-12T15:05:01.935Z</time></trkpt><trkpt lat="45.4039275" lon="8.8145552"><ele>100.99999999999999</ele><time>2026-04-12T15:05:02.935Z</time></trkpt><trkpt lat="45.4038481" lon="8.8145911"><ele>101.0</ele><time>2026-04-12T15:05:03.935Z</time></trkpt><trkpt lat="45.4037661" lon="8.8146335"><ele>101.0</ele><time>2026-04-12T15:05:04.935Z</time></trkpt><trkpt lat="45.4036837" lon="8.8146677"><ele>101.0</ele><time>2026-04-12T15:05:05.935Z</time></trkpt><trkpt lat="45.4036037" lon="8.8147035"><ele>100.99999999999999</ele><time>2026-04-12T15:05:06.935Z</time></trkpt><trkpt lat="45.403533" lon="8.8147426"><ele>101.0</ele><time>2026-04-12T15:05:07.935Z</time></trkpt><trkpt lat="45.4034634" lon="8.8147754"><ele>100.83333333333333</ele><time>2026-04-12T15:05:08.935Z</time></trkpt><trkpt lat="45.4033959" lon="8.8148105"><ele>100.66666666666666</ele><time>2026-04-12T15:05:09.934Z</time></trkpt><trkpt lat="45.4033164" lon="8.8148365"><ele>100.5</ele><time>2026-04-12T15:05:10.936Z</time></trkpt><trkpt lat="45.4032338" lon="8.8148594"><ele>100.33333333333334</ele><time>2026-04-12T15:05:11.935Z</time></trkpt><trkpt lat="45.4031435" lon="8.8148835"><ele>100.16666666666667</ele><time>2026-04-12T15:05:12.935Z</time></trkpt><trkpt lat="45.4030509" lon="8.8148971"><ele>100.0</ele><time>2026-04-12T15:05:13.935Z</time></trkpt><trkpt lat="45.4029654" lon="8.8149028"><ele>100.00000000000001</ele><time>2026-04-12T15:05:14.936Z</time></trkpt><trkpt lat="45.4028789" lon="8.8149099"><ele>100.0</ele><time>2026-04-12T15:05:15.934Z</time></trkpt><trkpt lat="45.4028013" lon="8.8149186"><ele>100.0</ele><time>2026-04-12T15:05:16.935Z</time></trkpt><trkpt lat="45.4027282" lon="8.8149272"><ele>100.0</ele><time>2026-04-12T15:05:17.936Z</time></trkpt><trkpt lat="45.4026541" lon="8.81494"><ele>100.00000000000001</ele><time>2026-04-12T15:05:18.935Z</time></trkpt><trkpt lat="45.4025748" lon="8.8149547"><ele>100.0</ele><time>2026-04-12T15:05:19.936Z</time></trkpt><trkpt lat="45.4024954" lon="8.8149645"><ele>100.00000000000001</ele><time>2026-04-12T15:05:20.935Z</time></trkpt><trkpt lat="45.4024187" lon="8.8149768"><ele>100.0</ele><time>2026-04-12T15:05:21.934Z</time></trkpt><trkpt lat="45.4023452" lon="8.8149939"><ele>100.0</ele><time>2026-04-12T15:05:22.935Z</time></trkpt><trkpt lat="45.4022667" lon="8.8150276"><ele>100.0</ele><time>2026-04-12T15:05:23.935Z</time></trkpt><trkpt lat="45.4021976" lon="8.8150474"><ele>100.00000000000001</ele><time>2026-04-12T15:05:24.935Z</time></trkpt><trkpt lat="45.4021361" lon="8.8150723"><ele>100.0</ele><time>2026-04-12T15:05:25.935Z</time></trkpt><trkpt lat="45.4020325" lon="8.8150998"><ele>100.2</ele><time>2026-04-12T15:05:27.934Z</time></trkpt><trkpt lat="45.4019378" lon="8.8151221"><ele>100.4</ele><time>2026-04-12T15:05:29.935Z</time></trkpt><trkpt lat="45.4018383" lon="8.8151491"><ele>100.6</ele><time>2026-04-12T15:05:31.935Z</time></trkpt><trkpt lat="45.4017379" lon="8.815175"><ele>100.8</ele><time>2026-04-12T15:05:33.935Z</time></trkpt><trkpt lat="45.4016445" lon="8.8151853"><ele>101.0</ele><time>2026-04-12T15:05:35.935Z</time></trkpt><trkpt lat="45.4015699" lon="8.8151375"><ele>101.19999999999999</ele><time>2026-04-12T15:05:37.935Z</time></trkpt><trkpt lat="45.4015352" lon="8.8150405"><ele>101.39999999999999</ele><time>2026-04-12T15:05:39.936Z</time></trkpt><trkpt lat="45.4015363" lon="8.8148832"><ele>101.6</ele><time>2026-04-12T15:05:41.935Z</time></trkpt><trkpt lat="45.4015297" lon="8.8147109"><ele>101.8</ele><time>2026-04-12T15:05:43.935Z</time></trkpt><trkpt lat="45.4014912" lon="8.8145339"><ele>102.0</ele><time>2026-04-12T15:05:45.937Z</time></trkpt><trkpt lat="45.4014685" lon="8.8144419"><ele>102.0</ele><time>2026-04-12T15:05:46.935Z</time></trkpt><trkpt lat="45.4014408" lon="8.8143601"><ele>102.0</ele><time>2026-04-12T15:05:47.935Z</time></trkpt><trkpt lat="45.4014245" lon="8.8142638"><ele>102.0</ele><time>2026-04-12T15:05:48.936Z</time></trkpt><trkpt lat="45.4013997" lon="8.8141767"><ele>102.0</ele><time>2026-04-12T15:05:49.936Z</time></trkpt><trkpt lat="45.4013743" lon="8.8140845"><ele>102.0</ele><time>2026-04-12T15:05:50.935Z</time></trkpt><trkpt lat="45.4013459" lon="8.8139983"><ele>102.0</ele><time>2026-04-12T15:05:51.936Z</time></trkpt><trkpt lat="45.4013153" lon="8.8139073"><ele>102.0</ele><time>2026-04-12T15:05:52.935Z</time></trkpt><trkpt lat="45.4012804" lon="8.8138153"><ele>102.71428571428572</ele><time>2026-04-12T15:05:53.935Z</time></trkpt><trkpt lat="45.4012415" lon="8.8137214"><ele>103.42857142857143</ele><time>2026-04-12T15:05:54.936Z</time></trkpt><trkpt lat="45.4012026" lon="8.8136381"><ele>104.14285714285714</ele><time>2026-04-12T15:05:55.935Z</time></trkpt><trkpt lat="45.4011621" lon="8.8135512"><ele>104.85714285714286</ele><time>2026-04-12T15:05:56.935Z</time></trkpt><trkpt lat="45.4011273" lon="8.813473"><ele>105.57142857142857</ele><time>2026-04-12T15:05:57.935Z</time></trkpt><trkpt lat="45.4010852" lon="8.8133873"><ele>106.28571428571429</ele><time>2026-04-12T15:05:58.935Z</time></trkpt><trkpt lat="45.4010515" lon="8.8133026"><ele>107.0</ele><time>2026-04-12T15:05:59.934Z</time></trkpt><trkpt lat="45.4009879" lon="8.8131429"><ele>106.99999999999999</ele><time>2026-04-12T15:06:01.935Z</time></trkpt><trkpt lat="45.4009528" lon="8.8130492"><ele>107.0</ele><time>2026-04-12T15:06:02.935Z</time></trkpt><trkpt lat="45.400913" lon="8.8129412"><ele>107.0</ele><time>2026-04-12T15:06:03.936Z</time></trkpt><trkpt lat="45.4008818" lon="8.8128305"><ele>107.0</ele><time>2026-04-12T15:06:04.934Z</time></trkpt><trkpt lat="45.4008668" lon="8.8126923"><ele>106.99999999999999</ele><time>2026-04-12T15:06:05.935Z</time></trkpt><trkpt lat="45.4008672" lon="8.8125457"><ele>107.0</ele><time>2026-04-12T15:06:06.934Z</time></trkpt><trkpt lat="45.4008888" lon="8.8123962"><ele>107.75</ele><time>2026-04-12T15:06:07.935Z</time></trkpt><trkpt lat="45.4009269" lon="8.8122513"><ele>108.5</ele><time>2026-04-12T15:06:08.935Z</time></trkpt><trkpt lat="45.4009735" lon="8.8121033"><ele>109.25</ele><time>2026-04-12T15:06:09.935Z</time></trkpt><trkpt lat="45.4010184" lon="8.8119397"><ele>110.0</ele><time>2026-04-12T15:06:10.936Z</time></trkpt><trkpt lat="45.4010614" lon="8.8117657"><ele>111.25</ele><time>2026-04-12T15:06:11.934Z</time></trkpt><trkpt lat="45.4010975" lon="8.8115874"><ele>112.5</ele><time>2026-04-12T15:06:12.935Z</time></trkpt><trkpt lat="45.4011357" lon="8.8114284"><ele>113.75</ele><time>2026-04-12T15:06:13.934Z</time></trkpt><trkpt lat="45.4011887" lon="8.8112853"><ele>115.0</ele><time>2026-04-12T15:06:14.935Z</time></trkpt><trkpt lat="45.4012479" lon="8.8111571"><ele>115.0</ele><time>2026-04-12T15:06:15.935Z</time></trkpt><trkpt lat="45.4013248" lon="8.8110644"><ele>115.0</ele><time>2026-04-12T15:06:16.934Z</time></trkpt><trkpt lat="45.4014222" lon="8.8109914"><ele>115.0</ele><time>2026-04-12T15:06:17.934Z</time></trkpt><trkpt lat="45.4015127" lon="8.8109489"><ele>115.0</ele><time>2026-04-12T15:06:18.935Z</time></trkpt><trkpt lat="45.4015955" lon="8.8109181"><ele>115.0</ele><time>2026-04-12T15:06:19.935Z</time></trkpt><trkpt lat="45.4016938" lon="8.8108861"><ele>115.66666666666667</ele><time>2026-04-12T15:06:21.935Z</time></trkpt><trkpt lat="45.4017562" lon="8.8108607"><ele>116.33333333333334</ele><time>2026-04-12T15:06:23.935Z</time></trkpt><trkpt lat="45.4018307" lon="8.8108701"><ele>117.0</ele><time>2026-04-12T15:06:27.936Z</time></trkpt><trkpt lat="45.4018952" lon="8.8108686"><ele>117.66666666666666</ele><time>2026-04-12T15:06:29.934Z</time></trkpt><trkpt lat="45.4019919" lon="8.8108546"><ele>118.33333333333333</ele><time>2026-04-12T15:06:31.936Z</time></trkpt><trkpt lat="45.4020962" lon="8.8108458"><ele>119.0</ele><time>2026-04-12T15:06:33.935Z</time></trkpt><trkpt lat="45.402211" lon="8.8108308"><ele>119.33333333333333</ele><time>2026-04-12T15:06:35.934Z</time></trkpt><trkpt lat="45.4023293" lon="8.8108103"><ele>119.66666666666666</ele><time>2026-04-12T15:06:37.934Z</time></trkpt><trkpt lat="45.4023934" lon="8.8107967"><ele>120.0</ele><time>2026-04-12T15:06:38.935Z</time></trkpt><trkpt lat="45.4024571" lon="8.8107818"><ele>120.33333333333334</ele><time>2026-04-12T15:06:39.936Z</time></trkpt><trkpt lat="45.4025232" lon="8.810765"><ele>120.66666666666667</ele><time>2026-04-12T15:06:40.935Z</time></trkpt><trkpt lat="45.4026433" lon="8.8107156"><ele>121.0</ele><time>2026-04-12T15:06:42.935Z</time></trkpt><trkpt lat="45.4027188" lon="8.8106946"><ele>121.00000000000001</ele><time>2026-04-12T15:06:43.935Z</time></trkpt><trkpt lat="45.4027984" lon="8.8106793"><ele>121.0</ele><time>2026-04-12T15:06:44.935Z</time></trkpt><trkpt lat="45.4028746" lon="8.8106529"><ele>121.0</ele><time>2026-04-12T15:06:45.935Z</time></trkpt><trkpt lat="45.4029499" lon="8.8106316"><ele>121.0</ele><time>2026-04-12T15:06:46.935Z</time></trkpt><trkpt lat="45.4030348" lon="8.81061"><ele>121.00000000000001</ele><time>2026-04-12T15:06:47.935Z</time></trkpt><trkpt lat="45.4031138" lon="8.8105854"><ele>121.0</ele><time>2026-04-12T15:06:48.935Z</time></trkpt><trkpt lat="45.4032069" lon="8.8105659"><ele>121.16666666666667</ele><time>2026-04-12T15:06:49.935Z</time></trkpt><trkpt lat="45.4032857" lon="8.8105509"><ele>121.33333333333334</ele><time>2026-04-12T15:06:50.934Z</time></trkpt><trkpt lat="45.4033683" lon="8.8105369"><ele>121.5</ele><time>2026-04-12T15:06:51.936Z</time></trkpt><trkpt lat="45.4034389" lon="8.8105051"><ele>121.66666666666666</ele><time>2026-04-12T15:06:52.935Z</time></trkpt><trkpt lat="45.4035121" lon="8.8104748"><ele>121.83333333333333</ele><time>2026-04-12T15:06:53.934Z</time></trkpt><trkpt lat="45.4035909" lon="8.8104452"><ele>122.0</ele><time>2026-04-12T15:06:54.935Z</time></trkpt><trkpt lat="45.4036687" lon="8.810424"><ele>121.99999999999999</ele><time>2026-04-12T15:06:55.935Z</time></trkpt><trkpt lat="45.4037464" lon="8.8103937"><ele>122.0</ele><time>2026-04-12T15:06:56.935Z</time></trkpt><trkpt lat="45.4038108" lon="8.8103627"><ele>122.0</ele><time>2026-04-12T15:06:57.934Z</time></trkpt><trkpt lat="45.403879" lon="8.8103357"><ele>122.0</ele><time>2026-04-12T15:06:58.935Z</time></trkpt><trkpt lat="45.4039567" lon="8.8103166"><ele>121.99999999999999</ele><time>2026-04-12T15:06:59.935Z</time></trkpt><trkpt lat="45.4040308" lon="8.8102965"><ele>122.0</ele><time>2026-04-12T15:07:00.934Z</time></trkpt><trkpt lat="45.4041642" lon="8.8102921"><ele>121.33333333333333</ele><time>2026-04-12T15:07:02.935Z</time></trkpt><trkpt lat="45.4042404" lon="8.8102876"><ele>120.66666666666666</ele><time>2026-04-12T15:07:03.935Z</time></trkpt><trkpt lat="45.4043095" lon="8.8102795"><ele>120.0</ele><time>2026-04-12T15:07:04.935Z</time></trkpt><trkpt lat="45.4043779" lon="8.8102753"><ele>119.33333333333334</ele><time>2026-04-12T15:07:05.935Z</time></trkpt><trkpt lat="45.4044521" lon="8.8102689"><ele>118.66666666666667</ele><time>2026-04-12T15:07:06.936Z</time></trkpt><trkpt lat="45.4045694" lon="8.8102315"><ele>118.0</ele><time>2026-04-12T15:07:08.935Z</time></trkpt><trkpt lat="45.4046766" lon="8.8101864"><ele>119.2</ele><time>2026-04-12T15:07:10.934Z</time></trkpt><trkpt lat="45.4048005" lon="8.8101212"><ele>120.4</ele><time>2026-04-12T15:07:12.935Z</time></trkpt><trkpt lat="45.4049122" lon="8.8100823"><ele>121.60000000000001</ele><time>2026-04-12T15:07:14.934Z</time></trkpt><trkpt lat="45.4049819" lon="8.8100682"><ele>122.80000000000001</ele><time>2026-04-12T15:07:15.935Z</time></trkpt><trkpt lat="45.4050583" lon="8.8100569"><ele>124.0</ele><time>2026-04-12T15:07:16.935Z</time></trkpt><trkpt lat="45.4051243" lon="8.8100406"><ele>124.0</ele><time>2026-04-12T15:07:17.935Z</time></trkpt><trkpt lat="45.4052442" lon="8.8099855"><ele>124.0</ele><time>2026-04-12T15:07:19.935Z</time></trkpt><trkpt lat="45.405315" lon="8.8099645"><ele>124.0</ele><time>2026-04-12T15:07:20.934Z</time></trkpt><trkpt lat="45.4053861" lon="8.8099459"><ele>124.0</ele><time>2026-04-12T15:07:21.936Z</time></trkpt><trkpt lat="45.4055059" lon="8.8099127"><ele>124.0</ele><time>2026-04-12T15:07:23.935Z</time></trkpt><trkpt lat="45.4055708" lon="8.809899"><ele>124.33333333333334</ele><time>2026-04-12T15:07:24.935Z</time></trkpt><trkpt lat="45.405645" lon="8.8098767"><ele>124.66666666666667</ele><time>2026-04-12T15:07:25.934Z</time></trkpt><trkpt lat="45.405724" lon="8.8098432"><ele>125.0</ele><time>2026-04-12T15:07:26.935Z</time></trkpt><trkpt lat="45.4058059" lon="8.809823"><ele>125.33333333333334</ele><time>2026-04-12T15:07:27.935Z</time></trkpt><trkpt lat="45.4058868" lon="8.8098052"><ele>125.66666666666667</ele><time>2026-04-12T15:07:28.936Z</time></trkpt><trkpt lat="45.4059657" lon="8.8097832"><ele>126.0</ele><time>2026-04-12T15:07:29.935Z</time></trkpt><trkpt lat="45.4060437" lon="8.8097636"><ele>126.0</ele><time>2026-04-12T15:07:30.935Z</time></trkpt><trkpt lat="45.406106" lon="8.8097505"><ele>126.0</ele><time>2026-04-12T15:07:31.935Z</time></trkpt><trkpt lat="45.406203" lon="8.8097747"><ele>126.0</ele><time>2026-04-12T15:07:33.934Z</time></trkpt><trkpt lat="45.4062933" lon="8.8098337"><ele>126.0</ele><time>2026-04-12T15:07:35.934Z</time></trkpt><trkpt lat="45.4063729" lon="8.8098728"><ele>126.0</ele><time>2026-04-12T15:07:37.936Z</time></trkpt><trkpt lat="45.4064572" lon="8.8098404"><ele>126.0</ele><time>2026-04-12T15:07:39.936Z</time></trkpt><trkpt lat="45.406545" lon="8.8097497"><ele>123.8</ele><time>2026-04-12T15:07:41.935Z</time></trkpt><trkpt lat="45.4065959" lon="8.8096956"><ele>121.6</ele><time>2026-04-12T15:07:42.935Z</time></trkpt><trkpt lat="45.4067176" lon="8.8095919"><ele>119.4</ele><time>2026-04-12T15:07:44.934Z</time></trkpt><trkpt lat="45.4067808" lon="8.8095189"><ele>117.2</ele><time>2026-04-12T15:07:45.935Z</time></trkpt><trkpt lat="45.4068469" lon="8.8094556"><ele>115.0</ele><time>2026-04-12T15:07:46.934Z</time></trkpt><trkpt lat="45.4069188" lon="8.8093946"><ele>115.00000000000001</ele><time>2026-04-12T15:07:47.935Z</time></trkpt><trkpt lat="45.406993" lon="8.8093323"><ele>115.0</ele><time>2026-04-12T15:07:48.934Z</time></trkpt><trkpt lat="45.4070588" lon="8.8092812"><ele>115.0</ele><time>2026-04-12T15:07:49.934Z</time></trkpt><trkpt lat="45.4071213" lon="8.8092388"><ele>115.0</ele><time>2026-04-12T15:07:50.936Z</time></trkpt><trkpt lat="45.4071949" lon="8.8091943"><ele>115.00000000000001</ele><time>2026-04-12T15:07:51.934Z</time></trkpt><trkpt lat="45.4073194" lon="8.8091138"><ele>115.0</ele><time>2026-04-12T15:07:53.936Z</time></trkpt><trkpt lat="45.4073973" lon="8.8089889"><ele>115.4</ele><time>2026-04-12T15:07:55.934Z</time></trkpt><trkpt lat="45.4074488" lon="8.8088584"><ele>115.8</ele><time>2026-04-12T15:07:57.934Z</time></trkpt><trkpt lat="45.4074929" lon="8.8087757"><ele>116.19999999999999</ele><time>2026-04-12T15:08:10.935Z</time></trkpt><trkpt lat="45.4075635" lon="8.8087963"><ele>116.6</ele><time>2026-04-12T15:08:12.935Z</time></trkpt><trkpt lat="45.4076625" lon="8.8088181"><ele>117.0</ele><time>2026-04-12T15:08:14.934Z</time></trkpt><trkpt lat="45.407783" lon="8.8088419"><ele>117.0</ele><time>2026-04-12T15:08:16.935Z</time></trkpt><trkpt lat="45.4078552" lon="8.8088516"><ele>117.00000000000001</ele><time>2026-04-12T15:08:17.934Z</time></trkpt><trkpt lat="45.407924" lon="8.8088524"><ele>117.0</ele><time>2026-04-12T15:08:18.935Z</time></trkpt><trkpt lat="45.4079912" lon="8.8088498"><ele>117.0</ele><time>2026-04-12T15:08:19.935Z</time></trkpt><trkpt lat="45.4080677" lon="8.808856"><ele>117.00000000000001</ele><time>2026-04-12T15:08:20.934Z</time></trkpt><trkpt lat="45.4081392" lon="8.8088607"><ele>117.0</ele><time>2026-04-12T15:08:21.936Z</time></trkpt><trkpt lat="45.4082129" lon="8.8088603"><ele>117.0</ele><time>2026-04-12T15:08:22.934Z</time></trkpt><trkpt lat="45.4082818" lon="8.8088562"><ele>116.0</ele><time>2026-04-12T15:08:23.936Z</time></trkpt><trkpt lat="45.4083511" lon="8.8088331"><ele>114.99999999999999</ele><time>2026-04-12T15:08:24.935Z</time></trkpt><trkpt lat="45.408468" lon="8.8088176"><ele>113.99999999999999</ele><time>2026-04-12T15:08:26.935Z</time></trkpt><trkpt lat="45.4085735" lon="8.8087971"><ele>113.0</ele><time>2026-04-12T15:08:28.934Z</time></trkpt><trkpt lat="45.4087077" lon="8.8087998"><ele>112.0</ele><time>2026-04-12T15:08:30.935Z</time></trkpt><trkpt lat="45.4087794" lon="8.8087929"><ele>112.16666666666667</ele><time>2026-04-12T15:08:31.935Z</time></trkpt><trkpt lat="45.4088595" lon="8.8087991"><ele>112.33333333333334</ele><time>2026-04-12T15:08:32.935Z</time></trkpt><trkpt lat="45.4089398" lon="8.8088061"><ele>112.5</ele><time>2026-04-12T15:08:33.934Z</time></trkpt><trkpt lat="45.4090102" lon="8.8088174"><ele>112.66666666666666</ele><time>2026-04-12T15:08:34.936Z</time></trkpt><trkpt lat="45.4090826" lon="8.8088303"><ele>112.83333333333333</ele><time>2026-04-12T15:08:35.935Z</time></trkpt><trkpt lat="45.4091506" lon="8.808848"><ele>113.0</ele><time>2026-04-12T15:08:36.935Z</time></trkpt><trkpt lat="45.40923" lon="8.8088663"><ele>113.0</ele><time>2026-04-12T15:08:37.935Z</time></trkpt><trkpt lat="45.4093028" lon="8.8088735"><ele>113.0</ele><time>2026-04-12T15:08:38.936Z</time></trkpt><trkpt lat="45.4093734" lon="8.8088662"><ele>113.0</ele><time>2026-04-12T15:08:39.934Z</time></trkpt><trkpt lat="45.4094479" lon="8.8088597"><ele>113.0</ele><time>2026-04-12T15:08:40.936Z</time></trkpt><trkpt lat="45.4095119" lon="8.8088537"><ele>113.0</ele><time>2026-04-12T15:08:41.934Z</time></trkpt><trkpt lat="45.4095805" lon="8.8088598"><ele>113.0</ele><time>2026-04-12T15:08:42.934Z</time></trkpt><trkpt lat="45.409641" lon="8.8088858"><ele>113.0</ele><time>2026-04-12T15:08:43.935Z</time></trkpt><trkpt lat="45.4097106" lon="8.8089214"><ele>113.83333333333333</ele><time>2026-04-12T15:08:44.935Z</time></trkpt><trkpt lat="45.4097772" lon="8.8089594"><ele>114.66666666666666</ele><time>2026-04-12T15:08:45.934Z</time></trkpt><trkpt lat="45.4098388" lon="8.8089833"><ele>115.5</ele><time>2026-04-12T15:08:46.935Z</time></trkpt><trkpt lat="45.4099045" lon="8.8090019"><ele>116.33333333333334</ele><time>2026-04-12T15:08:47.935Z</time></trkpt><trkpt lat="45.41001" lon="8.8090439"><ele>117.16666666666667</ele><time>2026-04-12T15:08:49.935Z</time></trkpt><trkpt lat="45.410111" lon="8.8091002"><ele>118.0</ele><time>2026-04-12T15:08:51.935Z</time></trkpt><trkpt lat="45.4102097" lon="8.8091982"><ele>118.0</ele><time>2026-04-12T15:08:53.934Z</time></trkpt><trkpt lat="45.410267" lon="8.8092587"><ele>118.0</ele><time>2026-04-12T15:08:54.935Z</time></trkpt><trkpt lat="45.4103237" lon="8.8093284"><ele>118.0</ele><time>2026-04-12T15:08:55.934Z</time></trkpt><trkpt lat="45.4103699" lon="8.8093963"><ele>118.0</ele><time>2026-04-12T15:08:56.935Z</time></trkpt><trkpt lat="45.410434" lon="8.8094749"><ele>118.0</ele><time>2026-04-12T15:08:57.935Z</time></trkpt><trkpt lat="45.4104936" lon="8.8095416"><ele>118.0</ele><time>2026-04-12T15:08:58.935Z</time></trkpt><trkpt lat="45.4105512" lon="8.8096097"><ele>118.0</ele><time>2026-04-12T15:08:59.934Z</time></trkpt><trkpt lat="45.4106057" lon="8.8096717"><ele>117.66666666666667</ele><time>2026-04-12T15:09:00.934Z</time></trkpt><trkpt lat="45.4106662" lon="8.8097379"><ele>117.33333333333334</ele><time>2026-04-12T15:09:01.936Z</time></trkpt><trkpt lat="45.4107222" lon="8.8097981"><ele>117.0</ele><time>2026-04-12T15:09:02.935Z</time></trkpt><trkpt lat="45.4108107" lon="8.8098803"><ele>116.66666666666666</ele><time>2026-04-12T15:09:04.935Z</time></trkpt><trkpt lat="45.4108709" lon="8.8099365"><ele>116.33333333333333</ele><time>2026-04-12T15:09:06.935Z</time></trkpt><trkpt lat="45.4109312" lon="8.809993"><ele>116.0</ele><time>2026-04-12T15:09:08.934Z</time></trkpt><trkpt lat="45.4109824" lon="8.8100545"><ele>115.99999999999999</ele><time>2026-04-12T15:09:10.935Z</time></trkpt><trkpt lat="45.4110383" lon="8.8101241"><ele>116.0</ele><time>2026-04-12T15:09:12.935Z</time></trkpt><trkpt lat="45.4110904" lon="8.8101955"><ele>116.0</ele><time>2026-04-12T15:09:14.935Z</time></trkpt><trkpt lat="45.4111358" lon="8.8102666"><ele>116.0</ele><time>2026-04-12T15:09:16.934Z</time></trkpt><trkpt lat="45.4111788" lon="8.8103478"><ele>115.99999999999999</ele><time>2026-04-12T15:09:18.935Z</time></trkpt><trkpt lat="45.4112329" lon="8.8104266"><ele>116.0</ele><time>2026-04-12T15:09:20.935Z</time></trkpt><trkpt lat="45.4113038" lon="8.810513"><ele>116.33333333333333</ele><time>2026-04-12T15:09:22.935Z</time></trkpt><trkpt lat="45.4113724" lon="8.8106168"><ele>116.66666666666666</ele><time>2026-04-12T15:09:24.935Z</time></trkpt><trkpt lat="45.4114502" lon="8.8107039"><ele>117.0</ele><time>2026-04-12T15:09:26.935Z</time></trkpt><trkpt lat="45.4115254" lon="8.8107245"><ele>117.33333333333334</ele><time>2026-04-12T15:09:28.934Z</time></trkpt><trkpt lat="45.4115987" lon="8.8106995"><ele>117.66666666666667</ele><time>2026-04-12T15:09:30.934Z</time></trkpt><trkpt lat="45.4116684" lon="8.8106244"><ele>118.0</ele><time>2026-04-12T15:09:32.935Z</time></trkpt><trkpt lat="45.4117466" lon="8.8105381"><ele>118.0</ele><time>2026-04-12T15:09:34.935Z</time></trkpt><trkpt lat="45.4118364" lon="8.8104281"><ele>118.00000000000001</ele><time>2026-04-12T15:09:36.935Z</time></trkpt><trkpt lat="45.4119117" lon="8.8103375"><ele>118.00000000000001</ele><time>2026-04-12T15:09:38.935Z</time></trkpt><trkpt lat="45.412003" lon="8.8102636"><ele>118.0</ele><time>2026-04-12T15:09:40.935Z</time></trkpt><trkpt lat="45.4120938" lon="8.8101876"><ele>118.0</ele><time>2026-04-12T15:09:42.934Z</time></trkpt><trkpt lat="45.4121785" lon="8.8101197"><ele>118.66666666666667</ele><time>2026-04-12T15:09:44.936Z</time></trkpt><trkpt lat="45.4122519" lon="8.8100918"><ele>119.33333333333334</ele><time>2026-04-12T15:09:46.936Z</time></trkpt><trkpt lat="45.4123491" lon="8.8100825"><ele>120.0</ele><time>2026-04-12T15:09:48.934Z</time></trkpt><trkpt lat="45.4124687" lon="8.8100589"><ele>120.66666666666666</ele><time>2026-04-12T15:09:50.935Z</time></trkpt><trkpt lat="45.4125372" lon="8.8100362"><ele>121.33333333333333</ele><time>2026-04-12T15:09:51.934Z</time></trkpt><trkpt lat="45.4126038" lon="8.8100165"><ele>122.0</ele><time>2026-04-12T15:09:52.936Z</time></trkpt><trkpt lat="45.4126724" lon="8.8100064"><ele>122.0</ele><time>2026-04-12T15:09:53.934Z</time></trkpt><trkpt lat="45.4127399" lon="8.8099864"><ele>121.99999999999999</ele><time>2026-04-12T15:09:54.935Z</time></trkpt><trkpt lat="45.4128407" lon="8.8099532"><ele>121.99999999999999</ele><time>2026-04-12T15:09:56.935Z</time></trkpt><trkpt lat="45.4129407" lon="8.8099163"><ele>122.0</ele><time>2026-04-12T15:09:58.935Z</time></trkpt><trkpt lat="45.4130202" lon="8.8098329"><ele>122.0</ele><time>2026-04-12T15:10:00.935Z</time></trkpt><trkpt lat="45.4130597" lon="8.8097331"><ele>122.0</ele><time>2026-04-12T15:10:02.935Z</time></trkpt><trkpt lat="45.4130913" lon="8.8096102"><ele>121.99999999999999</ele><time>2026-04-12T15:10:04.935Z</time></trkpt><trkpt lat="45.4131368" lon="8.8094744"><ele>121.99999999999999</ele><time>2026-04-12T15:10:06.935Z</time></trkpt><trkpt lat="45.4131902" lon="8.8093566"><ele>122.0</ele><time>2026-04-12T15:10:08.934Z</time></trkpt><trkpt lat="45.4132348" lon="8.809246"><ele>122.0</ele><time>2026-04-12T15:10:10.936Z</time></trkpt><trkpt lat="45.4132857" lon="8.8091636"><ele>121.99999999999999</ele><time>2026-04-12T15:10:12.934Z</time></trkpt><trkpt lat="45.4133183" lon="8.8090855"><ele>122.0</ele><time>2026-04-12T15:10:14.935Z</time></trkpt><trkpt lat="45.4133511" lon="8.8089918"><ele>122.0</ele><time>2026-04-12T15:10:17.934Z</time></trkpt><trkpt lat="45.4133717" lon="8.8089037"><ele>122.0</ele><time>2026-04-12T15:10:19.934Z</time></trkpt><trkpt lat="45.4134041" lon="8.8088015"><ele>121.99999999999999</ele><time>2026-04-12T15:10:21.934Z</time></trkpt><trkpt lat="45.4134331" lon="8.8086823"><ele>122.0</ele><time>2026-04-12T15:10:23.934Z</time></trkpt><trkpt lat="45.4134796" lon="8.8085318"><ele>122.19999999999999</ele><time>2026-04-12T15:10:25.935Z</time></trkpt><trkpt lat="45.4135491" lon="8.8084304"><ele>122.39999999999999</ele><time>2026-04-12T15:10:27.934Z</time></trkpt><trkpt lat="45.4136226" lon="8.8083732"><ele>122.60000000000001</ele><time>2026-04-12T15:10:29.935Z</time></trkpt><trkpt lat="45.4136947" lon="8.808355"><ele>122.80000000000001</ele><time>2026-04-12T15:10:31.935Z</time></trkpt><trkpt lat="45.4137746" lon="8.8083256"><ele>123.0</ele><time>2026-04-12T15:10:34.935Z</time></trkpt><trkpt lat="45.4139418" lon="8.8080963"><ele>122.80000000000001</ele><time>2026-04-12T15:12:07.934Z</time></trkpt><trkpt lat="45.4140168" lon="8.8079799"><ele>122.60000000000001</ele><time>2026-04-12T15:12:09.934Z</time></trkpt><trkpt lat="45.4140821" lon="8.807863"><ele>122.39999999999999</ele><time>2026-04-12T15:12:11.934Z</time></trkpt><trkpt lat="45.4141611" lon="8.8077403"><ele>122.19999999999999</ele><time>2026-04-12T15:12:13.934Z</time></trkpt><trkpt lat="45.4142114" lon="8.807675"><ele>122.0</ele><time>2026-04-12T15:12:14.934Z</time></trkpt><trkpt lat="45.4142703" lon="8.8076062"><ele>121.99999999999999</ele><time>2026-04-12T15:12:15.934Z</time></trkpt><trkpt lat="45.4143313" lon="8.8075464"><ele>122.0</ele><time>2026-04-12T15:12:16.934Z</time></trkpt><trkpt lat="45.4143884" lon="8.8074889"><ele>121.99999999999999</ele><time>2026-04-12T15:12:17.934Z</time></trkpt><trkpt lat="45.4144434" lon="8.8074236"><ele>121.99999999999999</ele><time>2026-04-12T15:12:18.935Z</time></trkpt><trkpt lat="45.4145" lon="8.8073587"><ele>122.0</ele><time>2026-04-12T15:12:19.934Z</time></trkpt><trkpt lat="45.4145578" lon="8.8072919"><ele>121.99999999999999</ele><time>2026-04-12T15:12:20.934Z</time></trkpt><trkpt lat="45.4146184" lon="8.8072283"><ele>121.99999999999999</ele><time>2026-04-12T15:12:21.934Z</time></trkpt><trkpt lat="45.4146794" lon="8.8071653"><ele>120.99999999999999</ele><time>2026-04-12T15:12:22.934Z</time></trkpt><trkpt lat="45.4147426" lon="8.8071074"><ele>120.0</ele><time>2026-04-12T15:12:23.934Z</time></trkpt><trkpt lat="45.4148111" lon="8.8070573"><ele>119.0</ele><time>2026-04-12T15:12:24.934Z</time></trkpt><trkpt lat="45.4148731" lon="8.8070113"><ele>118.0</ele><time>2026-04-12T15:12:25.934Z</time></trkpt><trkpt lat="45.4149384" lon="8.8069592"><ele>116.99999999999999</ele><time>2026-04-12T15:12:26.934Z</time></trkpt><trkpt lat="45.4150069" lon="8.8069027"><ele>116.0</ele><time>2026-04-12T15:12:27.934Z</time></trkpt><trkpt lat="45.4150769" lon="8.8068468"><ele>116.83333333333333</ele><time>2026-04-12T15:12:28.934Z</time></trkpt><trkpt lat="45.415147" lon="8.806799"><ele>117.66666666666666</ele><time>2026-04-12T15:12:29.934Z</time></trkpt><trkpt lat="45.4152212" lon="8.8067499"><ele>118.5</ele><time>2026-04-12T15:12:30.934Z</time></trkpt><trkpt lat="45.4152932" lon="8.8067062"><ele>119.33333333333334</ele><time>2026-04-12T15:12:31.934Z</time></trkpt><trkpt lat="45.4153658" lon="8.8066658"><ele>120.16666666666667</ele><time>2026-04-12T15:12:32.934Z</time></trkpt><trkpt lat="45.4154387" lon="8.8066223"><ele>121.0</ele><time>2026-04-12T15:12:33.934Z</time></trkpt><trkpt lat="45.4155144" lon="8.8065722"><ele>121.00000000000001</ele><time>2026-04-12T15:12:34.935Z</time></trkpt><trkpt lat="45.4155876" lon="8.8065114"><ele>121.0</ele><time>2026-04-12T15:12:35.934Z</time></trkpt><trkpt lat="45.4156599" lon="8.806441"><ele>121.0</ele><time>2026-04-12T15:12:36.934Z</time></trkpt><trkpt lat="45.41573" lon="8.8063658"><ele>121.0</ele><time>2026-04-12T15:12:37.934Z</time></trkpt><trkpt lat="45.4158012" lon="8.8062894"><ele>121.00000000000001</ele><time>2026-04-12T15:12:38.934Z</time></trkpt><trkpt lat="45.4158728" lon="8.8062065"><ele>121.0</ele><time>2026-04-12T15:12:39.934Z</time></trkpt><trkpt lat="45.4159418" lon="8.806119"><ele>121.00000000000001</ele><time>2026-04-12T15:12:40.934Z</time></trkpt><trkpt lat="45.416009" lon="8.8060319"><ele>121.0</ele><time>2026-04-12T15:12:41.934Z</time></trkpt><trkpt lat="45.4160692" lon="8.8059477"><ele>121.0</ele><time>2026-04-12T15:12:42.934Z</time></trkpt><trkpt lat="45.4161248" lon="8.8058718"><ele>121.0</ele><time>2026-04-12T15:12:43.934Z</time></trkpt><trkpt lat="45.4161808" lon="8.8058069"><ele>121.00000000000001</ele><time>2026-04-12T15:12:44.934Z</time></trkpt><trkpt lat="45.4162342" lon="8.8057462"><ele>121.0</ele><time>2026-04-12T15:12:45.934Z</time></trkpt><trkpt lat="45.4163078" lon="8.8056975"><ele>121.00000000000001</ele><time>2026-04-12T15:12:46.934Z</time></trkpt><trkpt lat="45.4163769" lon="8.8056395"><ele>121.0</ele><time>2026-04-12T15:12:47.934Z</time></trkpt><trkpt lat="45.4164321" lon="8.8055949"><ele>121.0</ele><time>2026-04-12T15:12:48.934Z</time></trkpt><trkpt lat="45.416488" lon="8.8054917"><ele>121.0</ele><time>2026-04-12T15:12:50.935Z</time></trkpt><trkpt lat="45.4164592" lon="8.8053738"><ele>121.00000000000001</ele><time>2026-04-12T15:12:52.934Z</time></trkpt><trkpt lat="45.4163889" lon="8.8052659"><ele>121.0</ele><time>2026-04-12T15:12:54.934Z</time></trkpt><trkpt lat="45.4163444" lon="8.8051988"><ele>121.66666666666667</ele><time>2026-04-12T15:12:55.934Z</time></trkpt><trkpt lat="45.4162793" lon="8.8051129"><ele>122.33333333333334</ele><time>2026-04-12T15:12:56.935Z</time></trkpt><trkpt lat="45.4162196" lon="8.8050304"><ele>123.0</ele><time>2026-04-12T15:12:57.934Z</time></trkpt><trkpt lat="45.4161584" lon="8.8049556"><ele>123.66666666666666</ele><time>2026-04-12T15:12:58.934Z</time></trkpt><trkpt lat="45.4160964" lon="8.8048767"><ele>124.33333333333333</ele><time>2026-04-12T15:12:59.935Z</time></trkpt><trkpt lat="45.4160522" lon="8.8047961"><ele>125.0</ele><time>2026-04-12T15:13:00.935Z</time></trkpt><trkpt lat="45.4160224" lon="8.804711"><ele>125.0</ele><time>2026-04-12T15:13:01.935Z</time></trkpt><trkpt lat="45.4159743" lon="8.8045584"><ele>125.0</ele><time>2026-04-12T15:13:03.935Z</time></trkpt><trkpt lat="45.4159423" lon="8.8044747"><ele>125.0</ele><time>2026-04-12T15:13:04.934Z</time></trkpt><trkpt lat="45.4159029" lon="8.8044029"><ele>125.0</ele><time>2026-04-12T15:13:05.934Z</time></trkpt><trkpt lat="45.4158279" lon="8.8042684"><ele>125.0</ele><time>2026-04-12T15:13:07.934Z</time></trkpt><trkpt lat="45.4157772" lon="8.8041477"><ele>125.0</ele><time>2026-04-12T15:13:09.935Z</time></trkpt><trkpt lat="45.4157528" lon="8.804052"><ele>125.0</ele><time>2026-04-12T15:13:11.934Z</time></trkpt><trkpt lat="45.4157279" lon="8.8033192"><ele>124.0</ele><time>2026-04-12T15:14:48.934Z</time></trkpt><trkpt lat="45.416191" lon="8.803358"><ele>124.0</ele><time>2026-04-12T15:14:54.934Z</time></trkpt><trkpt lat="45.4163128" lon="8.8033675"><ele>124.0</ele><time>2026-04-12T15:14:55.935Z</time></trkpt><trkpt lat="45.4164411" lon="8.8033737"><ele>124.0</ele><time>2026-04-12T15:14:56.934Z</time></trkpt><trkpt lat="45.4165708" lon="8.8033819"><ele>124.0</ele><time>2026-04-12T15:14:57.935Z</time></trkpt><trkpt lat="45.4167003" lon="8.8033911"><ele>124.25</ele><time>2026-04-12T15:14:58.934Z</time></trkpt><trkpt lat="45.4168255" lon="8.8033914"><ele>124.5</ele><time>2026-04-12T15:14:59.935Z</time></trkpt><trkpt lat="45.4169381" lon="8.8033924"><ele>124.75</ele><time>2026-04-12T15:15:00.934Z</time></trkpt><trkpt lat="45.4170468" lon="8.8034008"><ele>125.0</ele><time>2026-04-12T15:15:01.934Z</time></trkpt><trkpt lat="45.4171633" lon="8.8034079"><ele>125.0</ele><time>2026-04-12T15:15:02.934Z</time></trkpt><trkpt lat="45.4172808" lon="8.8034113"><ele>125.0</ele><time>2026-04-12T15:15:03.934Z</time></trkpt><trkpt lat="45.4174058" lon="8.8034284"><ele>125.0</ele><time>2026-04-12T15:15:04.934Z</time></trkpt><trkpt lat="45.4175392" lon="8.8034568"><ele>125.0</ele><time>2026-04-12T15:15:05.934Z</time></trkpt><trkpt lat="45.4176669" lon="8.8034952"><ele>125.25</ele><time>2026-04-12T15:15:06.934Z</time></trkpt><trkpt lat="45.4177917" lon="8.8035304"><ele>125.5</ele><time>2026-04-12T15:15:07.935Z</time></trkpt><trkpt lat="45.4179249" lon="8.8035532"><ele>125.75</ele><time>2026-04-12T15:15:08.934Z</time></trkpt><trkpt lat="45.4180611" lon="8.8035677"><ele>126.0</ele><time>2026-04-12T15:15:09.934Z</time></trkpt><trkpt lat="45.4182004" lon="8.8035731"><ele>126.0</ele><time>2026-04-12T15:15:10.934Z</time></trkpt><trkpt lat="45.4183432" lon="8.8035851"><ele>126.0</ele><time>2026-04-12T15:15:11.934Z</time></trkpt><trkpt lat="45.4184908" lon="8.8036117"><ele>126.0</ele><time>2026-04-12T15:15:12.934Z</time></trkpt><trkpt lat="45.4186489" lon="8.8036333"><ele>126.0</ele><time>2026-04-12T15:15:13.936Z</time></trkpt><trkpt lat="45.4188144" lon="8.80365"><ele>126.0</ele><time>2026-04-12T15:15:14.934Z</time></trkpt><trkpt lat="45.4189873" lon="8.803651"><ele>126.0</ele><time>2026-04-12T15:15:15.934Z</time></trkpt><trkpt lat="45.4191641" lon="8.8036347"><ele>124.33333333333334</ele><time>2026-04-12T15:15:16.934Z</time></trkpt><trkpt lat="45.4193454" lon="8.8036055"><ele>122.66666666666667</ele><time>2026-04-12T15:15:17.934Z</time></trkpt><trkpt lat="45.4195289" lon="8.8035675"><ele>121.0</ele><time>2026-04-12T15:15:18.934Z</time></trkpt><trkpt lat="45.4197118" lon="8.8035142"><ele>121.0</ele><time>2026-04-12T15:15:19.936Z</time></trkpt><trkpt lat="45.4198842" lon="8.8034565"><ele>121.0</ele><time>2026-04-12T15:15:20.934Z</time></trkpt><trkpt lat="45.4200383" lon="8.803396"><ele>121.0</ele><time>2026-04-12T15:15:21.935Z</time></trkpt><trkpt lat="45.4201702" lon="8.8033448"><ele>121.0</ele><time>2026-04-12T15:15:22.935Z</time></trkpt><trkpt lat="45.4202921" lon="8.8032984"><ele>121.0</ele><time>2026-04-12T15:15:23.934Z</time></trkpt><trkpt lat="45.4204066" lon="8.803255"><ele>121.0</ele><time>2026-04-12T15:15:24.934Z</time></trkpt><trkpt lat="45.4205078" lon="8.8032202"><ele>121.0</ele><time>2026-04-12T15:15:25.935Z</time></trkpt><trkpt lat="45.4205972" lon="8.8031853"><ele>121.0</ele><time>2026-04-12T15:15:26.935Z</time></trkpt><trkpt lat="45.4206759" lon="8.8031517"><ele>120.8</ele><time>2026-04-12T15:15:27.934Z</time></trkpt><trkpt lat="45.4207466" lon="8.8031306"><ele>120.6</ele><time>2026-04-12T15:15:28.934Z</time></trkpt><trkpt lat="45.4208434" lon="8.8031213"><ele>120.4</ele><time>2026-04-12T15:15:30.934Z</time></trkpt><trkpt lat="45.4209137" lon="8.8032325"><ele>120.2</ele><time>2026-04-12T15:15:33.935Z</time></trkpt><trkpt lat="45.42093" lon="8.8033751"><ele>120.0</ele><time>2026-04-12T15:15:35.934Z</time></trkpt><trkpt lat="45.4209568" lon="8.8034739"><ele>120.0</ele><time>2026-04-12T15:15:37.934Z</time></trkpt><trkpt lat="45.4210237" lon="8.8034979"><ele>120.0</ele><time>2026-04-12T15:15:39.934Z</time></trkpt><trkpt lat="45.4210872" lon="8.8035007"><ele>120.0</ele><time>2026-04-12T15:15:40.934Z</time></trkpt><trkpt lat="45.4211647" lon="8.8034966"><ele>120.0</ele><time>2026-04-12T15:15:41.934Z</time></trkpt><trkpt lat="45.4212674" lon="8.8035054"><ele>120.0</ele><time>2026-04-12T15:15:42.934Z</time></trkpt><trkpt lat="45.4213586" lon="8.8035198"><ele>120.0</ele><time>2026-04-12T15:15:43.934Z</time></trkpt><trkpt lat="45.4214491" lon="8.8035391"><ele>118.2</ele><time>2026-04-12T15:15:44.934Z</time></trkpt><trkpt lat="45.4215441" lon="8.8035636"><ele>116.4</ele><time>2026-04-12T15:15:45.936Z</time></trkpt><trkpt lat="45.4216355" lon="8.8035886"><ele>114.6</ele><time>2026-04-12T15:15:46.934Z</time></trkpt><trkpt lat="45.4217312" lon="8.8036193"><ele>112.8</ele><time>2026-04-12T15:15:47.934Z</time></trkpt><trkpt lat="45.4218274" lon="8.8036486"><ele>111.0</ele><time>2026-04-12T15:15:48.934Z</time></trkpt><trkpt lat="45.4219264" lon="8.8036894"><ele>111.0</ele><time>2026-04-12T15:15:49.935Z</time></trkpt><trkpt lat="45.4220265" lon="8.803738"><ele>111.0</ele><time>2026-04-12T15:15:50.934Z</time></trkpt><trkpt lat="45.4221201" lon="8.8038015"><ele>111.0</ele><time>2026-04-12T15:15:51.934Z</time></trkpt><trkpt lat="45.4222178" lon="8.8038698"><ele>111.0</ele><time>2026-04-12T15:15:52.934Z</time></trkpt><trkpt lat="45.4223216" lon="8.8039403"><ele>111.0</ele><time>2026-04-12T15:15:53.934Z</time></trkpt><trkpt lat="45.4224306" lon="8.8040106"><ele>112.0</ele><time>2026-04-12T15:15:54.934Z</time></trkpt><trkpt lat="45.4225416" lon="8.8040667"><ele>113.0</ele><time>2026-04-12T15:15:55.934Z</time></trkpt><trkpt lat="45.4226603" lon="8.8041258"><ele>114.0</ele><time>2026-04-12T15:15:56.934Z</time></trkpt><trkpt lat="45.4227836" lon="8.8041875"><ele>115.0</ele><time>2026-04-12T15:15:57.935Z</time></trkpt><trkpt lat="45.4229075" lon="8.80425"><ele>116.0</ele><time>2026-04-12T15:15:58.934Z</time></trkpt><trkpt lat="45.4230282" lon="8.8043103"><ele>117.0</ele><time>2026-04-12T15:15:59.934Z</time></trkpt><trkpt lat="45.4231442" lon="8.8043685"><ele>118.0</ele><time>2026-04-12T15:16:00.934Z</time></trkpt><trkpt lat="45.4232502" lon="8.8044212"><ele>119.0</ele><time>2026-04-12T15:16:01.934Z</time></trkpt><trkpt lat="45.4233419" lon="8.8044731"><ele>117.66666666666666</ele><time>2026-04-12T15:16:02.934Z</time></trkpt><trkpt lat="45.4234299" lon="8.8045163"><ele>116.33333333333333</ele><time>2026-04-12T15:16:03.934Z</time></trkpt><trkpt lat="45.4235029" lon="8.8045569"><ele>115.0</ele><time>2026-04-12T15:16:04.934Z</time></trkpt><trkpt lat="45.4235642" lon="8.8046029"><ele>113.66666666666666</ele><time>2026-04-12T15:16:05.934Z</time></trkpt><trkpt lat="45.4236327" lon="8.8047542"><ele>112.33333333333333</ele><time>2026-04-12T15:16:07.934Z</time></trkpt><trkpt lat="45.4236484" lon="8.8048499"><ele>111.0</ele><time>2026-04-12T15:16:08.934Z</time></trkpt><trkpt lat="45.4236577" lon="8.8049392"><ele>111.0</ele><time>2026-04-12T15:16:09.934Z</time></trkpt><trkpt lat="45.4236646" lon="8.8050419"><ele>111.0</ele><time>2026-04-12T15:16:11.934Z</time></trkpt><trkpt lat="45.4238961" lon="8.8052392"><ele>111.0</ele><time>2026-04-12T15:17:59.934Z</time></trkpt><trkpt lat="45.4239614" lon="8.8052687"><ele>111.0</ele><time>2026-04-12T15:18:00.934Z</time></trkpt><trkpt lat="45.4240402" lon="8.8053173"><ele>110.6</ele><time>2026-04-12T15:18:01.934Z</time></trkpt><trkpt lat="45.4241234" lon="8.8053649"><ele>110.19999999999999</ele><time>2026-04-12T15:18:02.934Z</time></trkpt><trkpt lat="45.4242081" lon="8.8054152"><ele>109.80000000000001</ele><time>2026-04-12T15:18:03.934Z</time></trkpt><trkpt lat="45.4242963" lon="8.8054715"><ele>109.4</ele><time>2026-04-12T15:18:04.934Z</time></trkpt><trkpt lat="45.4243902" lon="8.8055332"><ele>109.0</ele><time>2026-04-12T15:18:05.934Z</time></trkpt><trkpt lat="45.4244877" lon="8.805593"><ele>109.0</ele><time>2026-04-12T15:18:06.934Z</time></trkpt><trkpt lat="45.424583" lon="8.8056498"><ele>109.0</ele><time>2026-04-12T15:18:07.934Z</time></trkpt><trkpt lat="45.4246768" lon="8.8057003"><ele>109.0</ele><time>2026-04-12T15:18:08.934Z</time></trkpt><trkpt lat="45.4247773" lon="8.8057515"><ele>109.0</ele><time>2026-04-12T15:18:09.934Z</time></trkpt><trkpt lat="45.4248812" lon="8.8057951"><ele>109.0</ele><time>2026-04-12T15:18:10.934Z</time></trkpt><trkpt lat="45.4249884" lon="8.8058336"><ele>109.5</ele><time>2026-04-12T15:18:11.934Z</time></trkpt><trkpt lat="45.425099" lon="8.8058672"><ele>110.0</ele><time>2026-04-12T15:18:12.934Z</time></trkpt><trkpt lat="45.4252134" lon="8.805895"><ele>110.5</ele><time>2026-04-12T15:18:13.934Z</time></trkpt><trkpt lat="45.4253307" lon="8.8059224"><ele>111.0</ele><time>2026-04-12T15:18:14.934Z</time></trkpt><trkpt lat="45.4254454" lon="8.8059489"><ele>111.0</ele><time>2026-04-12T15:18:15.934Z</time></trkpt><trkpt lat="45.4255552" lon="8.8059683"><ele>111.0</ele><time>2026-04-12T15:18:16.934Z</time></trkpt><trkpt lat="45.4256625" lon="8.8059861"><ele>111.0</ele><time>2026-04-12T15:18:17.934Z</time></trkpt><trkpt lat="45.4257614" lon="8.8060029"><ele>111.0</ele><time>2026-04-12T15:18:18.934Z</time></trkpt><trkpt lat="45.4258553" lon="8.8060136"><ele>111.0</ele><time>2026-04-12T15:18:19.933Z</time></trkpt><trkpt lat="45.4259484" lon="8.806019"><ele>111.0</ele><time>2026-04-12T15:18:20.934Z</time></trkpt><trkpt lat="45.4260298" lon="8.8060023"><ele>111.0</ele><time>2026-04-12T15:18:21.934Z</time></trkpt><trkpt lat="45.4261116" lon="8.8059649"><ele>111.0</ele><time>2026-04-12T15:18:22.934Z</time></trkpt><trkpt lat="45.4261933" lon="8.8058999"><ele>111.0</ele><time>2026-04-12T15:18:23.934Z</time></trkpt><trkpt lat="45.4262754" lon="8.8058167"><ele>111.0</ele><time>2026-04-12T15:18:24.934Z</time></trkpt><trkpt lat="45.4263602" lon="8.8057191"><ele>110.6</ele><time>2026-04-12T15:18:25.934Z</time></trkpt><trkpt lat="45.4264447" lon="8.8056099"><ele>110.19999999999999</ele><time>2026-04-12T15:18:26.934Z</time></trkpt><trkpt lat="45.4265269" lon="8.8055013"><ele>109.80000000000001</ele><time>2026-04-12T15:18:27.934Z</time></trkpt><trkpt lat="45.4266067" lon="8.8054088"><ele>109.4</ele><time>2026-04-12T15:18:28.934Z</time></trkpt><trkpt lat="45.4266814" lon="8.8053434"><ele>109.0</ele><time>2026-04-12T15:18:29.935Z</time></trkpt><trkpt lat="45.4267458" lon="8.8053106"><ele>109.0</ele><time>2026-04-12T15:18:30.934Z</time></trkpt><trkpt lat="45.4268532" lon="8.805319"><ele>109.0</ele><time>2026-04-12T15:18:32.934Z</time></trkpt><trkpt lat="45.4269322" lon="8.8053149"><ele>109.0</ele><time>2026-04-12T15:18:34.934Z</time></trkpt><trkpt lat="45.4270039" lon="8.8052369"><ele>109.0</ele><time>2026-04-12T15:18:36.934Z</time></trkpt><trkpt lat="45.4271049" lon="8.8051274"><ele>109.0</ele><time>2026-04-12T15:18:38.934Z</time></trkpt><trkpt lat="45.4271605" lon="8.8050644"><ele>109.00000000000001</ele><time>2026-04-12T15:18:39.934Z</time></trkpt><trkpt lat="45.4272205" lon="8.8049935"><ele>109.0</ele><time>2026-04-12T15:18:40.934Z</time></trkpt><trkpt lat="45.4272876" lon="8.8049198"><ele>109.0</ele><time>2026-04-12T15:18:41.934Z</time></trkpt><trkpt lat="45.4273481" lon="8.8048565"><ele>109.0</ele><time>2026-04-12T15:18:42.933Z</time></trkpt><trkpt lat="45.4274234" lon="8.8047882"><ele>109.00000000000001</ele><time>2026-04-12T15:18:43.934Z</time></trkpt><trkpt lat="45.4274974" lon="8.8047307"><ele>109.0</ele><time>2026-04-12T15:18:44.933Z</time></trkpt><trkpt lat="45.4275745" lon="8.8046746"><ele>109.0</ele><time>2026-04-12T15:18:45.933Z</time></trkpt><trkpt lat="45.4276455" lon="8.8046035"><ele>109.0</ele><time>2026-04-12T15:18:46.933Z</time></trkpt><trkpt lat="45.4277139" lon="8.8045483"><ele>109.0</ele><time>2026-04-12T15:18:47.934Z</time></trkpt><trkpt lat="45.4277934" lon="8.8044786"><ele>109.0</ele><time>2026-04-12T15:18:48.934Z</time></trkpt><trkpt lat="45.4278897" lon="8.8044194"><ele>109.0</ele><time>2026-04-12T15:18:49.934Z</time></trkpt><trkpt lat="45.4279819" lon="8.8043442"><ele>109.66666666666667</ele><time>2026-04-12T15:18:50.934Z</time></trkpt><trkpt lat="45.4280735" lon="8.804278"><ele>110.33333333333334</ele><time>2026-04-12T15:18:51.935Z</time></trkpt><trkpt lat="45.428154" lon="8.8042198"><ele>111.0</ele><time>2026-04-12T15:18:52.934Z</time></trkpt><trkpt lat="45.4282303" lon="8.8041591"><ele>111.66666666666666</ele><time>2026-04-12T15:18:53.934Z</time></trkpt><trkpt lat="45.4282914" lon="8.8041124"><ele>112.33333333333333</ele><time>2026-04-12T15:18:54.934Z</time></trkpt><trkpt lat="45.4283545" lon="8.8040694"><ele>113.0</ele><time>2026-04-12T15:18:55.935Z</time></trkpt><trkpt lat="45.4284513" lon="8.8039879"><ele>112.99999999999999</ele><time>2026-04-12T15:18:57.934Z</time></trkpt><trkpt lat="45.4285046" lon="8.803939"><ele>113.0</ele><time>2026-04-12T15:18:58.935Z</time></trkpt><trkpt lat="45.4285737" lon="8.803884"><ele>113.0</ele><time>2026-04-12T15:18:59.934Z</time></trkpt><trkpt lat="45.4286577" lon="8.8038311"><ele>113.0</ele><time>2026-04-12T15:19:00.935Z</time></trkpt><trkpt lat="45.4287418" lon="8.8037824"><ele>112.99999999999999</ele><time>2026-04-12T15:19:01.934Z</time></trkpt><trkpt lat="45.4288265" lon="8.8037147"><ele>113.0</ele><time>2026-04-12T15:19:02.934Z</time></trkpt><trkpt lat="45.4289169" lon="8.8036492"><ele>113.2</ele><time>2026-04-12T15:19:03.934Z</time></trkpt><trkpt lat="45.4290105" lon="8.8035875"><ele>113.4</ele><time>2026-04-12T15:19:04.935Z</time></trkpt><trkpt lat="45.429113" lon="8.8035252"><ele>113.60000000000001</ele><time>2026-04-12T15:19:05.933Z</time></trkpt><trkpt lat="45.4292138" lon="8.8034613"><ele>113.80000000000001</ele><time>2026-04-12T15:19:06.934Z</time></trkpt><trkpt lat="45.4293164" lon="8.8033967"><ele>114.0</ele><time>2026-04-12T15:19:07.934Z</time></trkpt><trkpt lat="45.4294186" lon="8.803325"><ele>114.0</ele><time>2026-04-12T15:19:08.934Z</time></trkpt><trkpt lat="45.4295206" lon="8.8032504"><ele>114.0</ele><time>2026-04-12T15:19:09.934Z</time></trkpt><trkpt lat="45.4296197" lon="8.8031768"><ele>114.0</ele><time>2026-04-12T15:19:10.934Z</time></trkpt><trkpt lat="45.4297204" lon="8.8031093"><ele>114.0</ele><time>2026-04-12T15:19:11.934Z</time></trkpt><trkpt lat="45.4298148" lon="8.8030461"><ele>114.0</ele><time>2026-04-12T15:19:12.933Z</time></trkpt><trkpt lat="45.4299001" lon="8.8029794"><ele>113.33333333333333</ele><time>2026-04-12T15:19:13.934Z</time></trkpt><trkpt lat="45.4299693" lon="8.8029302"><ele>112.66666666666666</ele><time>2026-04-12T15:19:14.934Z</time></trkpt><trkpt lat="45.430047" lon="8.8028829"><ele>112.0</ele><time>2026-04-12T15:19:15.934Z</time></trkpt><trkpt lat="45.4301231" lon="8.8028402"><ele>111.33333333333333</ele><time>2026-04-12T15:19:16.934Z</time></trkpt><trkpt lat="45.4302065" lon="8.8028005"><ele>110.66666666666666</ele><time>2026-04-12T15:19:17.934Z</time></trkpt><trkpt lat="45.4302894" lon="8.8027567"><ele>110.0</ele><time>2026-04-12T15:19:18.934Z</time></trkpt><trkpt lat="45.4303716" lon="8.8027146"><ele>110.2</ele><time>2026-04-12T15:19:19.934Z</time></trkpt><trkpt lat="45.4304527" lon="8.8026601"><ele>110.4</ele><time>2026-04-12T15:19:20.934Z</time></trkpt><trkpt lat="45.4305451" lon="8.802618"><ele>110.6</ele><time>2026-04-12T15:19:21.933Z</time></trkpt><trkpt lat="45.4306331" lon="8.8025725"><ele>110.8</ele><time>2026-04-12T15:19:22.933Z</time></trkpt><trkpt lat="45.4307218" lon="8.80253"><ele>111.0</ele><time>2026-04-12T15:19:23.934Z</time></trkpt><trkpt lat="45.430807" lon="8.8024874"><ele>111.0</ele><time>2026-04-12T15:19:24.934Z</time></trkpt><trkpt lat="45.4308917" lon="8.8024434"><ele>111.0</ele><time>2026-04-12T15:19:25.934Z</time></trkpt><trkpt lat="45.4309771" lon="8.8024066"><ele>111.0</ele><time>2026-04-12T15:19:26.934Z</time></trkpt><trkpt lat="45.4310602" lon="8.8023646"><ele>111.0</ele><time>2026-04-12T15:19:27.934Z</time></trkpt><trkpt lat="45.4311277" lon="8.8023287"><ele>111.0</ele><time>2026-04-12T15:19:28.934Z</time></trkpt><trkpt lat="45.431193" lon="8.8023002"><ele>111.0</ele><time>2026-04-12T15:19:29.933Z</time></trkpt><trkpt lat="45.4312554" lon="8.8022719"><ele>111.4</ele><time>2026-04-12T15:19:30.933Z</time></trkpt><trkpt lat="45.4313654" lon="8.8022058"><ele>111.8</ele><time>2026-04-12T15:19:32.933Z</time></trkpt><trkpt lat="45.4314756" lon="8.8021594"><ele>112.20000000000002</ele><time>2026-04-12T15:19:34.934Z</time></trkpt><trkpt lat="45.4315692" lon="8.8020851"><ele>112.60000000000001</ele><time>2026-04-12T15:19:36.934Z</time></trkpt><trkpt lat="45.4316489" lon="8.8020191"><ele>113.0</ele><time>2026-04-12T15:19:38.933Z</time></trkpt><trkpt lat="45.4317025" lon="8.8019671"><ele>112.5</ele><time>2026-04-12T15:19:40.934Z</time></trkpt><trkpt lat="45.4320157" lon="8.8016424"><ele>112.0</ele><time>2026-04-12T15:20:55.934Z</time></trkpt><trkpt lat="45.4320674" lon="8.8015879"><ele>112.0</ele><time>2026-04-12T15:20:56.934Z</time></trkpt><trkpt lat="45.4321213" lon="8.8015317"><ele>112.0</ele><time>2026-04-12T15:20:57.934Z</time></trkpt><trkpt lat="45.4321773" lon="8.801471"><ele>112.0</ele><time>2026-04-12T15:20:58.934Z</time></trkpt><trkpt lat="45.4322302" lon="8.8014125"><ele>112.0</ele><time>2026-04-12T15:20:59.913Z</time></trkpt><trkpt lat="45.4322857" lon="8.8013568"><ele>112.0</ele><time>2026-04-12T15:21:00.913Z</time></trkpt><trkpt lat="45.432349" lon="8.8012979"><ele>112.0</ele><time>2026-04-12T15:21:01.912Z</time></trkpt><trkpt lat="45.4324157" lon="8.8012419"><ele>112.0</ele><time>2026-04-12T15:21:02.913Z</time></trkpt><trkpt lat="45.4324829" lon="8.8011813"><ele>112.16666666666667</ele><time>2026-04-12T15:21:03.913Z</time></trkpt><trkpt lat="45.4325519" lon="8.8011166"><ele>112.33333333333334</ele><time>2026-04-12T15:21:04.915Z</time></trkpt><trkpt lat="45.4326218" lon="8.8010492"><ele>112.5</ele><time>2026-04-12T15:21:05.915Z</time></trkpt><trkpt lat="45.4326867" lon="8.8009811"><ele>112.66666666666666</ele><time>2026-04-12T15:21:06.916Z</time></trkpt><trkpt lat="45.4327543" lon="8.8009148"><ele>112.83333333333333</ele><time>2026-04-12T15:21:07.915Z</time></trkpt><trkpt lat="45.4328231" lon="8.8008506"><ele>113.0</ele><time>2026-04-12T15:21:08.915Z</time></trkpt><trkpt lat="45.4328909" lon="8.800787"><ele>113.0</ele><time>2026-04-12T15:21:09.916Z</time></trkpt><trkpt lat="45.4329544" lon="8.8007267"><ele>113.0</ele><time>2026-04-12T15:21:10.915Z</time></trkpt><trkpt lat="45.4330193" lon="8.8006666"><ele>113.0</ele><time>2026-04-12T15:21:11.915Z</time></trkpt><trkpt lat="45.4330852" lon="8.800614"><ele>113.0</ele><time>2026-04-12T15:21:12.915Z</time></trkpt><trkpt lat="45.4331506" lon="8.8005688"><ele>113.0</ele><time>2026-04-12T15:21:13.915Z</time></trkpt><trkpt lat="45.4332127" lon="8.8005327"><ele>113.0</ele><time>2026-04-12T15:21:14.915Z</time></trkpt><trkpt lat="45.4332791" lon="8.8004966"><ele>113.0</ele><time>2026-04-12T15:21:15.915Z</time></trkpt><trkpt lat="45.4333498" lon="8.8004649"><ele>113.16666666666666</ele><time>2026-04-12T15:21:16.915Z</time></trkpt><trkpt lat="45.4334216" lon="8.8004321"><ele>113.33333333333333</ele><time>2026-04-12T15:21:17.915Z</time></trkpt><trkpt lat="45.4334948" lon="8.8004002"><ele>113.5</ele><time>2026-04-12T15:21:18.915Z</time></trkpt><trkpt lat="45.4335664" lon="8.8003676"><ele>113.66666666666666</ele><time>2026-04-12T15:21:19.915Z</time></trkpt><trkpt lat="45.4336346" lon="8.8003408"><ele>113.83333333333333</ele><time>2026-04-12T15:21:20.915Z</time></trkpt><trkpt lat="45.4337452" lon="8.8003181"><ele>114.0</ele><time>2026-04-12T15:21:22.916Z</time></trkpt><trkpt lat="45.4338201" lon="8.8003443"><ele>114.75</ele><time>2026-04-12T15:21:24.915Z</time></trkpt><trkpt lat="45.4338583" lon="8.8004307"><ele>115.5</ele><time>2026-04-12T15:21:26.915Z</time></trkpt><trkpt lat="45.4338475" lon="8.8005501"><ele>116.25</ele><time>2026-04-12T15:21:28.915Z</time></trkpt><trkpt lat="45.4338393" lon="8.8006497"><ele>117.0</ele><time>2026-04-12T15:21:31.915Z</time></trkpt><trkpt lat="45.4338363" lon="8.8009817"><ele>118.0</ele><time>2026-04-12T15:26:36.915Z</time></trkpt><trkpt lat="45.4340322" lon="8.8012376"><ele>119.0</ele><time>2026-04-12T15:26:45.915Z</time></trkpt><trkpt lat="45.4340821" lon="8.8013667"><ele>120.0</ele><time>2026-04-12T15:26:47.915Z</time></trkpt><trkpt lat="45.4341196" lon="8.8014974"><ele>120.0</ele><time>2026-04-12T15:26:49.915Z</time></trkpt><trkpt lat="45.434168" lon="8.8016228"><ele>120.0</ele><time>2026-04-12T15:26:51.916Z</time></trkpt><trkpt lat="45.4342307" lon="8.8017625"><ele>120.0</ele><time>2026-04-12T15:26:53.915Z</time></trkpt><trkpt lat="45.4342833" lon="8.8019083"><ele>120.0</ele><time>2026-04-12T15:26:55.915Z</time></trkpt><trkpt lat="45.4343351" lon="8.8020596"><ele>119.66666666666667</ele><time>2026-04-12T15:26:57.915Z</time></trkpt><trkpt lat="45.4343629" lon="8.8021422"><ele>119.33333333333334</ele><time>2026-04-12T15:26:58.915Z</time></trkpt><trkpt lat="45.4344149" lon="8.8023026"><ele>119.0</ele><time>2026-04-12T15:27:00.915Z</time></trkpt><trkpt lat="45.434443" lon="8.8023845"><ele>118.66666666666667</ele><time>2026-04-12T15:27:01.915Z</time></trkpt><trkpt lat="45.4344687" lon="8.8024694"><ele>118.33333333333334</ele><time>2026-04-12T15:27:02.915Z</time></trkpt><trkpt lat="45.4345188" lon="8.8026222"><ele>118.0</ele><time>2026-04-12T15:27:04.915Z</time></trkpt><trkpt lat="45.4345824" lon="8.8027476"><ele>117.66666666666667</ele><time>2026-04-12T15:27:06.915Z</time></trkpt><trkpt lat="45.43467" lon="8.8028443"><ele>117.33333333333334</ele><time>2026-04-12T15:27:08.915Z</time></trkpt><trkpt lat="45.434776" lon="8.8029271"><ele>117.0</ele><time>2026-04-12T15:27:10.915Z</time></trkpt><trkpt lat="45.4348373" lon="8.8029858"><ele>116.66666666666666</ele><time>2026-04-12T15:27:11.915Z</time></trkpt><trkpt lat="45.4348998" lon="8.8030343"><ele>116.33333333333333</ele><time>2026-04-12T15:27:12.915Z</time></trkpt><trkpt lat="45.4349598" lon="8.8030802"><ele>116.0</ele><time>2026-04-12T15:27:13.915Z</time></trkpt><trkpt lat="45.4350651" lon="8.8031453"><ele>116.0</ele><time>2026-04-12T15:27:15.915Z</time></trkpt><trkpt lat="45.4351796" lon="8.8031764"><ele>116.0</ele><time>2026-04-12T15:27:17.915Z</time></trkpt><trkpt lat="45.4353052" lon="8.8032047"><ele>116.0</ele><time>2026-04-12T15:27:19.915Z</time></trkpt><trkpt lat="45.4353734" lon="8.8032063"><ele>116.0</ele><time>2026-04-12T15:27:20.915Z</time></trkpt><trkpt lat="45.4354496" lon="8.8031962"><ele>116.0</ele><time>2026-04-12T15:27:21.915Z</time></trkpt><trkpt lat="45.4355294" lon="8.8031769"><ele>116.33333333333333</ele><time>2026-04-12T15:27:22.915Z</time></trkpt><trkpt lat="45.4356096" lon="8.8031573"><ele>116.66666666666666</ele><time>2026-04-12T15:27:23.915Z</time></trkpt><trkpt lat="45.4356932" lon="8.8031262"><ele>117.0</ele><time>2026-04-12T15:27:24.915Z</time></trkpt><trkpt lat="45.4357794" lon="8.8031153"><ele>117.33333333333334</ele><time>2026-04-12T15:27:25.915Z</time></trkpt><trkpt lat="45.4358731" lon="8.8031071"><ele>117.66666666666667</ele><time>2026-04-12T15:27:26.915Z</time></trkpt><trkpt lat="45.4359561" lon="8.8031088"><ele>118.0</ele><time>2026-04-12T15:27:27.915Z</time></trkpt><trkpt lat="45.4360356" lon="8.8031017"><ele>118.00000000000001</ele><time>2026-04-12T15:27:28.915Z</time></trkpt><trkpt lat="45.4361084" lon="8.8030742"><ele>118.0</ele><time>2026-04-12T15:27:29.915Z</time></trkpt><trkpt lat="45.4361965" lon="8.8030473"><ele>118.0</ele><time>2026-04-12T15:27:30.915Z</time></trkpt><trkpt lat="45.4362782" lon="8.8030196"><ele>118.0</ele><time>2026-04-12T15:27:31.915Z</time></trkpt><trkpt lat="45.4363511" lon="8.8030139"><ele>118.00000000000001</ele><time>2026-04-12T15:27:32.915Z</time></trkpt><trkpt lat="45.4364285" lon="8.8030028"><ele>118.0</ele><time>2026-04-12T15:27:33.915Z</time></trkpt><trkpt lat="45.4364989" lon="8.8029932"><ele>117.66666666666667</ele><time>2026-04-12T15:27:34.915Z</time></trkpt><trkpt lat="45.4365686" lon="8.8029827"><ele>117.33333333333334</ele><time>2026-04-12T15:27:35.915Z</time></trkpt><trkpt lat="45.4366335" lon="8.8029733"><ele>117.0</ele><time>2026-04-12T15:27:36.915Z</time></trkpt><trkpt lat="45.4367377" lon="8.8029319"><ele>116.66666666666666</ele><time>2026-04-12T15:27:38.915Z</time></trkpt><trkpt lat="45.436837" lon="8.8028299"><ele>116.33333333333333</ele><time>2026-04-12T15:27:40.915Z</time></trkpt><trkpt lat="45.4368916" lon="8.8027652"><ele>116.0</ele><time>2026-04-12T15:27:41.915Z</time></trkpt><trkpt lat="45.4369439" lon="8.8027139"><ele>115.99999999999999</ele><time>2026-04-12T15:27:42.915Z</time></trkpt><trkpt lat="45.4370657" lon="8.8026679"><ele>116.0</ele><time>2026-04-12T15:27:44.915Z</time></trkpt><trkpt lat="45.4371392" lon="8.8026481"><ele>116.0</ele><time>2026-04-12T15:27:45.915Z</time></trkpt><trkpt lat="45.4372177" lon="8.8026396"><ele>116.0</ele><time>2026-04-12T15:27:46.915Z</time></trkpt><trkpt lat="45.4372949" lon="8.8026277"><ele>115.99999999999999</ele><time>2026-04-12T15:27:47.915Z</time></trkpt><trkpt lat="45.4373759" lon="8.8026096"><ele>116.0</ele><time>2026-04-12T15:27:48.915Z</time></trkpt><trkpt lat="45.4374594" lon="8.8025834"><ele>116.33333333333333</ele><time>2026-04-12T15:27:49.915Z</time></trkpt><trkpt lat="45.4375437" lon="8.802551"><ele>116.66666666666666</ele><time>2026-04-12T15:27:50.915Z</time></trkpt><trkpt lat="45.4376227" lon="8.8025178"><ele>117.0</ele><time>2026-04-12T15:27:51.915Z</time></trkpt><trkpt lat="45.4376923" lon="8.8024885"><ele>117.33333333333334</ele><time>2026-04-12T15:27:52.915Z</time></trkpt><trkpt lat="45.4377598" lon="8.8024547"><ele>117.66666666666667</ele><time>2026-04-12T15:27:53.915Z</time></trkpt><trkpt lat="45.4378241" lon="8.8024134"><ele>118.0</ele><time>2026-04-12T15:27:54.915Z</time></trkpt><trkpt lat="45.437914" lon="8.8023067"><ele>118.0</ele><time>2026-04-12T15:27:56.915Z</time></trkpt><trkpt lat="45.4379524" lon="8.8021905"><ele>118.00000000000001</ele><time>2026-04-12T15:27:58.915Z</time></trkpt><trkpt lat="45.4380024" lon="8.8020436"><ele>118.00000000000001</ele><time>2026-04-12T15:28:00.916Z</time></trkpt><trkpt lat="45.438045" lon="8.8019775"><ele>118.0</ele><time>2026-04-12T15:28:01.915Z</time></trkpt><trkpt lat="45.4381424" lon="8.801875"><ele>118.0</ele><time>2026-04-12T15:28:03.915Z</time></trkpt><trkpt lat="45.4382689" lon="8.8018234"><ele>117.60000000000001</ele><time>2026-04-12T15:28:05.915Z</time></trkpt><trkpt lat="45.4383549" lon="8.8018052"><ele>117.20000000000002</ele><time>2026-04-12T15:28:06.915Z</time></trkpt><trkpt lat="45.4384424" lon="8.8017758"><ele>116.8</ele><time>2026-04-12T15:28:07.915Z</time></trkpt><trkpt lat="45.4385352" lon="8.8017412"><ele>116.4</ele><time>2026-04-12T15:28:08.915Z</time></trkpt><trkpt lat="45.4386303" lon="8.8017111"><ele>116.0</ele><time>2026-04-12T15:28:09.915Z</time></trkpt><trkpt lat="45.4387237" lon="8.8016871"><ele>116.4</ele><time>2026-04-12T15:28:10.915Z</time></trkpt><trkpt lat="45.4388118" lon="8.8016667"><ele>116.8</ele><time>2026-04-12T15:28:11.915Z</time></trkpt><trkpt lat="45.4388911" lon="8.8016498"><ele>117.20000000000002</ele><time>2026-04-12T15:28:12.915Z</time></trkpt><trkpt lat="45.4389633" lon="8.8016309"><ele>117.60000000000001</ele><time>2026-04-12T15:28:13.915Z</time></trkpt><trkpt lat="45.439077" lon="8.8015826"><ele>118.0</ele><time>2026-04-12T15:28:15.915Z</time></trkpt><trkpt lat="45.4391537" lon="8.8015154"><ele>118.00000000000001</ele><time>2026-04-12T15:28:17.915Z</time></trkpt><trkpt lat="45.4392073" lon="8.8014169"><ele>118.0</ele><time>2026-04-12T15:28:19.915Z</time></trkpt><trkpt lat="45.4392265" lon="8.8013021"><ele>118.0</ele><time>2026-04-12T15:28:21.915Z</time></trkpt><trkpt lat="45.439229" lon="8.801164"><ele>118.0</ele><time>2026-04-12T15:28:23.915Z</time></trkpt><trkpt lat="45.4392737" lon="8.8010633"><ele>118.00000000000001</ele><time>2026-04-12T15:28:25.915Z</time></trkpt><trkpt lat="45.4393515" lon="8.8010277"><ele>118.0</ele><time>2026-04-12T15:28:27.915Z</time></trkpt><trkpt lat="45.4394645" lon="8.8010219"><ele>118.00000000000001</ele><time>2026-04-12T15:28:29.915Z</time></trkpt><trkpt lat="45.4395312" lon="8.8010149"><ele>118.0</ele><time>2026-04-12T15:28:30.915Z</time></trkpt><trkpt lat="45.4396015" lon="8.801004"><ele>118.0</ele><time>2026-04-12T15:28:31.915Z</time></trkpt><trkpt lat="45.4396703" lon="8.8009854"><ele>118.0</ele><time>2026-04-12T15:28:32.915Z</time></trkpt><trkpt lat="45.4397889" lon="8.8009481"><ele>118.00000000000001</ele><time>2026-04-12T15:28:34.915Z</time></trkpt><trkpt lat="45.4398849" lon="8.8008721"><ele>118.0</ele><time>2026-04-12T15:28:36.915Z</time></trkpt><trkpt lat="45.4399596" lon="8.8007794"><ele>120.0</ele><time>2026-04-12T15:28:38.915Z</time></trkpt><trkpt lat="45.4400153" lon="8.8006956"><ele>120.0</ele><time>2026-04-12T15:28:40.915Z</time></trkpt><trkpt lat="45.4400634" lon="8.8006023"><ele>120.0</ele><time>2026-04-12T15:28:42.915Z</time></trkpt><trkpt lat="45.4401045" lon="8.8005254"><ele>120.0</ele><time>2026-04-12T15:28:44.915Z</time></trkpt><trkpt lat="45.4401527" lon="8.8004639"><ele>120.0</ele><time>2026-04-12T15:28:47.915Z</time></trkpt></trkseg><trkseg><trkpt lat="45.440229" lon="8.8004618"><ele>120.0</ele><time>2026-04-12T15:42:22.915Z</time></trkpt><trkpt lat="45.440295" lon="8.8004284"><ele>120.0</ele><time>2026-04-12T15:42:26.915Z</time></trkpt><trkpt lat="45.4403062" lon="8.8003192"><ele>120.0</ele><time>2026-04-12T15:42:29.915Z</time></trkpt><trkpt lat="45.4406015" lon="8.8003371"><ele>120.0</ele><time>2026-04-12T15:43:48.931Z</time></trkpt><trkpt lat="45.4407261" lon="8.8003582"><ele>119.66666666666667</ele><time>2026-04-12T15:43:50.931Z</time></trkpt><trkpt lat="45.4407897" lon="8.8003635"><ele>119.33333333333334</ele><time>2026-04-12T15:43:51.932Z</time></trkpt><trkpt lat="45.4408695" lon="8.800358"><ele>119.0</ele><time>2026-04-12T15:43:52.931Z</time></trkpt><trkpt lat="45.4409457" lon="8.8003447"><ele>118.66666666666667</ele><time>2026-04-12T15:43:53.931Z</time></trkpt><trkpt lat="45.4410276" lon="8.8003264"><ele>118.33333333333334</ele><time>2026-04-12T15:43:54.931Z</time></trkpt><trkpt lat="45.4411012" lon="8.800304"><ele>118.0</ele><time>2026-04-12T15:43:55.931Z</time></trkpt><trkpt lat="45.441174" lon="8.8002756"><ele>118.00000000000001</ele><time>2026-04-12T15:43:56.931Z</time></trkpt><trkpt lat="45.4412511" lon="8.8002621"><ele>118.0</ele><time>2026-04-12T15:43:57.931Z</time></trkpt><trkpt lat="45.441332" lon="8.8002524"><ele>118.0</ele><time>2026-04-12T15:43:58.932Z</time></trkpt><trkpt lat="45.4414161" lon="8.8002478"><ele>118.0</ele><time>2026-04-12T15:43:59.931Z</time></trkpt><trkpt lat="45.4414991" lon="8.8002401"><ele>118.00000000000001</ele><time>2026-04-12T15:44:00.931Z</time></trkpt><trkpt lat="45.4415877" lon="8.800224"><ele>118.0</ele><time>2026-04-12T15:44:01.931Z</time></trkpt><trkpt lat="45.4416729" lon="8.8002028"><ele>118.2</ele><time>2026-04-12T15:44:02.932Z</time></trkpt><trkpt lat="45.4417635" lon="8.8001702"><ele>118.4</ele><time>2026-04-12T15:44:03.931Z</time></trkpt><trkpt lat="45.441837" lon="8.8001418"><ele>118.60000000000001</ele><time>2026-04-12T15:44:04.931Z</time></trkpt><trkpt lat="45.4419035" lon="8.8001059"><ele>118.80000000000001</ele><time>2026-04-12T15:44:05.931Z</time></trkpt><trkpt lat="45.442013" lon="8.8000045"><ele>119.0</ele><time>2026-04-12T15:44:07.932Z</time></trkpt><trkpt lat="45.4421189" lon="8.7998944"><ele>118.66666666666666</ele><time>2026-04-12T15:44:09.931Z</time></trkpt><trkpt lat="45.4422026" lon="8.7997986"><ele>118.33333333333333</ele><time>2026-04-12T15:44:11.931Z</time></trkpt><trkpt lat="45.4422717" lon="8.7997432"><ele>118.0</ele><time>2026-04-12T15:44:13.931Z</time></trkpt><trkpt lat="45.4423526" lon="8.7996692"><ele>117.66666666666666</ele><time>2026-04-12T15:44:15.931Z</time></trkpt><trkpt lat="45.4424081" lon="8.799613"><ele>117.33333333333333</ele><time>2026-04-12T15:44:16.932Z</time></trkpt><trkpt lat="45.4424679" lon="8.7995566"><ele>117.0</ele><time>2026-04-12T15:44:17.931Z</time></trkpt><trkpt lat="45.4425312" lon="8.7994967"><ele>117.0</ele><time>2026-04-12T15:44:18.931Z</time></trkpt><trkpt lat="45.4425947" lon="8.7994383"><ele>117.0</ele><time>2026-04-12T15:44:19.931Z</time></trkpt><trkpt lat="45.4426586" lon="8.7993704"><ele>117.0</ele><time>2026-04-12T15:44:20.931Z</time></trkpt><trkpt lat="45.4427319" lon="8.7993055"><ele>117.0</ele><time>2026-04-12T15:44:21.931Z</time></trkpt><trkpt lat="45.4428069" lon="8.7992414"><ele>117.0</ele><time>2026-04-12T15:44:22.931Z</time></trkpt><trkpt lat="45.4428867" lon="8.799185"><ele>117.0</ele><time>2026-04-12T15:44:23.931Z</time></trkpt><trkpt lat="45.4429698" lon="8.7991338"><ele>116.5</ele><time>2026-04-12T15:44:24.931Z</time></trkpt><trkpt lat="45.4430521" lon="8.7990897"><ele>116.0</ele><time>2026-04-12T15:44:25.931Z</time></trkpt><trkpt lat="45.4431248" lon="8.7990454"><ele>115.5</ele><time>2026-04-12T15:44:26.931Z</time></trkpt><trkpt lat="45.4431908" lon="8.7989973"><ele>115.0</ele><time>2026-04-12T15:44:27.932Z</time></trkpt><trkpt lat="45.4432546" lon="8.7989583"><ele>114.5</ele><time>2026-04-12T15:44:28.931Z</time></trkpt><trkpt lat="45.4433276" lon="8.7988803"><ele>114.0</ele><time>2026-04-12T15:44:30.931Z</time></trkpt><trkpt lat="45.4433993" lon="8.7987564"><ele>114.0</ele><time>2026-04-12T15:44:32.932Z</time></trkpt><trkpt lat="45.4434409" lon="8.7986834"><ele>114.0</ele><time>2026-04-12T15:44:33.931Z</time></trkpt><trkpt lat="45.4434827" lon="8.7985827"><ele>114.0</ele><time>2026-04-12T15:44:34.932Z</time></trkpt><trkpt lat="45.4435385" lon="8.7984558"><ele>114.0</ele><time>2026-04-12T15:44:35.931Z</time></trkpt><trkpt lat="45.4435974" lon="8.7983257"><ele>114.0</ele><time>2026-04-12T15:44:36.933Z</time></trkpt><trkpt lat="45.443669" lon="8.7981578"><ele>114.0</ele><time>2026-04-12T15:44:37.931Z</time></trkpt><trkpt lat="45.4437356" lon="8.7979659"><ele>114.0</ele><time>2026-04-12T15:44:38.931Z</time></trkpt><trkpt lat="45.4438074" lon="8.7977626"><ele>114.0</ele><time>2026-04-12T15:44:39.932Z</time></trkpt><trkpt lat="45.4438916" lon="8.7975308"><ele>113.33333333333334</ele><time>2026-04-12T15:44:40.931Z</time></trkpt><trkpt lat="45.4439735" lon="8.7972975"><ele>112.66666666666667</ele><time>2026-04-12T15:44:41.933Z</time></trkpt><trkpt lat="45.4440608" lon="8.7970718"><ele>112.0</ele><time>2026-04-12T15:44:42.931Z</time></trkpt><trkpt lat="45.4441502" lon="8.7968545"><ele>112.25</ele><time>2026-04-12T15:44:43.931Z</time></trkpt><trkpt lat="45.4442313" lon="8.7966594"><ele>112.5</ele><time>2026-04-12T15:44:44.933Z</time></trkpt><trkpt lat="45.4443126" lon="8.7964823"><ele>112.75</ele><time>2026-04-12T15:44:45.931Z</time></trkpt><trkpt lat="45.4444068" lon="8.7963403"><ele>113.0</ele><time>2026-04-12T15:44:46.931Z</time></trkpt><trkpt lat="45.4445231" lon="8.7961738"><ele>114.0</ele><time>2026-04-12T15:44:47.932Z</time></trkpt><trkpt lat="45.4446596" lon="8.7960023"><ele>115.0</ele><time>2026-04-12T15:44:48.931Z</time></trkpt><trkpt lat="45.4448054" lon="8.795827"><ele>116.0</ele><time>2026-04-12T15:44:49.931Z</time></trkpt><trkpt lat="45.4449461" lon="8.7956709"><ele>116.0</ele><time>2026-04-12T15:44:50.932Z</time></trkpt><trkpt lat="45.445076" lon="8.7955303"><ele>116.0</ele><time>2026-04-12T15:44:51.931Z</time></trkpt><trkpt lat="45.4452133" lon="8.7954046"><ele>116.0</ele><time>2026-04-12T15:44:52.933Z</time></trkpt><trkpt lat="45.4453661" lon="8.7952908"><ele>115.66666666666666</ele><time>2026-04-12T15:44:53.932Z</time></trkpt><trkpt lat="45.44553" lon="8.7951877"><ele>115.33333333333334</ele><time>2026-04-12T15:44:54.932Z</time></trkpt><trkpt lat="45.445681" lon="8.7950967"><ele>115.0</ele><time>2026-04-12T15:44:55.931Z</time></trkpt><trkpt lat="45.4458355" lon="8.7950197"><ele>115.0</ele><time>2026-04-12T15:44:56.931Z</time></trkpt><trkpt lat="45.4459656" lon="8.794985"><ele>115.0</ele><time>2026-04-12T15:44:57.931Z</time></trkpt><trkpt lat="45.4461043" lon="8.7949605"><ele>115.0</ele><time>2026-04-12T15:44:58.931Z</time></trkpt><trkpt lat="45.4462494" lon="8.794928"><ele>115.0</ele><time>2026-04-12T15:44:59.931Z</time></trkpt><trkpt lat="45.4463983" lon="8.7949001"><ele>115.5</ele><time>2026-04-12T15:45:00.932Z</time></trkpt><trkpt lat="45.4465521" lon="8.7948678"><ele>116.0</ele><time>2026-04-12T15:45:01.931Z</time></trkpt><trkpt lat="45.4466857" lon="8.7948319"><ele>116.5</ele><time>2026-04-12T15:45:02.931Z</time></trkpt><trkpt lat="45.4467981" lon="8.794816"><ele>117.0</ele><time>2026-04-12T15:45:03.931Z</time></trkpt><trkpt lat="45.4469251" lon="8.7948229"><ele>117.0</ele><time>2026-04-12T15:45:04.931Z</time></trkpt><trkpt lat="45.4470453" lon="8.7948668"><ele>117.0</ele><time>2026-04-12T15:45:05.931Z</time></trkpt><trkpt lat="45.4471702" lon="8.7949499"><ele>117.0</ele><time>2026-04-12T15:45:06.931Z</time></trkpt><trkpt lat="45.4472785" lon="8.7950496"><ele>117.0</ele><time>2026-04-12T15:45:07.931Z</time></trkpt><trkpt lat="45.4473759" lon="8.7951618"><ele>117.39999999999999</ele><time>2026-04-12T15:45:08.931Z</time></trkpt><trkpt lat="45.447462" lon="8.7952621"><ele>117.79999999999998</ele><time>2026-04-12T15:45:09.931Z</time></trkpt><trkpt lat="45.4475391" lon="8.7953305"><ele>118.2</ele><time>2026-04-12T15:45:10.932Z</time></trkpt><trkpt lat="45.4476081" lon="8.7953785"><ele>118.6</ele><time>2026-04-12T15:45:11.931Z</time></trkpt><trkpt lat="45.447726" lon="8.795379"><ele>119.0</ele><time>2026-04-12T15:45:13.931Z</time></trkpt><trkpt lat="45.4477936" lon="8.7953512"><ele>119.0</ele><time>2026-04-12T15:45:14.931Z</time></trkpt><trkpt lat="45.4478736" lon="8.7953204"><ele>119.0</ele><time>2026-04-12T15:45:15.932Z</time></trkpt><trkpt lat="45.4479641" lon="8.7953024"><ele>119.0</ele><time>2026-04-12T15:45:17.931Z</time></trkpt><trkpt lat="45.4480359" lon="8.7954639"><ele>119.0</ele><time>2026-04-12T15:45:19.931Z</time></trkpt><trkpt lat="45.448089" lon="8.7956137"><ele>119.0</ele><time>2026-04-12T15:45:20.931Z</time></trkpt><trkpt lat="45.448145" lon="8.7957757"><ele>119.0</ele><time>2026-04-12T15:45:21.931Z</time></trkpt><trkpt lat="45.4481933" lon="8.7959384"><ele>119.0</ele><time>2026-04-12T15:45:22.931Z</time></trkpt><trkpt lat="45.4482329" lon="8.7960734"><ele>119.0</ele><time>2026-04-12T15:45:23.931Z</time></trkpt><trkpt lat="45.4482994" lon="8.7961545"><ele>119.0</ele><time>2026-04-12T15:45:25.932Z</time></trkpt><trkpt lat="45.4483292" lon="8.7960673"><ele>119.0</ele><time>2026-04-12T15:45:28.931Z</time></trkpt><trkpt lat="45.4482814" lon="8.7958998"><ele>118.99999999999999</ele><time>2026-04-12T15:45:30.932Z</time></trkpt><trkpt lat="45.4482468" lon="8.7957917"><ele>119.0</ele><time>2026-04-12T15:45:31.931Z</time></trkpt><trkpt lat="45.4482137" lon="8.7956773"><ele>119.0</ele><time>2026-04-12T15:45:32.931Z</time></trkpt><trkpt lat="45.4481866" lon="8.7955647"><ele>119.0</ele><time>2026-04-12T15:45:33.931Z</time></trkpt><trkpt lat="45.4481796" lon="8.7954428"><ele>118.99999999999999</ele><time>2026-04-12T15:45:35.932Z</time></trkpt><trkpt lat="45.4482101" lon="8.795328"><ele>119.0</ele><time>2026-04-12T15:45:47.931Z</time></trkpt><trkpt lat="45.4482" lon="8.7952325"><ele>119.5</ele><time>2026-04-12T15:45:48.931Z</time></trkpt><trkpt lat="45.4481786" lon="8.7951075"><ele>120.0</ele><time>2026-04-12T15:45:49.931Z</time></trkpt><trkpt lat="45.4481325" lon="8.7949361"><ele>120.5</ele><time>2026-04-12T15:45:50.932Z</time></trkpt><trkpt lat="45.4480742" lon="8.7947466"><ele>121.0</ele><time>2026-04-12T15:45:51.932Z</time></trkpt><trkpt lat="45.4480148" lon="8.7945371"><ele>120.66666666666667</ele><time>2026-04-12T15:45:52.931Z</time></trkpt><trkpt lat="45.4479552" lon="8.7943074"><ele>120.33333333333334</ele><time>2026-04-12T15:45:53.931Z</time></trkpt><trkpt lat="45.4478865" lon="8.7940588"><ele>120.0</ele><time>2026-04-12T15:45:54.931Z</time></trkpt><trkpt lat="45.4478167" lon="8.7937997"><ele>120.0</ele><time>2026-04-12T15:45:55.932Z</time></trkpt><trkpt lat="45.4477476" lon="8.7935268"><ele>120.0</ele><time>2026-04-12T15:45:56.931Z</time></trkpt><trkpt lat="45.4476749" lon="8.7932506"><ele>120.0</ele><time>2026-04-12T15:45:57.931Z</time></trkpt><trkpt lat="45.4476113" lon="8.792977"><ele>121.0</ele><time>2026-04-12T15:45:58.931Z</time></trkpt><trkpt lat="45.4475485" lon="8.7927015"><ele>122.0</ele><time>2026-04-12T15:45:59.931Z</time></trkpt><trkpt lat="45.4474817" lon="8.7924175"><ele>123.0</ele><time>2026-04-12T15:46:00.931Z</time></trkpt><trkpt lat="45.4474192" lon="8.7921398"><ele>124.33333333333334</ele><time>2026-04-12T15:46:01.931Z</time></trkpt><trkpt lat="45.4473582" lon="8.7918713"><ele>125.66666666666667</ele><time>2026-04-12T15:46:02.932Z</time></trkpt><trkpt lat="45.4472989" lon="8.7916021"><ele>127.0</ele><time>2026-04-12T15:46:03.932Z</time></trkpt><trkpt lat="45.4472362" lon="8.7913303"><ele>127.66666666666667</ele><time>2026-04-12T15:46:04.931Z</time></trkpt><trkpt lat="45.4471808" lon="8.7910661"><ele>128.33333333333334</ele><time>2026-04-12T15:46:05.931Z</time></trkpt><trkpt lat="45.4471273" lon="8.7908271"><ele>129.0</ele><time>2026-04-12T15:46:06.931Z</time></trkpt><trkpt lat="45.4470752" lon="8.790607"><ele>129.0</ele><time>2026-04-12T15:46:07.931Z</time></trkpt><trkpt lat="45.4470215" lon="8.7904122"><ele>129.0</ele><time>2026-04-12T15:46:08.932Z</time></trkpt><trkpt lat="45.4469733" lon="8.7902496"><ele>129.0</ele><time>2026-04-12T15:46:09.93Z</time></trkpt><trkpt lat="45.4469207" lon="8.7900884"><ele>129.0</ele><time>2026-04-12T15:46:10.932Z</time></trkpt><trkpt lat="45.446866" lon="8.7899131"><ele>129.75</ele><time>2026-04-12T15:46:11.931Z</time></trkpt><trkpt lat="45.4468194" lon="8.7897256"><ele>130.5</ele><time>2026-04-12T15:46:12.931Z</time></trkpt><trkpt lat="45.4467771" lon="8.7895326"><ele>131.25</ele><time>2026-04-12T15:46:13.932Z</time></trkpt><trkpt lat="45.4467439" lon="8.7893534"><ele>132.0</ele><time>2026-04-12T15:46:14.931Z</time></trkpt><trkpt lat="45.4467045" lon="8.7891839"><ele>132.0</ele><time>2026-04-12T15:46:15.932Z</time></trkpt><trkpt lat="45.4466607" lon="8.7890145"><ele>132.0</ele><time>2026-04-12T15:46:16.931Z</time></trkpt><trkpt lat="45.4466127" lon="8.7888419"><ele>132.0</ele><time>2026-04-12T15:46:17.932Z</time></trkpt><trkpt lat="45.4465617" lon="8.7886566"><ele>132.0</ele><time>2026-04-12T15:46:18.931Z</time></trkpt><trkpt lat="45.4465076" lon="8.7884517"><ele>131.66666666666666</ele><time>2026-04-12T15:46:19.931Z</time></trkpt><trkpt lat="45.4464432" lon="8.7882208"><ele>131.33333333333331</ele><time>2026-04-12T15:46:20.931Z</time></trkpt><trkpt lat="45.4463721" lon="8.7879678"><ele>131.0</ele><time>2026-04-12T15:46:21.932Z</time></trkpt><trkpt lat="45.4463" lon="8.7877008"><ele>131.33333333333331</ele><time>2026-04-12T15:46:22.931Z</time></trkpt><trkpt lat="45.446219" lon="8.7874223"><ele>131.66666666666666</ele><time>2026-04-12T15:46:23.931Z</time></trkpt><trkpt lat="45.446139" lon="8.7871226"><ele>132.0</ele><time>2026-04-12T15:46:24.931Z</time></trkpt><trkpt lat="45.4460552" lon="8.7868103"><ele>132.0</ele><time>2026-04-12T15:46:25.931Z</time></trkpt><trkpt lat="45.4459672" lon="8.7864873"><ele>132.0</ele><time>2026-04-12T15:46:26.931Z</time></trkpt><trkpt lat="45.4458748" lon="8.7861577"><ele>130.0</ele><time>2026-04-12T15:46:27.931Z</time></trkpt><trkpt lat="45.4457824" lon="8.7858202"><ele>128.0</ele><time>2026-04-12T15:46:28.93Z</time></trkpt><trkpt lat="45.4456922" lon="8.7854827"><ele>127.5</ele><time>2026-04-12T15:46:29.931Z</time></trkpt><trkpt lat="45.4456042" lon="8.7851677"><ele>127.0</ele><time>2026-04-12T15:46:30.932Z</time></trkpt><trkpt lat="45.4455233" lon="8.7848743"><ele>127.0</ele><time>2026-04-12T15:46:31.931Z</time></trkpt><trkpt lat="45.4454468" lon="8.7845951"><ele>127.0</ele><time>2026-04-12T15:46:32.931Z</time></trkpt><trkpt lat="45.4453768" lon="8.7843372"><ele>127.0</ele><time>2026-04-12T15:46:33.931Z</time></trkpt><trkpt lat="45.4453049" lon="8.7840878"><ele>127.0</ele><time>2026-04-12T15:46:34.932Z</time></trkpt><trkpt lat="45.4452493" lon="8.7838573"><ele>127.0</ele><time>2026-04-12T15:46:35.932Z</time></trkpt><trkpt lat="45.4452138" lon="8.783669"><ele>127.0</ele><time>2026-04-12T15:46:36.932Z</time></trkpt><trkpt lat="45.4451915" lon="8.7834896"><ele>127.0</ele><time>2026-04-12T15:46:37.931Z</time></trkpt><trkpt lat="45.4451905" lon="8.7832985"><ele>127.25</ele><time>2026-04-12T15:46:38.93Z</time></trkpt><trkpt lat="45.445215" lon="8.7830987"><ele>127.5</ele><time>2026-04-12T15:46:39.931Z</time></trkpt><trkpt lat="45.445257" lon="8.7828984"><ele>127.75</ele><time>2026-04-12T15:46:40.931Z</time></trkpt><trkpt lat="45.4453194" lon="8.7827225"><ele>128.0</ele><time>2026-04-12T15:46:41.931Z</time></trkpt><trkpt lat="45.4454063" lon="8.7825577"><ele>128.75</ele><time>2026-04-12T15:46:42.932Z</time></trkpt><trkpt lat="45.4455112" lon="8.7824162"><ele>129.5</ele><time>2026-04-12T15:46:43.931Z</time></trkpt><trkpt lat="45.4456187" lon="8.7822942"><ele>130.25</ele><time>2026-04-12T15:46:44.931Z</time></trkpt><trkpt lat="45.4457343" lon="8.7821907"><ele>131.0</ele><time>2026-04-12T15:46:45.932Z</time></trkpt><trkpt lat="45.4458757" lon="8.7821234"><ele>131.0</ele><time>2026-04-12T15:46:46.931Z</time></trkpt><trkpt lat="45.4460354" lon="8.7820676"><ele>131.0</ele><time>2026-04-12T15:46:47.931Z</time></trkpt><trkpt lat="45.4462099" lon="8.7820177"><ele>131.0</ele><time>2026-04-12T15:46:48.93Z</time></trkpt><trkpt lat="45.4464026" lon="8.7819668"><ele>131.0</ele><time>2026-04-12T15:46:49.931Z</time></trkpt><trkpt lat="45.4466049" lon="8.781917"><ele>131.0</ele><time>2026-04-12T15:46:50.931Z</time></trkpt><trkpt lat="45.4468176" lon="8.7818645"><ele>131.0</ele><time>2026-04-12T15:46:51.931Z</time></trkpt><trkpt lat="45.4470328" lon="8.7818164"><ele>131.0</ele><time>2026-04-12T15:46:52.931Z</time></trkpt><trkpt lat="45.4472543" lon="8.7817626"><ele>131.0</ele><time>2026-04-12T15:46:53.93Z</time></trkpt><trkpt lat="45.4474817" lon="8.7816945"><ele>131.0</ele><time>2026-04-12T15:46:54.931Z</time></trkpt><trkpt lat="45.4477185" lon="8.7816236"><ele>131.0</ele><time>2026-04-12T15:46:55.932Z</time></trkpt><trkpt lat="45.447949" lon="8.7815597"><ele>130.66666666666666</ele><time>2026-04-12T15:46:56.932Z</time></trkpt><trkpt lat="45.4481683" lon="8.7815008"><ele>130.33333333333334</ele><time>2026-04-12T15:46:57.93Z</time></trkpt><trkpt lat="45.4483866" lon="8.7814511"><ele>130.0</ele><time>2026-04-12T15:46:58.931Z</time></trkpt><trkpt lat="45.4486015" lon="8.781401"><ele>131.0</ele><time>2026-04-12T15:46:59.931Z</time></trkpt><trkpt lat="45.4488156" lon="8.7813521"><ele>132.0</ele><time>2026-04-12T15:47:00.932Z</time></trkpt><trkpt lat="45.4490302" lon="8.7813006"><ele>133.0</ele><time>2026-04-12T15:47:01.931Z</time></trkpt><trkpt lat="45.4492415" lon="8.7812492"><ele>133.0</ele><time>2026-04-12T15:47:02.931Z</time></trkpt><trkpt lat="45.4494495" lon="8.7811983"><ele>133.0</ele><time>2026-04-12T15:47:03.931Z</time></trkpt><trkpt lat="45.4496543" lon="8.781147"><ele>133.0</ele><time>2026-04-12T15:47:04.931Z</time></trkpt><trkpt lat="45.4498663" lon="8.7810882"><ele>132.66666666666669</ele><time>2026-04-12T15:47:05.932Z</time></trkpt><trkpt lat="45.4500827" lon="8.7810235"><ele>132.33333333333334</ele><time>2026-04-12T15:47:06.931Z</time></trkpt><trkpt lat="45.4503063" lon="8.7809585"><ele>132.0</ele><time>2026-04-12T15:47:07.93Z</time></trkpt><trkpt lat="45.4505426" lon="8.7808971"><ele>131.5</ele><time>2026-04-12T15:47:08.931Z</time></trkpt><trkpt lat="45.4507866" lon="8.7808279"><ele>131.0</ele><time>2026-04-12T15:47:09.931Z</time></trkpt><trkpt lat="45.4510366" lon="8.7807496"><ele>132.0</ele><time>2026-04-12T15:47:10.931Z</time></trkpt><trkpt lat="45.4512911" lon="8.7806684"><ele>133.0</ele><time>2026-04-12T15:47:11.931Z</time></trkpt><trkpt lat="45.4515463" lon="8.7805795"><ele>133.0</ele><time>2026-04-12T15:47:12.931Z</time></trkpt><trkpt lat="45.4518033" lon="8.780486"><ele>133.0</ele><time>2026-04-12T15:47:13.93Z</time></trkpt><trkpt lat="45.4520635" lon="8.7803884"><ele>133.0</ele><time>2026-04-12T15:47:14.931Z</time></trkpt><trkpt lat="45.4523079" lon="8.7802986"><ele>133.0</ele><time>2026-04-12T15:47:15.931Z</time></trkpt><trkpt lat="45.4525346" lon="8.780219"><ele>133.33333333333334</ele><time>2026-04-12T15:47:16.932Z</time></trkpt><trkpt lat="45.4527498" lon="8.7801376"><ele>133.66666666666666</ele><time>2026-04-12T15:47:17.931Z</time></trkpt><trkpt lat="45.4529417" lon="8.7800627"><ele>134.0</ele><time>2026-04-12T15:47:18.931Z</time></trkpt><trkpt lat="45.4531129" lon="8.7799992"><ele>134.25</ele><time>2026-04-12T15:47:19.932Z</time></trkpt><trkpt lat="45.453259" lon="8.7799457"><ele>134.5</ele><time>2026-04-12T15:47:20.93Z</time></trkpt><trkpt lat="45.4533835" lon="8.7798995"><ele>134.75</ele><time>2026-04-12T15:47:21.931Z</time></trkpt><trkpt lat="45.4534871" lon="8.7798496"><ele>135.0</ele><time>2026-04-12T15:47:22.931Z</time></trkpt><trkpt lat="45.4535706" lon="8.7797998"><ele>135.0</ele><time>2026-04-12T15:47:23.932Z</time></trkpt><trkpt lat="45.4536393" lon="8.7797439"><ele>135.0</ele><time>2026-04-12T15:47:24.932Z</time></trkpt><trkpt lat="45.4536874" lon="8.7796782"><ele>135.0</ele><time>2026-04-12T15:47:25.931Z</time></trkpt><trkpt lat="45.4537193" lon="8.7795948"><ele>135.0</ele><time>2026-04-12T15:47:26.931Z</time></trkpt><trkpt lat="45.4537434" lon="8.7794925"><ele>135.0</ele><time>2026-04-12T15:47:27.931Z</time></trkpt><trkpt lat="45.4537599" lon="8.7793662"><ele>135.0</ele><time>2026-04-12T15:47:28.932Z</time></trkpt><trkpt lat="45.4537735" lon="8.7792303"><ele>134.6</ele><time>2026-04-12T15:47:29.931Z</time></trkpt><trkpt lat="45.4537874" lon="8.7790841"><ele>134.2</ele><time>2026-04-12T15:47:30.931Z</time></trkpt><trkpt lat="45.4538023" lon="8.778935"><ele>133.8</ele><time>2026-04-12T15:47:31.931Z</time></trkpt><trkpt lat="45.4538163" lon="8.7787873"><ele>133.4</ele><time>2026-04-12T15:47:32.931Z</time></trkpt><trkpt lat="45.4538288" lon="8.7786277"><ele>133.0</ele><time>2026-04-12T15:47:33.931Z</time></trkpt><trkpt lat="45.4538388" lon="8.7784733"><ele>133.0</ele><time>2026-04-12T15:47:34.931Z</time></trkpt><trkpt lat="45.4538495" lon="8.7783322"><ele>133.0</ele><time>2026-04-12T15:47:35.931Z</time></trkpt><trkpt lat="45.4538613" lon="8.7782043"><ele>133.0</ele><time>2026-04-12T15:47:36.931Z</time></trkpt><trkpt lat="45.4538769" lon="8.7780883"><ele>133.0</ele><time>2026-04-12T15:47:37.931Z</time></trkpt><trkpt lat="45.4538936" lon="8.7779779"><ele>133.0</ele><time>2026-04-12T15:47:38.931Z</time></trkpt><trkpt lat="45.4539302" lon="8.7778694"><ele>133.0</ele><time>2026-04-12T15:47:39.93Z</time></trkpt><trkpt lat="45.4539888" lon="8.7777715"><ele>133.0</ele><time>2026-04-12T15:47:40.931Z</time></trkpt><trkpt lat="45.4540629" lon="8.7777035"><ele>133.0</ele><time>2026-04-12T15:47:41.932Z</time></trkpt><trkpt lat="45.4541736" lon="8.7776651"><ele>133.0</ele><time>2026-04-12T15:47:42.932Z</time></trkpt><trkpt lat="45.4542951" lon="8.7776172"><ele>133.0</ele><time>2026-04-12T15:47:43.931Z</time></trkpt><trkpt lat="45.4544258" lon="8.7775643"><ele>132.66666666666669</ele><time>2026-04-12T15:47:44.931Z</time></trkpt><trkpt lat="45.4545687" lon="8.7775034"><ele>132.33333333333334</ele><time>2026-04-12T15:47:45.931Z</time></trkpt><trkpt lat="45.4547275" lon="8.7774391"><ele>132.0</ele><time>2026-04-12T15:47:46.931Z</time></trkpt><trkpt lat="45.4548998" lon="8.7773683"><ele>133.0</ele><time>2026-04-12T15:47:47.931Z</time></trkpt><trkpt lat="45.4550889" lon="8.7772913"><ele>134.0</ele><time>2026-04-12T15:47:48.931Z</time></trkpt><trkpt lat="45.4552796" lon="8.7772192"><ele>135.0</ele><time>2026-04-12T15:47:49.932Z</time></trkpt><trkpt lat="45.4554518" lon="8.7771487"><ele>134.75</ele><time>2026-04-12T15:47:50.932Z</time></trkpt><trkpt lat="45.4556054" lon="8.777089"><ele>134.5</ele><time>2026-04-12T15:47:51.932Z</time></trkpt><trkpt lat="45.4557432" lon="8.7770368"><ele>134.25</ele><time>2026-04-12T15:47:52.931Z</time></trkpt><trkpt lat="45.4558643" lon="8.7769856"><ele>134.0</ele><time>2026-04-12T15:47:53.931Z</time></trkpt><trkpt lat="45.4559983" lon="8.7769392"><ele>134.0</ele><time>2026-04-12T15:47:54.931Z</time></trkpt><trkpt lat="45.4561401" lon="8.7768874"><ele>134.0</ele><time>2026-04-12T15:47:55.931Z</time></trkpt><trkpt lat="45.4562743" lon="8.7768381"><ele>134.0</ele><time>2026-04-12T15:47:56.931Z</time></trkpt><trkpt lat="45.456413" lon="8.7767889"><ele>134.0</ele><time>2026-04-12T15:47:57.931Z</time></trkpt><trkpt lat="45.4565547" lon="8.7767373"><ele>134.33333333333331</ele><time>2026-04-12T15:47:58.931Z</time></trkpt><trkpt lat="45.4567097" lon="8.7766744"><ele>134.66666666666666</ele><time>2026-04-12T15:47:59.93Z</time></trkpt><trkpt lat="45.4568777" lon="8.7766051"><ele>135.0</ele><time>2026-04-12T15:48:00.931Z</time></trkpt><trkpt lat="45.4570471" lon="8.7765304"><ele>134.66666666666666</ele><time>2026-04-12T15:48:01.93Z</time></trkpt><trkpt lat="45.4572214" lon="8.776459"><ele>134.33333333333331</ele><time>2026-04-12T15:48:02.931Z</time></trkpt><trkpt lat="45.4574019" lon="8.7763905"><ele>134.0</ele><time>2026-04-12T15:48:03.931Z</time></trkpt><trkpt lat="45.4575934" lon="8.7763162"><ele>134.0</ele><time>2026-04-12T15:48:04.931Z</time></trkpt><trkpt lat="45.4577905" lon="8.7762375"><ele>134.0</ele><time>2026-04-12T15:48:05.931Z</time></trkpt><trkpt lat="45.4579908" lon="8.7761512"><ele>134.0</ele><time>2026-04-12T15:48:06.931Z</time></trkpt><trkpt lat="45.4582023" lon="8.7760599"><ele>134.5</ele><time>2026-04-12T15:48:07.931Z</time></trkpt><trkpt lat="45.458417" lon="8.7759714"><ele>135.0</ele><time>2026-04-12T15:48:08.931Z</time></trkpt><trkpt lat="45.4586382" lon="8.7758829"><ele>136.0</ele><time>2026-04-12T15:48:09.931Z</time></trkpt><trkpt lat="45.4588786" lon="8.7757879"><ele>137.0</ele><time>2026-04-12T15:48:10.931Z</time></trkpt><trkpt lat="45.4591276" lon="8.7756958"><ele>137.0</ele><time>2026-04-12T15:48:11.931Z</time></trkpt><trkpt lat="45.4593619" lon="8.7755944"><ele>137.0</ele><time>2026-04-12T15:48:12.931Z</time></trkpt><trkpt lat="45.4595863" lon="8.7755011"><ele>136.66666666666666</ele><time>2026-04-12T15:48:13.931Z</time></trkpt><trkpt lat="45.4597925" lon="8.7754147"><ele>136.33333333333334</ele><time>2026-04-12T15:48:14.932Z</time></trkpt><trkpt lat="45.4599888" lon="8.7753383"><ele>136.0</ele><time>2026-04-12T15:48:15.931Z</time></trkpt><trkpt lat="45.4601673" lon="8.775266"><ele>136.0</ele><time>2026-04-12T15:48:16.931Z</time></trkpt><trkpt lat="45.4603399" lon="8.7752029"><ele>136.0</ele><time>2026-04-12T15:48:17.93Z</time></trkpt><trkpt lat="45.4605038" lon="8.7751427"><ele>136.0</ele><time>2026-04-12T15:48:18.931Z</time></trkpt><trkpt lat="45.4606541" lon="8.7750835"><ele>136.25</ele><time>2026-04-12T15:48:19.932Z</time></trkpt><trkpt lat="45.4607938" lon="8.7750229"><ele>136.5</ele><time>2026-04-12T15:48:20.93Z</time></trkpt><trkpt lat="45.4609221" lon="8.7749656"><ele>136.75</ele><time>2026-04-12T15:48:21.93Z</time></trkpt><trkpt lat="45.4610419" lon="8.7749199"><ele>137.0</ele><time>2026-04-12T15:48:22.931Z</time></trkpt><trkpt lat="45.4611516" lon="8.7748852"><ele>137.0</ele><time>2026-04-12T15:48:23.931Z</time></trkpt><trkpt lat="45.4612386" lon="8.7748638"><ele>137.0</ele><time>2026-04-12T15:48:24.931Z</time></trkpt><trkpt lat="45.4613104" lon="8.774859"><ele>137.0</ele><time>2026-04-12T15:48:25.932Z</time></trkpt><trkpt lat="45.4614074" lon="8.7749147"><ele>137.0</ele><time>2026-04-12T15:48:27.931Z</time></trkpt><trkpt lat="45.4614441" lon="8.7750928"><ele>137.0</ele><time>2026-04-12T15:48:29.931Z</time></trkpt><trkpt lat="45.4614347" lon="8.7752279"><ele>137.25</ele><time>2026-04-12T15:48:30.93Z</time></trkpt><trkpt lat="45.4614213" lon="8.7753856"><ele>137.5</ele><time>2026-04-12T15:48:31.931Z</time></trkpt><trkpt lat="45.4614161" lon="8.7755647"><ele>137.75</ele><time>2026-04-12T15:48:32.931Z</time></trkpt><trkpt lat="45.4614197" lon="8.7757656"><ele>138.0</ele><time>2026-04-12T15:48:33.931Z</time></trkpt><trkpt lat="45.4614255" lon="8.7759736"><ele>137.66666666666666</ele><time>2026-04-12T15:48:34.931Z</time></trkpt><trkpt lat="45.4614367" lon="8.7761841"><ele>137.33333333333331</ele><time>2026-04-12T15:48:35.931Z</time></trkpt><trkpt lat="45.4614417" lon="8.7764053"><ele>137.0</ele><time>2026-04-12T15:48:36.931Z</time></trkpt><trkpt lat="45.4614492" lon="8.7766283"><ele>137.0</ele><time>2026-04-12T15:48:37.931Z</time></trkpt><trkpt lat="45.4614538" lon="8.7768283"><ele>137.0</ele><time>2026-04-12T15:48:38.932Z</time></trkpt><trkpt lat="45.4614594" lon="8.7770174"><ele>137.0</ele><time>2026-04-12T15:48:39.931Z</time></trkpt><trkpt lat="45.4614785" lon="8.777195"><ele>137.0</ele><time>2026-04-12T15:48:40.932Z</time></trkpt><trkpt lat="45.4615066" lon="8.7773575"><ele>135.4</ele><time>2026-04-12T15:48:41.931Z</time></trkpt><trkpt lat="45.4615502" lon="8.7774953"><ele>133.79999999999998</ele><time>2026-04-12T15:48:42.931Z</time></trkpt><trkpt lat="45.461591" lon="8.7776118"><ele>132.2</ele><time>2026-04-12T15:48:43.931Z</time></trkpt><trkpt lat="45.4616316" lon="8.7777168"><ele>130.6</ele><time>2026-04-12T15:48:45.933Z</time></trkpt><trkpt lat="45.4616602" lon="8.7778259"><ele>129.0</ele><time>2026-04-12T15:48:47.931Z</time></trkpt><trkpt lat="45.4616886" lon="8.7779433"><ele>127.6</ele><time>2026-04-12T15:48:49.931Z</time></trkpt><trkpt lat="45.4617109" lon="8.7780553"><ele>126.2</ele><time>2026-04-12T15:48:51.931Z</time></trkpt><trkpt lat="45.4617612" lon="8.7781474"><ele>124.79999999999998</ele><time>2026-04-12T15:48:53.931Z</time></trkpt><trkpt lat="45.4618477" lon="8.7781878"><ele>123.39999999999999</ele><time>2026-04-12T15:48:55.931Z</time></trkpt><trkpt lat="45.4619745" lon="8.7781784"><ele>122.0</ele><time>2026-04-12T15:48:57.931Z</time></trkpt><trkpt lat="45.4620585" lon="8.7781676"><ele>121.49999999999999</ele><time>2026-04-12T15:48:58.933Z</time></trkpt><trkpt lat="45.4621358" lon="8.7781608"><ele>121.0</ele><time>2026-04-12T15:48:59.931Z</time></trkpt><trkpt lat="45.4622137" lon="8.7781562"><ele>120.5</ele><time>2026-04-12T15:49:00.931Z</time></trkpt><trkpt lat="45.4622888" lon="8.7781657"><ele>120.0</ele><time>2026-04-12T15:49:01.931Z</time></trkpt><trkpt lat="45.4623627" lon="8.7781874"><ele>119.49999999999999</ele><time>2026-04-12T15:49:02.933Z</time></trkpt><trkpt lat="45.4624395" lon="8.7782226"><ele>119.0</ele><time>2026-04-12T15:49:03.93Z</time></trkpt><trkpt lat="45.4625211" lon="8.7782555"><ele>119.0</ele><time>2026-04-12T15:49:04.931Z</time></trkpt><trkpt lat="45.462603" lon="8.7782783"><ele>119.0</ele><time>2026-04-12T15:49:05.931Z</time></trkpt><trkpt lat="45.4626755" lon="8.7783045"><ele>119.0</ele><time>2026-04-12T15:49:06.931Z</time></trkpt><trkpt lat="45.4627898" lon="8.7783499"><ele>119.0</ele><time>2026-04-12T15:49:08.93Z</time></trkpt><trkpt lat="45.462888" lon="8.7784238"><ele>119.0</ele><time>2026-04-12T15:49:10.931Z</time></trkpt><trkpt lat="45.462942" lon="8.7784789"><ele>118.66666666666666</ele><time>2026-04-12T15:49:11.931Z</time></trkpt><trkpt lat="45.4630074" lon="8.778542"><ele>118.33333333333333</ele><time>2026-04-12T15:49:12.931Z</time></trkpt><trkpt lat="45.4630737" lon="8.7786089"><ele>118.0</ele><time>2026-04-12T15:49:13.933Z</time></trkpt><trkpt lat="45.4631458" lon="8.7786762"><ele>117.66666666666666</ele><time>2026-04-12T15:49:14.931Z</time></trkpt><trkpt lat="45.4632125" lon="8.7787492"><ele>117.33333333333333</ele><time>2026-04-12T15:49:15.93Z</time></trkpt><trkpt lat="45.4632794" lon="8.7788219"><ele>117.0</ele><time>2026-04-12T15:49:16.931Z</time></trkpt><trkpt lat="45.4633426" lon="8.7788962"><ele>117.0</ele><time>2026-04-12T15:49:17.93Z</time></trkpt><trkpt lat="45.463403" lon="8.7789683"><ele>117.0</ele><time>2026-04-12T15:49:18.93Z</time></trkpt><trkpt lat="45.4634518" lon="8.7790284"><ele>117.0</ele><time>2026-04-12T15:49:19.93Z</time></trkpt><trkpt lat="45.4634995" lon="8.7791203"><ele>117.0</ele><time>2026-04-12T15:49:21.932Z</time></trkpt><trkpt lat="45.4638484" lon="8.7799001"><ele>116.83333333333333</ele><time>2026-04-12T15:50:31.931Z</time></trkpt><trkpt lat="45.4638827" lon="8.7799847"><ele>116.66666666666666</ele><time>2026-04-12T15:50:32.931Z</time></trkpt><trkpt lat="45.4639391" lon="8.7801393"><ele>116.5</ele><time>2026-04-12T15:50:34.91Z</time></trkpt><trkpt lat="45.4639633" lon="8.7802226"><ele>116.33333333333333</ele><time>2026-04-12T15:50:35.912Z</time></trkpt><trkpt lat="45.4639801" lon="8.7803127"><ele>116.16666666666666</ele><time>2026-04-12T15:50:36.91Z</time></trkpt><trkpt lat="45.4639974" lon="8.7804111"><ele>116.0</ele><time>2026-04-12T15:50:37.911Z</time></trkpt><trkpt lat="45.4640045" lon="8.7805211"><ele>115.99999999999999</ele><time>2026-04-12T15:50:38.912Z</time></trkpt><trkpt lat="45.4640115" lon="8.7806216"><ele>116.0</ele><time>2026-04-12T15:50:39.916Z</time></trkpt><trkpt lat="45.4640234" lon="8.780738"><ele>116.0</ele><time>2026-04-12T15:50:40.916Z</time></trkpt><trkpt lat="45.4640306" lon="8.7808493"><ele>116.0</ele><time>2026-04-12T15:50:41.916Z</time></trkpt><trkpt lat="45.46404" lon="8.7809625"><ele>115.99999999999999</ele><time>2026-04-12T15:50:42.916Z</time></trkpt><trkpt lat="45.4640493" lon="8.7810691"><ele>116.0</ele><time>2026-04-12T15:50:43.916Z</time></trkpt><trkpt lat="45.4640573" lon="8.7811752"><ele>116.16666666666666</ele><time>2026-04-12T15:50:44.916Z</time></trkpt><trkpt lat="45.4640661" lon="8.7812895"><ele>116.33333333333333</ele><time>2026-04-12T15:50:45.916Z</time></trkpt><trkpt lat="45.464077" lon="8.7814104"><ele>116.5</ele><time>2026-04-12T15:50:46.916Z</time></trkpt><trkpt lat="45.4640882" lon="8.7815293"><ele>116.66666666666666</ele><time>2026-04-12T15:50:47.916Z</time></trkpt><trkpt lat="45.4640993" lon="8.7816397"><ele>116.83333333333333</ele><time>2026-04-12T15:50:48.917Z</time></trkpt><trkpt lat="45.4641088" lon="8.781733"><ele>117.0</ele><time>2026-04-12T15:50:49.916Z</time></trkpt><trkpt lat="45.4641198" lon="8.7818913"><ele>116.6</ele><time>2026-04-12T15:50:51.917Z</time></trkpt><trkpt lat="45.4640688" lon="8.7819961"><ele>116.19999999999999</ele><time>2026-04-12T15:50:53.916Z</time></trkpt><trkpt lat="45.4639747" lon="8.7820934"><ele>115.8</ele><time>2026-04-12T15:50:55.916Z</time></trkpt><trkpt lat="45.463922" lon="8.7821646"><ele>115.4</ele><time>2026-04-12T15:50:56.916Z</time></trkpt><trkpt lat="45.463875" lon="8.7822324"><ele>115.0</ele><time>2026-04-12T15:50:57.916Z</time></trkpt><trkpt lat="45.4638054" lon="8.7823715"><ele>115.00000000000001</ele><time>2026-04-12T15:50:59.916Z</time></trkpt><trkpt lat="45.4637701" lon="8.7825173"><ele>115.0</ele><time>2026-04-12T15:51:01.916Z</time></trkpt><trkpt lat="45.4637649" lon="8.7826069"><ele>115.0</ele><time>2026-04-12T15:51:02.917Z</time></trkpt><trkpt lat="45.4637648" lon="8.7827084"><ele>115.0</ele><time>2026-04-12T15:51:03.916Z</time></trkpt><trkpt lat="45.4637624" lon="8.7828237"><ele>115.00000000000001</ele><time>2026-04-12T15:51:04.916Z</time></trkpt><trkpt lat="45.4637606" lon="8.782948"><ele>115.0</ele><time>2026-04-12T15:51:05.916Z</time></trkpt><trkpt lat="45.4637592" lon="8.783077"><ele>115.00000000000001</ele><time>2026-04-12T15:51:06.916Z</time></trkpt><trkpt lat="45.4637551" lon="8.7832036"><ele>115.0</ele><time>2026-04-12T15:51:07.916Z</time></trkpt><trkpt lat="45.4637526" lon="8.7833312"><ele>115.0</ele><time>2026-04-12T15:51:08.916Z</time></trkpt><trkpt lat="45.4637495" lon="8.7834598"><ele>115.0</ele><time>2026-04-12T15:51:09.916Z</time></trkpt><trkpt lat="45.4637465" lon="8.7835841"><ele>115.00000000000001</ele><time>2026-04-12T15:51:10.916Z</time></trkpt><trkpt lat="45.4637438" lon="8.7836873"><ele>115.0</ele><time>2026-04-12T15:51:11.916Z</time></trkpt><trkpt lat="45.463737" lon="8.7837766"><ele>115.50000000000001</ele><time>2026-04-12T15:51:12.916Z</time></trkpt><trkpt lat="45.4637303" lon="8.7839361"><ele>116.0</ele><time>2026-04-12T15:51:14.916Z</time></trkpt><trkpt lat="45.4637216" lon="8.7840668"><ele>116.5</ele><time>2026-04-12T15:51:16.916Z</time></trkpt><trkpt lat="45.4636693" lon="8.7841454"><ele>117.0</ele><time>2026-04-12T15:51:18.916Z</time></trkpt><trkpt lat="45.4635994" lon="8.7841962"><ele>117.50000000000001</ele><time>2026-04-12T15:51:20.916Z</time></trkpt><trkpt lat="45.4635786" lon="8.7842961"><ele>118.0</ele><time>2026-04-12T15:51:23.916Z</time></trkpt><trkpt lat="45.4635966" lon="8.7844084"><ele>118.2</ele><time>2026-04-12T15:51:26.916Z</time></trkpt><trkpt lat="45.4636155" lon="8.7845245"><ele>118.4</ele><time>2026-04-12T15:51:28.916Z</time></trkpt><trkpt lat="45.4636366" lon="8.7846233"><ele>118.60000000000001</ele><time>2026-04-12T15:51:30.916Z</time></trkpt><trkpt lat="45.4636615" lon="8.7847217"><ele>118.80000000000001</ele><time>2026-04-12T15:51:33.916Z</time></trkpt><trkpt lat="45.4637263" lon="8.7847614"><ele>119.0</ele><time>2026-04-12T15:51:36.916Z</time></trkpt><trkpt lat="45.4635222" lon="8.7847785"><ele>119.0</ele><time>2026-04-12T15:52:36.93Z</time></trkpt><trkpt lat="45.4633658" lon="8.7850823"><ele>119.0</ele><time>2026-04-12T15:52:44.93Z</time></trkpt><trkpt lat="45.4633171" lon="8.7852137"><ele>119.0</ele><time>2026-04-12T15:52:46.93Z</time></trkpt><trkpt lat="45.4632822" lon="8.7853107"><ele>119.0</ele><time>2026-04-12T15:52:48.93Z</time></trkpt><trkpt lat="45.4632328" lon="8.7854083"><ele>119.0</ele><time>2026-04-12T15:52:50.93Z</time></trkpt><trkpt lat="45.4631861" lon="8.7854995"><ele>119.0</ele><time>2026-04-12T15:52:52.93Z</time></trkpt><trkpt lat="45.4631352" lon="8.785589"><ele>119.0</ele><time>2026-04-12T15:52:55.93Z</time></trkpt><trkpt lat="45.4631091" lon="8.785679"><ele>119.0</ele><time>2026-04-12T15:53:03.932Z</time></trkpt><trkpt lat="45.4630675" lon="8.7857572"><ele>119.0</ele><time>2026-04-12T15:53:11.931Z</time></trkpt><trkpt lat="45.463596" lon="8.7844138"><ele>118.99999999999999</ele><time>2026-04-12T15:56:17.93Z</time></trkpt><trkpt lat="45.4635795" lon="8.7843001"><ele>119.0</ele><time>2026-04-12T15:56:19.931Z</time></trkpt><trkpt lat="45.4636005" lon="8.7842072"><ele>119.0</ele><time>2026-04-12T15:56:21.931Z</time></trkpt><trkpt lat="45.4636699" lon="8.7841645"><ele>119.0</ele><time>2026-04-12T15:56:23.931Z</time></trkpt><trkpt lat="45.4637904" lon="8.7841279"><ele>118.99999999999999</ele><time>2026-04-12T15:56:25.93Z</time></trkpt><trkpt lat="45.4638605" lon="8.7841072"><ele>119.0</ele><time>2026-04-12T15:56:26.931Z</time></trkpt><trkpt lat="45.4639363" lon="8.7840879"><ele>118.99999999999999</ele><time>2026-04-12T15:56:27.93Z</time></trkpt><trkpt lat="45.464012" lon="8.7840609"><ele>119.0</ele><time>2026-04-12T15:56:28.93Z</time></trkpt><trkpt lat="45.4640862" lon="8.7840286"><ele>119.0</ele><time>2026-04-12T15:56:29.931Z</time></trkpt><trkpt lat="45.4641606" lon="8.7840066"><ele>119.0</ele><time>2026-04-12T15:56:30.93Z</time></trkpt><trkpt lat="45.4642423" lon="8.7839802"><ele>118.99999999999999</ele><time>2026-04-12T15:56:31.93Z</time></trkpt><trkpt lat="45.4643214" lon="8.7839517"><ele>119.0</ele><time>2026-04-12T15:56:32.93Z</time></trkpt><trkpt lat="45.4644053" lon="8.7839262"><ele>118.99999999999999</ele><time>2026-04-12T15:56:33.93Z</time></trkpt><trkpt lat="45.4644893" lon="8.7839008"><ele>119.0</ele><time>2026-04-12T15:56:34.931Z</time></trkpt><trkpt lat="45.4645708" lon="8.7838644"><ele>119.0</ele><time>2026-04-12T15:56:35.93Z</time></trkpt><trkpt lat="45.464651" lon="8.7838347"><ele>119.0</ele><time>2026-04-12T15:56:36.93Z</time></trkpt><trkpt lat="45.4647433" lon="8.7838037"><ele>118.99999999999999</ele><time>2026-04-12T15:56:37.931Z</time></trkpt><trkpt lat="45.4648284" lon="8.7837655"><ele>119.0</ele><time>2026-04-12T15:56:38.931Z</time></trkpt><trkpt lat="45.4649161" lon="8.7837315"><ele>119.0</ele><time>2026-04-12T15:56:39.93Z</time></trkpt><trkpt lat="45.4650071" lon="8.7836938"><ele>119.0</ele><time>2026-04-12T15:56:40.93Z</time></trkpt><trkpt lat="45.4651048" lon="8.78366"><ele>119.0</ele><time>2026-04-12T15:56:41.932Z</time></trkpt><trkpt lat="45.4651988" lon="8.7836229"><ele>119.0</ele><time>2026-04-12T15:56:42.93Z</time></trkpt><trkpt lat="45.4652861" lon="8.7835961"><ele>119.0</ele><time>2026-04-12T15:56:43.931Z</time></trkpt><trkpt lat="45.4653707" lon="8.7835654"><ele>118.99999999999999</ele><time>2026-04-12T15:56:44.93Z</time></trkpt><trkpt lat="45.4654489" lon="8.7835356"><ele>119.0</ele><time>2026-04-12T15:56:45.93Z</time></trkpt><trkpt lat="45.4655278" lon="8.7834983"><ele>119.0</ele><time>2026-04-12T15:56:46.931Z</time></trkpt><trkpt lat="45.4656105" lon="8.7834691"><ele>119.0</ele><time>2026-04-12T15:56:47.93Z</time></trkpt><trkpt lat="45.4657023" lon="8.7834455"><ele>118.99999999999999</ele><time>2026-04-12T15:56:48.93Z</time></trkpt><trkpt lat="45.4657996" lon="8.7834222"><ele>119.0</ele><time>2026-04-12T15:56:49.93Z</time></trkpt><trkpt lat="45.4658997" lon="8.7833967"><ele>119.0</ele><time>2026-04-12T15:56:50.931Z</time></trkpt><trkpt lat="45.4660025" lon="8.7833654"><ele>119.0</ele><time>2026-04-12T15:56:51.93Z</time></trkpt><trkpt lat="45.4661027" lon="8.7833348"><ele>119.0</ele><time>2026-04-12T15:56:52.93Z</time></trkpt><trkpt lat="45.4662031" lon="8.7832936"><ele>119.0</ele><time>2026-04-12T15:56:53.93Z</time></trkpt><trkpt lat="45.4662975" lon="8.7832512"><ele>119.0</ele><time>2026-04-12T15:56:54.93Z</time></trkpt><trkpt lat="45.4663846" lon="8.7832206"><ele>118.80000000000001</ele><time>2026-04-12T15:56:55.93Z</time></trkpt><trkpt lat="45.4664715" lon="8.7831883"><ele>118.60000000000001</ele><time>2026-04-12T15:56:56.93Z</time></trkpt><trkpt lat="45.4665668" lon="8.7831452"><ele>118.4</ele><time>2026-04-12T15:56:57.931Z</time></trkpt><trkpt lat="45.4666613" lon="8.7831101"><ele>118.2</ele><time>2026-04-12T15:56:58.93Z</time></trkpt><trkpt lat="45.4667459" lon="8.7830771"><ele>118.0</ele><time>2026-04-12T15:56:59.931Z</time></trkpt><trkpt lat="45.4668194" lon="8.7830509"><ele>118.00000000000001</ele><time>2026-04-12T15:57:00.93Z</time></trkpt><trkpt lat="45.466888" lon="8.7830279"><ele>118.0</ele><time>2026-04-12T15:57:01.931Z</time></trkpt><trkpt lat="45.4669538" lon="8.7830126"><ele>118.0</ele><time>2026-04-12T15:57:02.93Z</time></trkpt><trkpt lat="45.467029" lon="8.7829954"><ele>118.0</ele><time>2026-04-12T15:57:03.93Z</time></trkpt><trkpt lat="45.4671069" lon="8.782975"><ele>118.00000000000001</ele><time>2026-04-12T15:57:04.931Z</time></trkpt><trkpt lat="45.4671885" lon="8.7829545"><ele>118.0</ele><time>2026-04-12T15:57:05.931Z</time></trkpt><trkpt lat="45.4672714" lon="8.7829355"><ele>118.00000000000001</ele><time>2026-04-12T15:57:06.931Z</time></trkpt><trkpt lat="45.4673498" lon="8.7829137"><ele>118.0</ele><time>2026-04-12T15:57:07.93Z</time></trkpt><trkpt lat="45.4674333" lon="8.7828888"><ele>118.0</ele><time>2026-04-12T15:57:08.931Z</time></trkpt><trkpt lat="45.4675149" lon="8.7828764"><ele>118.0</ele><time>2026-04-12T15:57:09.93Z</time></trkpt><trkpt lat="45.4675941" lon="8.7828613"><ele>118.00000000000001</ele><time>2026-04-12T15:57:10.931Z</time></trkpt><trkpt lat="45.4676619" lon="8.7828539"><ele>118.0</ele><time>2026-04-12T15:57:11.93Z</time></trkpt><trkpt lat="45.467726" lon="8.7828415"><ele>118.00000000000001</ele><time>2026-04-12T15:57:12.93Z</time></trkpt><trkpt lat="45.4677933" lon="8.7828262"><ele>118.0</ele><time>2026-04-12T15:57:13.931Z</time></trkpt><trkpt lat="45.4678687" lon="8.7828087"><ele>118.0</ele><time>2026-04-12T15:57:14.93Z</time></trkpt><trkpt lat="45.4679484" lon="8.7828034"><ele>118.0</ele><time>2026-04-12T15:57:15.93Z</time></trkpt><trkpt lat="45.4680277" lon="8.7828169"><ele>118.00000000000001</ele><time>2026-04-12T15:57:16.93Z</time></trkpt><trkpt lat="45.4680952" lon="8.7828496"><ele>118.0</ele><time>2026-04-12T15:57:17.93Z</time></trkpt><trkpt lat="45.4681982" lon="8.7829414"><ele>118.2</ele><time>2026-04-12T15:57:19.93Z</time></trkpt><trkpt lat="45.4682844" lon="8.7830053"><ele>118.4</ele><time>2026-04-12T15:57:21.93Z</time></trkpt><trkpt lat="45.468369" lon="8.7830131"><ele>118.60000000000001</ele><time>2026-04-12T15:57:23.93Z</time></trkpt><trkpt lat="45.4684956" lon="8.7829901"><ele>118.80000000000001</ele><time>2026-04-12T15:57:25.93Z</time></trkpt><trkpt lat="45.4685665" lon="8.7829803"><ele>119.0</ele><time>2026-04-12T15:57:26.93Z</time></trkpt><trkpt lat="45.4686414" lon="8.7829668"><ele>119.0</ele><time>2026-04-12T15:57:27.93Z</time></trkpt><trkpt lat="45.4687271" lon="8.7829523"><ele>119.0</ele><time>2026-04-12T15:57:28.93Z</time></trkpt><trkpt lat="45.4688112" lon="8.7829428"><ele>119.0</ele><time>2026-04-12T15:57:29.931Z</time></trkpt><trkpt lat="45.4690289" lon="8.782936"><ele>119.0</ele><time>2026-04-12T15:57:30.93Z</time></trkpt><trkpt lat="45.4691047" lon="8.782916"><ele>118.99999999999999</ele><time>2026-04-12T15:57:31.93Z</time></trkpt><trkpt lat="45.4691682" lon="8.7829016"><ele>119.0</ele><time>2026-04-12T15:57:32.93Z</time></trkpt><trkpt lat="45.4692601" lon="8.7828936"><ele>119.0</ele><time>2026-04-12T15:57:33.931Z</time></trkpt><trkpt lat="45.4693519" lon="8.7828838"><ele>119.0</ele><time>2026-04-12T15:57:34.931Z</time></trkpt><trkpt lat="45.4694308" lon="8.7828767"><ele>118.99999999999999</ele><time>2026-04-12T15:57:35.93Z</time></trkpt><trkpt lat="45.4695211" lon="8.7828725"><ele>119.0</ele><time>2026-04-12T15:57:37.93Z</time></trkpt><trkpt lat="45.4695981" lon="8.782805"><ele>118.0</ele><time>2026-04-12T15:57:40.931Z</time></trkpt><trkpt lat="45.4696409" lon="8.782731"><ele>117.0</ele><time>2026-04-12T15:57:43.931Z</time></trkpt><trkpt lat="45.4696272" lon="8.7822662"><ele>116.0</ele><time>2026-04-12T15:59:36.93Z</time></trkpt><trkpt lat="45.4696213" lon="8.7821551"><ele>115.99999999999999</ele><time>2026-04-12T15:59:37.93Z</time></trkpt><trkpt lat="45.4696129" lon="8.7820406"><ele>116.0</ele><time>2026-04-12T15:59:38.93Z</time></trkpt><trkpt lat="45.4696058" lon="8.7819232"><ele>116.0</ele><time>2026-04-12T15:59:39.93Z</time></trkpt><trkpt lat="45.4695959" lon="8.7818032"><ele>116.0</ele><time>2026-04-12T15:59:40.93Z</time></trkpt><trkpt lat="45.4695864" lon="8.7816784"><ele>115.99999999999999</ele><time>2026-04-12T15:59:41.93Z</time></trkpt><trkpt lat="45.469575" lon="8.7815511"><ele>116.0</ele><time>2026-04-12T15:59:42.93Z</time></trkpt><trkpt lat="45.4695666" lon="8.7814257"><ele>115.83333333333333</ele><time>2026-04-12T15:59:43.93Z</time></trkpt><trkpt lat="45.4695598" lon="8.7812989"><ele>115.66666666666666</ele><time>2026-04-12T15:59:44.93Z</time></trkpt><trkpt lat="45.4695505" lon="8.7811803"><ele>115.5</ele><time>2026-04-12T15:59:45.93Z</time></trkpt><trkpt lat="45.4695424" lon="8.7810696"><ele>115.33333333333334</ele><time>2026-04-12T15:59:46.93Z</time></trkpt><trkpt lat="45.4695346" lon="8.7809716"><ele>115.16666666666667</ele><time>2026-04-12T15:59:47.93Z</time></trkpt><trkpt lat="45.469526" lon="8.7808174"><ele>115.0</ele><time>2026-04-12T15:59:49.93Z</time></trkpt><trkpt lat="45.4695596" lon="8.7807005"><ele>115.4</ele><time>2026-04-12T15:59:51.93Z</time></trkpt><trkpt lat="45.4696446" lon="8.7806434"><ele>115.8</ele><time>2026-04-12T15:59:53.931Z</time></trkpt><trkpt lat="45.4697844" lon="8.780601"><ele>116.19999999999999</ele><time>2026-04-12T15:59:55.93Z</time></trkpt><trkpt lat="45.4698649" lon="8.7805764"><ele>116.6</ele><time>2026-04-12T15:59:56.93Z</time></trkpt><trkpt lat="45.4699364" lon="8.7805488"><ele>117.0</ele><time>2026-04-12T15:59:57.93Z</time></trkpt><trkpt lat="45.4700029" lon="8.7805219"><ele>117.0</ele><time>2026-04-12T15:59:58.93Z</time></trkpt><trkpt lat="45.4701055" lon="8.7804851"><ele>116.99999999999999</ele><time>2026-04-12T16:00:00.93Z</time></trkpt><trkpt lat="45.4701766" lon="8.7805321"><ele>116.99999999999999</ele><time>2026-04-12T16:00:02.93Z</time></trkpt><trkpt lat="45.4701901" lon="8.7806507"><ele>117.0</ele><time>2026-04-12T16:00:04.931Z</time></trkpt><trkpt lat="45.470159" lon="8.7808417"><ele>117.0</ele><time>2026-04-12T16:00:06.93Z</time></trkpt><trkpt lat="45.4701444" lon="8.7809585"><ele>116.83333333333333</ele><time>2026-04-12T16:00:07.93Z</time></trkpt><trkpt lat="45.4701363" lon="8.7810759"><ele>116.66666666666666</ele><time>2026-04-12T16:00:08.93Z</time></trkpt><trkpt lat="45.4701278" lon="8.7811866"><ele>116.5</ele><time>2026-04-12T16:00:09.93Z</time></trkpt><trkpt lat="45.4701223" lon="8.7812804"><ele>116.33333333333333</ele><time>2026-04-12T16:00:10.931Z</time></trkpt><trkpt lat="45.4701183" lon="8.7814391"><ele>116.16666666666666</ele><time>2026-04-12T16:00:12.931Z</time></trkpt><trkpt lat="45.4701528" lon="8.7815312"><ele>116.0</ele><time>2026-04-12T16:00:14.93Z</time></trkpt><trkpt lat="45.4702379" lon="8.7815724"><ele>115.99999999999999</ele><time>2026-04-12T16:00:16.93Z</time></trkpt><trkpt lat="45.4703568" lon="8.781582"><ele>116.0</ele><time>2026-04-12T16:00:18.93Z</time></trkpt><trkpt lat="45.4704234" lon="8.7815896"><ele>116.0</ele><time>2026-04-12T16:00:19.931Z</time></trkpt><trkpt lat="45.4704956" lon="8.7815942"><ele>116.0</ele><time>2026-04-12T16:00:20.931Z</time></trkpt><trkpt lat="45.4705697" lon="8.7816017"><ele>115.99999999999999</ele><time>2026-04-12T16:00:21.93Z</time></trkpt><trkpt lat="45.4706498" lon="8.7816109"><ele>116.0</ele><time>2026-04-12T16:00:22.93Z</time></trkpt><trkpt lat="45.4707291" lon="8.7816157"><ele>116.0</ele><time>2026-04-12T16:00:23.931Z</time></trkpt><trkpt lat="45.4708079" lon="8.7816257"><ele>116.0</ele><time>2026-04-12T16:00:24.93Z</time></trkpt><trkpt lat="45.4708973" lon="8.7816334"><ele>116.0</ele><time>2026-04-12T16:00:25.93Z</time></trkpt><trkpt lat="45.4709906" lon="8.7816371"><ele>116.0</ele><time>2026-04-12T16:00:26.93Z</time></trkpt><trkpt lat="45.4710865" lon="8.7816395"><ele>116.0</ele><time>2026-04-12T16:00:27.929Z</time></trkpt><trkpt lat="45.4711884" lon="8.7816462"><ele>116.0</ele><time>2026-04-12T16:00:28.931Z</time></trkpt><trkpt lat="45.4712882" lon="8.7816522"><ele>116.0</ele><time>2026-04-12T16:00:29.929Z</time></trkpt><trkpt lat="45.4713914" lon="8.7816586"><ele>116.0</ele><time>2026-04-12T16:00:30.931Z</time></trkpt><trkpt lat="45.4714859" lon="8.7816641"><ele>116.0</ele><time>2026-04-12T16:00:31.93Z</time></trkpt><trkpt lat="45.4715694" lon="8.7816726"><ele>116.0</ele><time>2026-04-12T16:00:32.93Z</time></trkpt><trkpt lat="45.4716546" lon="8.7816788"><ele>115.99999999999999</ele><time>2026-04-12T16:00:33.93Z</time></trkpt><trkpt lat="45.471734" lon="8.7816871"><ele>116.0</ele><time>2026-04-12T16:00:34.93Z</time></trkpt><trkpt lat="45.4718138" lon="8.7816954"><ele>116.0</ele><time>2026-04-12T16:00:35.93Z</time></trkpt><trkpt lat="45.471894" lon="8.781702"><ele>116.0</ele><time>2026-04-12T16:00:36.93Z</time></trkpt><trkpt lat="45.4719727" lon="8.7817102"><ele>115.99999999999999</ele><time>2026-04-12T16:00:37.93Z</time></trkpt><trkpt lat="45.4720529" lon="8.7817133"><ele>116.0</ele><time>2026-04-12T16:00:38.93Z</time></trkpt><trkpt lat="45.4721375" lon="8.7817196"><ele>115.83333333333333</ele><time>2026-04-12T16:00:39.93Z</time></trkpt><trkpt lat="45.4722151" lon="8.7817211"><ele>115.66666666666666</ele><time>2026-04-12T16:00:40.93Z</time></trkpt><trkpt lat="45.4722964" lon="8.7817186"><ele>115.5</ele><time>2026-04-12T16:00:41.93Z</time></trkpt><trkpt lat="45.4723708" lon="8.7817227"><ele>115.33333333333334</ele><time>2026-04-12T16:00:42.929Z</time></trkpt><trkpt lat="45.4724419" lon="8.7817272"><ele>115.16666666666667</ele><time>2026-04-12T16:00:43.93Z</time></trkpt><trkpt lat="45.4725073" lon="8.7817292"><ele>115.0</ele><time>2026-04-12T16:00:44.93Z</time></trkpt><trkpt lat="45.4726202" lon="8.7817377"><ele>115.0</ele><time>2026-04-12T16:00:46.929Z</time></trkpt><trkpt lat="45.4727068" lon="8.7817461"><ele>115.0</ele><time>2026-04-12T16:00:48.929Z</time></trkpt><trkpt lat="45.4727692" lon="8.7812749"><ele>115.0</ele><time>2026-04-12T16:10:37.929Z</time></trkpt><trkpt lat="45.4727699" lon="8.7811201"><ele>115.0</ele><time>2026-04-12T16:10:39.929Z</time></trkpt><trkpt lat="45.4727464" lon="8.7809701"><ele>115.0</ele><time>2026-04-12T16:10:41.929Z</time></trkpt><trkpt lat="45.4726803" lon="8.7808089"><ele>115.0</ele><time>2026-04-12T16:10:43.93Z</time></trkpt><trkpt lat="45.4726419" lon="8.7807117"><ele>115.0</ele><time>2026-04-12T16:10:44.929Z</time></trkpt><trkpt lat="45.4725992" lon="8.780605"><ele>115.0</ele><time>2026-04-12T16:10:45.929Z</time></trkpt><trkpt lat="45.4725533" lon="8.7804867"><ele>115.0</ele><time>2026-04-12T16:10:46.929Z</time></trkpt><trkpt lat="45.4725052" lon="8.7803682"><ele>115.0</ele><time>2026-04-12T16:10:47.929Z</time></trkpt><trkpt lat="45.4724569" lon="8.7802499"><ele>115.0</ele><time>2026-04-12T16:10:48.929Z</time></trkpt><trkpt lat="45.4724134" lon="8.7801293"><ele>115.0</ele><time>2026-04-12T16:10:49.929Z</time></trkpt><trkpt lat="45.4723698" lon="8.7800078"><ele>115.0</ele><time>2026-04-12T16:10:50.929Z</time></trkpt><trkpt lat="45.4723238" lon="8.7798945"><ele>115.00000000000001</ele><time>2026-04-12T16:10:51.929Z</time></trkpt><trkpt lat="45.4722805" lon="8.7797774"><ele>115.0</ele><time>2026-04-12T16:10:52.929Z</time></trkpt><trkpt lat="45.4722384" lon="8.7796697"><ele>115.0</ele><time>2026-04-12T16:10:53.93Z</time></trkpt><trkpt lat="45.4721962" lon="8.7795855"><ele>115.0</ele><time>2026-04-12T16:10:54.929Z</time></trkpt><trkpt lat="45.4721591" lon="8.7795112"><ele>115.00000000000001</ele><time>2026-04-12T16:10:55.929Z</time></trkpt><trkpt lat="45.4721063" lon="8.7793818"><ele>115.0</ele><time>2026-04-12T16:10:57.929Z</time></trkpt><trkpt lat="45.4720767" lon="8.7792516"><ele>115.50000000000001</ele><time>2026-04-12T16:10:59.929Z</time></trkpt><trkpt lat="45.4721068" lon="8.7791472"><ele>116.0</ele><time>2026-04-12T16:11:01.93Z</time></trkpt><trkpt lat="45.4721538" lon="8.7790552"><ele>116.5</ele><time>2026-04-12T16:11:03.929Z</time></trkpt><trkpt lat="45.4722109" lon="8.7789553"><ele>117.0</ele><time>2026-04-12T16:11:05.929Z</time></trkpt><trkpt lat="45.4722454" lon="8.7788482"><ele>117.50000000000001</ele><time>2026-04-12T16:11:07.929Z</time></trkpt><trkpt lat="45.4722756" lon="8.7787383"><ele>118.0</ele><time>2026-04-12T16:11:09.929Z</time></trkpt><trkpt lat="45.4723019" lon="8.778631"><ele>117.83333333333334</ele><time>2026-04-12T16:11:11.929Z</time></trkpt><trkpt lat="45.4723445" lon="8.778457"><ele>117.66666666666667</ele><time>2026-04-12T16:11:13.929Z</time></trkpt><trkpt lat="45.4723676" lon="8.7783553"><ele>117.5</ele><time>2026-04-12T16:11:14.93Z</time></trkpt><trkpt lat="45.4723949" lon="8.7782569"><ele>117.33333333333334</ele><time>2026-04-12T16:11:15.929Z</time></trkpt><trkpt lat="45.4724181" lon="8.7781616"><ele>117.16666666666667</ele><time>2026-04-12T16:11:16.93Z</time></trkpt><trkpt lat="45.4724429" lon="8.7780612"><ele>117.0</ele><time>2026-04-12T16:11:17.929Z</time></trkpt><trkpt lat="45.4724694" lon="8.7779501"><ele>117.0</ele><time>2026-04-12T16:11:18.93Z</time></trkpt><trkpt lat="45.4724947" lon="8.7778361"><ele>117.0</ele><time>2026-04-12T16:11:19.929Z</time></trkpt><trkpt lat="45.4725236" lon="8.7777154"><ele>117.0</ele><time>2026-04-12T16:11:20.93Z</time></trkpt><trkpt lat="45.4725562" lon="8.7775918"><ele>117.0</ele><time>2026-04-12T16:11:21.929Z</time></trkpt><trkpt lat="45.4725891" lon="8.777468"><ele>117.0</ele><time>2026-04-12T16:11:22.93Z</time></trkpt><trkpt lat="45.4726189" lon="8.777348"><ele>117.0</ele><time>2026-04-12T16:11:23.929Z</time></trkpt><trkpt lat="45.4726447" lon="8.777234"><ele>116.83333333333333</ele><time>2026-04-12T16:11:24.929Z</time></trkpt><trkpt lat="45.4726697" lon="8.7771332"><ele>116.66666666666666</ele><time>2026-04-12T16:11:25.929Z</time></trkpt><trkpt lat="45.4726974" lon="8.7770431"><ele>116.5</ele><time>2026-04-12T16:11:26.929Z</time></trkpt><trkpt lat="45.4727397" lon="8.7769724"><ele>116.33333333333333</ele><time>2026-04-12T16:11:27.928Z</time></trkpt><trkpt lat="45.4728523" lon="8.7768896"><ele>116.16666666666666</ele><time>2026-04-12T16:11:29.929Z</time></trkpt><trkpt lat="45.4729245" lon="8.7768447"><ele>116.0</ele><time>2026-04-12T16:11:30.929Z</time></trkpt><trkpt lat="45.4730002" lon="8.7767965"><ele>116.33333333333333</ele><time>2026-04-12T16:11:31.929Z</time></trkpt><trkpt lat="45.4730736" lon="8.7767411"><ele>116.66666666666666</ele><time>2026-04-12T16:11:32.93Z</time></trkpt><trkpt lat="45.4731457" lon="8.7766935"><ele>117.0</ele><time>2026-04-12T16:11:33.929Z</time></trkpt><trkpt lat="45.473222" lon="8.7766418"><ele>117.33333333333334</ele><time>2026-04-12T16:11:34.929Z</time></trkpt><trkpt lat="45.4732995" lon="8.7765943"><ele>117.66666666666667</ele><time>2026-04-12T16:11:35.929Z</time></trkpt><trkpt lat="45.4733762" lon="8.7765544"><ele>118.0</ele><time>2026-04-12T16:11:36.929Z</time></trkpt><trkpt lat="45.4734497" lon="8.7765215"><ele>118.0</ele><time>2026-04-12T16:11:37.929Z</time></trkpt><trkpt lat="45.4735169" lon="8.7764898"><ele>118.00000000000001</ele><time>2026-04-12T16:11:38.929Z</time></trkpt><trkpt lat="45.4735788" lon="8.7764677"><ele>118.00000000000001</ele><time>2026-04-12T16:11:39.928Z</time></trkpt><trkpt lat="45.4736815" lon="8.7764299"><ele>118.0</ele><time>2026-04-12T16:11:41.929Z</time></trkpt><trkpt lat="45.4737866" lon="8.7763909"><ele>118.0</ele><time>2026-04-12T16:11:43.929Z</time></trkpt><trkpt lat="45.4738986" lon="8.776342"><ele>117.80000000000001</ele><time>2026-04-12T16:11:45.929Z</time></trkpt><trkpt lat="45.4739937" lon="8.7763085"><ele>117.60000000000001</ele><time>2026-04-12T16:11:47.929Z</time></trkpt><trkpt lat="45.4740769" lon="8.7762741"><ele>117.39999999999999</ele><time>2026-04-12T16:11:49.929Z</time></trkpt><trkpt lat="45.4741424" lon="8.7762473"><ele>117.19999999999999</ele><time>2026-04-12T16:11:51.929Z</time></trkpt><trkpt lat="45.4742253" lon="8.7762149"><ele>117.0</ele><time>2026-04-12T16:11:53.929Z</time></trkpt><trkpt lat="45.474349" lon="8.776168"><ele>117.0</ele><time>2026-04-12T16:11:55.929Z</time></trkpt><trkpt lat="45.4744125" lon="8.776149"><ele>116.99999999999999</ele><time>2026-04-12T16:11:56.93Z</time></trkpt><trkpt lat="45.474515" lon="8.7761114"><ele>116.99999999999999</ele><time>2026-04-12T16:11:58.929Z</time></trkpt><trkpt lat="45.4746215" lon="8.776062"><ele>117.0</ele><time>2026-04-12T16:12:00.93Z</time></trkpt><trkpt lat="45.4747559" lon="8.7759966"><ele>117.0</ele><time>2026-04-12T16:12:02.929Z</time></trkpt><trkpt lat="45.4748264" lon="8.7759679"><ele>117.83333333333333</ele><time>2026-04-12T16:12:03.929Z</time></trkpt><trkpt lat="45.4749067" lon="8.7759371"><ele>118.66666666666666</ele><time>2026-04-12T16:12:04.929Z</time></trkpt><trkpt lat="45.4749884" lon="8.7759039"><ele>119.5</ele><time>2026-04-12T16:12:05.93Z</time></trkpt><trkpt lat="45.4750725" lon="8.7758723"><ele>120.33333333333333</ele><time>2026-04-12T16:12:06.929Z</time></trkpt><trkpt lat="45.4751505" lon="8.7758466"><ele>121.16666666666666</ele><time>2026-04-12T16:12:07.93Z</time></trkpt><trkpt lat="45.4752289" lon="8.7758117"><ele>122.0</ele><time>2026-04-12T16:12:08.929Z</time></trkpt><trkpt lat="45.4752986" lon="8.7757812"><ele>122.0</ele><time>2026-04-12T16:12:09.928Z</time></trkpt><trkpt lat="45.4753652" lon="8.7757575"><ele>121.99999999999999</ele><time>2026-04-12T16:12:10.93Z</time></trkpt><trkpt lat="45.4754896" lon="8.7757579"><ele>121.99999999999999</ele><time>2026-04-12T16:12:12.929Z</time></trkpt><trkpt lat="45.4755594" lon="8.7757714"><ele>122.0</ele><time>2026-04-12T16:12:13.929Z</time></trkpt><trkpt lat="45.4756881" lon="8.775797"><ele>122.0</ele><time>2026-04-12T16:12:15.928Z</time></trkpt><trkpt lat="45.4757581" lon="8.7757742"><ele>121.66666666666666</ele><time>2026-04-12T16:12:16.929Z</time></trkpt><trkpt lat="45.4758368" lon="8.7757401"><ele>121.33333333333333</ele><time>2026-04-12T16:12:17.93Z</time></trkpt><trkpt lat="45.4759167" lon="8.7757015"><ele>121.0</ele><time>2026-04-12T16:12:18.929Z</time></trkpt><trkpt lat="45.4759946" lon="8.7756571"><ele>120.66666666666666</ele><time>2026-04-12T16:12:19.929Z</time></trkpt><trkpt lat="45.47608" lon="8.7756023"><ele>120.33333333333333</ele><time>2026-04-12T16:12:20.929Z</time></trkpt><trkpt lat="45.4761557" lon="8.7755542"><ele>120.0</ele><time>2026-04-12T16:12:21.93Z</time></trkpt><trkpt lat="45.476235" lon="8.7755046"><ele>119.5</ele><time>2026-04-12T16:12:22.929Z</time></trkpt><trkpt lat="45.4763055" lon="8.7754516"><ele>119.0</ele><time>2026-04-12T16:12:23.929Z</time></trkpt><trkpt lat="45.4763783" lon="8.775406"><ele>118.5</ele><time>2026-04-12T16:12:24.93Z</time></trkpt><trkpt lat="45.4764569" lon="8.7753609"><ele>118.0</ele><time>2026-04-12T16:12:25.93Z</time></trkpt><trkpt lat="45.4765369" lon="8.77532"><ele>117.5</ele><time>2026-04-12T16:12:26.928Z</time></trkpt><trkpt lat="45.476623" lon="8.7752668"><ele>117.0</ele><time>2026-04-12T16:12:27.929Z</time></trkpt><trkpt lat="45.4767008" lon="8.77522"><ele>117.39999999999999</ele><time>2026-04-12T16:12:28.929Z</time></trkpt><trkpt lat="45.4767762" lon="8.7751623"><ele>117.79999999999998</ele><time>2026-04-12T16:12:29.931Z</time></trkpt><trkpt lat="45.4768558" lon="8.7751013"><ele>118.2</ele><time>2026-04-12T16:12:30.929Z</time></trkpt><trkpt lat="45.4769279" lon="8.7750351"><ele>118.6</ele><time>2026-04-12T16:12:31.929Z</time></trkpt><trkpt lat="45.4770085" lon="8.7749684"><ele>119.0</ele><time>2026-04-12T16:12:32.929Z</time></trkpt><trkpt lat="45.4771041" lon="8.7748993"><ele>119.0</ele><time>2026-04-12T16:12:33.929Z</time></trkpt><trkpt lat="45.4771969" lon="8.7748389"><ele>119.0</ele><time>2026-04-12T16:12:34.93Z</time></trkpt><trkpt lat="45.4772827" lon="8.7747811"><ele>119.0</ele><time>2026-04-12T16:12:35.929Z</time></trkpt><trkpt lat="45.4773762" lon="8.7747026"><ele>119.0</ele><time>2026-04-12T16:12:36.928Z</time></trkpt><trkpt lat="45.4774669" lon="8.7746511"><ele>119.0</ele><time>2026-04-12T16:12:37.929Z</time></trkpt><trkpt lat="45.4775426" lon="8.7745921"><ele>119.0</ele><time>2026-04-12T16:12:38.929Z</time></trkpt><trkpt lat="45.4776121" lon="8.7745327"><ele>119.0</ele><time>2026-04-12T16:12:39.929Z</time></trkpt><trkpt lat="45.4777061" lon="8.7744236"><ele>119.0</ele><time>2026-04-12T16:12:41.929Z</time></trkpt><trkpt lat="45.4777992" lon="8.7743072"><ele>119.0</ele><time>2026-04-12T16:12:43.929Z</time></trkpt><trkpt lat="45.4778677" lon="8.774233"><ele>119.0</ele><time>2026-04-12T16:12:44.929Z</time></trkpt><trkpt lat="45.4779337" lon="8.7741693"><ele>119.16666666666666</ele><time>2026-04-12T16:12:45.93Z</time></trkpt><trkpt lat="45.4780012" lon="8.7741046"><ele>119.33333333333333</ele><time>2026-04-12T16:12:46.928Z</time></trkpt><trkpt lat="45.4780735" lon="8.7740287"><ele>119.5</ele><time>2026-04-12T16:12:47.929Z</time></trkpt><trkpt lat="45.4781438" lon="8.7739577"><ele>119.66666666666666</ele><time>2026-04-12T16:12:48.929Z</time></trkpt><trkpt lat="45.4782139" lon="8.7738778"><ele>119.83333333333333</ele><time>2026-04-12T16:12:49.93Z</time></trkpt><trkpt lat="45.4782793" lon="8.7738027"><ele>120.0</ele><time>2026-04-12T16:12:50.929Z</time></trkpt><trkpt lat="45.4783353" lon="8.7737299"><ele>120.0</ele><time>2026-04-12T16:12:51.929Z</time></trkpt><trkpt lat="45.4783868" lon="8.7736632"><ele>120.0</ele><time>2026-04-12T16:12:52.929Z</time></trkpt><trkpt lat="45.4784492" lon="8.7735888"><ele>120.0</ele><time>2026-04-12T16:12:53.928Z</time></trkpt><trkpt lat="45.478506" lon="8.7735148"><ele>120.0</ele><time>2026-04-12T16:12:54.928Z</time></trkpt><trkpt lat="45.4785494" lon="8.7734422"><ele>120.0</ele><time>2026-04-12T16:12:55.928Z</time></trkpt><trkpt lat="45.478571" lon="8.7732942"><ele>120.0</ele><time>2026-04-12T16:12:57.929Z</time></trkpt><trkpt lat="45.4785653" lon="8.7731924"><ele>120.16666666666667</ele><time>2026-04-12T16:12:58.929Z</time></trkpt><trkpt lat="45.4785578" lon="8.7730288"><ele>120.33333333333334</ele><time>2026-04-12T16:13:00.929Z</time></trkpt><trkpt lat="45.4785331" lon="8.7728721"><ele>120.5</ele><time>2026-04-12T16:13:02.929Z</time></trkpt><trkpt lat="45.4785008" lon="8.7727894"><ele>120.66666666666667</ele><time>2026-04-12T16:13:03.928Z</time></trkpt><trkpt lat="45.4784652" lon="8.7726924"><ele>120.83333333333334</ele><time>2026-04-12T16:13:04.928Z</time></trkpt><trkpt lat="45.4784281" lon="8.7725979"><ele>121.0</ele><time>2026-04-12T16:13:05.929Z</time></trkpt><trkpt lat="45.4783804" lon="8.7724968"><ele>121.00000000000001</ele><time>2026-04-12T16:13:06.929Z</time></trkpt><trkpt lat="45.4783345" lon="8.7724045"><ele>121.0</ele><time>2026-04-12T16:13:07.928Z</time></trkpt><trkpt lat="45.4782864" lon="8.7723104"><ele>121.0</ele><time>2026-04-12T16:13:08.929Z</time></trkpt><trkpt lat="45.4782423" lon="8.7722139"><ele>121.0</ele><time>2026-04-12T16:13:09.93Z</time></trkpt><trkpt lat="45.4781943" lon="8.7721148"><ele>121.00000000000001</ele><time>2026-04-12T16:13:10.929Z</time></trkpt><trkpt lat="45.4781464" lon="8.7720131"><ele>121.0</ele><time>2026-04-12T16:13:11.929Z</time></trkpt><trkpt lat="45.4781056" lon="8.7719236"><ele>120.83333333333334</ele><time>2026-04-12T16:13:12.93Z</time></trkpt><trkpt lat="45.478061" lon="8.7718366"><ele>120.66666666666667</ele><time>2026-04-12T16:13:13.929Z</time></trkpt><trkpt lat="45.478013" lon="8.7717493"><ele>120.5</ele><time>2026-04-12T16:13:14.929Z</time></trkpt><trkpt lat="45.4779654" lon="8.771661"><ele>120.33333333333334</ele><time>2026-04-12T16:13:15.929Z</time></trkpt><trkpt lat="45.4779196" lon="8.7715729"><ele>120.16666666666667</ele><time>2026-04-12T16:13:16.93Z</time></trkpt><trkpt lat="45.4778718" lon="8.77148"><ele>120.0</ele><time>2026-04-12T16:13:17.928Z</time></trkpt><trkpt lat="45.4778238" lon="8.7713971"><ele>119.83333333333333</ele><time>2026-04-12T16:13:18.928Z</time></trkpt><trkpt lat="45.4777764" lon="8.7713161"><ele>119.66666666666666</ele><time>2026-04-12T16:13:19.929Z</time></trkpt><trkpt lat="45.4777231" lon="8.7712463"><ele>119.5</ele><time>2026-04-12T16:13:20.928Z</time></trkpt><trkpt lat="45.477666" lon="8.7711811"><ele>119.33333333333333</ele><time>2026-04-12T16:13:21.928Z</time></trkpt><trkpt lat="45.4776077" lon="8.7711171"><ele>119.16666666666666</ele><time>2026-04-12T16:13:22.929Z</time></trkpt><trkpt lat="45.4775453" lon="8.7710577"><ele>119.0</ele><time>2026-04-12T16:13:23.929Z</time></trkpt><trkpt lat="45.4774749" lon="8.770996"><ele>118.99999999999999</ele><time>2026-04-12T16:13:24.929Z</time></trkpt><trkpt lat="45.4774035" lon="8.7709388"><ele>119.0</ele><time>2026-04-12T16:13:25.93Z</time></trkpt><trkpt lat="45.4773204" lon="8.7708812"><ele>119.0</ele><time>2026-04-12T16:13:26.929Z</time></trkpt><trkpt lat="45.4772388" lon="8.7708223"><ele>119.0</ele><time>2026-04-12T16:13:27.929Z</time></trkpt><trkpt lat="45.4771629" lon="8.7707667"><ele>118.99999999999999</ele><time>2026-04-12T16:13:28.93Z</time></trkpt><trkpt lat="45.4770831" lon="8.7707092"><ele>119.0</ele><time>2026-04-12T16:13:29.929Z</time></trkpt><trkpt lat="45.477003" lon="8.7706497"><ele>119.49999999999999</ele><time>2026-04-12T16:13:30.929Z</time></trkpt><trkpt lat="45.4769206" lon="8.7705875"><ele>120.0</ele><time>2026-04-12T16:13:31.929Z</time></trkpt><trkpt lat="45.4768444" lon="8.7705275"><ele>120.5</ele><time>2026-04-12T16:13:32.929Z</time></trkpt><trkpt lat="45.4767768" lon="8.770471"><ele>121.0</ele><time>2026-04-12T16:13:33.93Z</time></trkpt><trkpt lat="45.4767106" lon="8.7704186"><ele>121.49999999999999</ele><time>2026-04-12T16:13:34.928Z</time></trkpt><trkpt lat="45.4766445" lon="8.7703655"><ele>122.0</ele><time>2026-04-12T16:13:35.929Z</time></trkpt><trkpt lat="45.4765805" lon="8.7703078"><ele>122.0</ele><time>2026-04-12T16:13:36.929Z</time></trkpt><trkpt lat="45.4765011" lon="8.7702553"><ele>121.99999999999999</ele><time>2026-04-12T16:13:37.929Z</time></trkpt><trkpt lat="45.4764139" lon="8.770206"><ele>121.99999999999999</ele><time>2026-04-12T16:13:38.928Z</time></trkpt><trkpt lat="45.4763232" lon="8.7701571"><ele>122.0</ele><time>2026-04-12T16:13:39.93Z</time></trkpt><trkpt lat="45.4762306" lon="8.7701113"><ele>122.0</ele><time>2026-04-12T16:13:40.928Z</time></trkpt><trkpt lat="45.4761499" lon="8.7700695"><ele>121.49999999999999</ele><time>2026-04-12T16:13:41.928Z</time></trkpt><trkpt lat="45.4760817" lon="8.7700164"><ele>121.0</ele><time>2026-04-12T16:13:42.929Z</time></trkpt><trkpt lat="45.4760253" lon="8.769947"><ele>120.5</ele><time>2026-04-12T16:13:43.928Z</time></trkpt><trkpt lat="45.4759813" lon="8.7698522"><ele>120.0</ele><time>2026-04-12T16:13:44.929Z</time></trkpt><trkpt lat="45.4759408" lon="8.7697423"><ele>119.49999999999999</ele><time>2026-04-12T16:13:45.929Z</time></trkpt><trkpt lat="45.4758931" lon="8.7696256"><ele>119.0</ele><time>2026-04-12T16:13:46.929Z</time></trkpt><trkpt lat="45.4758377" lon="8.7694982"><ele>119.0</ele><time>2026-04-12T16:13:47.928Z</time></trkpt><trkpt lat="45.4757736" lon="8.7693637"><ele>119.0</ele><time>2026-04-12T16:13:48.929Z</time></trkpt><trkpt lat="45.4757112" lon="8.7692321"><ele>119.0</ele><time>2026-04-12T16:13:49.93Z</time></trkpt><trkpt lat="45.4756567" lon="8.7690991"><ele>119.0</ele><time>2026-04-12T16:13:50.929Z</time></trkpt><trkpt lat="45.4756065" lon="8.768964"><ele>119.0</ele><time>2026-04-12T16:13:51.929Z</time></trkpt><trkpt lat="45.4755594" lon="8.7688148"><ele>119.0</ele><time>2026-04-12T16:13:52.929Z</time></trkpt><trkpt lat="45.4755137" lon="8.7686599"><ele>119.0</ele><time>2026-04-12T16:13:53.929Z</time></trkpt><trkpt lat="45.475466" lon="8.7685132"><ele>119.0</ele><time>2026-04-12T16:13:54.929Z</time></trkpt><trkpt lat="45.4754221" lon="8.7683715"><ele>119.0</ele><time>2026-04-12T16:13:55.929Z</time></trkpt><trkpt lat="45.4753879" lon="8.7682399"><ele>119.0</ele><time>2026-04-12T16:13:56.929Z</time></trkpt><trkpt lat="45.4753486" lon="8.7681102"><ele>119.0</ele><time>2026-04-12T16:13:57.929Z</time></trkpt><trkpt lat="45.4753064" lon="8.7679904"><ele>119.0</ele><time>2026-04-12T16:13:58.929Z</time></trkpt><trkpt lat="45.4752556" lon="8.7678832"><ele>119.0</ele><time>2026-04-12T16:13:59.929Z</time></trkpt><trkpt lat="45.4752021" lon="8.7677888"><ele>119.0</ele><time>2026-04-12T16:14:00.928Z</time></trkpt><trkpt lat="45.4751359" lon="8.7677031"><ele>119.0</ele><time>2026-04-12T16:14:01.928Z</time></trkpt><trkpt lat="45.4750589" lon="8.7676226"><ele>119.0</ele><time>2026-04-12T16:14:02.928Z</time></trkpt><trkpt lat="45.4749712" lon="8.7675449"><ele>119.0</ele><time>2026-04-12T16:14:03.93Z</time></trkpt><trkpt lat="45.4748797" lon="8.7674737"><ele>119.0</ele><time>2026-04-12T16:14:04.928Z</time></trkpt><trkpt lat="45.4747836" lon="8.7673954"><ele>119.0</ele><time>2026-04-12T16:14:05.929Z</time></trkpt><trkpt lat="45.4746931" lon="8.7673275"><ele>119.0</ele><time>2026-04-12T16:14:06.929Z</time></trkpt><trkpt lat="45.4746037" lon="8.767262"><ele>118.99999999999999</ele><time>2026-04-12T16:14:07.929Z</time></trkpt><trkpt lat="45.4745218" lon="8.7671985"><ele>119.0</ele><time>2026-04-12T16:14:08.929Z</time></trkpt><trkpt lat="45.4744465" lon="8.7671291"><ele>119.0</ele><time>2026-04-12T16:14:09.929Z</time></trkpt><trkpt lat="45.4743791" lon="8.7670434"><ele>119.0</ele><time>2026-04-12T16:14:10.93Z</time></trkpt><trkpt lat="45.474329" lon="8.7669446"><ele>118.99999999999999</ele><time>2026-04-12T16:14:11.929Z</time></trkpt><trkpt lat="45.4742891" lon="8.7668283"><ele>119.0</ele><time>2026-04-12T16:14:12.929Z</time></trkpt><trkpt lat="45.4742602" lon="8.7666979"><ele>118.6</ele><time>2026-04-12T16:14:13.929Z</time></trkpt><trkpt lat="45.4742402" lon="8.7665637"><ele>118.2</ele><time>2026-04-12T16:14:14.93Z</time></trkpt><trkpt lat="45.4742162" lon="8.7664283"><ele>117.79999999999998</ele><time>2026-04-12T16:14:15.928Z</time></trkpt><trkpt lat="45.4741889" lon="8.7662846"><ele>117.39999999999999</ele><time>2026-04-12T16:14:16.928Z</time></trkpt><trkpt lat="45.4741625" lon="8.7661336"><ele>117.0</ele><time>2026-04-12T16:14:17.929Z</time></trkpt><trkpt lat="45.4741338" lon="8.7659743"><ele>117.0</ele><time>2026-04-12T16:14:18.929Z</time></trkpt><trkpt lat="45.4741085" lon="8.7658077"><ele>116.99999999999999</ele><time>2026-04-12T16:14:19.929Z</time></trkpt><trkpt lat="45.4740789" lon="8.7656448"><ele>116.99999999999999</ele><time>2026-04-12T16:14:20.928Z</time></trkpt><trkpt lat="45.474053" lon="8.7654978"><ele>117.0</ele><time>2026-04-12T16:14:21.93Z</time></trkpt><trkpt lat="45.4740303" lon="8.7653611"><ele>117.0</ele><time>2026-04-12T16:14:22.928Z</time></trkpt><trkpt lat="45.4740058" lon="8.7652406"><ele>117.28571428571429</ele><time>2026-04-12T16:14:23.929Z</time></trkpt><trkpt lat="45.4739859" lon="8.7651344"><ele>117.57142857142858</ele><time>2026-04-12T16:14:24.929Z</time></trkpt><trkpt lat="45.4739673" lon="8.7650386"><ele>117.85714285714286</ele><time>2026-04-12T16:14:25.928Z</time></trkpt><trkpt lat="45.4739529" lon="8.7649389"><ele>118.14285714285714</ele><time>2026-04-12T16:14:26.929Z</time></trkpt><trkpt lat="45.4739504" lon="8.7648392"><ele>118.42857142857143</ele><time>2026-04-12T16:14:27.929Z</time></trkpt><trkpt lat="45.4739611" lon="8.764745"><ele>118.71428571428572</ele><time>2026-04-12T16:14:28.929Z</time></trkpt><trkpt lat="45.4739947" lon="8.7646584"><ele>119.0</ele><time>2026-04-12T16:14:29.929Z</time></trkpt><trkpt lat="45.4740461" lon="8.7645848"><ele>119.0</ele><time>2026-04-12T16:14:30.929Z</time></trkpt><trkpt lat="45.4741119" lon="8.7645133"><ele>119.0</ele><time>2026-04-12T16:14:31.929Z</time></trkpt><trkpt lat="45.4741811" lon="8.7644307"><ele>119.0</ele><time>2026-04-12T16:14:32.929Z</time></trkpt><trkpt lat="45.4742598" lon="8.764333"><ele>119.0</ele><time>2026-04-12T16:14:33.929Z</time></trkpt><trkpt lat="45.4743358" lon="8.7642381"><ele>119.0</ele><time>2026-04-12T16:14:34.929Z</time></trkpt><trkpt lat="45.4744084" lon="8.7641428"><ele>119.4</ele><time>2026-04-12T16:14:35.93Z</time></trkpt><trkpt lat="45.4744784" lon="8.7640554"><ele>119.80000000000001</ele><time>2026-04-12T16:14:36.928Z</time></trkpt><trkpt lat="45.4745438" lon="8.7639799"><ele>120.19999999999999</ele><time>2026-04-12T16:14:37.928Z</time></trkpt><trkpt lat="45.4745975" lon="8.7639093"><ele>120.6</ele><time>2026-04-12T16:14:38.928Z</time></trkpt><trkpt lat="45.474666" lon="8.7637712"><ele>121.0</ele><time>2026-04-12T16:14:40.929Z</time></trkpt><trkpt lat="45.4746594" lon="8.7636248"><ele>121.19999999999999</ele><time>2026-04-12T16:14:42.929Z</time></trkpt><trkpt lat="45.4746063" lon="8.7634851"><ele>121.39999999999999</ele><time>2026-04-12T16:14:44.928Z</time></trkpt><trkpt lat="45.4745633" lon="8.7634028"><ele>121.6</ele><time>2026-04-12T16:14:45.929Z</time></trkpt><trkpt lat="45.4745094" lon="8.7633107"><ele>121.8</ele><time>2026-04-12T16:14:46.929Z</time></trkpt><trkpt lat="45.4744488" lon="8.7632144"><ele>122.0</ele><time>2026-04-12T16:14:47.928Z</time></trkpt><trkpt lat="45.4743841" lon="8.7631115"><ele>122.83333333333333</ele><time>2026-04-12T16:14:48.929Z</time></trkpt><trkpt lat="45.4743185" lon="8.7630032"><ele>123.66666666666666</ele><time>2026-04-12T16:14:49.929Z</time></trkpt><trkpt lat="45.4742587" lon="8.7629034"><ele>124.5</ele><time>2026-04-12T16:14:50.929Z</time></trkpt><trkpt lat="45.4742026" lon="8.7628176"><ele>125.33333333333334</ele><time>2026-04-12T16:14:51.929Z</time></trkpt><trkpt lat="45.4741493" lon="8.7627473"><ele>126.16666666666667</ele><time>2026-04-12T16:14:52.929Z</time></trkpt><trkpt lat="45.4740893" lon="8.7626927"><ele>127.0</ele><time>2026-04-12T16:14:53.929Z</time></trkpt><trkpt lat="45.4740287" lon="8.7626571"><ele>127.0</ele><time>2026-04-12T16:14:54.928Z</time></trkpt><trkpt lat="45.4739141" lon="8.762669"><ele>126.99999999999999</ele><time>2026-04-12T16:14:56.928Z</time></trkpt><trkpt lat="45.4738185" lon="8.7627587"><ele>126.99999999999999</ele><time>2026-04-12T16:14:58.929Z</time></trkpt><trkpt lat="45.4737357" lon="8.7628451"><ele>127.0</ele><time>2026-04-12T16:15:00.93Z</time></trkpt><trkpt lat="45.4736572" lon="8.7628814"><ele>127.0</ele><time>2026-04-12T16:15:02.93Z</time></trkpt><trkpt lat="45.4735833" lon="8.7628549"><ele>127.39999999999999</ele><time>2026-04-12T16:15:04.929Z</time></trkpt><trkpt lat="45.4735429" lon="8.7627698"><ele>127.79999999999998</ele><time>2026-04-12T16:15:06.929Z</time></trkpt><trkpt lat="45.4735153" lon="8.762672"><ele>128.2</ele><time>2026-04-12T16:15:08.928Z</time></trkpt><trkpt lat="45.4736096" lon="8.7624757"><ele>128.6</ele><time>2026-04-12T16:16:10.928Z</time></trkpt><trkpt lat="45.4736797" lon="8.7624171"><ele>129.0</ele><time>2026-04-12T16:16:11.928Z</time></trkpt><trkpt lat="45.4737581" lon="8.7623531"><ele>128.6</ele><time>2026-04-12T16:16:12.928Z</time></trkpt><trkpt lat="45.47384" lon="8.7622754"><ele>128.2</ele><time>2026-04-12T16:16:13.928Z</time></trkpt><trkpt lat="45.4739253" lon="8.7621812"><ele>127.79999999999998</ele><time>2026-04-12T16:16:14.928Z</time></trkpt><trkpt lat="45.4740092" lon="8.7620684"><ele>127.39999999999999</ele><time>2026-04-12T16:16:15.928Z</time></trkpt><trkpt lat="45.4740862" lon="8.7619378"><ele>127.0</ele><time>2026-04-12T16:16:16.928Z</time></trkpt><trkpt lat="45.4741613" lon="8.7617965"><ele>128.25</ele><time>2026-04-12T16:16:17.928Z</time></trkpt><trkpt lat="45.4742368" lon="8.761643"><ele>129.5</ele><time>2026-04-12T16:16:18.928Z</time></trkpt><trkpt lat="45.4743159" lon="8.7614872"><ele>130.75</ele><time>2026-04-12T16:16:19.928Z</time></trkpt><trkpt lat="45.4743993" lon="8.7613318"><ele>132.0</ele><time>2026-04-12T16:16:20.928Z</time></trkpt><trkpt lat="45.4744856" lon="8.7611707"><ele>132.0</ele><time>2026-04-12T16:16:21.928Z</time></trkpt><trkpt lat="45.4745667" lon="8.7610145"><ele>132.0</ele><time>2026-04-12T16:16:22.928Z</time></trkpt><trkpt lat="45.4746497" lon="8.7608677"><ele>132.0</ele><time>2026-04-12T16:16:23.929Z</time></trkpt><trkpt lat="45.4747355" lon="8.7607268"><ele>132.0</ele><time>2026-04-12T16:16:24.928Z</time></trkpt><trkpt lat="45.4748219" lon="8.7605924"><ele>132.0</ele><time>2026-04-12T16:16:25.928Z</time></trkpt><trkpt lat="45.4749045" lon="8.760461"><ele>132.0</ele><time>2026-04-12T16:16:26.93Z</time></trkpt><trkpt lat="45.4749715" lon="8.7603285"><ele>132.0</ele><time>2026-04-12T16:16:27.928Z</time></trkpt><trkpt lat="45.4750251" lon="8.7601969"><ele>132.0</ele><time>2026-04-12T16:16:28.928Z</time></trkpt><trkpt lat="45.4750662" lon="8.7600648"><ele>132.0</ele><time>2026-04-12T16:16:29.928Z</time></trkpt><trkpt lat="45.4750906" lon="8.7599238"><ele>134.25</ele><time>2026-04-12T16:16:30.928Z</time></trkpt><trkpt lat="45.4750916" lon="8.7597707"><ele>136.5</ele><time>2026-04-12T16:16:31.928Z</time></trkpt><trkpt lat="45.4750824" lon="8.7596065"><ele>138.75</ele><time>2026-04-12T16:16:32.928Z</time></trkpt><trkpt lat="45.4750628" lon="8.7594396"><ele>141.0</ele><time>2026-04-12T16:16:33.929Z</time></trkpt><trkpt lat="45.4750309" lon="8.759273"><ele>141.5</ele><time>2026-04-12T16:16:34.928Z</time></trkpt><trkpt lat="45.4749735" lon="8.7591218"><ele>142.0</ele><time>2026-04-12T16:16:35.929Z</time></trkpt><trkpt lat="45.474892" lon="8.7589804"><ele>142.5</ele><time>2026-04-12T16:16:36.928Z</time></trkpt><trkpt lat="45.4747944" lon="8.7588369"><ele>143.0</ele><time>2026-04-12T16:16:37.928Z</time></trkpt><trkpt lat="45.4746813" lon="8.7586904"><ele>145.33333333333331</ele><time>2026-04-12T16:16:38.928Z</time></trkpt><trkpt lat="45.4745557" lon="8.7585425"><ele>147.66666666666666</ele><time>2026-04-12T16:16:39.928Z</time></trkpt><trkpt lat="45.474423" lon="8.7583795"><ele>150.0</ele><time>2026-04-12T16:16:40.928Z</time></trkpt><trkpt lat="45.4742801" lon="8.7582025"><ele>150.0</ele><time>2026-04-12T16:16:41.928Z</time></trkpt><trkpt lat="45.4741342" lon="8.7580192"><ele>150.0</ele><time>2026-04-12T16:16:42.928Z</time></trkpt><trkpt lat="45.4739834" lon="8.7578367"><ele>150.0</ele><time>2026-04-12T16:16:43.928Z</time></trkpt><trkpt lat="45.4738316" lon="8.7576487"><ele>148.66666666666666</ele><time>2026-04-12T16:16:44.928Z</time></trkpt><trkpt lat="45.4736809" lon="8.7574611"><ele>147.33333333333331</ele><time>2026-04-12T16:16:45.928Z</time></trkpt><trkpt lat="45.4735432" lon="8.7572867"><ele>146.0</ele><time>2026-04-12T16:16:46.928Z</time></trkpt><trkpt lat="45.4734144" lon="8.7571242"><ele>146.0</ele><time>2026-04-12T16:16:47.928Z</time></trkpt><trkpt lat="45.4732942" lon="8.7569708"><ele>146.0</ele><time>2026-04-12T16:16:48.928Z</time></trkpt><trkpt lat="45.473188" lon="8.7568352"><ele>146.0</ele><time>2026-04-12T16:16:49.928Z</time></trkpt><trkpt lat="45.4731023" lon="8.7567298"><ele>146.0</ele><time>2026-04-12T16:16:50.928Z</time></trkpt><trkpt lat="45.4730359" lon="8.7566456"><ele>146.4</ele><time>2026-04-12T16:16:51.928Z</time></trkpt><trkpt lat="45.472991" lon="8.756576"><ele>146.8</ele><time>2026-04-12T16:16:52.928Z</time></trkpt><trkpt lat="45.4729632" lon="8.7564434"><ele>147.20000000000002</ele><time>2026-04-12T16:16:54.929Z</time></trkpt><trkpt lat="45.4730384" lon="8.7562704"><ele>147.6</ele><time>2026-04-12T16:16:56.928Z</time></trkpt><trkpt lat="45.4731076" lon="8.7561668"><ele>148.0</ele><time>2026-04-12T16:16:57.928Z</time></trkpt><trkpt lat="45.4731611" lon="8.756073"><ele>148.16666666666669</ele><time>2026-04-12T16:16:58.929Z</time></trkpt><trkpt lat="45.4732103" lon="8.756002"><ele>148.33333333333334</ele><time>2026-04-12T16:16:59.928Z</time></trkpt><trkpt lat="45.4732864" lon="8.7559058"><ele>148.5</ele><time>2026-04-12T16:17:01.928Z</time></trkpt><trkpt lat="45.4733826" lon="8.7558935"><ele>148.66666666666666</ele><time>2026-04-12T16:17:04.928Z</time></trkpt><trkpt lat="45.4734491" lon="8.7559305"><ele>148.83333333333331</ele><time>2026-04-12T16:17:06.929Z</time></trkpt><trkpt lat="45.4735134" lon="8.7559484"><ele>149.0</ele><time>2026-04-12T16:17:08.929Z</time></trkpt><trkpt lat="45.4736411" lon="8.7559371"><ele>149.0</ele><time>2026-04-12T16:17:10.928Z</time></trkpt><trkpt lat="45.473711" lon="8.7559409"><ele>149.0</ele><time>2026-04-12T16:17:11.928Z</time></trkpt><trkpt lat="45.4738014" lon="8.7559383"><ele>149.0</ele><time>2026-04-12T16:17:12.928Z</time></trkpt><trkpt lat="45.473891" lon="8.7559396"><ele>149.0</ele><time>2026-04-12T16:17:13.928Z</time></trkpt><trkpt lat="45.4739843" lon="8.7559398"><ele>149.0</ele><time>2026-04-12T16:17:14.928Z</time></trkpt><trkpt lat="45.4740653" lon="8.7559325"><ele>149.0</ele><time>2026-04-12T16:17:15.929Z</time></trkpt><trkpt lat="45.4741465" lon="8.7559331"><ele>149.33333333333331</ele><time>2026-04-12T16:17:16.929Z</time></trkpt><trkpt lat="45.4742241" lon="8.7559266"><ele>149.66666666666666</ele><time>2026-04-12T16:17:17.929Z</time></trkpt><trkpt lat="45.4743069" lon="8.7559249"><ele>150.0</ele><time>2026-04-12T16:17:18.928Z</time></trkpt><trkpt lat="45.4743834" lon="8.7559274"><ele>150.33333333333334</ele><time>2026-04-12T16:17:19.928Z</time></trkpt><trkpt lat="45.4744593" lon="8.7559307"><ele>150.66666666666669</ele><time>2026-04-12T16:17:20.929Z</time></trkpt><trkpt lat="45.4745332" lon="8.7559264"><ele>151.0</ele><time>2026-04-12T16:17:21.928Z</time></trkpt><trkpt lat="45.4746191" lon="8.7559244"><ele>151.0</ele><time>2026-04-12T16:17:22.93Z</time></trkpt><trkpt lat="45.4746919" lon="8.7559332"><ele>151.0</ele><time>2026-04-12T16:17:23.928Z</time></trkpt><trkpt lat="45.4747565" lon="8.7559343"><ele>151.0</ele><time>2026-04-12T16:17:24.931Z</time></trkpt><trkpt lat="45.4748204" lon="8.7558779"><ele>151.0</ele><time>2026-04-12T16:17:26.929Z</time></trkpt><trkpt lat="45.4748693" lon="8.7557548"><ele>151.0</ele><time>2026-04-12T16:17:28.928Z</time></trkpt><trkpt lat="45.4748775" lon="8.7555918"><ele>151.0</ele><time>2026-04-12T16:17:30.929Z</time></trkpt><trkpt lat="45.4748728" lon="8.7554862"><ele>151.0</ele><time>2026-04-12T16:17:31.928Z</time></trkpt><trkpt lat="45.474874" lon="8.7553784"><ele>151.0</ele><time>2026-04-12T16:17:32.929Z</time></trkpt><trkpt lat="45.4748729" lon="8.7552678"><ele>151.0</ele><time>2026-04-12T16:17:33.928Z</time></trkpt><trkpt lat="45.4748799" lon="8.7551011"><ele>151.0</ele><time>2026-04-12T16:17:35.929Z</time></trkpt><trkpt lat="45.4748997" lon="8.7550126"><ele>151.0</ele><time>2026-04-12T16:17:36.928Z</time></trkpt><trkpt lat="45.474977" lon="8.75487"><ele>150.5</ele><time>2026-04-12T16:17:38.929Z</time></trkpt><trkpt lat="45.475071" lon="8.754755"><ele>150.0</ele><time>2026-04-12T16:17:40.93Z</time></trkpt><trkpt lat="45.4751706" lon="8.7546469"><ele>149.5</ele><time>2026-04-12T16:17:42.928Z</time></trkpt><trkpt lat="45.4752621" lon="8.7545484"><ele>149.0</ele><time>2026-04-12T16:17:44.928Z</time></trkpt><trkpt lat="45.4753585" lon="8.7544456"><ele>149.0</ele><time>2026-04-12T16:17:46.929Z</time></trkpt><trkpt lat="45.4754103" lon="8.7543864"><ele>149.0</ele><time>2026-04-12T16:17:47.929Z</time></trkpt><trkpt lat="45.4754744" lon="8.7543205"><ele>149.0</ele><time>2026-04-12T16:17:48.93Z</time></trkpt><trkpt lat="45.4755324" lon="8.7542388"><ele>149.0</ele><time>2026-04-12T16:17:49.929Z</time></trkpt><trkpt lat="45.4756015" lon="8.754184"><ele>149.0</ele><time>2026-04-12T16:17:50.928Z</time></trkpt><trkpt lat="45.4756679" lon="8.7541156"><ele>149.0</ele><time>2026-04-12T16:17:51.928Z</time></trkpt><trkpt lat="45.4757357" lon="8.7540449"><ele>149.5</ele><time>2026-04-12T16:17:52.929Z</time></trkpt><trkpt lat="45.4757947" lon="8.7539741"><ele>150.0</ele><time>2026-04-12T16:17:53.929Z</time></trkpt><trkpt lat="45.4758663" lon="8.7538894"><ele>150.5</ele><time>2026-04-12T16:17:54.928Z</time></trkpt><trkpt lat="45.4759359" lon="8.7538137"><ele>151.0</ele><time>2026-04-12T16:17:55.929Z</time></trkpt><trkpt lat="45.4760057" lon="8.7537337"><ele>151.5</ele><time>2026-04-12T16:17:56.929Z</time></trkpt><trkpt lat="45.4760692" lon="8.7536659"><ele>152.0</ele><time>2026-04-12T16:17:57.928Z</time></trkpt><trkpt lat="45.4761271" lon="8.7536003"><ele>152.0</ele><time>2026-04-12T16:17:58.929Z</time></trkpt><trkpt lat="45.4762249" lon="8.7534873"><ele>152.0</ele><time>2026-04-12T16:18:00.928Z</time></trkpt><trkpt lat="45.4762842" lon="8.7534253"><ele>152.0</ele><time>2026-04-12T16:18:01.929Z</time></trkpt><trkpt lat="45.4763468" lon="8.7533508"><ele>152.0</ele><time>2026-04-12T16:18:02.928Z</time></trkpt><trkpt lat="45.4764098" lon="8.7532793"><ele>152.0</ele><time>2026-04-12T16:18:03.929Z</time></trkpt><trkpt lat="45.4764903" lon="8.7532032"><ele>152.0</ele><time>2026-04-12T16:18:04.929Z</time></trkpt><trkpt lat="45.4765484" lon="8.7531294"><ele>152.0</ele><time>2026-04-12T16:18:05.93Z</time></trkpt><trkpt lat="45.4766121" lon="8.753048"><ele>152.0</ele><time>2026-04-12T16:18:06.93Z</time></trkpt><trkpt lat="45.4766726" lon="8.7529742"><ele>152.0</ele><time>2026-04-12T16:18:07.929Z</time></trkpt><trkpt lat="45.4767386" lon="8.7528884"><ele>152.0</ele><time>2026-04-12T16:18:08.929Z</time></trkpt><trkpt lat="45.4768134" lon="8.7528095"><ele>152.0</ele><time>2026-04-12T16:18:09.93Z</time></trkpt><trkpt lat="45.4768884" lon="8.7527431"><ele>151.83333333333331</ele><time>2026-04-12T16:18:10.928Z</time></trkpt><trkpt lat="45.476957" lon="8.7526585"><ele>151.66666666666666</ele><time>2026-04-12T16:18:11.929Z</time></trkpt><trkpt lat="45.477022" lon="8.7525823"><ele>151.5</ele><time>2026-04-12T16:18:12.928Z</time></trkpt><trkpt lat="45.4770878" lon="8.7525099"><ele>151.33333333333334</ele><time>2026-04-12T16:18:13.93Z</time></trkpt><trkpt lat="45.4771454" lon="8.75245"><ele>151.16666666666669</ele><time>2026-04-12T16:18:14.928Z</time></trkpt><trkpt lat="45.4771976" lon="8.7523898"><ele>151.0</ele><time>2026-04-12T16:18:15.928Z</time></trkpt><trkpt lat="45.4772996" lon="8.7522744"><ele>150.75</ele><time>2026-04-12T16:18:17.93Z</time></trkpt><trkpt lat="45.4773668" lon="8.7521921"><ele>150.5</ele><time>2026-04-12T16:18:18.929Z</time></trkpt><trkpt lat="45.4774547" lon="8.7520872"><ele>150.25</ele><time>2026-04-12T16:18:19.929Z</time></trkpt><trkpt lat="45.4775535" lon="8.7519787"><ele>150.0</ele><time>2026-04-12T16:18:20.929Z</time></trkpt><trkpt lat="45.478512" lon="8.7509004"><ele>150.0</ele><time>2026-04-12T16:18:28.928Z</time></trkpt><trkpt lat="45.4786423" lon="8.7507481"><ele>150.0</ele><time>2026-04-12T16:18:29.928Z</time></trkpt><trkpt lat="45.478778" lon="8.7505883"><ele>150.0</ele><time>2026-04-12T16:18:30.929Z</time></trkpt><trkpt lat="45.4789126" lon="8.7504297"><ele>150.0</ele><time>2026-04-12T16:18:31.928Z</time></trkpt><trkpt lat="45.4790355" lon="8.7502832"><ele>150.0</ele><time>2026-04-12T16:18:32.929Z</time></trkpt><trkpt lat="45.4791503" lon="8.7501489"><ele>150.0</ele><time>2026-04-12T16:18:33.929Z</time></trkpt><trkpt lat="45.4792641" lon="8.750012"><ele>150.0</ele><time>2026-04-12T16:18:34.929Z</time></trkpt><trkpt lat="45.4793778" lon="8.7498676"><ele>150.0</ele><time>2026-04-12T16:18:35.929Z</time></trkpt><trkpt lat="45.4795066" lon="8.7497292"><ele>150.0</ele><time>2026-04-12T16:18:36.929Z</time></trkpt><trkpt lat="45.4796352" lon="8.7495922"><ele>150.33333333333334</ele><time>2026-04-12T16:18:37.929Z</time></trkpt><trkpt lat="45.4797576" lon="8.7494529"><ele>150.66666666666669</ele><time>2026-04-12T16:18:38.928Z</time></trkpt><trkpt lat="45.4798873" lon="8.7493068"><ele>151.0</ele><time>2026-04-12T16:18:39.929Z</time></trkpt><trkpt lat="45.480019" lon="8.7491518"><ele>150.33333333333334</ele><time>2026-04-12T16:18:40.929Z</time></trkpt><trkpt lat="45.4801548" lon="8.748999"><ele>149.66666666666666</ele><time>2026-04-12T16:18:41.928Z</time></trkpt><trkpt lat="45.4802856" lon="8.7488622"><ele>149.0</ele><time>2026-04-12T16:18:42.928Z</time></trkpt><trkpt lat="45.4805136" lon="8.748609"><ele>148.66666666666666</ele><time>2026-04-12T16:18:44.929Z</time></trkpt><trkpt lat="45.4806258" lon="8.7484761"><ele>148.33333333333334</ele><time>2026-04-12T16:18:45.928Z</time></trkpt><trkpt lat="45.4807459" lon="8.7483445"><ele>148.0</ele><time>2026-04-12T16:18:46.928Z</time></trkpt><trkpt lat="45.4808816" lon="8.7482081"><ele>148.0</ele><time>2026-04-12T16:18:47.929Z</time></trkpt><trkpt lat="45.481014" lon="8.7480576"><ele>148.0</ele><time>2026-04-12T16:18:48.929Z</time></trkpt><trkpt lat="45.4811604" lon="8.7478929"><ele>148.0</ele><time>2026-04-12T16:18:49.929Z</time></trkpt><trkpt lat="45.4813117" lon="8.7477163"><ele>148.0</ele><time>2026-04-12T16:18:50.928Z</time></trkpt><trkpt lat="45.4814681" lon="8.7475494"><ele>148.0</ele><time>2026-04-12T16:18:51.929Z</time></trkpt><trkpt lat="45.4816254" lon="8.7473704"><ele>148.0</ele><time>2026-04-12T16:18:52.929Z</time></trkpt><trkpt lat="45.4817937" lon="8.7471915"><ele>148.0</ele><time>2026-04-12T16:18:53.928Z</time></trkpt><trkpt lat="45.4819617" lon="8.7470018"><ele>148.0</ele><time>2026-04-12T16:18:54.928Z</time></trkpt><trkpt lat="45.4821284" lon="8.7468087"><ele>148.0</ele><time>2026-04-12T16:18:55.93Z</time></trkpt><trkpt lat="45.4822998" lon="8.7466101"><ele>147.66666666666669</ele><time>2026-04-12T16:18:56.929Z</time></trkpt><trkpt lat="45.4824741" lon="8.7464045"><ele>147.33333333333334</ele><time>2026-04-12T16:18:57.928Z</time></trkpt><trkpt lat="45.4826351" lon="8.7462167"><ele>147.0</ele><time>2026-04-12T16:18:58.928Z</time></trkpt><trkpt lat="45.4827873" lon="8.7460415"><ele>147.33333333333334</ele><time>2026-04-12T16:18:59.928Z</time></trkpt><trkpt lat="45.4829303" lon="8.7458859"><ele>147.66666666666669</ele><time>2026-04-12T16:19:00.93Z</time></trkpt><trkpt lat="45.4830618" lon="8.7457462"><ele>148.0</ele><time>2026-04-12T16:19:01.929Z</time></trkpt><trkpt lat="45.4831853" lon="8.7456042"><ele>148.0</ele><time>2026-04-12T16:19:02.928Z</time></trkpt><trkpt lat="45.4833149" lon="8.7454566"><ele>148.0</ele><time>2026-04-12T16:19:03.928Z</time></trkpt><trkpt lat="45.4835855" lon="8.7451464"><ele>148.33333333333334</ele><time>2026-04-12T16:19:05.929Z</time></trkpt><trkpt lat="45.4837268" lon="8.7449811"><ele>148.66666666666666</ele><time>2026-04-12T16:19:06.928Z</time></trkpt><trkpt lat="45.483871" lon="8.7448128"><ele>149.0</ele><time>2026-04-12T16:19:07.929Z</time></trkpt><trkpt lat="45.4840187" lon="8.7446389"><ele>150.66666666666666</ele><time>2026-04-12T16:19:08.929Z</time></trkpt><trkpt lat="45.4841667" lon="8.7444701"><ele>152.33333333333334</ele><time>2026-04-12T16:19:09.928Z</time></trkpt><trkpt lat="45.4843266" lon="8.7442918"><ele>154.0</ele><time>2026-04-12T16:19:10.929Z</time></trkpt><trkpt lat="45.4844786" lon="8.7441185"><ele>154.0</ele><time>2026-04-12T16:19:11.928Z</time></trkpt><trkpt lat="45.4846304" lon="8.7439546"><ele>154.0</ele><time>2026-04-12T16:19:12.929Z</time></trkpt><trkpt lat="45.4847647" lon="8.7438009"><ele>154.0</ele><time>2026-04-12T16:19:13.928Z</time></trkpt><trkpt lat="45.4848906" lon="8.7436568"><ele>154.33333333333334</ele><time>2026-04-12T16:19:14.928Z</time></trkpt><trkpt lat="45.4850172" lon="8.7435097"><ele>154.66666666666666</ele><time>2026-04-12T16:19:15.93Z</time></trkpt><trkpt lat="45.485146" lon="8.7433626"><ele>155.0</ele><time>2026-04-12T16:19:16.929Z</time></trkpt><trkpt lat="45.4852687" lon="8.7432136"><ele>155.0</ele><time>2026-04-12T16:19:17.929Z</time></trkpt><trkpt lat="45.4853919" lon="8.7430696"><ele>155.0</ele><time>2026-04-12T16:19:18.93Z</time></trkpt><trkpt lat="45.4855203" lon="8.7429242"><ele>155.0</ele><time>2026-04-12T16:19:19.928Z</time></trkpt><trkpt lat="45.4856612" lon="8.7427744"><ele>155.0</ele><time>2026-04-12T16:19:20.929Z</time></trkpt><trkpt lat="45.4857956" lon="8.7426149"><ele>155.0</ele><time>2026-04-12T16:19:21.929Z</time></trkpt><trkpt lat="45.485941" lon="8.7424443"><ele>155.0</ele><time>2026-04-12T16:19:22.929Z</time></trkpt><trkpt lat="45.4860952" lon="8.7422663"><ele>155.0</ele><time>2026-04-12T16:19:23.929Z</time></trkpt><trkpt lat="45.4862566" lon="8.7420871"><ele>155.0</ele><time>2026-04-12T16:19:24.929Z</time></trkpt><trkpt lat="45.4866138" lon="8.741689"><ele>155.5</ele><time>2026-04-12T16:19:26.929Z</time></trkpt><trkpt lat="45.4867928" lon="8.741478"><ele>156.0</ele><time>2026-04-12T16:19:27.928Z</time></trkpt><trkpt lat="45.4869662" lon="8.7412788"><ele>155.33333333333334</ele><time>2026-04-12T16:19:28.93Z</time></trkpt><trkpt lat="45.4871289" lon="8.7410934"><ele>154.66666666666669</ele><time>2026-04-12T16:19:29.929Z</time></trkpt><trkpt lat="45.4872865" lon="8.740922"><ele>154.0</ele><time>2026-04-12T16:19:30.928Z</time></trkpt><trkpt lat="45.4874374" lon="8.7407559"><ele>153.33333333333334</ele><time>2026-04-12T16:19:31.928Z</time></trkpt><trkpt lat="45.4875779" lon="8.7405932"><ele>152.66666666666666</ele><time>2026-04-12T16:19:32.93Z</time></trkpt><trkpt lat="45.4877141" lon="8.7404418"><ele>152.0</ele><time>2026-04-12T16:19:33.928Z</time></trkpt><trkpt lat="45.4878541" lon="8.7402926"><ele>152.0</ele><time>2026-04-12T16:19:34.928Z</time></trkpt><trkpt lat="45.4879832" lon="8.740152"><ele>152.0</ele><time>2026-04-12T16:19:35.929Z</time></trkpt><trkpt lat="45.4881093" lon="8.7400102"><ele>152.0</ele><time>2026-04-12T16:19:36.928Z</time></trkpt><trkpt lat="45.488237" lon="8.7398614"><ele>152.0</ele><time>2026-04-12T16:19:37.929Z</time></trkpt><trkpt lat="45.4883621" lon="8.7397068"><ele>152.0</ele><time>2026-04-12T16:19:38.928Z</time></trkpt><trkpt lat="45.4884915" lon="8.7395534"><ele>152.0</ele><time>2026-04-12T16:19:39.928Z</time></trkpt><trkpt lat="45.4886225" lon="8.7394065"><ele>152.0</ele><time>2026-04-12T16:19:40.928Z</time></trkpt><trkpt lat="45.4887502" lon="8.7392642"><ele>152.0</ele><time>2026-04-12T16:19:41.929Z</time></trkpt><trkpt lat="45.4888758" lon="8.7391216"><ele>152.0</ele><time>2026-04-12T16:19:42.929Z</time></trkpt><trkpt lat="45.4889935" lon="8.7389828"><ele>152.0</ele><time>2026-04-12T16:19:43.929Z</time></trkpt><trkpt lat="45.4891066" lon="8.738855"><ele>152.0</ele><time>2026-04-12T16:19:44.928Z</time></trkpt><trkpt lat="45.4892114" lon="8.7387395"><ele>152.0</ele><time>2026-04-12T16:19:45.928Z</time></trkpt><trkpt lat="45.4893945" lon="8.7385132"><ele>151.79999999999998</ele><time>2026-04-12T16:19:47.929Z</time></trkpt><trkpt lat="45.4894834" lon="8.7384001"><ele>151.6</ele><time>2026-04-12T16:19:48.928Z</time></trkpt><trkpt lat="45.4895661" lon="8.738313"><ele>151.39999999999998</ele><time>2026-04-12T16:19:49.928Z</time></trkpt><trkpt lat="45.4896417" lon="8.7382259"><ele>151.2</ele><time>2026-04-12T16:19:50.928Z</time></trkpt><trkpt lat="45.4897106" lon="8.7381584"><ele>151.0</ele><time>2026-04-12T16:19:51.928Z</time></trkpt><trkpt lat="45.4897717" lon="8.7380798"><ele>151.66666666666669</ele><time>2026-04-12T16:19:52.93Z</time></trkpt><trkpt lat="45.4898313" lon="8.7380166"><ele>152.33333333333334</ele><time>2026-04-12T16:19:53.928Z</time></trkpt><trkpt lat="45.4898937" lon="8.73795"><ele>153.0</ele><time>2026-04-12T16:19:54.928Z</time></trkpt><trkpt lat="45.4899629" lon="8.7378754"><ele>153.66666666666666</ele><time>2026-04-12T16:19:55.93Z</time></trkpt><trkpt lat="45.4900383" lon="8.7377908"><ele>154.33333333333331</ele><time>2026-04-12T16:19:56.929Z</time></trkpt><trkpt lat="45.4901136" lon="8.7377169"><ele>155.0</ele><time>2026-04-12T16:19:57.928Z</time></trkpt><trkpt lat="45.4901891" lon="8.7376227"><ele>155.0</ele><time>2026-04-12T16:19:58.929Z</time></trkpt><trkpt lat="45.4902657" lon="8.737527"><ele>155.0</ele><time>2026-04-12T16:19:59.929Z</time></trkpt><trkpt lat="45.4903591" lon="8.7374247"><ele>155.0</ele><time>2026-04-12T16:20:00.929Z</time></trkpt><trkpt lat="45.4904466" lon="8.7373173"><ele>155.0</ele><time>2026-04-12T16:20:01.928Z</time></trkpt><trkpt lat="45.4905275" lon="8.7372254"><ele>155.0</ele><time>2026-04-12T16:20:02.93Z</time></trkpt><trkpt lat="45.4905979" lon="8.7371382"><ele>155.4</ele><time>2026-04-12T16:20:03.929Z</time></trkpt><trkpt lat="45.490665" lon="8.737058"><ele>155.8</ele><time>2026-04-12T16:20:04.929Z</time></trkpt><trkpt lat="45.4907163" lon="8.7370056"><ele>156.2</ele><time>2026-04-12T16:20:05.929Z</time></trkpt><trkpt lat="45.4907807" lon="8.7369843"><ele>156.6</ele><time>2026-04-12T16:20:07.928Z</time></trkpt><trkpt lat="45.4908751" lon="8.7372247"><ele>157.0</ele><time>2026-04-12T16:20:12.929Z</time></trkpt><trkpt lat="45.4909325" lon="8.7373869"><ele>157.0</ele><time>2026-04-12T16:20:14.929Z</time></trkpt><trkpt lat="45.490975" lon="8.7374793"><ele>157.0</ele><time>2026-04-12T16:20:15.93Z</time></trkpt><trkpt lat="45.4910186" lon="8.7375906"><ele>157.0</ele><time>2026-04-12T16:20:16.929Z</time></trkpt><trkpt lat="45.4910593" lon="8.7377178"><ele>157.0</ele><time>2026-04-12T16:20:17.928Z</time></trkpt><trkpt lat="45.4910952" lon="8.7378509"><ele>157.0</ele><time>2026-04-12T16:20:18.93Z</time></trkpt><trkpt lat="45.4911234" lon="8.7379821"><ele>156.5</ele><time>2026-04-12T16:20:19.928Z</time></trkpt><trkpt lat="45.4911462" lon="8.7381062"><ele>156.0</ele><time>2026-04-12T16:20:20.929Z</time></trkpt><trkpt lat="45.4911654" lon="8.7382309"><ele>155.5</ele><time>2026-04-12T16:20:21.928Z</time></trkpt><trkpt lat="45.4911682" lon="8.7383366"><ele>155.0</ele><time>2026-04-12T16:20:22.928Z</time></trkpt><trkpt lat="45.4911467" lon="8.7384327"><ele>154.5</ele><time>2026-04-12T16:20:23.928Z</time></trkpt><trkpt lat="45.4911043" lon="8.7385137"><ele>154.0</ele><time>2026-04-12T16:20:24.929Z</time></trkpt><trkpt lat="45.4910407" lon="8.7385877"><ele>138.0</ele><time>2026-04-12T16:20:25.928Z</time></trkpt></trkseg></trk></gpx>